<?xml version="1.0" encoding="UTF-8" standalone="no" ?>
<gpx xmlns="http://www.topografix.com/GPX/1/1" xmlns:xsi="http://www.w3.org/2001/XMLSchema-instance" xsi:schemaLocation="http://www.topografix.com/GPX/1/1 http://www.topografix.com/GPX/1/1/gpx.xsd" version="1.1" creator="VisuGPX - https://www.visugpx.com">
  <metadata>
    <name>Arlay Lombard Par Les Etangs</name>
    <desc><![CDATA[Arlay Lombard Par Les Etangs]]></desc>
  </metadata>
  <wpt lat="46.78839" lon="5.51746">
    <ele>285.9</ele>
    <name><![CDATA[Etang Monseigneur]]></name>
    <desc><![CDATA[]]></desc>
  </wpt>
  <wpt lat="46.79758" lon="5.51734">
    <ele>276</ele>
    <name><![CDATA[L etang Bouchaille]]></name>
    <desc><![CDATA[]]></desc>
  </wpt>
  <wpt lat="46.79229" lon="5.5127">
    <ele>285.7</ele>
    <name><![CDATA[Etang Neuf]]></name>
    <desc><![CDATA[]]></desc>
  </wpt>
  <trk>
    <name><![CDATA[Arlay Lombard Par Les Etangs]]></name>
    <desc><![CDATA[]]></desc>
    <trkseg>
      <trkpt lat="46.76202" lon="5.53564">
        <ele>273.4</ele>
        <time>2012-11-24T12:51:10.000Z</time>
      </trkpt>
      <trkpt lat="46.76205" lon="5.53562">
        <ele>270.7</ele>
        <time>2012-11-24T12:51:15.000Z</time>
      </trkpt>
      <trkpt lat="46.76206" lon="5.53561">
        <ele>270.4</ele>
        <time>2012-11-24T12:51:16.000Z</time>
      </trkpt>
      <trkpt lat="46.7621" lon="5.53562">
        <ele>267.5</ele>
        <time>2012-11-24T12:51:24.000Z</time>
      </trkpt>
      <trkpt lat="46.76211" lon="5.53562">
        <ele>266.7</ele>
        <time>2012-11-24T12:51:25.000Z</time>
      </trkpt>
      <trkpt lat="46.76214" lon="5.5356">
        <ele>259.9</ele>
        <time>2012-11-24T12:51:27.000Z</time>
      </trkpt>
      <trkpt lat="46.76216" lon="5.53559">
        <ele>260.4</ele>
        <time>2012-11-24T12:51:28.000Z</time>
      </trkpt>
      <trkpt lat="46.76219" lon="5.53555">
        <ele>260.1</ele>
        <time>2012-11-24T12:51:30.000Z</time>
      </trkpt>
      <trkpt lat="46.7622" lon="5.53553">
        <ele>260.4</ele>
        <time>2012-11-24T12:51:31.000Z</time>
      </trkpt>
      <trkpt lat="46.76223" lon="5.5355">
        <ele>261.4</ele>
        <time>2012-11-24T12:51:33.000Z</time>
      </trkpt>
      <trkpt lat="46.76225" lon="5.53549">
        <ele>261.9</ele>
        <time>2012-11-24T12:51:34.000Z</time>
      </trkpt>
      <trkpt lat="46.76228" lon="5.53545">
        <ele>262.6</ele>
        <time>2012-11-24T12:51:38.000Z</time>
      </trkpt>
      <trkpt lat="46.76229" lon="5.53545">
        <ele>262.7</ele>
        <time>2012-11-24T12:51:39.000Z</time>
      </trkpt>
      <trkpt lat="46.76232" lon="5.53543">
        <ele>264.4</ele>
        <time>2012-11-24T12:51:41.000Z</time>
      </trkpt>
      <trkpt lat="46.76233" lon="5.53542">
        <ele>265.2</ele>
        <time>2012-11-24T12:51:42.000Z</time>
      </trkpt>
      <trkpt lat="46.76237" lon="5.5354">
        <ele>265.4</ele>
        <time>2012-11-24T12:51:45.000Z</time>
      </trkpt>
      <trkpt lat="46.76239" lon="5.53539">
        <ele>265.5</ele>
        <time>2012-11-24T12:51:46.000Z</time>
      </trkpt>
      <trkpt lat="46.76242" lon="5.53539">
        <ele>267</ele>
        <time>2012-11-24T12:51:49.000Z</time>
      </trkpt>
      <trkpt lat="46.76243" lon="5.53539">
        <ele>267</ele>
        <time>2012-11-24T12:51:50.000Z</time>
      </trkpt>
      <trkpt lat="46.76248" lon="5.53538">
        <ele>267.9</ele>
        <time>2012-11-24T12:51:54.000Z</time>
      </trkpt>
      <trkpt lat="46.76249" lon="5.53538">
        <ele>268.2</ele>
        <time>2012-11-24T12:51:55.000Z</time>
      </trkpt>
      <trkpt lat="46.76253" lon="5.53538">
        <ele>268.8</ele>
        <time>2012-11-24T12:51:59.000Z</time>
      </trkpt>
      <trkpt lat="46.76254" lon="5.53538">
        <ele>269.2</ele>
        <time>2012-11-24T12:52:00.000Z</time>
      </trkpt>
      <trkpt lat="46.76258" lon="5.53537">
        <ele>269.9</ele>
        <time>2012-11-24T12:52:04.000Z</time>
      </trkpt>
      <trkpt lat="46.76259" lon="5.53537">
        <ele>270.1</ele>
        <time>2012-11-24T12:52:05.000Z</time>
      </trkpt>
      <trkpt lat="46.76263" lon="5.53536">
        <ele>270.8</ele>
        <time>2012-11-24T12:52:09.000Z</time>
      </trkpt>
      <trkpt lat="46.76264" lon="5.53536">
        <ele>270.9</ele>
        <time>2012-11-24T12:52:10.000Z</time>
      </trkpt>
      <trkpt lat="46.76267" lon="5.53535">
        <ele>271</ele>
        <time>2012-11-24T12:52:14.000Z</time>
      </trkpt>
      <trkpt lat="46.76268" lon="5.53535">
        <ele>271.1</ele>
        <time>2012-11-24T12:52:15.000Z</time>
      </trkpt>
      <trkpt lat="46.76272" lon="5.53533">
        <ele>271.2</ele>
        <time>2012-11-24T12:52:19.000Z</time>
      </trkpt>
      <trkpt lat="46.76273" lon="5.53533">
        <ele>271.2</ele>
        <time>2012-11-24T12:52:20.000Z</time>
      </trkpt>
      <trkpt lat="46.76277" lon="5.53533">
        <ele>271.1</ele>
        <time>2012-11-24T12:52:24.000Z</time>
      </trkpt>
      <trkpt lat="46.76278" lon="5.53533">
        <ele>271.1</ele>
        <time>2012-11-24T12:52:25.000Z</time>
      </trkpt>
      <trkpt lat="46.76282" lon="5.53532">
        <ele>270.8</ele>
        <time>2012-11-24T12:52:29.000Z</time>
      </trkpt>
      <trkpt lat="46.76283" lon="5.53532">
        <ele>270.8</ele>
        <time>2012-11-24T12:52:30.000Z</time>
      </trkpt>
      <trkpt lat="46.76287" lon="5.53531">
        <ele>270.8</ele>
        <time>2012-11-24T12:52:34.000Z</time>
      </trkpt>
      <trkpt lat="46.76288" lon="5.53531">
        <ele>270.7</ele>
        <time>2012-11-24T12:52:35.000Z</time>
      </trkpt>
      <trkpt lat="46.76292" lon="5.5353">
        <ele>270.7</ele>
        <time>2012-11-24T12:52:39.000Z</time>
      </trkpt>
      <trkpt lat="46.76293" lon="5.5353">
        <ele>270.7</ele>
        <time>2012-11-24T12:52:40.000Z</time>
      </trkpt>
      <trkpt lat="46.76297" lon="5.53528">
        <ele>270.9</ele>
        <time>2012-11-24T12:52:44.000Z</time>
      </trkpt>
      <trkpt lat="46.76298" lon="5.53528">
        <ele>270.9</ele>
        <time>2012-11-24T12:52:45.000Z</time>
      </trkpt>
      <trkpt lat="46.76302" lon="5.53528">
        <ele>270</ele>
        <time>2012-11-24T12:52:49.000Z</time>
      </trkpt>
      <trkpt lat="46.76304" lon="5.53528">
        <ele>270</ele>
        <time>2012-11-24T12:52:50.000Z</time>
      </trkpt>
      <trkpt lat="46.76307" lon="5.53529">
        <ele>269.3</ele>
        <time>2012-11-24T12:52:53.000Z</time>
      </trkpt>
      <trkpt lat="46.76309" lon="5.53529">
        <ele>269.1</ele>
        <time>2012-11-24T12:52:54.000Z</time>
      </trkpt>
      <trkpt lat="46.76311" lon="5.53528">
        <ele>268.6</ele>
        <time>2012-11-24T12:52:56.000Z</time>
      </trkpt>
      <trkpt lat="46.76315" lon="5.53528">
        <ele>268.6</ele>
        <time>2012-11-24T12:52:57.000Z</time>
      </trkpt>
      <trkpt lat="46.76319" lon="5.53524">
        <ele>267.9</ele>
        <time>2012-11-24T12:53:04.000Z</time>
      </trkpt>
      <trkpt lat="46.7632" lon="5.53523">
        <ele>267.7</ele>
        <time>2012-11-24T12:53:05.000Z</time>
      </trkpt>
      <trkpt lat="46.76324" lon="5.53522">
        <ele>267.3</ele>
        <time>2012-11-24T12:53:09.000Z</time>
      </trkpt>
      <trkpt lat="46.76325" lon="5.53522">
        <ele>267.2</ele>
        <time>2012-11-24T12:53:10.000Z</time>
      </trkpt>
      <trkpt lat="46.76329" lon="5.5352">
        <ele>266.8</ele>
        <time>2012-11-24T12:53:14.000Z</time>
      </trkpt>
      <trkpt lat="46.7633" lon="5.53519">
        <ele>266.7</ele>
        <time>2012-11-24T12:53:15.000Z</time>
      </trkpt>
      <trkpt lat="46.76334" lon="5.53518">
        <ele>266.5</ele>
        <time>2012-11-24T12:53:19.000Z</time>
      </trkpt>
      <trkpt lat="46.76335" lon="5.53517">
        <ele>266.4</ele>
        <time>2012-11-24T12:53:20.000Z</time>
      </trkpt>
      <trkpt lat="46.7634" lon="5.53515">
        <ele>266.6</ele>
        <time>2012-11-24T12:53:24.000Z</time>
      </trkpt>
      <trkpt lat="46.76341" lon="5.53515">
        <ele>266.7</ele>
        <time>2012-11-24T12:53:25.000Z</time>
      </trkpt>
      <trkpt lat="46.76345" lon="5.53514">
        <ele>266.8</ele>
        <time>2012-11-24T12:53:29.000Z</time>
      </trkpt>
      <trkpt lat="46.76346" lon="5.53514">
        <ele>266.7</ele>
        <time>2012-11-24T12:53:30.000Z</time>
      </trkpt>
      <trkpt lat="46.76349" lon="5.53512">
        <ele>266.9</ele>
        <time>2012-11-24T12:53:34.000Z</time>
      </trkpt>
      <trkpt lat="46.7635" lon="5.53511">
        <ele>266.8</ele>
        <time>2012-11-24T12:53:35.000Z</time>
      </trkpt>
      <trkpt lat="46.76354" lon="5.5351">
        <ele>266.9</ele>
        <time>2012-11-24T12:53:38.000Z</time>
      </trkpt>
      <trkpt lat="46.76355" lon="5.5351">
        <ele>266.9</ele>
        <time>2012-11-24T12:53:39.000Z</time>
      </trkpt>
      <trkpt lat="46.76358" lon="5.53509">
        <ele>267.1</ele>
        <time>2012-11-24T12:53:42.000Z</time>
      </trkpt>
      <trkpt lat="46.76359" lon="5.53509">
        <ele>267.1</ele>
        <time>2012-11-24T12:53:43.000Z</time>
      </trkpt>
      <trkpt lat="46.76364" lon="5.53507">
        <ele>267.1</ele>
        <time>2012-11-24T12:53:47.000Z</time>
      </trkpt>
      <trkpt lat="46.76365" lon="5.53507">
        <ele>267.1</ele>
        <time>2012-11-24T12:53:48.000Z</time>
      </trkpt>
      <trkpt lat="46.76368" lon="5.53507">
        <ele>266.9</ele>
        <time>2012-11-24T12:53:51.000Z</time>
      </trkpt>
      <trkpt lat="46.76369" lon="5.53507">
        <ele>266.9</ele>
        <time>2012-11-24T12:53:52.000Z</time>
      </trkpt>
      <trkpt lat="46.76373" lon="5.53506">
        <ele>267</ele>
        <time>2012-11-24T12:53:55.000Z</time>
      </trkpt>
      <trkpt lat="46.76374" lon="5.53506">
        <ele>267.2</ele>
        <time>2012-11-24T12:53:56.000Z</time>
      </trkpt>
      <trkpt lat="46.76377" lon="5.53505">
        <ele>267.6</ele>
        <time>2012-11-24T12:53:59.000Z</time>
      </trkpt>
      <trkpt lat="46.76379" lon="5.53505">
        <ele>267.6</ele>
        <time>2012-11-24T12:54:00.000Z</time>
      </trkpt>
      <trkpt lat="46.76382" lon="5.53504">
        <ele>267.6</ele>
        <time>2012-11-24T12:54:03.000Z</time>
      </trkpt>
      <trkpt lat="46.76383" lon="5.53504">
        <ele>267.6</ele>
        <time>2012-11-24T12:54:04.000Z</time>
      </trkpt>
      <trkpt lat="46.76387" lon="5.53502">
        <ele>266.8</ele>
        <time>2012-11-24T12:54:08.000Z</time>
      </trkpt>
      <trkpt lat="46.76388" lon="5.53502">
        <ele>266.7</ele>
        <time>2012-11-24T12:54:09.000Z</time>
      </trkpt>
      <trkpt lat="46.76392" lon="5.53502">
        <ele>267</ele>
        <time>2012-11-24T12:54:13.000Z</time>
      </trkpt>
      <trkpt lat="46.76393" lon="5.53502">
        <ele>267.4</ele>
        <time>2012-11-24T12:54:14.000Z</time>
      </trkpt>
      <trkpt lat="46.76397" lon="5.53501">
        <ele>268.2</ele>
        <time>2012-11-24T12:54:18.000Z</time>
      </trkpt>
      <trkpt lat="46.76398" lon="5.53502">
        <ele>268.5</ele>
        <time>2012-11-24T12:54:19.000Z</time>
      </trkpt>
      <trkpt lat="46.76401" lon="5.53503">
        <ele>268.3</ele>
        <time>2012-11-24T12:54:31.000Z</time>
      </trkpt>
      <trkpt lat="46.76402" lon="5.53503">
        <ele>267.7</ele>
        <time>2012-11-24T12:54:32.000Z</time>
      </trkpt>
      <trkpt lat="46.76406" lon="5.53503">
        <ele>265.5</ele>
        <time>2012-11-24T12:54:37.000Z</time>
      </trkpt>
      <trkpt lat="46.76407" lon="5.53503">
        <ele>264.9</ele>
        <time>2012-11-24T12:54:38.000Z</time>
      </trkpt>
      <trkpt lat="46.76411" lon="5.53501">
        <ele>265.8</ele>
        <time>2012-11-24T12:54:42.000Z</time>
      </trkpt>
      <trkpt lat="46.76412" lon="5.53501">
        <ele>266</ele>
        <time>2012-11-24T12:54:43.000Z</time>
      </trkpt>
      <trkpt lat="46.76416" lon="5.53498">
        <ele>267.3</ele>
        <time>2012-11-24T12:54:47.000Z</time>
      </trkpt>
      <trkpt lat="46.76416" lon="5.53498">
        <ele>267.3</ele>
        <time>2012-11-24T12:54:48.000Z</time>
      </trkpt>
      <trkpt lat="46.7642" lon="5.53497">
        <ele>267.1</ele>
        <time>2012-11-24T12:54:52.000Z</time>
      </trkpt>
      <trkpt lat="46.76421" lon="5.53497">
        <ele>266.9</ele>
        <time>2012-11-24T12:54:53.000Z</time>
      </trkpt>
      <trkpt lat="46.76425" lon="5.53496">
        <ele>267</ele>
        <time>2012-11-24T12:54:57.000Z</time>
      </trkpt>
      <trkpt lat="46.76426" lon="5.53496">
        <ele>267</ele>
        <time>2012-11-24T12:54:58.000Z</time>
      </trkpt>
      <trkpt lat="46.7643" lon="5.53495">
        <ele>266.9</ele>
        <time>2012-11-24T12:55:01.000Z</time>
      </trkpt>
      <trkpt lat="46.76431" lon="5.53495">
        <ele>266.9</ele>
        <time>2012-11-24T12:55:02.000Z</time>
      </trkpt>
      <trkpt lat="46.76434" lon="5.53495">
        <ele>266.9</ele>
        <time>2012-11-24T12:55:05.000Z</time>
      </trkpt>
      <trkpt lat="46.76435" lon="5.53495">
        <ele>267</ele>
        <time>2012-11-24T12:55:06.000Z</time>
      </trkpt>
      <trkpt lat="46.76439" lon="5.53494">
        <ele>266.9</ele>
        <time>2012-11-24T12:55:09.000Z</time>
      </trkpt>
      <trkpt lat="46.7644" lon="5.53494">
        <ele>266.9</ele>
        <time>2012-11-24T12:55:10.000Z</time>
      </trkpt>
      <trkpt lat="46.76444" lon="5.53493">
        <ele>266.9</ele>
        <time>2012-11-24T12:55:14.000Z</time>
      </trkpt>
      <trkpt lat="46.76445" lon="5.53493">
        <ele>266.9</ele>
        <time>2012-11-24T12:55:15.000Z</time>
      </trkpt>
      <trkpt lat="46.76449" lon="5.53493">
        <ele>267.1</ele>
        <time>2012-11-24T12:55:18.000Z</time>
      </trkpt>
      <trkpt lat="46.7645" lon="5.53494">
        <ele>267.2</ele>
        <time>2012-11-24T12:55:19.000Z</time>
      </trkpt>
      <trkpt lat="46.76454" lon="5.53493">
        <ele>267.3</ele>
        <time>2012-11-24T12:55:23.000Z</time>
      </trkpt>
      <trkpt lat="46.76455" lon="5.53494">
        <ele>267.4</ele>
        <time>2012-11-24T12:55:24.000Z</time>
      </trkpt>
      <trkpt lat="46.76459" lon="5.53493">
        <ele>267.9</ele>
        <time>2012-11-24T12:55:28.000Z</time>
      </trkpt>
      <trkpt lat="46.7646" lon="5.53493">
        <ele>268</ele>
        <time>2012-11-24T12:55:29.000Z</time>
      </trkpt>
      <trkpt lat="46.76465" lon="5.53493">
        <ele>268.5</ele>
        <time>2012-11-24T12:55:33.000Z</time>
      </trkpt>
      <trkpt lat="46.76466" lon="5.53493">
        <ele>268.6</ele>
        <time>2012-11-24T12:55:34.000Z</time>
      </trkpt>
      <trkpt lat="46.7647" lon="5.53493">
        <ele>268.7</ele>
        <time>2012-11-24T12:55:38.000Z</time>
      </trkpt>
      <trkpt lat="46.76471" lon="5.53493">
        <ele>268.8</ele>
        <time>2012-11-24T12:55:39.000Z</time>
      </trkpt>
      <trkpt lat="46.76475" lon="5.53493">
        <ele>268.9</ele>
        <time>2012-11-24T12:55:42.000Z</time>
      </trkpt>
      <trkpt lat="46.76476" lon="5.53493">
        <ele>269</ele>
        <time>2012-11-24T12:55:43.000Z</time>
      </trkpt>
      <trkpt lat="46.76479" lon="5.53492">
        <ele>269</ele>
        <time>2012-11-24T12:55:46.000Z</time>
      </trkpt>
      <trkpt lat="46.7648" lon="5.53492">
        <ele>269</ele>
        <time>2012-11-24T12:55:47.000Z</time>
      </trkpt>
      <trkpt lat="46.76484" lon="5.53492">
        <ele>269.3</ele>
        <time>2012-11-24T12:55:50.000Z</time>
      </trkpt>
      <trkpt lat="46.76485" lon="5.53492">
        <ele>269.4</ele>
        <time>2012-11-24T12:55:51.000Z</time>
      </trkpt>
      <trkpt lat="46.76489" lon="5.53492">
        <ele>269.4</ele>
        <time>2012-11-24T12:55:54.000Z</time>
      </trkpt>
      <trkpt lat="46.7649" lon="5.53492">
        <ele>269.4</ele>
        <time>2012-11-24T12:55:55.000Z</time>
      </trkpt>
      <trkpt lat="46.76493" lon="5.53492">
        <ele>269.7</ele>
        <time>2012-11-24T12:55:58.000Z</time>
      </trkpt>
      <trkpt lat="46.76495" lon="5.53492">
        <ele>269.7</ele>
        <time>2012-11-24T12:55:59.000Z</time>
      </trkpt>
      <trkpt lat="46.76498" lon="5.53492">
        <ele>270</ele>
        <time>2012-11-24T12:56:02.000Z</time>
      </trkpt>
      <trkpt lat="46.76499" lon="5.53492">
        <ele>270</ele>
        <time>2012-11-24T12:56:03.000Z</time>
      </trkpt>
      <trkpt lat="46.76503" lon="5.53491">
        <ele>269.9</ele>
        <time>2012-11-24T12:56:06.000Z</time>
      </trkpt>
      <trkpt lat="46.76504" lon="5.53491">
        <ele>270.1</ele>
        <time>2012-11-24T12:56:07.000Z</time>
      </trkpt>
      <trkpt lat="46.76508" lon="5.53491">
        <ele>270.4</ele>
        <time>2012-11-24T12:56:10.000Z</time>
      </trkpt>
      <trkpt lat="46.76509" lon="5.53491">
        <ele>270.5</ele>
        <time>2012-11-24T12:56:11.000Z</time>
      </trkpt>
      <trkpt lat="46.76513" lon="5.5349">
        <ele>270.7</ele>
        <time>2012-11-24T12:56:14.000Z</time>
      </trkpt>
      <trkpt lat="46.76514" lon="5.5349">
        <ele>270.7</ele>
        <time>2012-11-24T12:56:15.000Z</time>
      </trkpt>
      <trkpt lat="46.76518" lon="5.53491">
        <ele>270.6</ele>
        <time>2012-11-24T12:56:19.000Z</time>
      </trkpt>
      <trkpt lat="46.76519" lon="5.53491">
        <ele>270.6</ele>
        <time>2012-11-24T12:56:20.000Z</time>
      </trkpt>
      <trkpt lat="46.76523" lon="5.53491">
        <ele>270.5</ele>
        <time>2012-11-24T12:56:23.000Z</time>
      </trkpt>
      <trkpt lat="46.76524" lon="5.53491">
        <ele>270.6</ele>
        <time>2012-11-24T12:56:24.000Z</time>
      </trkpt>
      <trkpt lat="46.76528" lon="5.53491">
        <ele>270.9</ele>
        <time>2012-11-24T12:56:27.000Z</time>
      </trkpt>
      <trkpt lat="46.76529" lon="5.53491">
        <ele>270.9</ele>
        <time>2012-11-24T12:56:28.000Z</time>
      </trkpt>
      <trkpt lat="46.76533" lon="5.53491">
        <ele>270.8</ele>
        <time>2012-11-24T12:56:32.000Z</time>
      </trkpt>
      <trkpt lat="46.76534" lon="5.53491">
        <ele>270.8</ele>
        <time>2012-11-24T12:56:33.000Z</time>
      </trkpt>
      <trkpt lat="46.76538" lon="5.53491">
        <ele>271</ele>
        <time>2012-11-24T12:56:37.000Z</time>
      </trkpt>
      <trkpt lat="46.76539" lon="5.53491">
        <ele>271.1</ele>
        <time>2012-11-24T12:56:38.000Z</time>
      </trkpt>
      <trkpt lat="46.76543" lon="5.53489">
        <ele>271.2</ele>
        <time>2012-11-24T12:56:42.000Z</time>
      </trkpt>
      <trkpt lat="46.76544" lon="5.53489">
        <ele>271.2</ele>
        <time>2012-11-24T12:56:43.000Z</time>
      </trkpt>
      <trkpt lat="46.76548" lon="5.53489">
        <ele>271.8</ele>
        <time>2012-11-24T12:56:47.000Z</time>
      </trkpt>
      <trkpt lat="46.7655" lon="5.53489">
        <ele>271.8</ele>
        <time>2012-11-24T12:56:48.000Z</time>
      </trkpt>
      <trkpt lat="46.76554" lon="5.53489">
        <ele>272.7</ele>
        <time>2012-11-24T12:56:51.000Z</time>
      </trkpt>
      <trkpt lat="46.76555" lon="5.53488">
        <ele>273</ele>
        <time>2012-11-24T12:56:52.000Z</time>
      </trkpt>
      <trkpt lat="46.76559" lon="5.53487">
        <ele>273.8</ele>
        <time>2012-11-24T12:56:56.000Z</time>
      </trkpt>
      <trkpt lat="46.7656" lon="5.53487">
        <ele>274.1</ele>
        <time>2012-11-24T12:56:57.000Z</time>
      </trkpt>
      <trkpt lat="46.76565" lon="5.53486">
        <ele>275.3</ele>
        <time>2012-11-24T12:57:01.000Z</time>
      </trkpt>
      <trkpt lat="46.76566" lon="5.53486">
        <ele>275.7</ele>
        <time>2012-11-24T12:57:02.000Z</time>
      </trkpt>
      <trkpt lat="46.7657" lon="5.53486">
        <ele>277.1</ele>
        <time>2012-11-24T12:57:05.000Z</time>
      </trkpt>
      <trkpt lat="46.76571" lon="5.53486">
        <ele>277.4</ele>
        <time>2012-11-24T12:57:06.000Z</time>
      </trkpt>
      <trkpt lat="46.76575" lon="5.53488">
        <ele>278</ele>
        <time>2012-11-24T12:57:09.000Z</time>
      </trkpt>
      <trkpt lat="46.76577" lon="5.53489">
        <ele>278.1</ele>
        <time>2012-11-24T12:57:10.000Z</time>
      </trkpt>
      <trkpt lat="46.7658" lon="5.53492">
        <ele>277.5</ele>
        <time>2012-11-24T12:57:13.000Z</time>
      </trkpt>
      <trkpt lat="46.76581" lon="5.53492">
        <ele>277.4</ele>
        <time>2012-11-24T12:57:14.000Z</time>
      </trkpt>
      <trkpt lat="46.76584" lon="5.53495">
        <ele>276.7</ele>
        <time>2012-11-24T12:57:17.000Z</time>
      </trkpt>
      <trkpt lat="46.76585" lon="5.53496">
        <ele>276.7</ele>
        <time>2012-11-24T12:57:18.000Z</time>
      </trkpt>
      <trkpt lat="46.76589" lon="5.53499">
        <ele>276.3</ele>
        <time>2012-11-24T12:57:22.000Z</time>
      </trkpt>
      <trkpt lat="46.76589" lon="5.535">
        <ele>276.4</ele>
        <time>2012-11-24T12:57:23.000Z</time>
      </trkpt>
      <trkpt lat="46.76593" lon="5.53504">
        <ele>276.6</ele>
        <time>2012-11-24T12:57:27.000Z</time>
      </trkpt>
      <trkpt lat="46.76594" lon="5.53505">
        <ele>276.5</ele>
        <time>2012-11-24T12:57:28.000Z</time>
      </trkpt>
      <trkpt lat="46.76598" lon="5.53507">
        <ele>276.3</ele>
        <time>2012-11-24T12:57:32.000Z</time>
      </trkpt>
      <trkpt lat="46.76599" lon="5.53508">
        <ele>276.3</ele>
        <time>2012-11-24T12:57:33.000Z</time>
      </trkpt>
      <trkpt lat="46.76602" lon="5.5351">
        <ele>276.7</ele>
        <time>2012-11-24T12:57:36.000Z</time>
      </trkpt>
      <trkpt lat="46.76603" lon="5.53511">
        <ele>276.7</ele>
        <time>2012-11-24T12:57:37.000Z</time>
      </trkpt>
      <trkpt lat="46.76607" lon="5.53513">
        <ele>276.8</ele>
        <time>2012-11-24T12:57:40.000Z</time>
      </trkpt>
      <trkpt lat="46.76608" lon="5.53514">
        <ele>277</ele>
        <time>2012-11-24T12:57:41.000Z</time>
      </trkpt>
      <trkpt lat="46.76611" lon="5.53516">
        <ele>277.2</ele>
        <time>2012-11-24T12:57:44.000Z</time>
      </trkpt>
      <trkpt lat="46.76612" lon="5.53517">
        <ele>277.2</ele>
        <time>2012-11-24T12:57:45.000Z</time>
      </trkpt>
      <trkpt lat="46.76616" lon="5.53519">
        <ele>277.4</ele>
        <time>2012-11-24T12:57:48.000Z</time>
      </trkpt>
      <trkpt lat="46.76617" lon="5.5352">
        <ele>277.5</ele>
        <time>2012-11-24T12:57:49.000Z</time>
      </trkpt>
      <trkpt lat="46.7662" lon="5.53523">
        <ele>277.8</ele>
        <time>2012-11-24T12:57:52.000Z</time>
      </trkpt>
      <trkpt lat="46.76621" lon="5.53523">
        <ele>278.3</ele>
        <time>2012-11-24T12:57:53.000Z</time>
      </trkpt>
      <trkpt lat="46.76624" lon="5.53526">
        <ele>278.8</ele>
        <time>2012-11-24T12:57:56.000Z</time>
      </trkpt>
      <trkpt lat="46.76625" lon="5.53526">
        <ele>278.9</ele>
        <time>2012-11-24T12:57:57.000Z</time>
      </trkpt>
      <trkpt lat="46.76628" lon="5.53529">
        <ele>279.3</ele>
        <time>2012-11-24T12:58:00.000Z</time>
      </trkpt>
      <trkpt lat="46.76629" lon="5.5353">
        <ele>279.5</ele>
        <time>2012-11-24T12:58:01.000Z</time>
      </trkpt>
      <trkpt lat="46.76633" lon="5.53532">
        <ele>280.2</ele>
        <time>2012-11-24T12:58:05.000Z</time>
      </trkpt>
      <trkpt lat="46.76634" lon="5.53533">
        <ele>280.4</ele>
        <time>2012-11-24T12:58:06.000Z</time>
      </trkpt>
      <trkpt lat="46.76637" lon="5.53536">
        <ele>280.5</ele>
        <time>2012-11-24T12:58:09.000Z</time>
      </trkpt>
      <trkpt lat="46.76637" lon="5.53537">
        <ele>280.4</ele>
        <time>2012-11-24T12:58:10.000Z</time>
      </trkpt>
      <trkpt lat="46.7664" lon="5.5354">
        <ele>280.3</ele>
        <time>2012-11-24T12:58:13.000Z</time>
      </trkpt>
      <trkpt lat="46.76641" lon="5.53541">
        <ele>280.2</ele>
        <time>2012-11-24T12:58:14.000Z</time>
      </trkpt>
      <trkpt lat="46.76644" lon="5.53544">
        <ele>279.9</ele>
        <time>2012-11-24T12:58:17.000Z</time>
      </trkpt>
      <trkpt lat="46.76645" lon="5.53546">
        <ele>279.7</ele>
        <time>2012-11-24T12:58:18.000Z</time>
      </trkpt>
      <trkpt lat="46.76648" lon="5.53549">
        <ele>279.1</ele>
        <time>2012-11-24T12:58:22.000Z</time>
      </trkpt>
      <trkpt lat="46.76649" lon="5.5355">
        <ele>279</ele>
        <time>2012-11-24T12:58:23.000Z</time>
      </trkpt>
      <trkpt lat="46.76652" lon="5.53553">
        <ele>279</ele>
        <time>2012-11-24T12:58:27.000Z</time>
      </trkpt>
      <trkpt lat="46.76653" lon="5.53554">
        <ele>279.1</ele>
        <time>2012-11-24T12:58:28.000Z</time>
      </trkpt>
      <trkpt lat="46.76657" lon="5.53556">
        <ele>279.3</ele>
        <time>2012-11-24T12:58:31.000Z</time>
      </trkpt>
      <trkpt lat="46.76658" lon="5.53557">
        <ele>279.3</ele>
        <time>2012-11-24T12:58:32.000Z</time>
      </trkpt>
      <trkpt lat="46.76661" lon="5.53559">
        <ele>279.4</ele>
        <time>2012-11-24T12:58:35.000Z</time>
      </trkpt>
      <trkpt lat="46.76662" lon="5.53559">
        <ele>279.4</ele>
        <time>2012-11-24T12:58:36.000Z</time>
      </trkpt>
      <trkpt lat="46.76666" lon="5.53562">
        <ele>279.4</ele>
        <time>2012-11-24T12:58:40.000Z</time>
      </trkpt>
      <trkpt lat="46.76667" lon="5.53563">
        <ele>279.5</ele>
        <time>2012-11-24T12:58:41.000Z</time>
      </trkpt>
      <trkpt lat="46.76671" lon="5.53564">
        <ele>279.4</ele>
        <time>2012-11-24T12:58:45.000Z</time>
      </trkpt>
      <trkpt lat="46.76672" lon="5.53565">
        <ele>279.4</ele>
        <time>2012-11-24T12:58:46.000Z</time>
      </trkpt>
      <trkpt lat="46.76676" lon="5.53566">
        <ele>279.3</ele>
        <time>2012-11-24T12:58:50.000Z</time>
      </trkpt>
      <trkpt lat="46.76677" lon="5.53567">
        <ele>279.4</ele>
        <time>2012-11-24T12:58:51.000Z</time>
      </trkpt>
      <trkpt lat="46.76681" lon="5.53569">
        <ele>279.4</ele>
        <time>2012-11-24T12:58:55.000Z</time>
      </trkpt>
      <trkpt lat="46.76682" lon="5.53569">
        <ele>279.5</ele>
        <time>2012-11-24T12:58:56.000Z</time>
      </trkpt>
      <trkpt lat="46.76686" lon="5.5357">
        <ele>279.5</ele>
        <time>2012-11-24T12:59:00.000Z</time>
      </trkpt>
      <trkpt lat="46.76687" lon="5.5357">
        <ele>279.7</ele>
        <time>2012-11-24T12:59:01.000Z</time>
      </trkpt>
      <trkpt lat="46.76691" lon="5.5357">
        <ele>280.1</ele>
        <time>2012-11-24T12:59:04.000Z</time>
      </trkpt>
      <trkpt lat="46.76692" lon="5.53571">
        <ele>280.2</ele>
        <time>2012-11-24T12:59:05.000Z</time>
      </trkpt>
      <trkpt lat="46.76695" lon="5.53571">
        <ele>280.1</ele>
        <time>2012-11-24T12:59:08.000Z</time>
      </trkpt>
      <trkpt lat="46.76696" lon="5.53571">
        <ele>280.3</ele>
        <time>2012-11-24T12:59:09.000Z</time>
      </trkpt>
      <trkpt lat="46.767" lon="5.53572">
        <ele>280.2</ele>
        <time>2012-11-24T12:59:12.000Z</time>
      </trkpt>
      <trkpt lat="46.76701" lon="5.53572">
        <ele>280.2</ele>
        <time>2012-11-24T12:59:13.000Z</time>
      </trkpt>
      <trkpt lat="46.76705" lon="5.53574">
        <ele>280</ele>
        <time>2012-11-24T12:59:16.000Z</time>
      </trkpt>
      <trkpt lat="46.76706" lon="5.53574">
        <ele>279.9</ele>
        <time>2012-11-24T12:59:17.000Z</time>
      </trkpt>
      <trkpt lat="46.76709" lon="5.53575">
        <ele>279.9</ele>
        <time>2012-11-24T12:59:20.000Z</time>
      </trkpt>
      <trkpt lat="46.76711" lon="5.53575">
        <ele>279.9</ele>
        <time>2012-11-24T12:59:21.000Z</time>
      </trkpt>
      <trkpt lat="46.76714" lon="5.53576">
        <ele>279.8</ele>
        <time>2012-11-24T12:59:24.000Z</time>
      </trkpt>
      <trkpt lat="46.76715" lon="5.53576">
        <ele>279.6</ele>
        <time>2012-11-24T12:59:25.000Z</time>
      </trkpt>
      <trkpt lat="46.76719" lon="5.53577">
        <ele>279.5</ele>
        <time>2012-11-24T12:59:29.000Z</time>
      </trkpt>
      <trkpt lat="46.7672" lon="5.53577">
        <ele>279.5</ele>
        <time>2012-11-24T12:59:30.000Z</time>
      </trkpt>
      <trkpt lat="46.76724" lon="5.53578">
        <ele>279.6</ele>
        <time>2012-11-24T12:59:33.000Z</time>
      </trkpt>
      <trkpt lat="46.76725" lon="5.53578">
        <ele>279.5</ele>
        <time>2012-11-24T12:59:34.000Z</time>
      </trkpt>
      <trkpt lat="46.76729" lon="5.53579">
        <ele>279.7</ele>
        <time>2012-11-24T12:59:38.000Z</time>
      </trkpt>
      <trkpt lat="46.7673" lon="5.53579">
        <ele>279.8</ele>
        <time>2012-11-24T12:59:39.000Z</time>
      </trkpt>
      <trkpt lat="46.76733" lon="5.5358">
        <ele>280.2</ele>
        <time>2012-11-24T12:59:42.000Z</time>
      </trkpt>
      <trkpt lat="46.76734" lon="5.5358">
        <ele>280.1</ele>
        <time>2012-11-24T12:59:43.000Z</time>
      </trkpt>
      <trkpt lat="46.76738" lon="5.53581">
        <ele>280.2</ele>
        <time>2012-11-24T12:59:46.000Z</time>
      </trkpt>
      <trkpt lat="46.76739" lon="5.53581">
        <ele>280.3</ele>
        <time>2012-11-24T12:59:47.000Z</time>
      </trkpt>
      <trkpt lat="46.76742" lon="5.53582">
        <ele>280.6</ele>
        <time>2012-11-24T12:59:50.000Z</time>
      </trkpt>
      <trkpt lat="46.76744" lon="5.53582">
        <ele>280.6</ele>
        <time>2012-11-24T12:59:51.000Z</time>
      </trkpt>
      <trkpt lat="46.76747" lon="5.53583">
        <ele>281.1</ele>
        <time>2012-11-24T12:59:54.000Z</time>
      </trkpt>
      <trkpt lat="46.76749" lon="5.53584">
        <ele>281.2</ele>
        <time>2012-11-24T12:59:55.000Z</time>
      </trkpt>
      <trkpt lat="46.76752" lon="5.53585">
        <ele>281.5</ele>
        <time>2012-11-24T12:59:58.000Z</time>
      </trkpt>
      <trkpt lat="46.76753" lon="5.53585">
        <ele>281.7</ele>
        <time>2012-11-24T12:59:59.000Z</time>
      </trkpt>
      <trkpt lat="46.76756" lon="5.53586">
        <ele>282.1</ele>
        <time>2012-11-24T13:00:02.000Z</time>
      </trkpt>
      <trkpt lat="46.76758" lon="5.53586">
        <ele>282.2</ele>
        <time>2012-11-24T13:00:03.000Z</time>
      </trkpt>
      <trkpt lat="46.76761" lon="5.53587">
        <ele>282.3</ele>
        <time>2012-11-24T13:00:06.000Z</time>
      </trkpt>
      <trkpt lat="46.76762" lon="5.53587">
        <ele>282.5</ele>
        <time>2012-11-24T13:00:07.000Z</time>
      </trkpt>
      <trkpt lat="46.76766" lon="5.53589">
        <ele>282.8</ele>
        <time>2012-11-24T13:00:10.000Z</time>
      </trkpt>
      <trkpt lat="46.76767" lon="5.53589">
        <ele>282.8</ele>
        <time>2012-11-24T13:00:11.000Z</time>
      </trkpt>
      <trkpt lat="46.7677" lon="5.5359">
        <ele>283</ele>
        <time>2012-11-24T13:00:14.000Z</time>
      </trkpt>
      <trkpt lat="46.76771" lon="5.5359">
        <ele>283.1</ele>
        <time>2012-11-24T13:00:15.000Z</time>
      </trkpt>
      <trkpt lat="46.76775" lon="5.53591">
        <ele>283.2</ele>
        <time>2012-11-24T13:00:19.000Z</time>
      </trkpt>
      <trkpt lat="46.76776" lon="5.53591">
        <ele>283.2</ele>
        <time>2012-11-24T13:00:20.000Z</time>
      </trkpt>
      <trkpt lat="46.7678" lon="5.53593">
        <ele>283.1</ele>
        <time>2012-11-24T13:00:25.000Z</time>
      </trkpt>
      <trkpt lat="46.7678" lon="5.53594">
        <ele>283.2</ele>
        <time>2012-11-24T13:00:26.000Z</time>
      </trkpt>
      <trkpt lat="46.76784" lon="5.53596">
        <ele>283.3</ele>
        <time>2012-11-24T13:00:31.000Z</time>
      </trkpt>
      <trkpt lat="46.76785" lon="5.53596">
        <ele>283.3</ele>
        <time>2012-11-24T13:00:32.000Z</time>
      </trkpt>
      <trkpt lat="46.76788" lon="5.53598">
        <ele>283.5</ele>
        <time>2012-11-24T13:00:36.000Z</time>
      </trkpt>
      <trkpt lat="46.76789" lon="5.53598">
        <ele>283.5</ele>
        <time>2012-11-24T13:00:37.000Z</time>
      </trkpt>
      <trkpt lat="46.76793" lon="5.536">
        <ele>284</ele>
        <time>2012-11-24T13:00:41.000Z</time>
      </trkpt>
      <trkpt lat="46.76794" lon="5.536">
        <ele>284.1</ele>
        <time>2012-11-24T13:00:42.000Z</time>
      </trkpt>
      <trkpt lat="46.76798" lon="5.53601">
        <ele>284.5</ele>
        <time>2012-11-24T13:00:45.000Z</time>
      </trkpt>
      <trkpt lat="46.76799" lon="5.53602">
        <ele>284.6</ele>
        <time>2012-11-24T13:00:46.000Z</time>
      </trkpt>
      <trkpt lat="46.76803" lon="5.53603">
        <ele>284.6</ele>
        <time>2012-11-24T13:00:50.000Z</time>
      </trkpt>
      <trkpt lat="46.76804" lon="5.53604">
        <ele>284.8</ele>
        <time>2012-11-24T13:00:51.000Z</time>
      </trkpt>
      <trkpt lat="46.76807" lon="5.53605">
        <ele>285.3</ele>
        <time>2012-11-24T13:00:54.000Z</time>
      </trkpt>
      <trkpt lat="46.76808" lon="5.53606">
        <ele>285.5</ele>
        <time>2012-11-24T13:00:55.000Z</time>
      </trkpt>
      <trkpt lat="46.76813" lon="5.53608">
        <ele>285.4</ele>
        <time>2012-11-24T13:00:59.000Z</time>
      </trkpt>
      <trkpt lat="46.76814" lon="5.53608">
        <ele>285.5</ele>
        <time>2012-11-24T13:01:00.000Z</time>
      </trkpt>
      <trkpt lat="46.76818" lon="5.5361">
        <ele>285.8</ele>
        <time>2012-11-24T13:01:04.000Z</time>
      </trkpt>
      <trkpt lat="46.76819" lon="5.5361">
        <ele>285.9</ele>
        <time>2012-11-24T13:01:05.000Z</time>
      </trkpt>
      <trkpt lat="46.76823" lon="5.53612">
        <ele>286.4</ele>
        <time>2012-11-24T13:01:09.000Z</time>
      </trkpt>
      <trkpt lat="46.76825" lon="5.53613">
        <ele>286.4</ele>
        <time>2012-11-24T13:01:10.000Z</time>
      </trkpt>
      <trkpt lat="46.76829" lon="5.53615">
        <ele>287.3</ele>
        <time>2012-11-24T13:01:14.000Z</time>
      </trkpt>
      <trkpt lat="46.7683" lon="5.53616">
        <ele>287.5</ele>
        <time>2012-11-24T13:01:15.000Z</time>
      </trkpt>
      <trkpt lat="46.76833" lon="5.53618">
        <ele>287.8</ele>
        <time>2012-11-24T13:01:18.000Z</time>
      </trkpt>
      <trkpt lat="46.76834" lon="5.53618">
        <ele>287.8</ele>
        <time>2012-11-24T13:01:19.000Z</time>
      </trkpt>
      <trkpt lat="46.76838" lon="5.53619">
        <ele>288</ele>
        <time>2012-11-24T13:01:22.000Z</time>
      </trkpt>
      <trkpt lat="46.76839" lon="5.5362">
        <ele>288.2</ele>
        <time>2012-11-24T13:01:23.000Z</time>
      </trkpt>
      <trkpt lat="46.76843" lon="5.53623">
        <ele>288.8</ele>
        <time>2012-11-24T13:01:27.000Z</time>
      </trkpt>
      <trkpt lat="46.76844" lon="5.53623">
        <ele>288.9</ele>
        <time>2012-11-24T13:01:28.000Z</time>
      </trkpt>
      <trkpt lat="46.76847" lon="5.53625">
        <ele>289.4</ele>
        <time>2012-11-24T13:01:32.000Z</time>
      </trkpt>
      <trkpt lat="46.76849" lon="5.53626">
        <ele>289.6</ele>
        <time>2012-11-24T13:01:33.000Z</time>
      </trkpt>
      <trkpt lat="46.76852" lon="5.53628">
        <ele>290.4</ele>
        <time>2012-11-24T13:01:36.000Z</time>
      </trkpt>
      <trkpt lat="46.76853" lon="5.53628">
        <ele>290.7</ele>
        <time>2012-11-24T13:01:37.000Z</time>
      </trkpt>
      <trkpt lat="46.76857" lon="5.5363">
        <ele>290.7</ele>
        <time>2012-11-24T13:01:41.000Z</time>
      </trkpt>
      <trkpt lat="46.76858" lon="5.5363">
        <ele>290.7</ele>
        <time>2012-11-24T13:01:42.000Z</time>
      </trkpt>
      <trkpt lat="46.76862" lon="5.53632">
        <ele>290.7</ele>
        <time>2012-11-24T13:01:46.000Z</time>
      </trkpt>
      <trkpt lat="46.76863" lon="5.53633">
        <ele>290.6</ele>
        <time>2012-11-24T13:01:47.000Z</time>
      </trkpt>
      <trkpt lat="46.76866" lon="5.53634">
        <ele>290.7</ele>
        <time>2012-11-24T13:01:50.000Z</time>
      </trkpt>
      <trkpt lat="46.76867" lon="5.53635">
        <ele>290.7</ele>
        <time>2012-11-24T13:01:51.000Z</time>
      </trkpt>
      <trkpt lat="46.76871" lon="5.53636">
        <ele>291.1</ele>
        <time>2012-11-24T13:01:55.000Z</time>
      </trkpt>
      <trkpt lat="46.76872" lon="5.53636">
        <ele>291.1</ele>
        <time>2012-11-24T13:01:56.000Z</time>
      </trkpt>
      <trkpt lat="46.76877" lon="5.53636">
        <ele>291</ele>
        <time>2012-11-24T13:02:00.000Z</time>
      </trkpt>
      <trkpt lat="46.76878" lon="5.53636">
        <ele>290.9</ele>
        <time>2012-11-24T13:02:01.000Z</time>
      </trkpt>
      <trkpt lat="46.76881" lon="5.53637">
        <ele>290.9</ele>
        <time>2012-11-24T13:02:04.000Z</time>
      </trkpt>
      <trkpt lat="46.76882" lon="5.53636">
        <ele>290.8</ele>
        <time>2012-11-24T13:02:05.000Z</time>
      </trkpt>
      <trkpt lat="46.76887" lon="5.53636">
        <ele>290.5</ele>
        <time>2012-11-24T13:02:09.000Z</time>
      </trkpt>
      <trkpt lat="46.76888" lon="5.53636">
        <ele>290.4</ele>
        <time>2012-11-24T13:02:10.000Z</time>
      </trkpt>
      <trkpt lat="46.76892" lon="5.53636">
        <ele>290.5</ele>
        <time>2012-11-24T13:02:14.000Z</time>
      </trkpt>
      <trkpt lat="46.76893" lon="5.53635">
        <ele>290.9</ele>
        <time>2012-11-24T13:02:15.000Z</time>
      </trkpt>
      <trkpt lat="46.76897" lon="5.53635">
        <ele>291.6</ele>
        <time>2012-11-24T13:02:19.000Z</time>
      </trkpt>
      <trkpt lat="46.76898" lon="5.53635">
        <ele>291.7</ele>
        <time>2012-11-24T13:02:20.000Z</time>
      </trkpt>
      <trkpt lat="46.76903" lon="5.53634">
        <ele>292.1</ele>
        <time>2012-11-24T13:02:24.000Z</time>
      </trkpt>
      <trkpt lat="46.76903" lon="5.53634">
        <ele>292.3</ele>
        <time>2012-11-24T13:02:25.000Z</time>
      </trkpt>
      <trkpt lat="46.76907" lon="5.53633">
        <ele>292.7</ele>
        <time>2012-11-24T13:02:29.000Z</time>
      </trkpt>
      <trkpt lat="46.76908" lon="5.53633">
        <ele>292.6</ele>
        <time>2012-11-24T13:02:30.000Z</time>
      </trkpt>
      <trkpt lat="46.76912" lon="5.53632">
        <ele>292.4</ele>
        <time>2012-11-24T13:02:34.000Z</time>
      </trkpt>
      <trkpt lat="46.76913" lon="5.53632">
        <ele>292.4</ele>
        <time>2012-11-24T13:02:35.000Z</time>
      </trkpt>
      <trkpt lat="46.76918" lon="5.53632">
        <ele>292.6</ele>
        <time>2012-11-24T13:02:39.000Z</time>
      </trkpt>
      <trkpt lat="46.76919" lon="5.53632">
        <ele>292.6</ele>
        <time>2012-11-24T13:02:40.000Z</time>
      </trkpt>
      <trkpt lat="46.76923" lon="5.53633">
        <ele>291.4</ele>
        <time>2012-11-24T13:02:44.000Z</time>
      </trkpt>
      <trkpt lat="46.76924" lon="5.53633">
        <ele>291.9</ele>
        <time>2012-11-24T13:02:45.000Z</time>
      </trkpt>
      <trkpt lat="46.76928" lon="5.53633">
        <ele>293.8</ele>
        <time>2012-11-24T13:02:49.000Z</time>
      </trkpt>
      <trkpt lat="46.76929" lon="5.53633">
        <ele>294.3</ele>
        <time>2012-11-24T13:02:50.000Z</time>
      </trkpt>
      <trkpt lat="46.76933" lon="5.53633">
        <ele>295.3</ele>
        <time>2012-11-24T13:02:53.000Z</time>
      </trkpt>
      <trkpt lat="46.76934" lon="5.53634">
        <ele>295.5</ele>
        <time>2012-11-24T13:02:54.000Z</time>
      </trkpt>
      <trkpt lat="46.76938" lon="5.53634">
        <ele>296.3</ele>
        <time>2012-11-24T13:02:57.000Z</time>
      </trkpt>
      <trkpt lat="46.76939" lon="5.53634">
        <ele>296.6</ele>
        <time>2012-11-24T13:02:58.000Z</time>
      </trkpt>
      <trkpt lat="46.76943" lon="5.53635">
        <ele>297.1</ele>
        <time>2012-11-24T13:03:02.000Z</time>
      </trkpt>
      <trkpt lat="46.76944" lon="5.53635">
        <ele>297.2</ele>
        <time>2012-11-24T13:03:03.000Z</time>
      </trkpt>
      <trkpt lat="46.76948" lon="5.53635">
        <ele>297.7</ele>
        <time>2012-11-24T13:03:07.000Z</time>
      </trkpt>
      <trkpt lat="46.76949" lon="5.53635">
        <ele>297.8</ele>
        <time>2012-11-24T13:03:08.000Z</time>
      </trkpt>
      <trkpt lat="46.76953" lon="5.53635">
        <ele>298.6</ele>
        <time>2012-11-24T13:03:11.000Z</time>
      </trkpt>
      <trkpt lat="46.76954" lon="5.53635">
        <ele>298.9</ele>
        <time>2012-11-24T13:03:12.000Z</time>
      </trkpt>
      <trkpt lat="46.76957" lon="5.53635">
        <ele>299.2</ele>
        <time>2012-11-24T13:03:15.000Z</time>
      </trkpt>
      <trkpt lat="46.76959" lon="5.53635">
        <ele>299.4</ele>
        <time>2012-11-24T13:03:16.000Z</time>
      </trkpt>
      <trkpt lat="46.76962" lon="5.53636">
        <ele>299.8</ele>
        <time>2012-11-24T13:03:19.000Z</time>
      </trkpt>
      <trkpt lat="46.76963" lon="5.53636">
        <ele>300</ele>
        <time>2012-11-24T13:03:20.000Z</time>
      </trkpt>
      <trkpt lat="46.76967" lon="5.53636">
        <ele>300.2</ele>
        <time>2012-11-24T13:03:23.000Z</time>
      </trkpt>
      <trkpt lat="46.76968" lon="5.53636">
        <ele>300.6</ele>
        <time>2012-11-24T13:03:24.000Z</time>
      </trkpt>
      <trkpt lat="46.76971" lon="5.53636">
        <ele>301.2</ele>
        <time>2012-11-24T13:03:27.000Z</time>
      </trkpt>
      <trkpt lat="46.76972" lon="5.53636">
        <ele>301.2</ele>
        <time>2012-11-24T13:03:28.000Z</time>
      </trkpt>
      <trkpt lat="46.76976" lon="5.53636">
        <ele>301.4</ele>
        <time>2012-11-24T13:03:31.000Z</time>
      </trkpt>
      <trkpt lat="46.76977" lon="5.53636">
        <ele>301.5</ele>
        <time>2012-11-24T13:03:32.000Z</time>
      </trkpt>
      <trkpt lat="46.7698" lon="5.53636">
        <ele>302.1</ele>
        <time>2012-11-24T13:03:35.000Z</time>
      </trkpt>
      <trkpt lat="46.76982" lon="5.53636">
        <ele>302.3</ele>
        <time>2012-11-24T13:03:36.000Z</time>
      </trkpt>
      <trkpt lat="46.76985" lon="5.53637">
        <ele>302.9</ele>
        <time>2012-11-24T13:03:39.000Z</time>
      </trkpt>
      <trkpt lat="46.76986" lon="5.53637">
        <ele>303.1</ele>
        <time>2012-11-24T13:03:40.000Z</time>
      </trkpt>
      <trkpt lat="46.7699" lon="5.53637">
        <ele>303.4</ele>
        <time>2012-11-24T13:03:43.000Z</time>
      </trkpt>
      <trkpt lat="46.76991" lon="5.53638">
        <ele>303.6</ele>
        <time>2012-11-24T13:03:44.000Z</time>
      </trkpt>
      <trkpt lat="46.76994" lon="5.53639">
        <ele>303.8</ele>
        <time>2012-11-24T13:03:47.000Z</time>
      </trkpt>
      <trkpt lat="46.76995" lon="5.53639">
        <ele>303.7</ele>
        <time>2012-11-24T13:03:48.000Z</time>
      </trkpt>
      <trkpt lat="46.76999" lon="5.5364">
        <ele>303.7</ele>
        <time>2012-11-24T13:03:51.000Z</time>
      </trkpt>
      <trkpt lat="46.77" lon="5.5364">
        <ele>303.6</ele>
        <time>2012-11-24T13:03:52.000Z</time>
      </trkpt>
      <trkpt lat="46.77004" lon="5.53641">
        <ele>303.2</ele>
        <time>2012-11-24T13:03:55.000Z</time>
      </trkpt>
      <trkpt lat="46.77005" lon="5.53641">
        <ele>303.3</ele>
        <time>2012-11-24T13:03:56.000Z</time>
      </trkpt>
      <trkpt lat="46.77009" lon="5.5364">
        <ele>303.5</ele>
        <time>2012-11-24T13:03:59.000Z</time>
      </trkpt>
      <trkpt lat="46.7701" lon="5.5364">
        <ele>303.7</ele>
        <time>2012-11-24T13:04:00.000Z</time>
      </trkpt>
      <trkpt lat="46.77014" lon="5.5364">
        <ele>303.8</ele>
        <time>2012-11-24T13:04:03.000Z</time>
      </trkpt>
      <trkpt lat="46.77015" lon="5.5364">
        <ele>303.8</ele>
        <time>2012-11-24T13:04:04.000Z</time>
      </trkpt>
      <trkpt lat="46.77018" lon="5.53641">
        <ele>304</ele>
        <time>2012-11-24T13:04:07.000Z</time>
      </trkpt>
      <trkpt lat="46.7702" lon="5.53641">
        <ele>304.1</ele>
        <time>2012-11-24T13:04:08.000Z</time>
      </trkpt>
      <trkpt lat="46.77023" lon="5.53642">
        <ele>304.1</ele>
        <time>2012-11-24T13:04:11.000Z</time>
      </trkpt>
      <trkpt lat="46.77025" lon="5.53642">
        <ele>304.2</ele>
        <time>2012-11-24T13:04:12.000Z</time>
      </trkpt>
      <trkpt lat="46.77028" lon="5.53643">
        <ele>304.5</ele>
        <time>2012-11-24T13:04:15.000Z</time>
      </trkpt>
      <trkpt lat="46.77029" lon="5.53643">
        <ele>304.6</ele>
        <time>2012-11-24T13:04:16.000Z</time>
      </trkpt>
      <trkpt lat="46.77033" lon="5.53643">
        <ele>305</ele>
        <time>2012-11-24T13:04:19.000Z</time>
      </trkpt>
      <trkpt lat="46.77034" lon="5.53644">
        <ele>305</ele>
        <time>2012-11-24T13:04:20.000Z</time>
      </trkpt>
      <trkpt lat="46.77038" lon="5.53644">
        <ele>305.3</ele>
        <time>2012-11-24T13:04:24.000Z</time>
      </trkpt>
      <trkpt lat="46.77039" lon="5.53644">
        <ele>305.5</ele>
        <time>2012-11-24T13:04:25.000Z</time>
      </trkpt>
      <trkpt lat="46.77043" lon="5.53645">
        <ele>305.7</ele>
        <time>2012-11-24T13:04:28.000Z</time>
      </trkpt>
      <trkpt lat="46.77044" lon="5.53645">
        <ele>305.7</ele>
        <time>2012-11-24T13:04:29.000Z</time>
      </trkpt>
      <trkpt lat="46.77048" lon="5.53645">
        <ele>306</ele>
        <time>2012-11-24T13:04:32.000Z</time>
      </trkpt>
      <trkpt lat="46.77049" lon="5.53646">
        <ele>306.1</ele>
        <time>2012-11-24T13:04:33.000Z</time>
      </trkpt>
      <trkpt lat="46.77052" lon="5.53647">
        <ele>306</ele>
        <time>2012-11-24T13:04:36.000Z</time>
      </trkpt>
      <trkpt lat="46.77053" lon="5.53647">
        <ele>306.1</ele>
        <time>2012-11-24T13:04:37.000Z</time>
      </trkpt>
      <trkpt lat="46.77056" lon="5.53648">
        <ele>306.3</ele>
        <time>2012-11-24T13:04:40.000Z</time>
      </trkpt>
      <trkpt lat="46.77058" lon="5.53649">
        <ele>306.4</ele>
        <time>2012-11-24T13:04:41.000Z</time>
      </trkpt>
      <trkpt lat="46.77061" lon="5.5365">
        <ele>306.4</ele>
        <time>2012-11-24T13:04:44.000Z</time>
      </trkpt>
      <trkpt lat="46.77062" lon="5.53651">
        <ele>306.4</ele>
        <time>2012-11-24T13:04:45.000Z</time>
      </trkpt>
      <trkpt lat="46.77066" lon="5.53653">
        <ele>306.1</ele>
        <time>2012-11-24T13:04:49.000Z</time>
      </trkpt>
      <trkpt lat="46.77067" lon="5.53653">
        <ele>306.1</ele>
        <time>2012-11-24T13:04:50.000Z</time>
      </trkpt>
      <trkpt lat="46.77071" lon="5.53655">
        <ele>306</ele>
        <time>2012-11-24T13:04:54.000Z</time>
      </trkpt>
      <trkpt lat="46.77072" lon="5.53655">
        <ele>305.8</ele>
        <time>2012-11-24T13:04:55.000Z</time>
      </trkpt>
      <trkpt lat="46.77076" lon="5.53655">
        <ele>305.4</ele>
        <time>2012-11-24T13:04:58.000Z</time>
      </trkpt>
      <trkpt lat="46.77077" lon="5.53654">
        <ele>305.2</ele>
        <time>2012-11-24T13:04:59.000Z</time>
      </trkpt>
      <trkpt lat="46.7708" lon="5.5365">
        <ele>304.8</ele>
        <time>2012-11-24T13:05:02.000Z</time>
      </trkpt>
      <trkpt lat="46.7708" lon="5.53649">
        <ele>304.6</ele>
        <time>2012-11-24T13:05:03.000Z</time>
      </trkpt>
      <trkpt lat="46.77082" lon="5.53643">
        <ele>304</ele>
        <time>2012-11-24T13:05:07.000Z</time>
      </trkpt>
      <trkpt lat="46.77082" lon="5.53642">
        <ele>303.9</ele>
        <time>2012-11-24T13:05:08.000Z</time>
      </trkpt>
      <trkpt lat="46.77083" lon="5.53636">
        <ele>303.1</ele>
        <time>2012-11-24T13:05:12.000Z</time>
      </trkpt>
      <trkpt lat="46.77084" lon="5.53634">
        <ele>302.9</ele>
        <time>2012-11-24T13:05:13.000Z</time>
      </trkpt>
      <trkpt lat="46.77085" lon="5.53628">
        <ele>302.1</ele>
        <time>2012-11-24T13:05:17.000Z</time>
      </trkpt>
      <trkpt lat="46.77085" lon="5.53627">
        <ele>301.9</ele>
        <time>2012-11-24T13:05:18.000Z</time>
      </trkpt>
      <trkpt lat="46.77086" lon="5.53621">
        <ele>301.3</ele>
        <time>2012-11-24T13:05:22.000Z</time>
      </trkpt>
      <trkpt lat="46.77086" lon="5.5362">
        <ele>301.2</ele>
        <time>2012-11-24T13:05:23.000Z</time>
      </trkpt>
      <trkpt lat="46.77087" lon="5.53614">
        <ele>300.8</ele>
        <time>2012-11-24T13:05:27.000Z</time>
      </trkpt>
      <trkpt lat="46.77087" lon="5.53612">
        <ele>300.8</ele>
        <time>2012-11-24T13:05:28.000Z</time>
      </trkpt>
      <trkpt lat="46.77088" lon="5.53606">
        <ele>300.2</ele>
        <time>2012-11-24T13:05:32.000Z</time>
      </trkpt>
      <trkpt lat="46.77089" lon="5.53605">
        <ele>300.1</ele>
        <time>2012-11-24T13:05:33.000Z</time>
      </trkpt>
      <trkpt lat="46.7709" lon="5.53599">
        <ele>299.8</ele>
        <time>2012-11-24T13:05:37.000Z</time>
      </trkpt>
      <trkpt lat="46.7709" lon="5.53597">
        <ele>299.8</ele>
        <time>2012-11-24T13:05:38.000Z</time>
      </trkpt>
      <trkpt lat="46.77091" lon="5.53591">
        <ele>299.9</ele>
        <time>2012-11-24T13:05:42.000Z</time>
      </trkpt>
      <trkpt lat="46.77092" lon="5.53589">
        <ele>299.9</ele>
        <time>2012-11-24T13:05:43.000Z</time>
      </trkpt>
      <trkpt lat="46.77094" lon="5.53584">
        <ele>299.7</ele>
        <time>2012-11-24T13:05:47.000Z</time>
      </trkpt>
      <trkpt lat="46.77094" lon="5.53582">
        <ele>299.7</ele>
        <time>2012-11-24T13:05:48.000Z</time>
      </trkpt>
      <trkpt lat="46.77096" lon="5.53578">
        <ele>299.9</ele>
        <time>2012-11-24T13:05:51.000Z</time>
      </trkpt>
      <trkpt lat="46.77097" lon="5.53577">
        <ele>300</ele>
        <time>2012-11-24T13:05:52.000Z</time>
      </trkpt>
      <trkpt lat="46.77098" lon="5.53572">
        <ele>300.1</ele>
        <time>2012-11-24T13:05:55.000Z</time>
      </trkpt>
      <trkpt lat="46.77099" lon="5.53571">
        <ele>300.2</ele>
        <time>2012-11-24T13:05:56.000Z</time>
      </trkpt>
      <trkpt lat="46.77102" lon="5.53567">
        <ele>300.7</ele>
        <time>2012-11-24T13:05:59.000Z</time>
      </trkpt>
      <trkpt lat="46.77103" lon="5.53566">
        <ele>300.9</ele>
        <time>2012-11-24T13:06:00.000Z</time>
      </trkpt>
      <trkpt lat="46.77105" lon="5.53562">
        <ele>301.5</ele>
        <time>2012-11-24T13:06:03.000Z</time>
      </trkpt>
      <trkpt lat="46.77106" lon="5.53561">
        <ele>301.7</ele>
        <time>2012-11-24T13:06:04.000Z</time>
      </trkpt>
      <trkpt lat="46.77108" lon="5.53557">
        <ele>302.5</ele>
        <time>2012-11-24T13:06:07.000Z</time>
      </trkpt>
      <trkpt lat="46.77109" lon="5.53555">
        <ele>302.9</ele>
        <time>2012-11-24T13:06:08.000Z</time>
      </trkpt>
      <trkpt lat="46.77112" lon="5.53552">
        <ele>303.1</ele>
        <time>2012-11-24T13:06:11.000Z</time>
      </trkpt>
      <trkpt lat="46.77113" lon="5.53552">
        <ele>303.2</ele>
        <time>2012-11-24T13:06:12.000Z</time>
      </trkpt>
      <trkpt lat="46.77116" lon="5.53549">
        <ele>303.1</ele>
        <time>2012-11-24T13:06:16.000Z</time>
      </trkpt>
      <trkpt lat="46.77117" lon="5.53548">
        <ele>303.2</ele>
        <time>2012-11-24T13:06:17.000Z</time>
      </trkpt>
      <trkpt lat="46.7712" lon="5.53545">
        <ele>303.6</ele>
        <time>2012-11-24T13:06:21.000Z</time>
      </trkpt>
      <trkpt lat="46.77121" lon="5.53544">
        <ele>304</ele>
        <time>2012-11-24T13:06:22.000Z</time>
      </trkpt>
      <trkpt lat="46.77124" lon="5.53541">
        <ele>304.7</ele>
        <time>2012-11-24T13:06:26.000Z</time>
      </trkpt>
      <trkpt lat="46.77125" lon="5.53541">
        <ele>304.7</ele>
        <time>2012-11-24T13:06:27.000Z</time>
      </trkpt>
      <trkpt lat="46.77129" lon="5.53538">
        <ele>305.1</ele>
        <time>2012-11-24T13:06:31.000Z</time>
      </trkpt>
      <trkpt lat="46.7713" lon="5.53537">
        <ele>305.2</ele>
        <time>2012-11-24T13:06:32.000Z</time>
      </trkpt>
      <trkpt lat="46.77133" lon="5.53535">
        <ele>305.9</ele>
        <time>2012-11-24T13:06:35.000Z</time>
      </trkpt>
      <trkpt lat="46.77134" lon="5.53534">
        <ele>306</ele>
        <time>2012-11-24T13:06:36.000Z</time>
      </trkpt>
      <trkpt lat="46.77138" lon="5.53532">
        <ele>305.9</ele>
        <time>2012-11-24T13:06:40.000Z</time>
      </trkpt>
      <trkpt lat="46.77139" lon="5.53532">
        <ele>305.8</ele>
        <time>2012-11-24T13:06:41.000Z</time>
      </trkpt>
      <trkpt lat="46.77143" lon="5.5353">
        <ele>306.1</ele>
        <time>2012-11-24T13:06:45.000Z</time>
      </trkpt>
      <trkpt lat="46.77144" lon="5.5353">
        <ele>306</ele>
        <time>2012-11-24T13:06:46.000Z</time>
      </trkpt>
      <trkpt lat="46.77148" lon="5.53528">
        <ele>305.7</ele>
        <time>2012-11-24T13:06:50.000Z</time>
      </trkpt>
      <trkpt lat="46.77149" lon="5.53527">
        <ele>305.6</ele>
        <time>2012-11-24T13:06:51.000Z</time>
      </trkpt>
      <trkpt lat="46.77152" lon="5.53523">
        <ele>305.9</ele>
        <time>2012-11-24T13:06:55.000Z</time>
      </trkpt>
      <trkpt lat="46.77152" lon="5.53522">
        <ele>305.8</ele>
        <time>2012-11-24T13:06:56.000Z</time>
      </trkpt>
      <trkpt lat="46.77156" lon="5.53521">
        <ele>305.7</ele>
        <time>2012-11-24T13:07:01.000Z</time>
      </trkpt>
      <trkpt lat="46.77157" lon="5.5352">
        <ele>305.7</ele>
        <time>2012-11-24T13:07:02.000Z</time>
      </trkpt>
      <trkpt lat="46.7716" lon="5.5352">
        <ele>306.1</ele>
        <time>2012-11-24T13:07:06.000Z</time>
      </trkpt>
      <trkpt lat="46.77161" lon="5.53519">
        <ele>306.1</ele>
        <time>2012-11-24T13:07:07.000Z</time>
      </trkpt>
      <trkpt lat="46.77165" lon="5.53518">
        <ele>305.8</ele>
        <time>2012-11-24T13:07:11.000Z</time>
      </trkpt>
      <trkpt lat="46.77167" lon="5.53517">
        <ele>305.8</ele>
        <time>2012-11-24T13:07:12.000Z</time>
      </trkpt>
      <trkpt lat="46.7717" lon="5.53516">
        <ele>305.5</ele>
        <time>2012-11-24T13:07:15.000Z</time>
      </trkpt>
      <trkpt lat="46.77171" lon="5.53516">
        <ele>305.3</ele>
        <time>2012-11-24T13:07:16.000Z</time>
      </trkpt>
      <trkpt lat="46.77175" lon="5.53516">
        <ele>304.9</ele>
        <time>2012-11-24T13:07:19.000Z</time>
      </trkpt>
      <trkpt lat="46.77176" lon="5.53516">
        <ele>304.9</ele>
        <time>2012-11-24T13:07:20.000Z</time>
      </trkpt>
      <trkpt lat="46.7718" lon="5.53515">
        <ele>305</ele>
        <time>2012-11-24T13:07:24.000Z</time>
      </trkpt>
      <trkpt lat="46.77181" lon="5.53514">
        <ele>305</ele>
        <time>2012-11-24T13:07:25.000Z</time>
      </trkpt>
      <trkpt lat="46.77184" lon="5.53513">
        <ele>304.7</ele>
        <time>2012-11-24T13:07:28.000Z</time>
      </trkpt>
      <trkpt lat="46.77185" lon="5.53512">
        <ele>304.5</ele>
        <time>2012-11-24T13:07:29.000Z</time>
      </trkpt>
      <trkpt lat="46.77188" lon="5.53509">
        <ele>304.6</ele>
        <time>2012-11-24T13:07:32.000Z</time>
      </trkpt>
      <trkpt lat="46.77189" lon="5.53508">
        <ele>304.6</ele>
        <time>2012-11-24T13:07:33.000Z</time>
      </trkpt>
      <trkpt lat="46.77193" lon="5.53506">
        <ele>304.8</ele>
        <time>2012-11-24T13:07:36.000Z</time>
      </trkpt>
      <trkpt lat="46.77194" lon="5.53506">
        <ele>304.8</ele>
        <time>2012-11-24T13:07:37.000Z</time>
      </trkpt>
      <trkpt lat="46.77197" lon="5.53505">
        <ele>304.4</ele>
        <time>2012-11-24T13:07:40.000Z</time>
      </trkpt>
      <trkpt lat="46.77198" lon="5.53505">
        <ele>304.4</ele>
        <time>2012-11-24T13:07:41.000Z</time>
      </trkpt>
      <trkpt lat="46.77202" lon="5.53505">
        <ele>304.2</ele>
        <time>2012-11-24T13:07:44.000Z</time>
      </trkpt>
      <trkpt lat="46.77203" lon="5.53504">
        <ele>304.1</ele>
        <time>2012-11-24T13:07:45.000Z</time>
      </trkpt>
      <trkpt lat="46.77206" lon="5.53504">
        <ele>303.6</ele>
        <time>2012-11-24T13:07:48.000Z</time>
      </trkpt>
      <trkpt lat="46.77208" lon="5.53504">
        <ele>303.6</ele>
        <time>2012-11-24T13:07:49.000Z</time>
      </trkpt>
      <trkpt lat="46.77212" lon="5.53505">
        <ele>304.1</ele>
        <time>2012-11-24T13:07:53.000Z</time>
      </trkpt>
      <trkpt lat="46.77213" lon="5.53505">
        <ele>304.2</ele>
        <time>2012-11-24T13:07:54.000Z</time>
      </trkpt>
      <trkpt lat="46.77217" lon="5.53505">
        <ele>304.8</ele>
        <time>2012-11-24T13:07:58.000Z</time>
      </trkpt>
      <trkpt lat="46.77218" lon="5.53505">
        <ele>305</ele>
        <time>2012-11-24T13:07:59.000Z</time>
      </trkpt>
      <trkpt lat="46.77222" lon="5.53506">
        <ele>305.7</ele>
        <time>2012-11-24T13:08:03.000Z</time>
      </trkpt>
      <trkpt lat="46.77223" lon="5.53507">
        <ele>305.8</ele>
        <time>2012-11-24T13:08:04.000Z</time>
      </trkpt>
      <trkpt lat="46.77227" lon="5.53508">
        <ele>306.6</ele>
        <time>2012-11-24T13:08:10.000Z</time>
      </trkpt>
      <trkpt lat="46.77228" lon="5.53507">
        <ele>306.6</ele>
        <time>2012-11-24T13:08:11.000Z</time>
      </trkpt>
      <trkpt lat="46.77232" lon="5.53506">
        <ele>307.2</ele>
        <time>2012-11-24T13:08:15.000Z</time>
      </trkpt>
      <trkpt lat="46.77233" lon="5.53506">
        <ele>307.4</ele>
        <time>2012-11-24T13:08:16.000Z</time>
      </trkpt>
      <trkpt lat="46.77237" lon="5.53506">
        <ele>307.6</ele>
        <time>2012-11-24T13:08:20.000Z</time>
      </trkpt>
      <trkpt lat="46.77238" lon="5.53506">
        <ele>307.6</ele>
        <time>2012-11-24T13:08:21.000Z</time>
      </trkpt>
      <trkpt lat="46.77242" lon="5.53507">
        <ele>307.4</ele>
        <time>2012-11-24T13:08:25.000Z</time>
      </trkpt>
      <trkpt lat="46.77243" lon="5.53508">
        <ele>307.6</ele>
        <time>2012-11-24T13:08:26.000Z</time>
      </trkpt>
      <trkpt lat="46.77246" lon="5.53508">
        <ele>307.5</ele>
        <time>2012-11-24T13:08:29.000Z</time>
      </trkpt>
      <trkpt lat="46.77248" lon="5.53509">
        <ele>307.7</ele>
        <time>2012-11-24T13:08:30.000Z</time>
      </trkpt>
      <trkpt lat="46.77251" lon="5.5351">
        <ele>307.7</ele>
        <time>2012-11-24T13:08:33.000Z</time>
      </trkpt>
      <trkpt lat="46.77252" lon="5.53511">
        <ele>307.6</ele>
        <time>2012-11-24T13:08:34.000Z</time>
      </trkpt>
      <trkpt lat="46.77256" lon="5.53512">
        <ele>307.7</ele>
        <time>2012-11-24T13:08:37.000Z</time>
      </trkpt>
      <trkpt lat="46.77257" lon="5.53513">
        <ele>307.9</ele>
        <time>2012-11-24T13:08:38.000Z</time>
      </trkpt>
      <trkpt lat="46.77262" lon="5.53513">
        <ele>308.2</ele>
        <time>2012-11-24T13:08:42.000Z</time>
      </trkpt>
      <trkpt lat="46.77263" lon="5.53513">
        <ele>308.4</ele>
        <time>2012-11-24T13:08:43.000Z</time>
      </trkpt>
      <trkpt lat="46.77267" lon="5.53514">
        <ele>309.2</ele>
        <time>2012-11-24T13:08:47.000Z</time>
      </trkpt>
      <trkpt lat="46.77268" lon="5.53514">
        <ele>309.2</ele>
        <time>2012-11-24T13:08:48.000Z</time>
      </trkpt>
      <trkpt lat="46.77272" lon="5.53516">
        <ele>309</ele>
        <time>2012-11-24T13:08:52.000Z</time>
      </trkpt>
      <trkpt lat="46.77273" lon="5.53517">
        <ele>309.2</ele>
        <time>2012-11-24T13:08:53.000Z</time>
      </trkpt>
      <trkpt lat="46.77277" lon="5.53518">
        <ele>310.2</ele>
        <time>2012-11-24T13:08:57.000Z</time>
      </trkpt>
      <trkpt lat="46.77278" lon="5.53518">
        <ele>310.2</ele>
        <time>2012-11-24T13:08:58.000Z</time>
      </trkpt>
      <trkpt lat="46.77282" lon="5.5352">
        <ele>310</ele>
        <time>2012-11-24T13:09:02.000Z</time>
      </trkpt>
      <trkpt lat="46.77283" lon="5.5352">
        <ele>309.8</ele>
        <time>2012-11-24T13:09:03.000Z</time>
      </trkpt>
      <trkpt lat="46.77286" lon="5.53521">
        <ele>310.2</ele>
        <time>2012-11-24T13:09:06.000Z</time>
      </trkpt>
      <trkpt lat="46.77287" lon="5.53522">
        <ele>310.4</ele>
        <time>2012-11-24T13:09:07.000Z</time>
      </trkpt>
      <trkpt lat="46.77292" lon="5.53523">
        <ele>310.3</ele>
        <time>2012-11-24T13:09:11.000Z</time>
      </trkpt>
      <trkpt lat="46.77293" lon="5.53524">
        <ele>310.4</ele>
        <time>2012-11-24T13:09:12.000Z</time>
      </trkpt>
      <trkpt lat="46.77296" lon="5.53525">
        <ele>310.8</ele>
        <time>2012-11-24T13:09:16.000Z</time>
      </trkpt>
      <trkpt lat="46.77298" lon="5.53525">
        <ele>311.1</ele>
        <time>2012-11-24T13:09:17.000Z</time>
      </trkpt>
      <trkpt lat="46.77301" lon="5.53526">
        <ele>310.7</ele>
        <time>2012-11-24T13:09:20.000Z</time>
      </trkpt>
      <trkpt lat="46.77302" lon="5.53527">
        <ele>310.9</ele>
        <time>2012-11-24T13:09:21.000Z</time>
      </trkpt>
      <trkpt lat="46.77306" lon="5.53528">
        <ele>311.2</ele>
        <time>2012-11-24T13:09:24.000Z</time>
      </trkpt>
      <trkpt lat="46.77307" lon="5.53529">
        <ele>311.1</ele>
        <time>2012-11-24T13:09:25.000Z</time>
      </trkpt>
      <trkpt lat="46.7731" lon="5.5353">
        <ele>311.3</ele>
        <time>2012-11-24T13:09:28.000Z</time>
      </trkpt>
      <trkpt lat="46.77311" lon="5.5353">
        <ele>311.4</ele>
        <time>2012-11-24T13:09:29.000Z</time>
      </trkpt>
      <trkpt lat="46.77316" lon="5.5353">
        <ele>310.9</ele>
        <time>2012-11-24T13:09:33.000Z</time>
      </trkpt>
      <trkpt lat="46.77317" lon="5.5353">
        <ele>310.6</ele>
        <time>2012-11-24T13:09:34.000Z</time>
      </trkpt>
      <trkpt lat="46.77319" lon="5.53526">
        <ele>309.5</ele>
        <time>2012-11-24T13:09:38.000Z</time>
      </trkpt>
      <trkpt lat="46.7732" lon="5.53525">
        <ele>309</ele>
        <time>2012-11-24T13:09:39.000Z</time>
      </trkpt>
      <trkpt lat="46.77323" lon="5.5352">
        <ele>307.4</ele>
        <time>2012-11-24T13:09:44.000Z</time>
      </trkpt>
      <trkpt lat="46.77323" lon="5.53519">
        <ele>307.1</ele>
        <time>2012-11-24T13:09:45.000Z</time>
      </trkpt>
      <trkpt lat="46.77325" lon="5.53514">
        <ele>306.1</ele>
        <time>2012-11-24T13:09:49.000Z</time>
      </trkpt>
      <trkpt lat="46.77325" lon="5.53513">
        <ele>305.9</ele>
        <time>2012-11-24T13:09:50.000Z</time>
      </trkpt>
      <trkpt lat="46.77327" lon="5.53508">
        <ele>305.2</ele>
        <time>2012-11-24T13:09:55.000Z</time>
      </trkpt>
      <trkpt lat="46.77327" lon="5.53507">
        <ele>305</ele>
        <time>2012-11-24T13:09:56.000Z</time>
      </trkpt>
      <trkpt lat="46.77329" lon="5.53502">
        <ele>304.1</ele>
        <time>2012-11-24T13:10:01.000Z</time>
      </trkpt>
      <trkpt lat="46.77329" lon="5.53501">
        <ele>303.3</ele>
        <time>2012-11-24T13:10:02.000Z</time>
      </trkpt>
      <trkpt lat="46.77331" lon="5.53495">
        <ele>301.2</ele>
        <time>2012-11-24T13:10:07.000Z</time>
      </trkpt>
      <trkpt lat="46.77332" lon="5.53494">
        <ele>300.6</ele>
        <time>2012-11-24T13:10:08.000Z</time>
      </trkpt>
      <trkpt lat="46.77334" lon="5.53489">
        <ele>298.1</ele>
        <time>2012-11-24T13:10:13.000Z</time>
      </trkpt>
      <trkpt lat="46.77335" lon="5.53488">
        <ele>297.8</ele>
        <time>2012-11-24T13:10:14.000Z</time>
      </trkpt>
      <trkpt lat="46.77337" lon="5.53484">
        <ele>297.1</ele>
        <time>2012-11-24T13:10:18.000Z</time>
      </trkpt>
      <trkpt lat="46.77338" lon="5.53483">
        <ele>296.9</ele>
        <time>2012-11-24T13:10:19.000Z</time>
      </trkpt>
      <trkpt lat="46.7734" lon="5.53479">
        <ele>296.7</ele>
        <time>2012-11-24T13:10:23.000Z</time>
      </trkpt>
      <trkpt lat="46.77341" lon="5.53478">
        <ele>296.7</ele>
        <time>2012-11-24T13:10:24.000Z</time>
      </trkpt>
      <trkpt lat="46.77343" lon="5.53473">
        <ele>296.6</ele>
        <time>2012-11-24T13:10:28.000Z</time>
      </trkpt>
      <trkpt lat="46.77344" lon="5.53472">
        <ele>296.6</ele>
        <time>2012-11-24T13:10:29.000Z</time>
      </trkpt>
      <trkpt lat="46.77346" lon="5.53467">
        <ele>296.7</ele>
        <time>2012-11-24T13:10:33.000Z</time>
      </trkpt>
      <trkpt lat="46.77347" lon="5.53466">
        <ele>296.9</ele>
        <time>2012-11-24T13:10:34.000Z</time>
      </trkpt>
      <trkpt lat="46.77349" lon="5.53462">
        <ele>296.5</ele>
        <time>2012-11-24T13:10:39.000Z</time>
      </trkpt>
      <trkpt lat="46.7735" lon="5.53461">
        <ele>296.4</ele>
        <time>2012-11-24T13:10:40.000Z</time>
      </trkpt>
      <trkpt lat="46.77352" lon="5.53456">
        <ele>296.4</ele>
        <time>2012-11-24T13:10:44.000Z</time>
      </trkpt>
      <trkpt lat="46.77353" lon="5.53455">
        <ele>296.6</ele>
        <time>2012-11-24T13:10:45.000Z</time>
      </trkpt>
      <trkpt lat="46.77355" lon="5.5345">
        <ele>297.2</ele>
        <time>2012-11-24T13:10:49.000Z</time>
      </trkpt>
      <trkpt lat="46.77355" lon="5.53449">
        <ele>297.4</ele>
        <time>2012-11-24T13:10:50.000Z</time>
      </trkpt>
      <trkpt lat="46.77357" lon="5.53444">
        <ele>297.5</ele>
        <time>2012-11-24T13:10:55.000Z</time>
      </trkpt>
      <trkpt lat="46.77358" lon="5.53443">
        <ele>297.5</ele>
        <time>2012-11-24T13:10:56.000Z</time>
      </trkpt>
      <trkpt lat="46.77361" lon="5.53439">
        <ele>297.7</ele>
        <time>2012-11-24T13:11:01.000Z</time>
      </trkpt>
      <trkpt lat="46.77361" lon="5.53438">
        <ele>297.9</ele>
        <time>2012-11-24T13:11:02.000Z</time>
      </trkpt>
      <trkpt lat="46.77363" lon="5.53434">
        <ele>298.2</ele>
        <time>2012-11-24T13:11:06.000Z</time>
      </trkpt>
      <trkpt lat="46.77363" lon="5.53432">
        <ele>298.4</ele>
        <time>2012-11-24T13:11:07.000Z</time>
      </trkpt>
      <trkpt lat="46.77366" lon="5.53427">
        <ele>300.3</ele>
        <time>2012-11-24T13:11:12.000Z</time>
      </trkpt>
      <trkpt lat="46.77367" lon="5.53426">
        <ele>300.6</ele>
        <time>2012-11-24T13:11:13.000Z</time>
      </trkpt>
      <trkpt lat="46.77369" lon="5.53422">
        <ele>301.4</ele>
        <time>2012-11-24T13:11:18.000Z</time>
      </trkpt>
      <trkpt lat="46.7737" lon="5.53421">
        <ele>301.3</ele>
        <time>2012-11-24T13:11:19.000Z</time>
      </trkpt>
      <trkpt lat="46.77372" lon="5.53417">
        <ele>302</ele>
        <time>2012-11-24T13:11:23.000Z</time>
      </trkpt>
      <trkpt lat="46.77372" lon="5.53415">
        <ele>302.4</ele>
        <time>2012-11-24T13:11:24.000Z</time>
      </trkpt>
      <trkpt lat="46.77374" lon="5.5341">
        <ele>303.8</ele>
        <time>2012-11-24T13:11:28.000Z</time>
      </trkpt>
      <trkpt lat="46.77375" lon="5.53409">
        <ele>303.9</ele>
        <time>2012-11-24T13:11:29.000Z</time>
      </trkpt>
      <trkpt lat="46.77377" lon="5.53404">
        <ele>304.1</ele>
        <time>2012-11-24T13:11:34.000Z</time>
      </trkpt>
      <trkpt lat="46.77377" lon="5.53403">
        <ele>304.2</ele>
        <time>2012-11-24T13:11:35.000Z</time>
      </trkpt>
      <trkpt lat="46.77379" lon="5.53398">
        <ele>305.1</ele>
        <time>2012-11-24T13:11:40.000Z</time>
      </trkpt>
      <trkpt lat="46.77379" lon="5.53397">
        <ele>305.1</ele>
        <time>2012-11-24T13:11:41.000Z</time>
      </trkpt>
      <trkpt lat="46.77381" lon="5.53392">
        <ele>305.2</ele>
        <time>2012-11-24T13:11:46.000Z</time>
      </trkpt>
      <trkpt lat="46.77382" lon="5.53391">
        <ele>305.2</ele>
        <time>2012-11-24T13:11:47.000Z</time>
      </trkpt>
      <trkpt lat="46.77385" lon="5.53387">
        <ele>305.1</ele>
        <time>2012-11-24T13:11:51.000Z</time>
      </trkpt>
      <trkpt lat="46.77385" lon="5.53385">
        <ele>305.4</ele>
        <time>2012-11-24T13:11:52.000Z</time>
      </trkpt>
      <trkpt lat="46.77387" lon="5.53379">
        <ele>305.3</ele>
        <time>2012-11-24T13:11:56.000Z</time>
      </trkpt>
      <trkpt lat="46.77387" lon="5.53378">
        <ele>305.6</ele>
        <time>2012-11-24T13:11:57.000Z</time>
      </trkpt>
      <trkpt lat="46.7739" lon="5.53373">
        <ele>305.8</ele>
        <time>2012-11-24T13:12:01.000Z</time>
      </trkpt>
      <trkpt lat="46.7739" lon="5.53372">
        <ele>305.9</ele>
        <time>2012-11-24T13:12:02.000Z</time>
      </trkpt>
      <trkpt lat="46.77393" lon="5.53368">
        <ele>306.7</ele>
        <time>2012-11-24T13:12:06.000Z</time>
      </trkpt>
      <trkpt lat="46.77393" lon="5.53367">
        <ele>307</ele>
        <time>2012-11-24T13:12:07.000Z</time>
      </trkpt>
      <trkpt lat="46.77396" lon="5.53364">
        <ele>309.1</ele>
        <time>2012-11-24T13:12:11.000Z</time>
      </trkpt>
      <trkpt lat="46.77397" lon="5.53363">
        <ele>309.4</ele>
        <time>2012-11-24T13:12:12.000Z</time>
      </trkpt>
      <trkpt lat="46.774" lon="5.53358">
        <ele>310.6</ele>
        <time>2012-11-24T13:12:16.000Z</time>
      </trkpt>
      <trkpt lat="46.774" lon="5.53356">
        <ele>310.8</ele>
        <time>2012-11-24T13:12:17.000Z</time>
      </trkpt>
      <trkpt lat="46.77401" lon="5.5335">
        <ele>312</ele>
        <time>2012-11-24T13:12:20.000Z</time>
      </trkpt>
      <trkpt lat="46.77401" lon="5.53349">
        <ele>312.3</ele>
        <time>2012-11-24T13:12:21.000Z</time>
      </trkpt>
      <trkpt lat="46.77401" lon="5.53342">
        <ele>313.2</ele>
        <time>2012-11-24T13:12:26.000Z</time>
      </trkpt>
      <trkpt lat="46.77401" lon="5.53341">
        <ele>313.2</ele>
        <time>2012-11-24T13:12:27.000Z</time>
      </trkpt>
      <trkpt lat="46.77399" lon="5.53336">
        <ele>313.4</ele>
        <time>2012-11-24T13:12:34.000Z</time>
      </trkpt>
      <trkpt lat="46.77397" lon="5.53334">
        <ele>313</ele>
        <time>2012-11-24T13:12:35.000Z</time>
      </trkpt>
      <trkpt lat="46.77394" lon="5.53329">
        <ele>312.2</ele>
        <time>2012-11-24T13:12:38.000Z</time>
      </trkpt>
      <trkpt lat="46.77394" lon="5.53327">
        <ele>312.2</ele>
        <time>2012-11-24T13:12:39.000Z</time>
      </trkpt>
      <trkpt lat="46.77392" lon="5.53323">
        <ele>311.7</ele>
        <time>2012-11-24T13:12:42.000Z</time>
      </trkpt>
      <trkpt lat="46.77391" lon="5.53321">
        <ele>311.7</ele>
        <time>2012-11-24T13:12:43.000Z</time>
      </trkpt>
      <trkpt lat="46.77389" lon="5.53317">
        <ele>311.9</ele>
        <time>2012-11-24T13:12:46.000Z</time>
      </trkpt>
      <trkpt lat="46.77388" lon="5.53316">
        <ele>311.7</ele>
        <time>2012-11-24T13:12:47.000Z</time>
      </trkpt>
      <trkpt lat="46.77386" lon="5.53311">
        <ele>311.8</ele>
        <time>2012-11-24T13:12:51.000Z</time>
      </trkpt>
      <trkpt lat="46.77385" lon="5.5331">
        <ele>311.6</ele>
        <time>2012-11-24T13:12:52.000Z</time>
      </trkpt>
      <trkpt lat="46.77382" lon="5.53306">
        <ele>310.7</ele>
        <time>2012-11-24T13:12:56.000Z</time>
      </trkpt>
      <trkpt lat="46.77382" lon="5.53305">
        <ele>310.6</ele>
        <time>2012-11-24T13:12:57.000Z</time>
      </trkpt>
      <trkpt lat="46.77378" lon="5.53301">
        <ele>310.6</ele>
        <time>2012-11-24T13:13:02.000Z</time>
      </trkpt>
      <trkpt lat="46.77378" lon="5.53301">
        <ele>310.7</ele>
        <time>2012-11-24T13:13:03.000Z</time>
      </trkpt>
      <trkpt lat="46.77374" lon="5.53299">
        <ele>310.8</ele>
        <time>2012-11-24T13:13:08.000Z</time>
      </trkpt>
      <trkpt lat="46.77373" lon="5.53298">
        <ele>310.7</ele>
        <time>2012-11-24T13:13:09.000Z</time>
      </trkpt>
      <trkpt lat="46.77369" lon="5.53296">
        <ele>311</ele>
        <time>2012-11-24T13:13:14.000Z</time>
      </trkpt>
      <trkpt lat="46.77369" lon="5.53296">
        <ele>311.2</ele>
        <time>2012-11-24T13:13:15.000Z</time>
      </trkpt>
      <trkpt lat="46.77365" lon="5.53295">
        <ele>311.3</ele>
        <time>2012-11-24T13:13:19.000Z</time>
      </trkpt>
      <trkpt lat="46.77364" lon="5.53294">
        <ele>311.5</ele>
        <time>2012-11-24T13:13:20.000Z</time>
      </trkpt>
      <trkpt lat="46.7736" lon="5.53293">
        <ele>312.1</ele>
        <time>2012-11-24T13:13:25.000Z</time>
      </trkpt>
      <trkpt lat="46.77359" lon="5.53293">
        <ele>312.1</ele>
        <time>2012-11-24T13:13:26.000Z</time>
      </trkpt>
      <trkpt lat="46.77355" lon="5.53292">
        <ele>312.3</ele>
        <time>2012-11-24T13:13:30.000Z</time>
      </trkpt>
      <trkpt lat="46.77353" lon="5.53292">
        <ele>312.2</ele>
        <time>2012-11-24T13:13:31.000Z</time>
      </trkpt>
      <trkpt lat="46.77349" lon="5.53292">
        <ele>311.8</ele>
        <time>2012-11-24T13:13:36.000Z</time>
      </trkpt>
      <trkpt lat="46.77348" lon="5.53291">
        <ele>311.8</ele>
        <time>2012-11-24T13:13:37.000Z</time>
      </trkpt>
      <trkpt lat="46.77345" lon="5.53291">
        <ele>311.1</ele>
        <time>2012-11-24T13:13:44.000Z</time>
      </trkpt>
      <trkpt lat="46.77343" lon="5.5329">
        <ele>311</ele>
        <time>2012-11-24T13:13:45.000Z</time>
      </trkpt>
      <trkpt lat="46.77339" lon="5.53288">
        <ele>310.8</ele>
        <time>2012-11-24T13:13:48.000Z</time>
      </trkpt>
      <trkpt lat="46.77339" lon="5.53288">
        <ele>310.8</ele>
        <time>2012-11-24T13:13:49.000Z</time>
      </trkpt>
      <trkpt lat="46.77335" lon="5.53287">
        <ele>310.5</ele>
        <time>2012-11-24T13:13:53.000Z</time>
      </trkpt>
      <trkpt lat="46.77334" lon="5.53286">
        <ele>310.3</ele>
        <time>2012-11-24T13:13:54.000Z</time>
      </trkpt>
      <trkpt lat="46.77331" lon="5.53283">
        <ele>310.7</ele>
        <time>2012-11-24T13:13:57.000Z</time>
      </trkpt>
      <trkpt lat="46.7733" lon="5.53283">
        <ele>310.6</ele>
        <time>2012-11-24T13:13:58.000Z</time>
      </trkpt>
      <trkpt lat="46.77327" lon="5.5328">
        <ele>310.5</ele>
        <time>2012-11-24T13:14:01.000Z</time>
      </trkpt>
      <trkpt lat="46.77326" lon="5.53279">
        <ele>310.5</ele>
        <time>2012-11-24T13:14:02.000Z</time>
      </trkpt>
      <trkpt lat="46.77322" lon="5.53276">
        <ele>309.6</ele>
        <time>2012-11-24T13:14:06.000Z</time>
      </trkpt>
      <trkpt lat="46.77321" lon="5.53275">
        <ele>309.4</ele>
        <time>2012-11-24T13:14:07.000Z</time>
      </trkpt>
      <trkpt lat="46.77317" lon="5.53273">
        <ele>309.3</ele>
        <time>2012-11-24T13:14:10.000Z</time>
      </trkpt>
      <trkpt lat="46.77317" lon="5.53273">
        <ele>309.1</ele>
        <time>2012-11-24T13:14:11.000Z</time>
      </trkpt>
      <trkpt lat="46.77314" lon="5.53271">
        <ele>307.8</ele>
        <time>2012-11-24T13:14:15.000Z</time>
      </trkpt>
      <trkpt lat="46.77301" lon="5.53268">
        <ele>309.4</ele>
        <time>2012-11-24T13:14:28.000Z</time>
      </trkpt>
      <trkpt lat="46.77299" lon="5.53264">
        <ele>311.2</ele>
        <time>2012-11-24T13:14:31.000Z</time>
      </trkpt>
      <trkpt lat="46.77298" lon="5.53264">
        <ele>311.6</ele>
        <time>2012-11-24T13:14:32.000Z</time>
      </trkpt>
      <trkpt lat="46.77294" lon="5.53259">
        <ele>311.4</ele>
        <time>2012-11-24T13:14:41.000Z</time>
      </trkpt>
      <trkpt lat="46.77294" lon="5.53259">
        <ele>311.4</ele>
        <time>2012-11-24T13:14:42.000Z</time>
      </trkpt>
      <trkpt lat="46.77291" lon="5.53257">
        <ele>312.2</ele>
        <time>2012-11-24T13:14:45.000Z</time>
      </trkpt>
      <trkpt lat="46.77289" lon="5.53256">
        <ele>312.2</ele>
        <time>2012-11-24T13:14:46.000Z</time>
      </trkpt>
      <trkpt lat="46.77285" lon="5.53255">
        <ele>312.8</ele>
        <time>2012-11-24T13:14:52.000Z</time>
      </trkpt>
      <trkpt lat="46.77284" lon="5.53254">
        <ele>312.3</ele>
        <time>2012-11-24T13:14:53.000Z</time>
      </trkpt>
      <trkpt lat="46.77281" lon="5.5325">
        <ele>312.6</ele>
        <time>2012-11-24T13:14:56.000Z</time>
      </trkpt>
      <trkpt lat="46.7728" lon="5.53249">
        <ele>312.7</ele>
        <time>2012-11-24T13:14:57.000Z</time>
      </trkpt>
      <trkpt lat="46.77277" lon="5.53245">
        <ele>312.9</ele>
        <time>2012-11-24T13:15:01.000Z</time>
      </trkpt>
      <trkpt lat="46.77277" lon="5.53245">
        <ele>312.8</ele>
        <time>2012-11-24T13:15:02.000Z</time>
      </trkpt>
      <trkpt lat="46.77274" lon="5.53241">
        <ele>312.5</ele>
        <time>2012-11-24T13:15:06.000Z</time>
      </trkpt>
      <trkpt lat="46.77273" lon="5.5324">
        <ele>312.4</ele>
        <time>2012-11-24T13:15:07.000Z</time>
      </trkpt>
      <trkpt lat="46.7727" lon="5.53237">
        <ele>311.2</ele>
        <time>2012-11-24T13:15:11.000Z</time>
      </trkpt>
      <trkpt lat="46.77269" lon="5.53236">
        <ele>311.1</ele>
        <time>2012-11-24T13:15:12.000Z</time>
      </trkpt>
      <trkpt lat="46.77266" lon="5.53232">
        <ele>310.6</ele>
        <time>2012-11-24T13:15:18.000Z</time>
      </trkpt>
      <trkpt lat="46.77266" lon="5.53232">
        <ele>310.6</ele>
        <time>2012-11-24T13:15:19.000Z</time>
      </trkpt>
      <trkpt lat="46.77263" lon="5.53227">
        <ele>309.5</ele>
        <time>2012-11-24T13:15:23.000Z</time>
      </trkpt>
      <trkpt lat="46.77262" lon="5.53225">
        <ele>308.3</ele>
        <time>2012-11-24T13:15:24.000Z</time>
      </trkpt>
      <trkpt lat="46.77259" lon="5.53221">
        <ele>307.7</ele>
        <time>2012-11-24T13:15:27.000Z</time>
      </trkpt>
      <trkpt lat="46.77258" lon="5.5322">
        <ele>307.9</ele>
        <time>2012-11-24T13:15:28.000Z</time>
      </trkpt>
      <trkpt lat="46.77256" lon="5.53217">
        <ele>308.2</ele>
        <time>2012-11-24T13:15:31.000Z</time>
      </trkpt>
      <trkpt lat="46.77255" lon="5.53216">
        <ele>308.4</ele>
        <time>2012-11-24T13:15:32.000Z</time>
      </trkpt>
      <trkpt lat="46.77252" lon="5.53212">
        <ele>308.6</ele>
        <time>2012-11-24T13:15:36.000Z</time>
      </trkpt>
      <trkpt lat="46.77251" lon="5.53211">
        <ele>308.5</ele>
        <time>2012-11-24T13:15:37.000Z</time>
      </trkpt>
      <trkpt lat="46.77248" lon="5.53207">
        <ele>308.6</ele>
        <time>2012-11-24T13:15:41.000Z</time>
      </trkpt>
      <trkpt lat="46.77247" lon="5.53206">
        <ele>308.6</ele>
        <time>2012-11-24T13:15:42.000Z</time>
      </trkpt>
      <trkpt lat="46.77243" lon="5.53202">
        <ele>309.2</ele>
        <time>2012-11-24T13:15:46.000Z</time>
      </trkpt>
      <trkpt lat="46.77243" lon="5.53201">
        <ele>309.5</ele>
        <time>2012-11-24T13:15:47.000Z</time>
      </trkpt>
      <trkpt lat="46.7724" lon="5.53196">
        <ele>309.9</ele>
        <time>2012-11-24T13:15:51.000Z</time>
      </trkpt>
      <trkpt lat="46.77239" lon="5.53196">
        <ele>310.1</ele>
        <time>2012-11-24T13:15:52.000Z</time>
      </trkpt>
      <trkpt lat="46.77236" lon="5.53192">
        <ele>310.3</ele>
        <time>2012-11-24T13:15:57.000Z</time>
      </trkpt>
      <trkpt lat="46.77235" lon="5.53191">
        <ele>310.6</ele>
        <time>2012-11-24T13:15:58.000Z</time>
      </trkpt>
      <trkpt lat="46.77232" lon="5.53187">
        <ele>310.5</ele>
        <time>2012-11-24T13:16:03.000Z</time>
      </trkpt>
      <trkpt lat="46.77232" lon="5.53186">
        <ele>310.6</ele>
        <time>2012-11-24T13:16:04.000Z</time>
      </trkpt>
      <trkpt lat="46.7723" lon="5.53181">
        <ele>309.6</ele>
        <time>2012-11-24T13:16:08.000Z</time>
      </trkpt>
      <trkpt lat="46.77229" lon="5.5318">
        <ele>309.5</ele>
        <time>2012-11-24T13:16:09.000Z</time>
      </trkpt>
      <trkpt lat="46.77227" lon="5.53175">
        <ele>308.5</ele>
        <time>2012-11-24T13:16:14.000Z</time>
      </trkpt>
      <trkpt lat="46.77226" lon="5.53174">
        <ele>308.4</ele>
        <time>2012-11-24T13:16:15.000Z</time>
      </trkpt>
      <trkpt lat="46.77217" lon="5.53158">
        <ele>309.4</ele>
        <time>2012-11-24T13:16:27.000Z</time>
      </trkpt>
      <trkpt lat="46.77216" lon="5.53152">
        <ele>312.4</ele>
        <time>2012-11-24T13:16:32.000Z</time>
      </trkpt>
      <trkpt lat="46.77217" lon="5.53151">
        <ele>312.1</ele>
        <time>2012-11-24T13:16:33.000Z</time>
      </trkpt>
      <trkpt lat="46.77219" lon="5.53148">
        <ele>312.2</ele>
        <time>2012-11-24T13:16:36.000Z</time>
      </trkpt>
      <trkpt lat="46.77221" lon="5.53147">
        <ele>312.1</ele>
        <time>2012-11-24T13:16:37.000Z</time>
      </trkpt>
      <trkpt lat="46.77224" lon="5.53146">
        <ele>312.7</ele>
        <time>2012-11-24T13:16:40.000Z</time>
      </trkpt>
      <trkpt lat="46.77225" lon="5.53146">
        <ele>312.7</ele>
        <time>2012-11-24T13:16:41.000Z</time>
      </trkpt>
      <trkpt lat="46.77229" lon="5.53146">
        <ele>314.6</ele>
        <time>2012-11-24T13:16:45.000Z</time>
      </trkpt>
      <trkpt lat="46.7723" lon="5.53146">
        <ele>314.6</ele>
        <time>2012-11-24T13:16:46.000Z</time>
      </trkpt>
      <trkpt lat="46.77234" lon="5.53145">
        <ele>314.6</ele>
        <time>2012-11-24T13:16:49.000Z</time>
      </trkpt>
      <trkpt lat="46.77235" lon="5.53145">
        <ele>314.8</ele>
        <time>2012-11-24T13:16:50.000Z</time>
      </trkpt>
      <trkpt lat="46.77239" lon="5.53143">
        <ele>315.8</ele>
        <time>2012-11-24T13:16:54.000Z</time>
      </trkpt>
      <trkpt lat="46.7724" lon="5.53143">
        <ele>316.1</ele>
        <time>2012-11-24T13:16:55.000Z</time>
      </trkpt>
      <trkpt lat="46.77244" lon="5.53143">
        <ele>316.2</ele>
        <time>2012-11-24T13:16:58.000Z</time>
      </trkpt>
      <trkpt lat="46.77245" lon="5.53143">
        <ele>316.4</ele>
        <time>2012-11-24T13:16:59.000Z</time>
      </trkpt>
      <trkpt lat="46.77249" lon="5.53141">
        <ele>316.7</ele>
        <time>2012-11-24T13:17:02.000Z</time>
      </trkpt>
      <trkpt lat="46.7725" lon="5.53141">
        <ele>316.8</ele>
        <time>2012-11-24T13:17:03.000Z</time>
      </trkpt>
      <trkpt lat="46.77253" lon="5.53139">
        <ele>317.4</ele>
        <time>2012-11-24T13:17:06.000Z</time>
      </trkpt>
      <trkpt lat="46.77254" lon="5.53138">
        <ele>317.5</ele>
        <time>2012-11-24T13:17:07.000Z</time>
      </trkpt>
      <trkpt lat="46.77258" lon="5.53136">
        <ele>318.1</ele>
        <time>2012-11-24T13:17:10.000Z</time>
      </trkpt>
      <trkpt lat="46.77259" lon="5.53136">
        <ele>318.4</ele>
        <time>2012-11-24T13:17:11.000Z</time>
      </trkpt>
      <trkpt lat="46.77263" lon="5.53134">
        <ele>318.1</ele>
        <time>2012-11-24T13:17:14.000Z</time>
      </trkpt>
      <trkpt lat="46.77264" lon="5.53133">
        <ele>318.1</ele>
        <time>2012-11-24T13:17:15.000Z</time>
      </trkpt>
      <trkpt lat="46.77268" lon="5.53131">
        <ele>318.1</ele>
        <time>2012-11-24T13:17:19.000Z</time>
      </trkpt>
      <trkpt lat="46.77269" lon="5.53131">
        <ele>318</ele>
        <time>2012-11-24T13:17:20.000Z</time>
      </trkpt>
      <trkpt lat="46.77273" lon="5.53131">
        <ele>318.6</ele>
        <time>2012-11-24T13:17:24.000Z</time>
      </trkpt>
      <trkpt lat="46.77274" lon="5.53131">
        <ele>318.6</ele>
        <time>2012-11-24T13:17:25.000Z</time>
      </trkpt>
      <trkpt lat="46.77278" lon="5.5313">
        <ele>318.4</ele>
        <time>2012-11-24T13:17:29.000Z</time>
      </trkpt>
      <trkpt lat="46.77279" lon="5.53129">
        <ele>318.2</ele>
        <time>2012-11-24T13:17:30.000Z</time>
      </trkpt>
      <trkpt lat="46.77283" lon="5.53128">
        <ele>318.6</ele>
        <time>2012-11-24T13:17:34.000Z</time>
      </trkpt>
      <trkpt lat="46.77284" lon="5.53128">
        <ele>318.1</ele>
        <time>2012-11-24T13:17:35.000Z</time>
      </trkpt>
      <trkpt lat="46.77288" lon="5.53127">
        <ele>317.9</ele>
        <time>2012-11-24T13:17:39.000Z</time>
      </trkpt>
      <trkpt lat="46.77289" lon="5.53127">
        <ele>318.2</ele>
        <time>2012-11-24T13:17:40.000Z</time>
      </trkpt>
      <trkpt lat="46.77294" lon="5.53127">
        <ele>319.1</ele>
        <time>2012-11-24T13:17:44.000Z</time>
      </trkpt>
      <trkpt lat="46.77295" lon="5.53126">
        <ele>319.2</ele>
        <time>2012-11-24T13:17:45.000Z</time>
      </trkpt>
      <trkpt lat="46.77298" lon="5.53124">
        <ele>319.4</ele>
        <time>2012-11-24T13:17:48.000Z</time>
      </trkpt>
      <trkpt lat="46.773" lon="5.53124">
        <ele>319.2</ele>
        <time>2012-11-24T13:17:49.000Z</time>
      </trkpt>
      <trkpt lat="46.77303" lon="5.53124">
        <ele>318.5</ele>
        <time>2012-11-24T13:17:52.000Z</time>
      </trkpt>
      <trkpt lat="46.77305" lon="5.53124">
        <ele>318.5</ele>
        <time>2012-11-24T13:17:53.000Z</time>
      </trkpt>
      <trkpt lat="46.77309" lon="5.53124">
        <ele>318.7</ele>
        <time>2012-11-24T13:17:56.000Z</time>
      </trkpt>
      <trkpt lat="46.7731" lon="5.53125">
        <ele>318.6</ele>
        <time>2012-11-24T13:17:57.000Z</time>
      </trkpt>
      <trkpt lat="46.77314" lon="5.53124">
        <ele>318.8</ele>
        <time>2012-11-24T13:18:01.000Z</time>
      </trkpt>
      <trkpt lat="46.77315" lon="5.53124">
        <ele>318.9</ele>
        <time>2012-11-24T13:18:02.000Z</time>
      </trkpt>
      <trkpt lat="46.77318" lon="5.53126">
        <ele>317.8</ele>
        <time>2012-11-24T13:18:05.000Z</time>
      </trkpt>
      <trkpt lat="46.77319" lon="5.53126">
        <ele>317.3</ele>
        <time>2012-11-24T13:18:06.000Z</time>
      </trkpt>
      <trkpt lat="46.77324" lon="5.53127">
        <ele>317</ele>
        <time>2012-11-24T13:18:10.000Z</time>
      </trkpt>
      <trkpt lat="46.77325" lon="5.53127">
        <ele>317</ele>
        <time>2012-11-24T13:18:11.000Z</time>
      </trkpt>
      <trkpt lat="46.77329" lon="5.53126">
        <ele>316.7</ele>
        <time>2012-11-24T13:18:15.000Z</time>
      </trkpt>
      <trkpt lat="46.7733" lon="5.53125">
        <ele>316.7</ele>
        <time>2012-11-24T13:18:16.000Z</time>
      </trkpt>
      <trkpt lat="46.77334" lon="5.53125">
        <ele>316.8</ele>
        <time>2012-11-24T13:18:20.000Z</time>
      </trkpt>
      <trkpt lat="46.77335" lon="5.53125">
        <ele>316.8</ele>
        <time>2012-11-24T13:18:21.000Z</time>
      </trkpt>
      <trkpt lat="46.77339" lon="5.53124">
        <ele>317.5</ele>
        <time>2012-11-24T13:18:25.000Z</time>
      </trkpt>
      <trkpt lat="46.7734" lon="5.53123">
        <ele>317.8</ele>
        <time>2012-11-24T13:18:26.000Z</time>
      </trkpt>
      <trkpt lat="46.77344" lon="5.53122">
        <ele>317.6</ele>
        <time>2012-11-24T13:18:29.000Z</time>
      </trkpt>
      <trkpt lat="46.77345" lon="5.53122">
        <ele>317.7</ele>
        <time>2012-11-24T13:18:30.000Z</time>
      </trkpt>
      <trkpt lat="46.77348" lon="5.53121">
        <ele>317.9</ele>
        <time>2012-11-24T13:18:33.000Z</time>
      </trkpt>
      <trkpt lat="46.77349" lon="5.53121">
        <ele>317.8</ele>
        <time>2012-11-24T13:18:34.000Z</time>
      </trkpt>
      <trkpt lat="46.77353" lon="5.53123">
        <ele>317.2</ele>
        <time>2012-11-24T13:18:37.000Z</time>
      </trkpt>
      <trkpt lat="46.77354" lon="5.53123">
        <ele>317.2</ele>
        <time>2012-11-24T13:18:38.000Z</time>
      </trkpt>
      <trkpt lat="46.77358" lon="5.53124">
        <ele>317</ele>
        <time>2012-11-24T13:18:41.000Z</time>
      </trkpt>
      <trkpt lat="46.77359" lon="5.53124">
        <ele>317.1</ele>
        <time>2012-11-24T13:18:42.000Z</time>
      </trkpt>
      <trkpt lat="46.77363" lon="5.53123">
        <ele>316.5</ele>
        <time>2012-11-24T13:18:45.000Z</time>
      </trkpt>
      <trkpt lat="46.77364" lon="5.53123">
        <ele>316.7</ele>
        <time>2012-11-24T13:18:46.000Z</time>
      </trkpt>
      <trkpt lat="46.77368" lon="5.53123">
        <ele>317.5</ele>
        <time>2012-11-24T13:18:49.000Z</time>
      </trkpt>
      <trkpt lat="46.77369" lon="5.53123">
        <ele>317.5</ele>
        <time>2012-11-24T13:18:50.000Z</time>
      </trkpt>
      <trkpt lat="46.77373" lon="5.53123">
        <ele>317.7</ele>
        <time>2012-11-24T13:18:54.000Z</time>
      </trkpt>
      <trkpt lat="46.77374" lon="5.53123">
        <ele>317.5</ele>
        <time>2012-11-24T13:18:55.000Z</time>
      </trkpt>
      <trkpt lat="46.77378" lon="5.5312">
        <ele>315.9</ele>
        <time>2012-11-24T13:19:00.000Z</time>
      </trkpt>
      <trkpt lat="46.77379" lon="5.5312">
        <ele>315.5</ele>
        <time>2012-11-24T13:19:01.000Z</time>
      </trkpt>
      <trkpt lat="46.77382" lon="5.53121">
        <ele>314.6</ele>
        <time>2012-11-24T13:19:05.000Z</time>
      </trkpt>
      <trkpt lat="46.77383" lon="5.53121">
        <ele>314.7</ele>
        <time>2012-11-24T13:19:06.000Z</time>
      </trkpt>
      <trkpt lat="46.77387" lon="5.53121">
        <ele>313.7</ele>
        <time>2012-11-24T13:19:10.000Z</time>
      </trkpt>
      <trkpt lat="46.77388" lon="5.53121">
        <ele>313.2</ele>
        <time>2012-11-24T13:19:11.000Z</time>
      </trkpt>
      <trkpt lat="46.77392" lon="5.53119">
        <ele>312</ele>
        <time>2012-11-24T13:19:14.000Z</time>
      </trkpt>
      <trkpt lat="46.77393" lon="5.53118">
        <ele>312</ele>
        <time>2012-11-24T13:19:15.000Z</time>
      </trkpt>
      <trkpt lat="46.77395" lon="5.53117">
        <ele>312</ele>
        <time>2012-11-24T13:19:22.000Z</time>
      </trkpt>
      <trkpt lat="46.77399" lon="5.53116">
        <ele>311.8</ele>
        <time>2012-11-24T13:19:23.000Z</time>
      </trkpt>
      <trkpt lat="46.77402" lon="5.53115">
        <ele>311.2</ele>
        <time>2012-11-24T13:19:24.000Z</time>
      </trkpt>
      <trkpt lat="46.77404" lon="5.53114">
        <ele>311.1</ele>
        <time>2012-11-24T13:19:25.000Z</time>
      </trkpt>
      <trkpt lat="46.77408" lon="5.53114">
        <ele>311.4</ele>
        <time>2012-11-24T13:19:27.000Z</time>
      </trkpt>
      <trkpt lat="46.77409" lon="5.53114">
        <ele>311.5</ele>
        <time>2012-11-24T13:19:28.000Z</time>
      </trkpt>
      <trkpt lat="46.77413" lon="5.53113">
        <ele>312.1</ele>
        <time>2012-11-24T13:19:31.000Z</time>
      </trkpt>
      <trkpt lat="46.77414" lon="5.53113">
        <ele>312.4</ele>
        <time>2012-11-24T13:19:32.000Z</time>
      </trkpt>
      <trkpt lat="46.77418" lon="5.53116">
        <ele>311.4</ele>
        <time>2012-11-24T13:19:36.000Z</time>
      </trkpt>
      <trkpt lat="46.77418" lon="5.53117">
        <ele>311.1</ele>
        <time>2012-11-24T13:19:37.000Z</time>
      </trkpt>
      <trkpt lat="46.7742" lon="5.53121">
        <ele>304.6</ele>
        <time>2012-11-24T13:20:02.000Z</time>
      </trkpt>
      <trkpt lat="46.77422" lon="5.53121">
        <ele>304.7</ele>
        <time>2012-11-24T13:20:03.000Z</time>
      </trkpt>
      <trkpt lat="46.77425" lon="5.5312">
        <ele>304.5</ele>
        <time>2012-11-24T13:20:06.000Z</time>
      </trkpt>
      <trkpt lat="46.77426" lon="5.5312">
        <ele>304.6</ele>
        <time>2012-11-24T13:20:07.000Z</time>
      </trkpt>
      <trkpt lat="46.7743" lon="5.53119">
        <ele>304.6</ele>
        <time>2012-11-24T13:20:10.000Z</time>
      </trkpt>
      <trkpt lat="46.77431" lon="5.53119">
        <ele>304.7</ele>
        <time>2012-11-24T13:20:11.000Z</time>
      </trkpt>
      <trkpt lat="46.77435" lon="5.53118">
        <ele>305.4</ele>
        <time>2012-11-24T13:20:14.000Z</time>
      </trkpt>
      <trkpt lat="46.77437" lon="5.53118">
        <ele>305.6</ele>
        <time>2012-11-24T13:20:15.000Z</time>
      </trkpt>
      <trkpt lat="46.7744" lon="5.53116">
        <ele>306</ele>
        <time>2012-11-24T13:20:18.000Z</time>
      </trkpt>
      <trkpt lat="46.77442" lon="5.53116">
        <ele>306</ele>
        <time>2012-11-24T13:20:19.000Z</time>
      </trkpt>
      <trkpt lat="46.77445" lon="5.53114">
        <ele>306.2</ele>
        <time>2012-11-24T13:20:22.000Z</time>
      </trkpt>
      <trkpt lat="46.77446" lon="5.53114">
        <ele>306.5</ele>
        <time>2012-11-24T13:20:23.000Z</time>
      </trkpt>
      <trkpt lat="46.7745" lon="5.53113">
        <ele>307</ele>
        <time>2012-11-24T13:20:27.000Z</time>
      </trkpt>
      <trkpt lat="46.77451" lon="5.53112">
        <ele>307.2</ele>
        <time>2012-11-24T13:20:28.000Z</time>
      </trkpt>
      <trkpt lat="46.77454" lon="5.53111">
        <ele>307.3</ele>
        <time>2012-11-24T13:20:32.000Z</time>
      </trkpt>
      <trkpt lat="46.77456" lon="5.53111">
        <ele>308.5</ele>
        <time>2012-11-24T13:20:33.000Z</time>
      </trkpt>
      <trkpt lat="46.7746" lon="5.53111">
        <ele>309.3</ele>
        <time>2012-11-24T13:20:36.000Z</time>
      </trkpt>
      <trkpt lat="46.77461" lon="5.5311">
        <ele>309.8</ele>
        <time>2012-11-24T13:20:37.000Z</time>
      </trkpt>
      <trkpt lat="46.77465" lon="5.53109">
        <ele>310.8</ele>
        <time>2012-11-24T13:20:39.000Z</time>
      </trkpt>
      <trkpt lat="46.77467" lon="5.53108">
        <ele>311.4</ele>
        <time>2012-11-24T13:20:40.000Z</time>
      </trkpt>
      <trkpt lat="46.7747" lon="5.53106">
        <ele>311.5</ele>
        <time>2012-11-24T13:20:42.000Z</time>
      </trkpt>
      <trkpt lat="46.77471" lon="5.53106">
        <ele>312.1</ele>
        <time>2012-11-24T13:20:43.000Z</time>
      </trkpt>
      <trkpt lat="46.77475" lon="5.53104">
        <ele>312.9</ele>
        <time>2012-11-24T13:20:45.000Z</time>
      </trkpt>
      <trkpt lat="46.77476" lon="5.53103">
        <ele>313.2</ele>
        <time>2012-11-24T13:20:46.000Z</time>
      </trkpt>
      <trkpt lat="46.77479" lon="5.53102">
        <ele>314.2</ele>
        <time>2012-11-24T13:20:48.000Z</time>
      </trkpt>
      <trkpt lat="46.77481" lon="5.53101">
        <ele>314.7</ele>
        <time>2012-11-24T13:20:49.000Z</time>
      </trkpt>
      <trkpt lat="46.77484" lon="5.531">
        <ele>315.5</ele>
        <time>2012-11-24T13:20:51.000Z</time>
      </trkpt>
      <trkpt lat="46.77486" lon="5.531">
        <ele>315.1</ele>
        <time>2012-11-24T13:20:52.000Z</time>
      </trkpt>
      <trkpt lat="46.77489" lon="5.53101">
        <ele>314.7</ele>
        <time>2012-11-24T13:20:54.000Z</time>
      </trkpt>
      <trkpt lat="46.7749" lon="5.53102">
        <ele>314.7</ele>
        <time>2012-11-24T13:20:55.000Z</time>
      </trkpt>
      <trkpt lat="46.77493" lon="5.53102">
        <ele>314.7</ele>
        <time>2012-11-24T13:20:57.000Z</time>
      </trkpt>
      <trkpt lat="46.77495" lon="5.53102">
        <ele>314.8</ele>
        <time>2012-11-24T13:20:58.000Z</time>
      </trkpt>
      <trkpt lat="46.77499" lon="5.53102">
        <ele>315</ele>
        <time>2012-11-24T13:21:01.000Z</time>
      </trkpt>
      <trkpt lat="46.775" lon="5.53102">
        <ele>315.2</ele>
        <time>2012-11-24T13:21:02.000Z</time>
      </trkpt>
      <trkpt lat="46.77504" lon="5.53101">
        <ele>316.1</ele>
        <time>2012-11-24T13:21:05.000Z</time>
      </trkpt>
      <trkpt lat="46.77505" lon="5.531">
        <ele>316.3</ele>
        <time>2012-11-24T13:21:06.000Z</time>
      </trkpt>
      <trkpt lat="46.77509" lon="5.53101">
        <ele>316.9</ele>
        <time>2012-11-24T13:21:11.000Z</time>
      </trkpt>
      <trkpt lat="46.7751" lon="5.53102">
        <ele>316.6</ele>
        <time>2012-11-24T13:21:12.000Z</time>
      </trkpt>
      <trkpt lat="46.77514" lon="5.53101">
        <ele>316.1</ele>
        <time>2012-11-24T13:21:16.000Z</time>
      </trkpt>
      <trkpt lat="46.77515" lon="5.53101">
        <ele>316</ele>
        <time>2012-11-24T13:21:17.000Z</time>
      </trkpt>
      <trkpt lat="46.77519" lon="5.53102">
        <ele>316.8</ele>
        <time>2012-11-24T13:21:20.000Z</time>
      </trkpt>
      <trkpt lat="46.7752" lon="5.53102">
        <ele>317.2</ele>
        <time>2012-11-24T13:21:21.000Z</time>
      </trkpt>
      <trkpt lat="46.77523" lon="5.53101">
        <ele>316.6</ele>
        <time>2012-11-24T13:21:23.000Z</time>
      </trkpt>
      <trkpt lat="46.77524" lon="5.531">
        <ele>316.1</ele>
        <time>2012-11-24T13:21:24.000Z</time>
      </trkpt>
      <trkpt lat="46.77528" lon="5.53098">
        <ele>315.6</ele>
        <time>2012-11-24T13:21:26.000Z</time>
      </trkpt>
      <trkpt lat="46.77529" lon="5.53098">
        <ele>315.5</ele>
        <time>2012-11-24T13:21:27.000Z</time>
      </trkpt>
      <trkpt lat="46.77533" lon="5.53096">
        <ele>316.7</ele>
        <time>2012-11-24T13:21:30.000Z</time>
      </trkpt>
      <trkpt lat="46.77534" lon="5.53095">
        <ele>317.2</ele>
        <time>2012-11-24T13:21:31.000Z</time>
      </trkpt>
      <trkpt lat="46.77537" lon="5.53095">
        <ele>318.3</ele>
        <time>2012-11-24T13:21:34.000Z</time>
      </trkpt>
      <trkpt lat="46.77539" lon="5.53095">
        <ele>318.7</ele>
        <time>2012-11-24T13:21:35.000Z</time>
      </trkpt>
      <trkpt lat="46.77542" lon="5.53095">
        <ele>319.4</ele>
        <time>2012-11-24T13:21:38.000Z</time>
      </trkpt>
      <trkpt lat="46.77544" lon="5.53095">
        <ele>319.5</ele>
        <time>2012-11-24T13:21:39.000Z</time>
      </trkpt>
      <trkpt lat="46.77548" lon="5.53095">
        <ele>320.2</ele>
        <time>2012-11-24T13:21:43.000Z</time>
      </trkpt>
      <trkpt lat="46.77549" lon="5.53095">
        <ele>320.4</ele>
        <time>2012-11-24T13:21:44.000Z</time>
      </trkpt>
      <trkpt lat="46.77552" lon="5.53094">
        <ele>321</ele>
        <time>2012-11-24T13:21:48.000Z</time>
      </trkpt>
      <trkpt lat="46.77553" lon="5.53095">
        <ele>321.3</ele>
        <time>2012-11-24T13:21:49.000Z</time>
      </trkpt>
      <trkpt lat="46.77557" lon="5.53096">
        <ele>323.4</ele>
        <time>2012-11-24T13:21:53.000Z</time>
      </trkpt>
      <trkpt lat="46.77558" lon="5.53095">
        <ele>323.6</ele>
        <time>2012-11-24T13:21:54.000Z</time>
      </trkpt>
      <trkpt lat="46.77563" lon="5.53094">
        <ele>324.7</ele>
        <time>2012-11-24T13:21:57.000Z</time>
      </trkpt>
      <trkpt lat="46.77564" lon="5.53094">
        <ele>324.9</ele>
        <time>2012-11-24T13:21:58.000Z</time>
      </trkpt>
      <trkpt lat="46.77568" lon="5.53093">
        <ele>325.7</ele>
        <time>2012-11-24T13:22:01.000Z</time>
      </trkpt>
      <trkpt lat="46.77569" lon="5.53092">
        <ele>326</ele>
        <time>2012-11-24T13:22:02.000Z</time>
      </trkpt>
      <trkpt lat="46.77574" lon="5.53093">
        <ele>326.6</ele>
        <time>2012-11-24T13:22:06.000Z</time>
      </trkpt>
      <trkpt lat="46.77575" lon="5.53093">
        <ele>326.5</ele>
        <time>2012-11-24T13:22:07.000Z</time>
      </trkpt>
      <trkpt lat="46.77578" lon="5.53094">
        <ele>326.2</ele>
        <time>2012-11-24T13:22:11.000Z</time>
      </trkpt>
      <trkpt lat="46.77579" lon="5.53094">
        <ele>326.1</ele>
        <time>2012-11-24T13:22:12.000Z</time>
      </trkpt>
      <trkpt lat="46.77583" lon="5.53096">
        <ele>326.2</ele>
        <time>2012-11-24T13:22:16.000Z</time>
      </trkpt>
      <trkpt lat="46.77585" lon="5.53095">
        <ele>325.7</ele>
        <time>2012-11-24T13:22:17.000Z</time>
      </trkpt>
      <trkpt lat="46.77588" lon="5.53095">
        <ele>325</ele>
        <time>2012-11-24T13:22:20.000Z</time>
      </trkpt>
      <trkpt lat="46.7759" lon="5.53094">
        <ele>324.9</ele>
        <time>2012-11-24T13:22:21.000Z</time>
      </trkpt>
      <trkpt lat="46.77592" lon="5.53092">
        <ele>325.1</ele>
        <time>2012-11-24T13:22:23.000Z</time>
      </trkpt>
      <trkpt lat="46.77594" lon="5.53092">
        <ele>325</ele>
        <time>2012-11-24T13:22:24.000Z</time>
      </trkpt>
      <trkpt lat="46.77598" lon="5.53091">
        <ele>325.4</ele>
        <time>2012-11-24T13:22:27.000Z</time>
      </trkpt>
      <trkpt lat="46.77599" lon="5.53091">
        <ele>325.5</ele>
        <time>2012-11-24T13:22:28.000Z</time>
      </trkpt>
      <trkpt lat="46.77603" lon="5.53092">
        <ele>325.5</ele>
        <time>2012-11-24T13:22:31.000Z</time>
      </trkpt>
      <trkpt lat="46.77604" lon="5.53092">
        <ele>325.2</ele>
        <time>2012-11-24T13:22:32.000Z</time>
      </trkpt>
      <trkpt lat="46.77608" lon="5.53092">
        <ele>325.1</ele>
        <time>2012-11-24T13:22:35.000Z</time>
      </trkpt>
      <trkpt lat="46.77609" lon="5.53092">
        <ele>325</ele>
        <time>2012-11-24T13:22:36.000Z</time>
      </trkpt>
      <trkpt lat="46.77614" lon="5.53093">
        <ele>324.4</ele>
        <time>2012-11-24T13:22:39.000Z</time>
      </trkpt>
      <trkpt lat="46.77615" lon="5.53093">
        <ele>324.1</ele>
        <time>2012-11-24T13:22:40.000Z</time>
      </trkpt>
      <trkpt lat="46.7762" lon="5.53093">
        <ele>324.3</ele>
        <time>2012-11-24T13:22:44.000Z</time>
      </trkpt>
      <trkpt lat="46.7762" lon="5.53092">
        <ele>324.2</ele>
        <time>2012-11-24T13:22:45.000Z</time>
      </trkpt>
      <trkpt lat="46.77624" lon="5.53091">
        <ele>323.3</ele>
        <time>2012-11-24T13:22:49.000Z</time>
      </trkpt>
      <trkpt lat="46.77624" lon="5.53091">
        <ele>323.6</ele>
        <time>2012-11-24T13:22:50.000Z</time>
      </trkpt>
      <trkpt lat="46.77628" lon="5.53089">
        <ele>324</ele>
        <time>2012-11-24T13:22:56.000Z</time>
      </trkpt>
      <trkpt lat="46.7763" lon="5.53091">
        <ele>323.5</ele>
        <time>2012-11-24T13:22:57.000Z</time>
      </trkpt>
      <trkpt lat="46.77633" lon="5.53094">
        <ele>323.4</ele>
        <time>2012-11-24T13:23:00.000Z</time>
      </trkpt>
      <trkpt lat="46.77634" lon="5.53094">
        <ele>323.1</ele>
        <time>2012-11-24T13:23:01.000Z</time>
      </trkpt>
      <trkpt lat="46.77637" lon="5.53094">
        <ele>322.6</ele>
        <time>2012-11-24T13:23:03.000Z</time>
      </trkpt>
      <trkpt lat="46.77639" lon="5.53093">
        <ele>323.3</ele>
        <time>2012-11-24T13:23:04.000Z</time>
      </trkpt>
      <trkpt lat="46.77642" lon="5.53092">
        <ele>324.1</ele>
        <time>2012-11-24T13:23:06.000Z</time>
      </trkpt>
      <trkpt lat="46.77644" lon="5.53091">
        <ele>324.6</ele>
        <time>2012-11-24T13:23:07.000Z</time>
      </trkpt>
      <trkpt lat="46.77648" lon="5.5309">
        <ele>325.4</ele>
        <time>2012-11-24T13:23:09.000Z</time>
      </trkpt>
      <trkpt lat="46.7765" lon="5.5309">
        <ele>325.9</ele>
        <time>2012-11-24T13:23:10.000Z</time>
      </trkpt>
      <trkpt lat="46.77653" lon="5.53089">
        <ele>326.5</ele>
        <time>2012-11-24T13:23:12.000Z</time>
      </trkpt>
      <trkpt lat="46.77654" lon="5.53089">
        <ele>326.9</ele>
        <time>2012-11-24T13:23:13.000Z</time>
      </trkpt>
      <trkpt lat="46.77657" lon="5.53088">
        <ele>327.7</ele>
        <time>2012-11-24T13:23:15.000Z</time>
      </trkpt>
      <trkpt lat="46.77659" lon="5.53087">
        <ele>328.1</ele>
        <time>2012-11-24T13:23:16.000Z</time>
      </trkpt>
      <trkpt lat="46.77685" lon="5.53076">
        <ele>331.5</ele>
        <time>2012-11-24T13:23:24.000Z</time>
      </trkpt>
      <trkpt lat="46.7769" lon="5.53075">
        <ele>326.2</ele>
        <time>2012-11-24T13:23:35.000Z</time>
      </trkpt>
      <trkpt lat="46.77691" lon="5.53075">
        <ele>325.4</ele>
        <time>2012-11-24T13:23:36.000Z</time>
      </trkpt>
      <trkpt lat="46.77695" lon="5.53077">
        <ele>322.8</ele>
        <time>2012-11-24T13:23:40.000Z</time>
      </trkpt>
      <trkpt lat="46.77696" lon="5.53078">
        <ele>322.8</ele>
        <time>2012-11-24T13:23:41.000Z</time>
      </trkpt>
      <trkpt lat="46.777" lon="5.53078">
        <ele>320.3</ele>
        <time>2012-11-24T13:23:46.000Z</time>
      </trkpt>
      <trkpt lat="46.77701" lon="5.53078">
        <ele>320.1</ele>
        <time>2012-11-24T13:23:47.000Z</time>
      </trkpt>
      <trkpt lat="46.77705" lon="5.53082">
        <ele>319.3</ele>
        <time>2012-11-24T13:23:51.000Z</time>
      </trkpt>
      <trkpt lat="46.77706" lon="5.53082">
        <ele>319.8</ele>
        <time>2012-11-24T13:23:52.000Z</time>
      </trkpt>
      <trkpt lat="46.7771" lon="5.53083">
        <ele>318.9</ele>
        <time>2012-11-24T13:23:57.000Z</time>
      </trkpt>
      <trkpt lat="46.77711" lon="5.53082">
        <ele>319</ele>
        <time>2012-11-24T13:23:58.000Z</time>
      </trkpt>
      <trkpt lat="46.77715" lon="5.5308">
        <ele>318.1</ele>
        <time>2012-11-24T13:24:02.000Z</time>
      </trkpt>
      <trkpt lat="46.77715" lon="5.5308">
        <ele>317.9</ele>
        <time>2012-11-24T13:24:03.000Z</time>
      </trkpt>
      <trkpt lat="46.77719" lon="5.53078">
        <ele>317.5</ele>
        <time>2012-11-24T13:24:08.000Z</time>
      </trkpt>
      <trkpt lat="46.7772" lon="5.53078">
        <ele>317.7</ele>
        <time>2012-11-24T13:24:09.000Z</time>
      </trkpt>
      <trkpt lat="46.77724" lon="5.53077">
        <ele>320</ele>
        <time>2012-11-24T13:24:13.000Z</time>
      </trkpt>
      <trkpt lat="46.77725" lon="5.53076">
        <ele>320.9</ele>
        <time>2012-11-24T13:24:14.000Z</time>
      </trkpt>
      <trkpt lat="46.77727" lon="5.53075">
        <ele>322.5</ele>
        <time>2012-11-24T13:24:16.000Z</time>
      </trkpt>
      <trkpt lat="46.77742" lon="5.53074">
        <ele>331.3</ele>
        <time>2012-11-24T13:24:21.000Z</time>
      </trkpt>
      <trkpt lat="46.77751" lon="5.53074">
        <ele>341.2</ele>
        <time>2012-11-24T13:24:29.000Z</time>
      </trkpt>
      <trkpt lat="46.77755" lon="5.53071">
        <ele>334.9</ele>
        <time>2012-11-24T13:24:33.000Z</time>
      </trkpt>
      <trkpt lat="46.77755" lon="5.5307">
        <ele>334.1</ele>
        <time>2012-11-24T13:24:34.000Z</time>
      </trkpt>
      <trkpt lat="46.7776" lon="5.53069">
        <ele>331</ele>
        <time>2012-11-24T13:24:38.000Z</time>
      </trkpt>
      <trkpt lat="46.77761" lon="5.53069">
        <ele>330.1</ele>
        <time>2012-11-24T13:24:39.000Z</time>
      </trkpt>
      <trkpt lat="46.77765" lon="5.53067">
        <ele>328.8</ele>
        <time>2012-11-24T13:24:43.000Z</time>
      </trkpt>
      <trkpt lat="46.77766" lon="5.53067">
        <ele>328.5</ele>
        <time>2012-11-24T13:24:44.000Z</time>
      </trkpt>
      <trkpt lat="46.7777" lon="5.53069">
        <ele>316.5</ele>
        <time>2012-11-24T13:24:58.000Z</time>
      </trkpt>
      <trkpt lat="46.77771" lon="5.53069">
        <ele>316.7</ele>
        <time>2012-11-24T13:24:59.000Z</time>
      </trkpt>
      <trkpt lat="46.77775" lon="5.53068">
        <ele>317.4</ele>
        <time>2012-11-24T13:25:03.000Z</time>
      </trkpt>
      <trkpt lat="46.77776" lon="5.53068">
        <ele>317.5</ele>
        <time>2012-11-24T13:25:04.000Z</time>
      </trkpt>
      <trkpt lat="46.77779" lon="5.53067">
        <ele>318</ele>
        <time>2012-11-24T13:25:07.000Z</time>
      </trkpt>
      <trkpt lat="46.7778" lon="5.53067">
        <ele>318.4</ele>
        <time>2012-11-24T13:25:08.000Z</time>
      </trkpt>
      <trkpt lat="46.77784" lon="5.53065">
        <ele>319.3</ele>
        <time>2012-11-24T13:25:11.000Z</time>
      </trkpt>
      <trkpt lat="46.77785" lon="5.53065">
        <ele>320</ele>
        <time>2012-11-24T13:25:12.000Z</time>
      </trkpt>
      <trkpt lat="46.77789" lon="5.53063">
        <ele>321.4</ele>
        <time>2012-11-24T13:25:15.000Z</time>
      </trkpt>
      <trkpt lat="46.77791" lon="5.53062">
        <ele>321.8</ele>
        <time>2012-11-24T13:25:16.000Z</time>
      </trkpt>
      <trkpt lat="46.77794" lon="5.5306">
        <ele>322.8</ele>
        <time>2012-11-24T13:25:19.000Z</time>
      </trkpt>
      <trkpt lat="46.77795" lon="5.53059">
        <ele>323</ele>
        <time>2012-11-24T13:25:20.000Z</time>
      </trkpt>
      <trkpt lat="46.77799" lon="5.53058">
        <ele>323.6</ele>
        <time>2012-11-24T13:25:24.000Z</time>
      </trkpt>
      <trkpt lat="46.778" lon="5.53058">
        <ele>324</ele>
        <time>2012-11-24T13:25:25.000Z</time>
      </trkpt>
      <trkpt lat="46.77804" lon="5.53056">
        <ele>324.4</ele>
        <time>2012-11-24T13:25:29.000Z</time>
      </trkpt>
      <trkpt lat="46.77805" lon="5.53055">
        <ele>324.6</ele>
        <time>2012-11-24T13:25:30.000Z</time>
      </trkpt>
      <trkpt lat="46.77809" lon="5.53053">
        <ele>325.7</ele>
        <time>2012-11-24T13:25:34.000Z</time>
      </trkpt>
      <trkpt lat="46.7781" lon="5.53053">
        <ele>325.4</ele>
        <time>2012-11-24T13:25:35.000Z</time>
      </trkpt>
      <trkpt lat="46.77813" lon="5.53051">
        <ele>325.6</ele>
        <time>2012-11-24T13:25:37.000Z</time>
      </trkpt>
      <trkpt lat="46.77814" lon="5.5305">
        <ele>325.8</ele>
        <time>2012-11-24T13:25:38.000Z</time>
      </trkpt>
      <trkpt lat="46.77819" lon="5.53049">
        <ele>327.1</ele>
        <time>2012-11-24T13:25:41.000Z</time>
      </trkpt>
      <trkpt lat="46.7782" lon="5.53048">
        <ele>327.4</ele>
        <time>2012-11-24T13:25:42.000Z</time>
      </trkpt>
      <trkpt lat="46.77824" lon="5.53046">
        <ele>328.1</ele>
        <time>2012-11-24T13:25:45.000Z</time>
      </trkpt>
      <trkpt lat="46.77825" lon="5.53045">
        <ele>327.9</ele>
        <time>2012-11-24T13:25:46.000Z</time>
      </trkpt>
      <trkpt lat="46.77829" lon="5.53043">
        <ele>327.6</ele>
        <time>2012-11-24T13:25:49.000Z</time>
      </trkpt>
      <trkpt lat="46.7783" lon="5.53042">
        <ele>327.7</ele>
        <time>2012-11-24T13:25:50.000Z</time>
      </trkpt>
      <trkpt lat="46.77834" lon="5.5304">
        <ele>327.8</ele>
        <time>2012-11-24T13:25:53.000Z</time>
      </trkpt>
      <trkpt lat="46.77835" lon="5.53039">
        <ele>327.9</ele>
        <time>2012-11-24T13:25:54.000Z</time>
      </trkpt>
      <trkpt lat="46.77839" lon="5.53038">
        <ele>328.3</ele>
        <time>2012-11-24T13:25:57.000Z</time>
      </trkpt>
      <trkpt lat="46.77841" lon="5.53038">
        <ele>328.8</ele>
        <time>2012-11-24T13:25:58.000Z</time>
      </trkpt>
      <trkpt lat="46.77845" lon="5.53036">
        <ele>330.3</ele>
        <time>2012-11-24T13:26:01.000Z</time>
      </trkpt>
      <trkpt lat="46.77846" lon="5.53036">
        <ele>330.4</ele>
        <time>2012-11-24T13:26:02.000Z</time>
      </trkpt>
      <trkpt lat="46.7785" lon="5.53034">
        <ele>330.8</ele>
        <time>2012-11-24T13:26:07.000Z</time>
      </trkpt>
      <trkpt lat="46.77851" lon="5.53034">
        <ele>330.9</ele>
        <time>2012-11-24T13:26:08.000Z</time>
      </trkpt>
      <trkpt lat="46.77854" lon="5.53034">
        <ele>331.4</ele>
        <time>2012-11-24T13:26:11.000Z</time>
      </trkpt>
      <trkpt lat="46.77855" lon="5.53034">
        <ele>331.4</ele>
        <time>2012-11-24T13:26:12.000Z</time>
      </trkpt>
      <trkpt lat="46.77859" lon="5.53034">
        <ele>332</ele>
        <time>2012-11-24T13:26:15.000Z</time>
      </trkpt>
      <trkpt lat="46.77861" lon="5.53034">
        <ele>332.2</ele>
        <time>2012-11-24T13:26:16.000Z</time>
      </trkpt>
      <trkpt lat="46.77865" lon="5.53033">
        <ele>332.5</ele>
        <time>2012-11-24T13:26:19.000Z</time>
      </trkpt>
      <trkpt lat="46.77866" lon="5.53033">
        <ele>332.5</ele>
        <time>2012-11-24T13:26:20.000Z</time>
      </trkpt>
      <trkpt lat="46.7787" lon="5.53033">
        <ele>332.7</ele>
        <time>2012-11-24T13:26:23.000Z</time>
      </trkpt>
      <trkpt lat="46.77871" lon="5.53033">
        <ele>332.1</ele>
        <time>2012-11-24T13:26:24.000Z</time>
      </trkpt>
      <trkpt lat="46.77875" lon="5.53032">
        <ele>331.4</ele>
        <time>2012-11-24T13:26:26.000Z</time>
      </trkpt>
      <trkpt lat="46.77876" lon="5.53032">
        <ele>331</ele>
        <time>2012-11-24T13:26:27.000Z</time>
      </trkpt>
      <trkpt lat="46.7788" lon="5.53031">
        <ele>331.1</ele>
        <time>2012-11-24T13:26:30.000Z</time>
      </trkpt>
      <trkpt lat="46.77881" lon="5.53031">
        <ele>331.1</ele>
        <time>2012-11-24T13:26:31.000Z</time>
      </trkpt>
      <trkpt lat="46.77884" lon="5.5303">
        <ele>331.4</ele>
        <time>2012-11-24T13:26:34.000Z</time>
      </trkpt>
      <trkpt lat="46.77885" lon="5.53029">
        <ele>331.7</ele>
        <time>2012-11-24T13:26:35.000Z</time>
      </trkpt>
      <trkpt lat="46.7789" lon="5.53028">
        <ele>332.6</ele>
        <time>2012-11-24T13:26:39.000Z</time>
      </trkpt>
      <trkpt lat="46.77891" lon="5.53028">
        <ele>332.8</ele>
        <time>2012-11-24T13:26:40.000Z</time>
      </trkpt>
      <trkpt lat="46.77894" lon="5.53027">
        <ele>333.6</ele>
        <time>2012-11-24T13:26:43.000Z</time>
      </trkpt>
      <trkpt lat="46.77895" lon="5.53026">
        <ele>333.7</ele>
        <time>2012-11-24T13:26:44.000Z</time>
      </trkpt>
      <trkpt lat="46.77899" lon="5.53024">
        <ele>333.3</ele>
        <time>2012-11-24T13:26:47.000Z</time>
      </trkpt>
      <trkpt lat="46.77901" lon="5.53023">
        <ele>333.5</ele>
        <time>2012-11-24T13:26:48.000Z</time>
      </trkpt>
      <trkpt lat="46.77904" lon="5.53023">
        <ele>333.9</ele>
        <time>2012-11-24T13:26:50.000Z</time>
      </trkpt>
      <trkpt lat="46.77905" lon="5.53022">
        <ele>333.9</ele>
        <time>2012-11-24T13:26:51.000Z</time>
      </trkpt>
      <trkpt lat="46.77908" lon="5.53021">
        <ele>333.9</ele>
        <time>2012-11-24T13:26:54.000Z</time>
      </trkpt>
      <trkpt lat="46.77909" lon="5.5302">
        <ele>334</ele>
        <time>2012-11-24T13:26:55.000Z</time>
      </trkpt>
      <trkpt lat="46.77913" lon="5.53018">
        <ele>333.9</ele>
        <time>2012-11-24T13:26:58.000Z</time>
      </trkpt>
      <trkpt lat="46.77914" lon="5.53018">
        <ele>333.9</ele>
        <time>2012-11-24T13:26:59.000Z</time>
      </trkpt>
      <trkpt lat="46.77918" lon="5.53016">
        <ele>333.9</ele>
        <time>2012-11-24T13:27:03.000Z</time>
      </trkpt>
      <trkpt lat="46.77919" lon="5.53015">
        <ele>334.3</ele>
        <time>2012-11-24T13:27:04.000Z</time>
      </trkpt>
      <trkpt lat="46.77923" lon="5.53015">
        <ele>335.5</ele>
        <time>2012-11-24T13:27:07.000Z</time>
      </trkpt>
      <trkpt lat="46.77924" lon="5.53015">
        <ele>335.6</ele>
        <time>2012-11-24T13:27:08.000Z</time>
      </trkpt>
      <trkpt lat="46.77929" lon="5.53015">
        <ele>335.9</ele>
        <time>2012-11-24T13:27:11.000Z</time>
      </trkpt>
      <trkpt lat="46.7793" lon="5.53015">
        <ele>335.9</ele>
        <time>2012-11-24T13:27:12.000Z</time>
      </trkpt>
      <trkpt lat="46.77933" lon="5.53014">
        <ele>335.2</ele>
        <time>2012-11-24T13:27:15.000Z</time>
      </trkpt>
      <trkpt lat="46.77934" lon="5.53013">
        <ele>334.9</ele>
        <time>2012-11-24T13:27:16.000Z</time>
      </trkpt>
      <trkpt lat="46.77938" lon="5.53011">
        <ele>333.8</ele>
        <time>2012-11-24T13:27:19.000Z</time>
      </trkpt>
      <trkpt lat="46.77939" lon="5.5301">
        <ele>333.6</ele>
        <time>2012-11-24T13:27:20.000Z</time>
      </trkpt>
      <trkpt lat="46.77942" lon="5.53009">
        <ele>333.3</ele>
        <time>2012-11-24T13:27:23.000Z</time>
      </trkpt>
      <trkpt lat="46.77944" lon="5.53009">
        <ele>333.4</ele>
        <time>2012-11-24T13:27:24.000Z</time>
      </trkpt>
      <trkpt lat="46.77947" lon="5.53008">
        <ele>333.5</ele>
        <time>2012-11-24T13:27:27.000Z</time>
      </trkpt>
      <trkpt lat="46.77948" lon="5.53007">
        <ele>333</ele>
        <time>2012-11-24T13:27:28.000Z</time>
      </trkpt>
      <trkpt lat="46.77952" lon="5.53006">
        <ele>332.8</ele>
        <time>2012-11-24T13:27:31.000Z</time>
      </trkpt>
      <trkpt lat="46.77953" lon="5.53006">
        <ele>332.8</ele>
        <time>2012-11-24T13:27:32.000Z</time>
      </trkpt>
      <trkpt lat="46.77957" lon="5.53005">
        <ele>333.2</ele>
        <time>2012-11-24T13:27:35.000Z</time>
      </trkpt>
      <trkpt lat="46.77958" lon="5.53004">
        <ele>333.2</ele>
        <time>2012-11-24T13:27:36.000Z</time>
      </trkpt>
      <trkpt lat="46.77962" lon="5.53003">
        <ele>332.4</ele>
        <time>2012-11-24T13:27:40.000Z</time>
      </trkpt>
      <trkpt lat="46.77963" lon="5.53003">
        <ele>332.4</ele>
        <time>2012-11-24T13:27:41.000Z</time>
      </trkpt>
      <trkpt lat="46.77967" lon="5.53001">
        <ele>332.9</ele>
        <time>2012-11-24T13:27:45.000Z</time>
      </trkpt>
      <trkpt lat="46.77968" lon="5.53">
        <ele>332.9</ele>
        <time>2012-11-24T13:27:46.000Z</time>
      </trkpt>
      <trkpt lat="46.77972" lon="5.53001">
        <ele>332.9</ele>
        <time>2012-11-24T13:27:50.000Z</time>
      </trkpt>
      <trkpt lat="46.77973" lon="5.53001">
        <ele>332.9</ele>
        <time>2012-11-24T13:27:51.000Z</time>
      </trkpt>
      <trkpt lat="46.77976" lon="5.53">
        <ele>333.5</ele>
        <time>2012-11-24T13:27:54.000Z</time>
      </trkpt>
      <trkpt lat="46.77978" lon="5.53">
        <ele>333.8</ele>
        <time>2012-11-24T13:27:55.000Z</time>
      </trkpt>
      <trkpt lat="46.77982" lon="5.52999">
        <ele>334.3</ele>
        <time>2012-11-24T13:27:58.000Z</time>
      </trkpt>
      <trkpt lat="46.77983" lon="5.52999">
        <ele>334.3</ele>
        <time>2012-11-24T13:27:59.000Z</time>
      </trkpt>
      <trkpt lat="46.77987" lon="5.53">
        <ele>334.3</ele>
        <time>2012-11-24T13:28:02.000Z</time>
      </trkpt>
      <trkpt lat="46.77988" lon="5.53">
        <ele>334.4</ele>
        <time>2012-11-24T13:28:03.000Z</time>
      </trkpt>
      <trkpt lat="46.77992" lon="5.53">
        <ele>334.9</ele>
        <time>2012-11-24T13:28:06.000Z</time>
      </trkpt>
      <trkpt lat="46.77993" lon="5.53">
        <ele>335</ele>
        <time>2012-11-24T13:28:07.000Z</time>
      </trkpt>
      <trkpt lat="46.77996" lon="5.52999">
        <ele>334.3</ele>
        <time>2012-11-24T13:28:10.000Z</time>
      </trkpt>
      <trkpt lat="46.77997" lon="5.52999">
        <ele>334.1</ele>
        <time>2012-11-24T13:28:11.000Z</time>
      </trkpt>
      <trkpt lat="46.78001" lon="5.52998">
        <ele>333.9</ele>
        <time>2012-11-24T13:28:14.000Z</time>
      </trkpt>
      <trkpt lat="46.78002" lon="5.52998">
        <ele>333.5</ele>
        <time>2012-11-24T13:28:15.000Z</time>
      </trkpt>
      <trkpt lat="46.78006" lon="5.52998">
        <ele>333</ele>
        <time>2012-11-24T13:28:18.000Z</time>
      </trkpt>
      <trkpt lat="46.78007" lon="5.52998">
        <ele>332.9</ele>
        <time>2012-11-24T13:28:19.000Z</time>
      </trkpt>
      <trkpt lat="46.78011" lon="5.52997">
        <ele>332</ele>
        <time>2012-11-24T13:28:22.000Z</time>
      </trkpt>
      <trkpt lat="46.78012" lon="5.52996">
        <ele>332.1</ele>
        <time>2012-11-24T13:28:23.000Z</time>
      </trkpt>
      <trkpt lat="46.78015" lon="5.52994">
        <ele>332.1</ele>
        <time>2012-11-24T13:28:26.000Z</time>
      </trkpt>
      <trkpt lat="46.78016" lon="5.52994">
        <ele>332.1</ele>
        <time>2012-11-24T13:28:27.000Z</time>
      </trkpt>
      <trkpt lat="46.7802" lon="5.52993">
        <ele>332.1</ele>
        <time>2012-11-24T13:28:30.000Z</time>
      </trkpt>
      <trkpt lat="46.78021" lon="5.52993">
        <ele>332</ele>
        <time>2012-11-24T13:28:31.000Z</time>
      </trkpt>
      <trkpt lat="46.78025" lon="5.52991">
        <ele>332.4</ele>
        <time>2012-11-24T13:28:34.000Z</time>
      </trkpt>
      <trkpt lat="46.78026" lon="5.52991">
        <ele>332.5</ele>
        <time>2012-11-24T13:28:35.000Z</time>
      </trkpt>
      <trkpt lat="46.7803" lon="5.5299">
        <ele>332.7</ele>
        <time>2012-11-24T13:28:38.000Z</time>
      </trkpt>
      <trkpt lat="46.78031" lon="5.5299">
        <ele>332.8</ele>
        <time>2012-11-24T13:28:39.000Z</time>
      </trkpt>
      <trkpt lat="46.78035" lon="5.5299">
        <ele>333.3</ele>
        <time>2012-11-24T13:28:43.000Z</time>
      </trkpt>
      <trkpt lat="46.78036" lon="5.52991">
        <ele>333.3</ele>
        <time>2012-11-24T13:28:44.000Z</time>
      </trkpt>
      <trkpt lat="46.78039" lon="5.5299">
        <ele>332.7</ele>
        <time>2012-11-24T13:28:47.000Z</time>
      </trkpt>
      <trkpt lat="46.7804" lon="5.5299">
        <ele>332.8</ele>
        <time>2012-11-24T13:28:48.000Z</time>
      </trkpt>
      <trkpt lat="46.78044" lon="5.52989">
        <ele>333.5</ele>
        <time>2012-11-24T13:28:51.000Z</time>
      </trkpt>
      <trkpt lat="46.78045" lon="5.52988">
        <ele>333.4</ele>
        <time>2012-11-24T13:28:52.000Z</time>
      </trkpt>
      <trkpt lat="46.78049" lon="5.52988">
        <ele>331.8</ele>
        <time>2012-11-24T13:28:56.000Z</time>
      </trkpt>
      <trkpt lat="46.78051" lon="5.52988">
        <ele>331.3</ele>
        <time>2012-11-24T13:28:57.000Z</time>
      </trkpt>
      <trkpt lat="46.78054" lon="5.52987">
        <ele>331</ele>
        <time>2012-11-24T13:28:59.000Z</time>
      </trkpt>
      <trkpt lat="46.78055" lon="5.52987">
        <ele>331.1</ele>
        <time>2012-11-24T13:29:00.000Z</time>
      </trkpt>
      <trkpt lat="46.78059" lon="5.52986">
        <ele>331.8</ele>
        <time>2012-11-24T13:29:03.000Z</time>
      </trkpt>
      <trkpt lat="46.7806" lon="5.52985">
        <ele>332.1</ele>
        <time>2012-11-24T13:29:04.000Z</time>
      </trkpt>
      <trkpt lat="46.78064" lon="5.52982">
        <ele>332.1</ele>
        <time>2012-11-24T13:29:08.000Z</time>
      </trkpt>
      <trkpt lat="46.78065" lon="5.52982">
        <ele>331.8</ele>
        <time>2012-11-24T13:29:09.000Z</time>
      </trkpt>
      <trkpt lat="46.78068" lon="5.52982">
        <ele>331.1</ele>
        <time>2012-11-24T13:29:12.000Z</time>
      </trkpt>
      <trkpt lat="46.78069" lon="5.52982">
        <ele>331.2</ele>
        <time>2012-11-24T13:29:13.000Z</time>
      </trkpt>
      <trkpt lat="46.78073" lon="5.52981">
        <ele>330.8</ele>
        <time>2012-11-24T13:29:16.000Z</time>
      </trkpt>
      <trkpt lat="46.78074" lon="5.5298">
        <ele>330.7</ele>
        <time>2012-11-24T13:29:17.000Z</time>
      </trkpt>
      <trkpt lat="46.78078" lon="5.52979">
        <ele>330.6</ele>
        <time>2012-11-24T13:29:20.000Z</time>
      </trkpt>
      <trkpt lat="46.78079" lon="5.52979">
        <ele>330.5</ele>
        <time>2012-11-24T13:29:21.000Z</time>
      </trkpt>
      <trkpt lat="46.78083" lon="5.52978">
        <ele>330.4</ele>
        <time>2012-11-24T13:29:25.000Z</time>
      </trkpt>
      <trkpt lat="46.78084" lon="5.52978">
        <ele>330.5</ele>
        <time>2012-11-24T13:29:26.000Z</time>
      </trkpt>
      <trkpt lat="46.78088" lon="5.52977">
        <ele>331.3</ele>
        <time>2012-11-24T13:29:30.000Z</time>
      </trkpt>
      <trkpt lat="46.7809" lon="5.52977">
        <ele>331</ele>
        <time>2012-11-24T13:29:31.000Z</time>
      </trkpt>
      <trkpt lat="46.78093" lon="5.5298">
        <ele>328</ele>
        <time>2012-11-24T13:29:36.000Z</time>
      </trkpt>
      <trkpt lat="46.78094" lon="5.5298">
        <ele>328</ele>
        <time>2012-11-24T13:29:37.000Z</time>
      </trkpt>
      <trkpt lat="46.78096" lon="5.52984">
        <ele>325.6</ele>
        <time>2012-11-24T13:29:45.000Z</time>
      </trkpt>
      <trkpt lat="46.78098" lon="5.52985">
        <ele>325.8</ele>
        <time>2012-11-24T13:29:46.000Z</time>
      </trkpt>
      <trkpt lat="46.78101" lon="5.52984">
        <ele>326.2</ele>
        <time>2012-11-24T13:29:49.000Z</time>
      </trkpt>
      <trkpt lat="46.78102" lon="5.52984">
        <ele>326.1</ele>
        <time>2012-11-24T13:29:50.000Z</time>
      </trkpt>
      <trkpt lat="46.78106" lon="5.52982">
        <ele>326.1</ele>
        <time>2012-11-24T13:29:53.000Z</time>
      </trkpt>
      <trkpt lat="46.78107" lon="5.52982">
        <ele>326.4</ele>
        <time>2012-11-24T13:29:54.000Z</time>
      </trkpt>
      <trkpt lat="46.7811" lon="5.52982">
        <ele>326.5</ele>
        <time>2012-11-24T13:29:57.000Z</time>
      </trkpt>
      <trkpt lat="46.78111" lon="5.52981">
        <ele>326.3</ele>
        <time>2012-11-24T13:29:58.000Z</time>
      </trkpt>
      <trkpt lat="46.78115" lon="5.52981">
        <ele>327.7</ele>
        <time>2012-11-24T13:30:01.000Z</time>
      </trkpt>
      <trkpt lat="46.78116" lon="5.52982">
        <ele>327.9</ele>
        <time>2012-11-24T13:30:02.000Z</time>
      </trkpt>
      <trkpt lat="46.7812" lon="5.52984">
        <ele>327.3</ele>
        <time>2012-11-24T13:30:07.000Z</time>
      </trkpt>
      <trkpt lat="46.78121" lon="5.52984">
        <ele>327.4</ele>
        <time>2012-11-24T13:30:08.000Z</time>
      </trkpt>
      <trkpt lat="46.78124" lon="5.52985">
        <ele>327.1</ele>
        <time>2012-11-24T13:30:11.000Z</time>
      </trkpt>
      <trkpt lat="46.78125" lon="5.52987">
        <ele>326.7</ele>
        <time>2012-11-24T13:30:12.000Z</time>
      </trkpt>
      <trkpt lat="46.78123" lon="5.5299">
        <ele>324.7</ele>
        <time>2012-11-24T13:30:36.000Z</time>
      </trkpt>
      <trkpt lat="46.78119" lon="5.52981">
        <ele>311.2</ele>
        <time>2012-11-24T13:33:02.000Z</time>
      </trkpt>
      <trkpt lat="46.78121" lon="5.52976">
        <ele>311.2</ele>
        <time>2012-11-24T13:33:06.000Z</time>
      </trkpt>
      <trkpt lat="46.78121" lon="5.52975">
        <ele>311.8</ele>
        <time>2012-11-24T13:33:07.000Z</time>
      </trkpt>
      <trkpt lat="46.78122" lon="5.5297">
        <ele>312.6</ele>
        <time>2012-11-24T13:33:10.000Z</time>
      </trkpt>
      <trkpt lat="46.78123" lon="5.52969">
        <ele>312.8</ele>
        <time>2012-11-24T13:33:11.000Z</time>
      </trkpt>
      <trkpt lat="46.78125" lon="5.52964">
        <ele>313.1</ele>
        <time>2012-11-24T13:33:14.000Z</time>
      </trkpt>
      <trkpt lat="46.78125" lon="5.52962">
        <ele>313.4</ele>
        <time>2012-11-24T13:33:15.000Z</time>
      </trkpt>
      <trkpt lat="46.78126" lon="5.52957">
        <ele>314.5</ele>
        <time>2012-11-24T13:33:18.000Z</time>
      </trkpt>
      <trkpt lat="46.78127" lon="5.52955">
        <ele>315</ele>
        <time>2012-11-24T13:33:19.000Z</time>
      </trkpt>
      <trkpt lat="46.78128" lon="5.52949">
        <ele>315.7</ele>
        <time>2012-11-24T13:33:23.000Z</time>
      </trkpt>
      <trkpt lat="46.78129" lon="5.52947">
        <ele>315.8</ele>
        <time>2012-11-24T13:33:24.000Z</time>
      </trkpt>
      <trkpt lat="46.7813" lon="5.52941">
        <ele>316.6</ele>
        <time>2012-11-24T13:33:28.000Z</time>
      </trkpt>
      <trkpt lat="46.7813" lon="5.52939">
        <ele>316.8</ele>
        <time>2012-11-24T13:33:29.000Z</time>
      </trkpt>
      <trkpt lat="46.78131" lon="5.52934">
        <ele>316.7</ele>
        <time>2012-11-24T13:33:32.000Z</time>
      </trkpt>
      <trkpt lat="46.78131" lon="5.52932">
        <ele>316.9</ele>
        <time>2012-11-24T13:33:33.000Z</time>
      </trkpt>
      <trkpt lat="46.78132" lon="5.52926">
        <ele>318.1</ele>
        <time>2012-11-24T13:33:36.000Z</time>
      </trkpt>
      <trkpt lat="46.78132" lon="5.52924">
        <ele>317.7</ele>
        <time>2012-11-24T13:33:37.000Z</time>
      </trkpt>
      <trkpt lat="46.78133" lon="5.52918">
        <ele>318.5</ele>
        <time>2012-11-24T13:33:40.000Z</time>
      </trkpt>
      <trkpt lat="46.78133" lon="5.52916">
        <ele>319.2</ele>
        <time>2012-11-24T13:33:41.000Z</time>
      </trkpt>
      <trkpt lat="46.78134" lon="5.5291">
        <ele>320.2</ele>
        <time>2012-11-24T13:33:44.000Z</time>
      </trkpt>
      <trkpt lat="46.78135" lon="5.52909">
        <ele>320</ele>
        <time>2012-11-24T13:33:45.000Z</time>
      </trkpt>
      <trkpt lat="46.78135" lon="5.52904">
        <ele>319.7</ele>
        <time>2012-11-24T13:33:48.000Z</time>
      </trkpt>
      <trkpt lat="46.78135" lon="5.52902">
        <ele>319.5</ele>
        <time>2012-11-24T13:33:49.000Z</time>
      </trkpt>
      <trkpt lat="46.78136" lon="5.52896">
        <ele>319.6</ele>
        <time>2012-11-24T13:33:53.000Z</time>
      </trkpt>
      <trkpt lat="46.78136" lon="5.52895">
        <ele>319.8</ele>
        <time>2012-11-24T13:33:54.000Z</time>
      </trkpt>
      <trkpt lat="46.78138" lon="5.5289">
        <ele>320.5</ele>
        <time>2012-11-24T13:33:57.000Z</time>
      </trkpt>
      <trkpt lat="46.78138" lon="5.52888">
        <ele>320.9</ele>
        <time>2012-11-24T13:33:58.000Z</time>
      </trkpt>
      <trkpt lat="46.78138" lon="5.52882">
        <ele>321.7</ele>
        <time>2012-11-24T13:34:01.000Z</time>
      </trkpt>
      <trkpt lat="46.78138" lon="5.5288">
        <ele>321.7</ele>
        <time>2012-11-24T13:34:02.000Z</time>
      </trkpt>
      <trkpt lat="46.78139" lon="5.52874">
        <ele>322.3</ele>
        <time>2012-11-24T13:34:07.000Z</time>
      </trkpt>
      <trkpt lat="46.7814" lon="5.52872">
        <ele>322.3</ele>
        <time>2012-11-24T13:34:08.000Z</time>
      </trkpt>
      <trkpt lat="46.78142" lon="5.52867">
        <ele>322.1</ele>
        <time>2012-11-24T13:34:11.000Z</time>
      </trkpt>
      <trkpt lat="46.78142" lon="5.52866">
        <ele>322.4</ele>
        <time>2012-11-24T13:34:12.000Z</time>
      </trkpt>
      <trkpt lat="46.78143" lon="5.5286">
        <ele>323.3</ele>
        <time>2012-11-24T13:34:16.000Z</time>
      </trkpt>
      <trkpt lat="46.78143" lon="5.52858">
        <ele>323.7</ele>
        <time>2012-11-24T13:34:17.000Z</time>
      </trkpt>
      <trkpt lat="46.78144" lon="5.52853">
        <ele>325.1</ele>
        <time>2012-11-24T13:34:20.000Z</time>
      </trkpt>
      <trkpt lat="46.78145" lon="5.52851">
        <ele>325.2</ele>
        <time>2012-11-24T13:34:21.000Z</time>
      </trkpt>
      <trkpt lat="46.78146" lon="5.52846">
        <ele>325.8</ele>
        <time>2012-11-24T13:34:24.000Z</time>
      </trkpt>
      <trkpt lat="46.78147" lon="5.52844">
        <ele>325.7</ele>
        <time>2012-11-24T13:34:25.000Z</time>
      </trkpt>
      <trkpt lat="46.78148" lon="5.52839">
        <ele>325.4</ele>
        <time>2012-11-24T13:34:28.000Z</time>
      </trkpt>
      <trkpt lat="46.78149" lon="5.52837">
        <ele>325.5</ele>
        <time>2012-11-24T13:34:29.000Z</time>
      </trkpt>
      <trkpt lat="46.7815" lon="5.52832">
        <ele>324.8</ele>
        <time>2012-11-24T13:34:33.000Z</time>
      </trkpt>
      <trkpt lat="46.7815" lon="5.52831">
        <ele>324.6</ele>
        <time>2012-11-24T13:34:34.000Z</time>
      </trkpt>
      <trkpt lat="46.78152" lon="5.52825">
        <ele>323.8</ele>
        <time>2012-11-24T13:34:39.000Z</time>
      </trkpt>
      <trkpt lat="46.78153" lon="5.52824">
        <ele>323.9</ele>
        <time>2012-11-24T13:34:40.000Z</time>
      </trkpt>
      <trkpt lat="46.78154" lon="5.52819">
        <ele>324.3</ele>
        <time>2012-11-24T13:34:43.000Z</time>
      </trkpt>
      <trkpt lat="46.78154" lon="5.52817">
        <ele>324.4</ele>
        <time>2012-11-24T13:34:44.000Z</time>
      </trkpt>
      <trkpt lat="46.78155" lon="5.52812">
        <ele>324.4</ele>
        <time>2012-11-24T13:34:47.000Z</time>
      </trkpt>
      <trkpt lat="46.78156" lon="5.52809">
        <ele>324.8</ele>
        <time>2012-11-24T13:34:48.000Z</time>
      </trkpt>
      <trkpt lat="46.78156" lon="5.52804">
        <ele>324.6</ele>
        <time>2012-11-24T13:34:51.000Z</time>
      </trkpt>
      <trkpt lat="46.78157" lon="5.52802">
        <ele>324.2</ele>
        <time>2012-11-24T13:34:52.000Z</time>
      </trkpt>
      <trkpt lat="46.78158" lon="5.52796">
        <ele>324.4</ele>
        <time>2012-11-24T13:34:55.000Z</time>
      </trkpt>
      <trkpt lat="46.78158" lon="5.52795">
        <ele>324.4</ele>
        <time>2012-11-24T13:34:56.000Z</time>
      </trkpt>
      <trkpt lat="46.78159" lon="5.5279">
        <ele>324.7</ele>
        <time>2012-11-24T13:34:59.000Z</time>
      </trkpt>
      <trkpt lat="46.7816" lon="5.52788">
        <ele>325</ele>
        <time>2012-11-24T13:35:00.000Z</time>
      </trkpt>
      <trkpt lat="46.78161" lon="5.52783">
        <ele>324.8</ele>
        <time>2012-11-24T13:35:03.000Z</time>
      </trkpt>
      <trkpt lat="46.78161" lon="5.52781">
        <ele>324.9</ele>
        <time>2012-11-24T13:35:04.000Z</time>
      </trkpt>
      <trkpt lat="46.78163" lon="5.52776">
        <ele>323.3</ele>
        <time>2012-11-24T13:35:09.000Z</time>
      </trkpt>
      <trkpt lat="46.78164" lon="5.52775">
        <ele>323.3</ele>
        <time>2012-11-24T13:35:10.000Z</time>
      </trkpt>
      <trkpt lat="46.78165" lon="5.5277">
        <ele>322.7</ele>
        <time>2012-11-24T13:35:14.000Z</time>
      </trkpt>
      <trkpt lat="46.78165" lon="5.52768">
        <ele>322.9</ele>
        <time>2012-11-24T13:35:15.000Z</time>
      </trkpt>
      <trkpt lat="46.78165" lon="5.52763">
        <ele>323</ele>
        <time>2012-11-24T13:35:18.000Z</time>
      </trkpt>
      <trkpt lat="46.78165" lon="5.52761">
        <ele>322.9</ele>
        <time>2012-11-24T13:35:19.000Z</time>
      </trkpt>
      <trkpt lat="46.78165" lon="5.52756">
        <ele>323.4</ele>
        <time>2012-11-24T13:35:22.000Z</time>
      </trkpt>
      <trkpt lat="46.78165" lon="5.52754">
        <ele>323.8</ele>
        <time>2012-11-24T13:35:23.000Z</time>
      </trkpt>
      <trkpt lat="46.78166" lon="5.52749">
        <ele>323.9</ele>
        <time>2012-11-24T13:35:26.000Z</time>
      </trkpt>
      <trkpt lat="46.78166" lon="5.52747">
        <ele>323.8</ele>
        <time>2012-11-24T13:35:27.000Z</time>
      </trkpt>
      <trkpt lat="46.78167" lon="5.52741">
        <ele>324.4</ele>
        <time>2012-11-24T13:35:32.000Z</time>
      </trkpt>
      <trkpt lat="46.78167" lon="5.5274">
        <ele>324.3</ele>
        <time>2012-11-24T13:35:33.000Z</time>
      </trkpt>
      <trkpt lat="46.78168" lon="5.52735">
        <ele>324.2</ele>
        <time>2012-11-24T13:35:37.000Z</time>
      </trkpt>
      <trkpt lat="46.78169" lon="5.52733">
        <ele>324.1</ele>
        <time>2012-11-24T13:35:38.000Z</time>
      </trkpt>
      <trkpt lat="46.7817" lon="5.52728">
        <ele>323.3</ele>
        <time>2012-11-24T13:35:42.000Z</time>
      </trkpt>
      <trkpt lat="46.78171" lon="5.52727">
        <ele>322.9</ele>
        <time>2012-11-24T13:35:43.000Z</time>
      </trkpt>
      <trkpt lat="46.78172" lon="5.52721">
        <ele>322.9</ele>
        <time>2012-11-24T13:35:46.000Z</time>
      </trkpt>
      <trkpt lat="46.78172" lon="5.52719">
        <ele>323.4</ele>
        <time>2012-11-24T13:35:47.000Z</time>
      </trkpt>
      <trkpt lat="46.78172" lon="5.52714">
        <ele>323.6</ele>
        <time>2012-11-24T13:35:50.000Z</time>
      </trkpt>
      <trkpt lat="46.78173" lon="5.52712">
        <ele>323.5</ele>
        <time>2012-11-24T13:35:51.000Z</time>
      </trkpt>
      <trkpt lat="46.78174" lon="5.52707">
        <ele>323.1</ele>
        <time>2012-11-24T13:35:55.000Z</time>
      </trkpt>
      <trkpt lat="46.78174" lon="5.52705">
        <ele>322.9</ele>
        <time>2012-11-24T13:35:56.000Z</time>
      </trkpt>
      <trkpt lat="46.78176" lon="5.527">
        <ele>322.8</ele>
        <time>2012-11-24T13:36:00.000Z</time>
      </trkpt>
      <trkpt lat="46.78177" lon="5.52699">
        <ele>322.9</ele>
        <time>2012-11-24T13:36:01.000Z</time>
      </trkpt>
      <trkpt lat="46.78178" lon="5.52692">
        <ele>322.9</ele>
        <time>2012-11-24T13:36:05.000Z</time>
      </trkpt>
      <trkpt lat="46.78178" lon="5.52691">
        <ele>322.9</ele>
        <time>2012-11-24T13:36:06.000Z</time>
      </trkpt>
      <trkpt lat="46.78179" lon="5.52685">
        <ele>321.2</ele>
        <time>2012-11-24T13:36:10.000Z</time>
      </trkpt>
      <trkpt lat="46.78179" lon="5.52683">
        <ele>321.2</ele>
        <time>2012-11-24T13:36:11.000Z</time>
      </trkpt>
      <trkpt lat="46.78181" lon="5.52678">
        <ele>320.4</ele>
        <time>2012-11-24T13:36:15.000Z</time>
      </trkpt>
      <trkpt lat="46.78182" lon="5.52677">
        <ele>320.3</ele>
        <time>2012-11-24T13:36:16.000Z</time>
      </trkpt>
      <trkpt lat="46.78184" lon="5.52673">
        <ele>319.1</ele>
        <time>2012-11-24T13:36:20.000Z</time>
      </trkpt>
      <trkpt lat="46.78185" lon="5.52672">
        <ele>318.9</ele>
        <time>2012-11-24T13:36:21.000Z</time>
      </trkpt>
      <trkpt lat="46.78186" lon="5.52665">
        <ele>317.2</ele>
        <time>2012-11-24T13:36:25.000Z</time>
      </trkpt>
      <trkpt lat="46.78186" lon="5.52664">
        <ele>316.9</ele>
        <time>2012-11-24T13:36:26.000Z</time>
      </trkpt>
      <trkpt lat="46.78188" lon="5.52659">
        <ele>315.8</ele>
        <time>2012-11-24T13:36:30.000Z</time>
      </trkpt>
      <trkpt lat="46.78188" lon="5.52658">
        <ele>315.7</ele>
        <time>2012-11-24T13:36:31.000Z</time>
      </trkpt>
      <trkpt lat="46.78191" lon="5.52652">
        <ele>313.2</ele>
        <time>2012-11-24T13:36:37.000Z</time>
      </trkpt>
      <trkpt lat="46.78191" lon="5.52652">
        <ele>313</ele>
        <time>2012-11-24T13:36:38.000Z</time>
      </trkpt>
      <trkpt lat="46.78194" lon="5.52647">
        <ele>311.8</ele>
        <time>2012-11-24T13:36:43.000Z</time>
      </trkpt>
      <trkpt lat="46.78194" lon="5.52645">
        <ele>311.4</ele>
        <time>2012-11-24T13:36:44.000Z</time>
      </trkpt>
      <trkpt lat="46.78195" lon="5.5264">
        <ele>310.7</ele>
        <time>2012-11-24T13:36:48.000Z</time>
      </trkpt>
      <trkpt lat="46.78195" lon="5.52639">
        <ele>310.9</ele>
        <time>2012-11-24T13:36:49.000Z</time>
      </trkpt>
      <trkpt lat="46.78196" lon="5.52633">
        <ele>310.7</ele>
        <time>2012-11-24T13:36:53.000Z</time>
      </trkpt>
      <trkpt lat="46.78197" lon="5.52632">
        <ele>310.5</ele>
        <time>2012-11-24T13:36:54.000Z</time>
      </trkpt>
      <trkpt lat="46.78198" lon="5.52627">
        <ele>309.7</ele>
        <time>2012-11-24T13:36:58.000Z</time>
      </trkpt>
      <trkpt lat="46.78198" lon="5.52626">
        <ele>309.5</ele>
        <time>2012-11-24T13:36:59.000Z</time>
      </trkpt>
      <trkpt lat="46.782" lon="5.52621">
        <ele>309</ele>
        <time>2012-11-24T13:37:03.000Z</time>
      </trkpt>
      <trkpt lat="46.78201" lon="5.5262">
        <ele>309</ele>
        <time>2012-11-24T13:37:04.000Z</time>
      </trkpt>
      <trkpt lat="46.78202" lon="5.52614">
        <ele>308.6</ele>
        <time>2012-11-24T13:37:09.000Z</time>
      </trkpt>
      <trkpt lat="46.78203" lon="5.52613">
        <ele>308.4</ele>
        <time>2012-11-24T13:37:10.000Z</time>
      </trkpt>
      <trkpt lat="46.78205" lon="5.52607">
        <ele>307.6</ele>
        <time>2012-11-24T13:37:14.000Z</time>
      </trkpt>
      <trkpt lat="46.78205" lon="5.52606">
        <ele>307.5</ele>
        <time>2012-11-24T13:37:15.000Z</time>
      </trkpt>
      <trkpt lat="46.78206" lon="5.52603">
        <ele>307.3</ele>
        <time>2012-11-24T13:37:17.500Z</time>
      </trkpt>
      <trkpt lat="46.78208" lon="5.52596">
        <ele>304.6</ele>
        <time>2012-11-24T13:37:24.000Z</time>
      </trkpt>
      <trkpt lat="46.78209" lon="5.5259">
        <ele>305.2</ele>
        <time>2012-11-24T13:37:28.000Z</time>
      </trkpt>
      <trkpt lat="46.7821" lon="5.52589">
        <ele>305</ele>
        <time>2012-11-24T13:37:29.000Z</time>
      </trkpt>
      <trkpt lat="46.78211" lon="5.52583">
        <ele>304.8</ele>
        <time>2012-11-24T13:37:33.000Z</time>
      </trkpt>
      <trkpt lat="46.78211" lon="5.52581">
        <ele>304.9</ele>
        <time>2012-11-24T13:37:34.000Z</time>
      </trkpt>
      <trkpt lat="46.78212" lon="5.52576">
        <ele>304.7</ele>
        <time>2012-11-24T13:37:38.000Z</time>
      </trkpt>
      <trkpt lat="46.78212" lon="5.52575">
        <ele>304.9</ele>
        <time>2012-11-24T13:37:39.000Z</time>
      </trkpt>
      <trkpt lat="46.78211" lon="5.5257">
        <ele>304.6</ele>
        <time>2012-11-24T13:37:42.000Z</time>
      </trkpt>
      <trkpt lat="46.78211" lon="5.52568">
        <ele>304.2</ele>
        <time>2012-11-24T13:37:43.000Z</time>
      </trkpt>
      <trkpt lat="46.7821" lon="5.52562">
        <ele>304.1</ele>
        <time>2012-11-24T13:37:46.000Z</time>
      </trkpt>
      <trkpt lat="46.7821" lon="5.52561">
        <ele>303.7</ele>
        <time>2012-11-24T13:37:47.000Z</time>
      </trkpt>
      <trkpt lat="46.78209" lon="5.52555">
        <ele>302</ele>
        <time>2012-11-24T13:37:51.000Z</time>
      </trkpt>
      <trkpt lat="46.78209" lon="5.52553">
        <ele>301.9</ele>
        <time>2012-11-24T13:37:52.000Z</time>
      </trkpt>
      <trkpt lat="46.78209" lon="5.52547">
        <ele>302.3</ele>
        <time>2012-11-24T13:37:56.000Z</time>
      </trkpt>
      <trkpt lat="46.78209" lon="5.52545">
        <ele>302.2</ele>
        <time>2012-11-24T13:37:57.000Z</time>
      </trkpt>
      <trkpt lat="46.78209" lon="5.52538">
        <ele>302.5</ele>
        <time>2012-11-24T13:38:01.000Z</time>
      </trkpt>
      <trkpt lat="46.78209" lon="5.52537">
        <ele>302.7</ele>
        <time>2012-11-24T13:38:02.000Z</time>
      </trkpt>
      <trkpt lat="46.7821" lon="5.52532">
        <ele>303.3</ele>
        <time>2012-11-24T13:38:05.000Z</time>
      </trkpt>
      <trkpt lat="46.78209" lon="5.5253">
        <ele>303.3</ele>
        <time>2012-11-24T13:38:06.000Z</time>
      </trkpt>
      <trkpt lat="46.78211" lon="5.52524">
        <ele>302.5</ele>
        <time>2012-11-24T13:38:10.000Z</time>
      </trkpt>
      <trkpt lat="46.78212" lon="5.52523">
        <ele>302.4</ele>
        <time>2012-11-24T13:38:11.000Z</time>
      </trkpt>
      <trkpt lat="46.78213" lon="5.52518">
        <ele>302.1</ele>
        <time>2012-11-24T13:38:14.000Z</time>
      </trkpt>
      <trkpt lat="46.78213" lon="5.52516">
        <ele>302.1</ele>
        <time>2012-11-24T13:38:15.000Z</time>
      </trkpt>
      <trkpt lat="46.78214" lon="5.52515">
        <ele>302</ele>
        <time>2012-11-24T13:38:16.000Z</time>
      </trkpt>
      <trkpt lat="46.78217" lon="5.52499">
        <ele>301.6</ele>
        <time>2012-11-24T13:38:24.000Z</time>
      </trkpt>
      <trkpt lat="46.78217" lon="5.52493">
        <ele>304.6</ele>
        <time>2012-11-24T13:38:28.000Z</time>
      </trkpt>
      <trkpt lat="46.78218" lon="5.52491">
        <ele>304.8</ele>
        <time>2012-11-24T13:38:29.000Z</time>
      </trkpt>
      <trkpt lat="46.78219" lon="5.52485">
        <ele>305.6</ele>
        <time>2012-11-24T13:38:33.000Z</time>
      </trkpt>
      <trkpt lat="46.78219" lon="5.52484">
        <ele>305.7</ele>
        <time>2012-11-24T13:38:34.000Z</time>
      </trkpt>
      <trkpt lat="46.7822" lon="5.52478">
        <ele>305</ele>
        <time>2012-11-24T13:38:38.000Z</time>
      </trkpt>
      <trkpt lat="46.78221" lon="5.52476">
        <ele>305.4</ele>
        <time>2012-11-24T13:38:39.000Z</time>
      </trkpt>
      <trkpt lat="46.78222" lon="5.52472">
        <ele>305</ele>
        <time>2012-11-24T13:38:41.000Z</time>
      </trkpt>
      <trkpt lat="46.78222" lon="5.5247">
        <ele>305</ele>
        <time>2012-11-24T13:38:42.000Z</time>
      </trkpt>
      <trkpt lat="46.78224" lon="5.52464">
        <ele>304.2</ele>
        <time>2012-11-24T13:38:46.000Z</time>
      </trkpt>
      <trkpt lat="46.78224" lon="5.52463">
        <ele>303.9</ele>
        <time>2012-11-24T13:38:47.000Z</time>
      </trkpt>
      <trkpt lat="46.78226" lon="5.52458">
        <ele>302.9</ele>
        <time>2012-11-24T13:38:51.000Z</time>
      </trkpt>
      <trkpt lat="46.78227" lon="5.52457">
        <ele>302.6</ele>
        <time>2012-11-24T13:38:52.000Z</time>
      </trkpt>
      <trkpt lat="46.78228" lon="5.52451">
        <ele>302.1</ele>
        <time>2012-11-24T13:38:57.000Z</time>
      </trkpt>
      <trkpt lat="46.78228" lon="5.52449">
        <ele>302.1</ele>
        <time>2012-11-24T13:38:58.000Z</time>
      </trkpt>
      <trkpt lat="46.78228" lon="5.52443">
        <ele>302</ele>
        <time>2012-11-24T13:39:01.000Z</time>
      </trkpt>
      <trkpt lat="46.78228" lon="5.52442">
        <ele>302</ele>
        <time>2012-11-24T13:39:02.000Z</time>
      </trkpt>
      <trkpt lat="46.78229" lon="5.52436">
        <ele>301.9</ele>
        <time>2012-11-24T13:39:05.000Z</time>
      </trkpt>
      <trkpt lat="46.78229" lon="5.52435">
        <ele>301.9</ele>
        <time>2012-11-24T13:39:06.000Z</time>
      </trkpt>
      <trkpt lat="46.78231" lon="5.5243">
        <ele>301.7</ele>
        <time>2012-11-24T13:39:09.000Z</time>
      </trkpt>
      <trkpt lat="46.78231" lon="5.52429">
        <ele>301.4</ele>
        <time>2012-11-24T13:39:10.000Z</time>
      </trkpt>
      <trkpt lat="46.78233" lon="5.52423">
        <ele>300.1</ele>
        <time>2012-11-24T13:39:14.000Z</time>
      </trkpt>
      <trkpt lat="46.78234" lon="5.52422">
        <ele>299.9</ele>
        <time>2012-11-24T13:39:15.000Z</time>
      </trkpt>
      <trkpt lat="46.78236" lon="5.52417">
        <ele>299.1</ele>
        <time>2012-11-24T13:39:19.000Z</time>
      </trkpt>
      <trkpt lat="46.78236" lon="5.52416">
        <ele>298.9</ele>
        <time>2012-11-24T13:39:20.000Z</time>
      </trkpt>
      <trkpt lat="46.78238" lon="5.52411">
        <ele>299</ele>
        <time>2012-11-24T13:39:24.000Z</time>
      </trkpt>
      <trkpt lat="46.78238" lon="5.52409">
        <ele>299</ele>
        <time>2012-11-24T13:39:25.000Z</time>
      </trkpt>
      <trkpt lat="46.78239" lon="5.52404">
        <ele>299.2</ele>
        <time>2012-11-24T13:39:29.000Z</time>
      </trkpt>
      <trkpt lat="46.78239" lon="5.52402">
        <ele>299.4</ele>
        <time>2012-11-24T13:39:30.000Z</time>
      </trkpt>
      <trkpt lat="46.78241" lon="5.52396">
        <ele>299.8</ele>
        <time>2012-11-24T13:39:34.000Z</time>
      </trkpt>
      <trkpt lat="46.78241" lon="5.52395">
        <ele>299.8</ele>
        <time>2012-11-24T13:39:35.000Z</time>
      </trkpt>
      <trkpt lat="46.78243" lon="5.5239">
        <ele>300</ele>
        <time>2012-11-24T13:39:39.000Z</time>
      </trkpt>
      <trkpt lat="46.78243" lon="5.52389">
        <ele>300.1</ele>
        <time>2012-11-24T13:39:40.000Z</time>
      </trkpt>
      <trkpt lat="46.78244" lon="5.52384">
        <ele>300.9</ele>
        <time>2012-11-24T13:39:43.000Z</time>
      </trkpt>
      <trkpt lat="46.78244" lon="5.52382">
        <ele>301.5</ele>
        <time>2012-11-24T13:39:44.000Z</time>
      </trkpt>
      <trkpt lat="46.78244" lon="5.52377">
        <ele>302.5</ele>
        <time>2012-11-24T13:39:47.000Z</time>
      </trkpt>
      <trkpt lat="46.78244" lon="5.52375">
        <ele>302.7</ele>
        <time>2012-11-24T13:39:48.000Z</time>
      </trkpt>
      <trkpt lat="46.78245" lon="5.52369">
        <ele>302.6</ele>
        <time>2012-11-24T13:39:52.000Z</time>
      </trkpt>
      <trkpt lat="46.78246" lon="5.52368">
        <ele>302.5</ele>
        <time>2012-11-24T13:39:53.000Z</time>
      </trkpt>
      <trkpt lat="46.78247" lon="5.52362">
        <ele>302.6</ele>
        <time>2012-11-24T13:39:57.000Z</time>
      </trkpt>
      <trkpt lat="46.78247" lon="5.52361">
        <ele>302.4</ele>
        <time>2012-11-24T13:39:58.000Z</time>
      </trkpt>
      <trkpt lat="46.78248" lon="5.52356">
        <ele>302</ele>
        <time>2012-11-24T13:40:01.000Z</time>
      </trkpt>
      <trkpt lat="46.78249" lon="5.52354">
        <ele>301.8</ele>
        <time>2012-11-24T13:40:02.000Z</time>
      </trkpt>
      <trkpt lat="46.78251" lon="5.52349">
        <ele>301.5</ele>
        <time>2012-11-24T13:40:06.000Z</time>
      </trkpt>
      <trkpt lat="46.78252" lon="5.52348">
        <ele>301.4</ele>
        <time>2012-11-24T13:40:07.000Z</time>
      </trkpt>
      <trkpt lat="46.78253" lon="5.52344">
        <ele>301.3</ele>
        <time>2012-11-24T13:40:10.000Z</time>
      </trkpt>
      <trkpt lat="46.78254" lon="5.52342">
        <ele>301.5</ele>
        <time>2012-11-24T13:40:11.000Z</time>
      </trkpt>
      <trkpt lat="46.78255" lon="5.52337">
        <ele>301.3</ele>
        <time>2012-11-24T13:40:14.000Z</time>
      </trkpt>
      <trkpt lat="46.78255" lon="5.52336">
        <ele>301.4</ele>
        <time>2012-11-24T13:40:15.000Z</time>
      </trkpt>
      <trkpt lat="46.78256" lon="5.52329">
        <ele>301.7</ele>
        <time>2012-11-24T13:40:19.000Z</time>
      </trkpt>
      <trkpt lat="46.78256" lon="5.52327">
        <ele>301.7</ele>
        <time>2012-11-24T13:40:20.000Z</time>
      </trkpt>
      <trkpt lat="46.78256" lon="5.52322">
        <ele>301.8</ele>
        <time>2012-11-24T13:40:23.000Z</time>
      </trkpt>
      <trkpt lat="46.78257" lon="5.5232">
        <ele>301.8</ele>
        <time>2012-11-24T13:40:24.000Z</time>
      </trkpt>
      <trkpt lat="46.78257" lon="5.52315">
        <ele>302</ele>
        <time>2012-11-24T13:40:27.000Z</time>
      </trkpt>
      <trkpt lat="46.78257" lon="5.52314">
        <ele>302.2</ele>
        <time>2012-11-24T13:40:28.000Z</time>
      </trkpt>
      <trkpt lat="46.78259" lon="5.52309">
        <ele>301.9</ele>
        <time>2012-11-24T13:40:31.000Z</time>
      </trkpt>
      <trkpt lat="46.78259" lon="5.52307">
        <ele>301.9</ele>
        <time>2012-11-24T13:40:32.000Z</time>
      </trkpt>
      <trkpt lat="46.7826" lon="5.52302">
        <ele>301.7</ele>
        <time>2012-11-24T13:40:35.000Z</time>
      </trkpt>
      <trkpt lat="46.7826" lon="5.52301">
        <ele>301.9</ele>
        <time>2012-11-24T13:40:36.000Z</time>
      </trkpt>
      <trkpt lat="46.78261" lon="5.52296">
        <ele>301.9</ele>
        <time>2012-11-24T13:40:39.000Z</time>
      </trkpt>
      <trkpt lat="46.78261" lon="5.52294">
        <ele>301.9</ele>
        <time>2012-11-24T13:40:40.000Z</time>
      </trkpt>
      <trkpt lat="46.78262" lon="5.52289">
        <ele>301.8</ele>
        <time>2012-11-24T13:40:43.000Z</time>
      </trkpt>
      <trkpt lat="46.78262" lon="5.52288">
        <ele>301.9</ele>
        <time>2012-11-24T13:40:44.000Z</time>
      </trkpt>
      <trkpt lat="46.78264" lon="5.52283">
        <ele>302</ele>
        <time>2012-11-24T13:40:47.000Z</time>
      </trkpt>
      <trkpt lat="46.78264" lon="5.52282">
        <ele>302</ele>
        <time>2012-11-24T13:40:48.000Z</time>
      </trkpt>
      <trkpt lat="46.78265" lon="5.52277">
        <ele>301.9</ele>
        <time>2012-11-24T13:40:51.000Z</time>
      </trkpt>
      <trkpt lat="46.78266" lon="5.52275">
        <ele>301.8</ele>
        <time>2012-11-24T13:40:52.000Z</time>
      </trkpt>
      <trkpt lat="46.78267" lon="5.5227">
        <ele>301.4</ele>
        <time>2012-11-24T13:40:56.000Z</time>
      </trkpt>
      <trkpt lat="46.78267" lon="5.52268">
        <ele>301.4</ele>
        <time>2012-11-24T13:40:57.000Z</time>
      </trkpt>
      <trkpt lat="46.78268" lon="5.52262">
        <ele>301.7</ele>
        <time>2012-11-24T13:41:01.000Z</time>
      </trkpt>
      <trkpt lat="46.78268" lon="5.5226">
        <ele>301.8</ele>
        <time>2012-11-24T13:41:02.000Z</time>
      </trkpt>
      <trkpt lat="46.78269" lon="5.52254">
        <ele>302</ele>
        <time>2012-11-24T13:41:06.000Z</time>
      </trkpt>
      <trkpt lat="46.78269" lon="5.52252">
        <ele>302</ele>
        <time>2012-11-24T13:41:07.000Z</time>
      </trkpt>
      <trkpt lat="46.78271" lon="5.52246">
        <ele>302.8</ele>
        <time>2012-11-24T13:41:11.000Z</time>
      </trkpt>
      <trkpt lat="46.78271" lon="5.52244">
        <ele>302.9</ele>
        <time>2012-11-24T13:41:12.000Z</time>
      </trkpt>
      <trkpt lat="46.78271" lon="5.52239">
        <ele>303.4</ele>
        <time>2012-11-24T13:41:15.000Z</time>
      </trkpt>
      <trkpt lat="46.78272" lon="5.52237">
        <ele>303.4</ele>
        <time>2012-11-24T13:41:16.000Z</time>
      </trkpt>
      <trkpt lat="46.78272" lon="5.52232">
        <ele>303.8</ele>
        <time>2012-11-24T13:41:19.000Z</time>
      </trkpt>
      <trkpt lat="46.78273" lon="5.52231">
        <ele>303.9</ele>
        <time>2012-11-24T13:41:20.000Z</time>
      </trkpt>
      <trkpt lat="46.78274" lon="5.52225">
        <ele>304.5</ele>
        <time>2012-11-24T13:41:24.000Z</time>
      </trkpt>
      <trkpt lat="46.78274" lon="5.52223">
        <ele>304.8</ele>
        <time>2012-11-24T13:41:25.000Z</time>
      </trkpt>
      <trkpt lat="46.78275" lon="5.52218">
        <ele>305</ele>
        <time>2012-11-24T13:41:28.000Z</time>
      </trkpt>
      <trkpt lat="46.78275" lon="5.52216">
        <ele>304.9</ele>
        <time>2012-11-24T13:41:29.000Z</time>
      </trkpt>
      <trkpt lat="46.78276" lon="5.52211">
        <ele>305.3</ele>
        <time>2012-11-24T13:41:32.000Z</time>
      </trkpt>
      <trkpt lat="46.78276" lon="5.5221">
        <ele>305.3</ele>
        <time>2012-11-24T13:41:33.000Z</time>
      </trkpt>
      <trkpt lat="46.78277" lon="5.52205">
        <ele>305.3</ele>
        <time>2012-11-24T13:41:36.000Z</time>
      </trkpt>
      <trkpt lat="46.78278" lon="5.52203">
        <ele>305.3</ele>
        <time>2012-11-24T13:41:37.000Z</time>
      </trkpt>
      <trkpt lat="46.78278" lon="5.52198">
        <ele>305.3</ele>
        <time>2012-11-24T13:41:40.000Z</time>
      </trkpt>
      <trkpt lat="46.78278" lon="5.52196">
        <ele>305.3</ele>
        <time>2012-11-24T13:41:41.000Z</time>
      </trkpt>
      <trkpt lat="46.78279" lon="5.52191">
        <ele>305.6</ele>
        <time>2012-11-24T13:41:44.000Z</time>
      </trkpt>
      <trkpt lat="46.78279" lon="5.52189">
        <ele>305.8</ele>
        <time>2012-11-24T13:41:45.000Z</time>
      </trkpt>
      <trkpt lat="46.7828" lon="5.52184">
        <ele>306</ele>
        <time>2012-11-24T13:41:48.000Z</time>
      </trkpt>
      <trkpt lat="46.7828" lon="5.52182">
        <ele>306</ele>
        <time>2012-11-24T13:41:49.000Z</time>
      </trkpt>
      <trkpt lat="46.7828" lon="5.52176">
        <ele>305.8</ele>
        <time>2012-11-24T13:41:53.000Z</time>
      </trkpt>
      <trkpt lat="46.7828" lon="5.52174">
        <ele>305.5</ele>
        <time>2012-11-24T13:41:54.000Z</time>
      </trkpt>
      <trkpt lat="46.78282" lon="5.5217">
        <ele>305.3</ele>
        <time>2012-11-24T13:41:57.000Z</time>
      </trkpt>
      <trkpt lat="46.78282" lon="5.52168">
        <ele>305.2</ele>
        <time>2012-11-24T13:41:58.000Z</time>
      </trkpt>
      <trkpt lat="46.78284" lon="5.52164">
        <ele>305.4</ele>
        <time>2012-11-24T13:42:01.000Z</time>
      </trkpt>
      <trkpt lat="46.78284" lon="5.52162">
        <ele>305.1</ele>
        <time>2012-11-24T13:42:02.000Z</time>
      </trkpt>
      <trkpt lat="46.78285" lon="5.52156">
        <ele>304.2</ele>
        <time>2012-11-24T13:42:05.000Z</time>
      </trkpt>
      <trkpt lat="46.78286" lon="5.52154">
        <ele>303.4</ele>
        <time>2012-11-24T13:42:06.000Z</time>
      </trkpt>
      <trkpt lat="46.78287" lon="5.52148">
        <ele>302.6</ele>
        <time>2012-11-24T13:42:09.000Z</time>
      </trkpt>
      <trkpt lat="46.78288" lon="5.52147">
        <ele>302.4</ele>
        <time>2012-11-24T13:42:10.000Z</time>
      </trkpt>
      <trkpt lat="46.78288" lon="5.52142">
        <ele>302</ele>
        <time>2012-11-24T13:42:14.000Z</time>
      </trkpt>
      <trkpt lat="46.78289" lon="5.5214">
        <ele>302.2</ele>
        <time>2012-11-24T13:42:15.000Z</time>
      </trkpt>
      <trkpt lat="46.7829" lon="5.52135">
        <ele>301.9</ele>
        <time>2012-11-24T13:42:20.000Z</time>
      </trkpt>
      <trkpt lat="46.78291" lon="5.52134">
        <ele>301.9</ele>
        <time>2012-11-24T13:42:21.000Z</time>
      </trkpt>
      <trkpt lat="46.78292" lon="5.52128">
        <ele>301.7</ele>
        <time>2012-11-24T13:43:07.000Z</time>
      </trkpt>
      <trkpt lat="46.78292" lon="5.52127">
        <ele>301.6</ele>
        <time>2012-11-24T13:43:08.000Z</time>
      </trkpt>
      <trkpt lat="46.78293" lon="5.52121">
        <ele>301.6</ele>
        <time>2012-11-24T13:43:13.000Z</time>
      </trkpt>
      <trkpt lat="46.78294" lon="5.5212">
        <ele>301.7</ele>
        <time>2012-11-24T13:43:14.000Z</time>
      </trkpt>
      <trkpt lat="46.78294" lon="5.52114">
        <ele>301.9</ele>
        <time>2012-11-24T13:43:19.000Z</time>
      </trkpt>
      <trkpt lat="46.78294" lon="5.52113">
        <ele>301.8</ele>
        <time>2012-11-24T13:43:20.000Z</time>
      </trkpt>
      <trkpt lat="46.78294" lon="5.52107">
        <ele>301.4</ele>
        <time>2012-11-24T13:43:25.000Z</time>
      </trkpt>
      <trkpt lat="46.78295" lon="5.52106">
        <ele>301.4</ele>
        <time>2012-11-24T13:43:26.000Z</time>
      </trkpt>
      <trkpt lat="46.78297" lon="5.52101">
        <ele>301</ele>
        <time>2012-11-24T13:43:30.000Z</time>
      </trkpt>
      <trkpt lat="46.78297" lon="5.521">
        <ele>300.8</ele>
        <time>2012-11-24T13:43:31.000Z</time>
      </trkpt>
      <trkpt lat="46.78298" lon="5.52094">
        <ele>301.5</ele>
        <time>2012-11-24T13:43:36.000Z</time>
      </trkpt>
      <trkpt lat="46.78298" lon="5.52093">
        <ele>301.3</ele>
        <time>2012-11-24T13:43:37.000Z</time>
      </trkpt>
      <trkpt lat="46.783" lon="5.52087">
        <ele>300.8</ele>
        <time>2012-11-24T13:43:41.000Z</time>
      </trkpt>
      <trkpt lat="46.783" lon="5.52086">
        <ele>300.8</ele>
        <time>2012-11-24T13:43:42.000Z</time>
      </trkpt>
      <trkpt lat="46.78301" lon="5.5208">
        <ele>300.8</ele>
        <time>2012-11-24T13:43:45.000Z</time>
      </trkpt>
      <trkpt lat="46.78301" lon="5.52078">
        <ele>301.1</ele>
        <time>2012-11-24T13:43:46.000Z</time>
      </trkpt>
      <trkpt lat="46.78301" lon="5.52073">
        <ele>301</ele>
        <time>2012-11-24T13:43:49.000Z</time>
      </trkpt>
      <trkpt lat="46.78302" lon="5.52071">
        <ele>301.1</ele>
        <time>2012-11-24T13:43:50.000Z</time>
      </trkpt>
      <trkpt lat="46.78302" lon="5.52065">
        <ele>302.1</ele>
        <time>2012-11-24T13:43:53.000Z</time>
      </trkpt>
      <trkpt lat="46.78303" lon="5.52064">
        <ele>302.5</ele>
        <time>2012-11-24T13:43:54.000Z</time>
      </trkpt>
      <trkpt lat="46.78304" lon="5.52058">
        <ele>303.8</ele>
        <time>2012-11-24T13:43:57.000Z</time>
      </trkpt>
      <trkpt lat="46.78304" lon="5.52056">
        <ele>304.2</ele>
        <time>2012-11-24T13:43:58.000Z</time>
      </trkpt>
      <trkpt lat="46.78305" lon="5.52051">
        <ele>304.7</ele>
        <time>2012-11-24T13:44:00.000Z</time>
      </trkpt>
      <trkpt lat="46.78305" lon="5.52049">
        <ele>304.7</ele>
        <time>2012-11-24T13:44:01.000Z</time>
      </trkpt>
      <trkpt lat="46.78306" lon="5.52043">
        <ele>305.4</ele>
        <time>2012-11-24T13:44:04.000Z</time>
      </trkpt>
      <trkpt lat="46.78306" lon="5.52041">
        <ele>305.5</ele>
        <time>2012-11-24T13:44:05.000Z</time>
      </trkpt>
      <trkpt lat="46.78306" lon="5.52036">
        <ele>306.1</ele>
        <time>2012-11-24T13:44:08.000Z</time>
      </trkpt>
      <trkpt lat="46.78306" lon="5.52034">
        <ele>306.3</ele>
        <time>2012-11-24T13:44:09.000Z</time>
      </trkpt>
      <trkpt lat="46.78306" lon="5.52029">
        <ele>307.5</ele>
        <time>2012-11-24T13:44:13.000Z</time>
      </trkpt>
      <trkpt lat="46.78306" lon="5.52027">
        <ele>307.5</ele>
        <time>2012-11-24T13:44:14.500Z</time>
      </trkpt>
      <trkpt lat="46.78306" lon="5.52022">
        <ele>308.7</ele>
        <time>2012-11-24T13:44:17.000Z</time>
      </trkpt>
      <trkpt lat="46.78306" lon="5.5202">
        <ele>309.2</ele>
        <time>2012-11-24T13:44:18.000Z</time>
      </trkpt>
      <trkpt lat="46.78306" lon="5.52015">
        <ele>309.9</ele>
        <time>2012-11-24T13:44:21.000Z</time>
      </trkpt>
      <trkpt lat="46.78306" lon="5.52013">
        <ele>309.8</ele>
        <time>2012-11-24T13:44:22.000Z</time>
      </trkpt>
      <trkpt lat="46.78308" lon="5.52008">
        <ele>308.9</ele>
        <time>2012-11-24T13:44:27.000Z</time>
      </trkpt>
      <trkpt lat="46.78309" lon="5.52007">
        <ele>308.8</ele>
        <time>2012-11-24T13:44:28.000Z</time>
      </trkpt>
      <trkpt lat="46.7831" lon="5.52002">
        <ele>308.9</ele>
        <time>2012-11-24T13:44:32.000Z</time>
      </trkpt>
      <trkpt lat="46.78311" lon="5.52001">
        <ele>308.7</ele>
        <time>2012-11-24T13:44:33.000Z</time>
      </trkpt>
      <trkpt lat="46.78312" lon="5.51995">
        <ele>308.6</ele>
        <time>2012-11-24T13:44:38.000Z</time>
      </trkpt>
      <trkpt lat="46.78313" lon="5.51994">
        <ele>308.2</ele>
        <time>2012-11-24T13:44:39.000Z</time>
      </trkpt>
      <trkpt lat="46.78315" lon="5.5199">
        <ele>308</ele>
        <time>2012-11-24T13:44:43.000Z</time>
      </trkpt>
      <trkpt lat="46.78316" lon="5.51989">
        <ele>307.6</ele>
        <time>2012-11-24T13:44:44.000Z</time>
      </trkpt>
      <trkpt lat="46.78318" lon="5.51984">
        <ele>307</ele>
        <time>2012-11-24T13:44:48.000Z</time>
      </trkpt>
      <trkpt lat="46.78319" lon="5.51983">
        <ele>306.9</ele>
        <time>2012-11-24T13:44:49.000Z</time>
      </trkpt>
      <trkpt lat="46.78321" lon="5.51978">
        <ele>306</ele>
        <time>2012-11-24T13:44:54.000Z</time>
      </trkpt>
      <trkpt lat="46.78321" lon="5.51977">
        <ele>305.7</ele>
        <time>2012-11-24T13:44:55.000Z</time>
      </trkpt>
      <trkpt lat="46.78324" lon="5.51973">
        <ele>305.4</ele>
        <time>2012-11-24T13:44:59.000Z</time>
      </trkpt>
      <trkpt lat="46.78324" lon="5.51972">
        <ele>305.4</ele>
        <time>2012-11-24T13:45:00.000Z</time>
      </trkpt>
      <trkpt lat="46.78327" lon="5.51967">
        <ele>304.7</ele>
        <time>2012-11-24T13:45:04.000Z</time>
      </trkpt>
      <trkpt lat="46.78327" lon="5.51966">
        <ele>304.2</ele>
        <time>2012-11-24T13:45:05.000Z</time>
      </trkpt>
      <trkpt lat="46.7833" lon="5.51962">
        <ele>303</ele>
        <time>2012-11-24T13:45:09.000Z</time>
      </trkpt>
      <trkpt lat="46.78331" lon="5.51961">
        <ele>303.1</ele>
        <time>2012-11-24T13:45:10.000Z</time>
      </trkpt>
      <trkpt lat="46.78333" lon="5.51956">
        <ele>303.1</ele>
        <time>2012-11-24T13:45:15.000Z</time>
      </trkpt>
      <trkpt lat="46.78333" lon="5.51954">
        <ele>303.4</ele>
        <time>2012-11-24T13:45:16.000Z</time>
      </trkpt>
      <trkpt lat="46.78333" lon="5.51948">
        <ele>304.1</ele>
        <time>2012-11-24T13:45:20.000Z</time>
      </trkpt>
      <trkpt lat="46.78334" lon="5.51947">
        <ele>304.3</ele>
        <time>2012-11-24T13:45:21.000Z</time>
      </trkpt>
      <trkpt lat="46.78335" lon="5.51941">
        <ele>304.8</ele>
        <time>2012-11-24T13:45:25.000Z</time>
      </trkpt>
      <trkpt lat="46.78335" lon="5.51939">
        <ele>304.7</ele>
        <time>2012-11-24T13:45:26.000Z</time>
      </trkpt>
      <trkpt lat="46.78336" lon="5.51934">
        <ele>304.5</ele>
        <time>2012-11-24T13:45:30.000Z</time>
      </trkpt>
      <trkpt lat="46.78336" lon="5.51933">
        <ele>304.4</ele>
        <time>2012-11-24T13:45:31.000Z</time>
      </trkpt>
      <trkpt lat="46.78338" lon="5.51928">
        <ele>302.8</ele>
        <time>2012-11-24T13:45:36.000Z</time>
      </trkpt>
      <trkpt lat="46.78339" lon="5.51926">
        <ele>302.6</ele>
        <time>2012-11-24T13:45:37.000Z</time>
      </trkpt>
      <trkpt lat="46.78341" lon="5.51922">
        <ele>302.1</ele>
        <time>2012-11-24T13:45:41.000Z</time>
      </trkpt>
      <trkpt lat="46.78342" lon="5.51921">
        <ele>302.1</ele>
        <time>2012-11-24T13:45:42.000Z</time>
      </trkpt>
      <trkpt lat="46.78343" lon="5.51915">
        <ele>301.8</ele>
        <time>2012-11-24T13:45:46.000Z</time>
      </trkpt>
      <trkpt lat="46.78344" lon="5.51914">
        <ele>301.6</ele>
        <time>2012-11-24T13:45:47.000Z</time>
      </trkpt>
      <trkpt lat="46.78344" lon="5.51908">
        <ele>299.7</ele>
        <time>2012-11-24T13:45:59.000Z</time>
      </trkpt>
      <trkpt lat="46.78345" lon="5.51907">
        <ele>299.5</ele>
        <time>2012-11-24T13:46:00.000Z</time>
      </trkpt>
      <trkpt lat="46.78346" lon="5.51901">
        <ele>298.9</ele>
        <time>2012-11-24T13:46:04.000Z</time>
      </trkpt>
      <trkpt lat="46.78346" lon="5.519">
        <ele>298.8</ele>
        <time>2012-11-24T13:46:05.000Z</time>
      </trkpt>
      <trkpt lat="46.78347" lon="5.51893">
        <ele>298.8</ele>
        <time>2012-11-24T13:46:09.000Z</time>
      </trkpt>
      <trkpt lat="46.78347" lon="5.51892">
        <ele>298.8</ele>
        <time>2012-11-24T13:46:10.000Z</time>
      </trkpt>
      <trkpt lat="46.78348" lon="5.51885">
        <ele>298.6</ele>
        <time>2012-11-24T13:46:14.000Z</time>
      </trkpt>
      <trkpt lat="46.78348" lon="5.51884">
        <ele>298.5</ele>
        <time>2012-11-24T13:46:15.000Z</time>
      </trkpt>
      <trkpt lat="46.78347" lon="5.51878">
        <ele>298.1</ele>
        <time>2012-11-24T13:46:37.000Z</time>
      </trkpt>
      <trkpt lat="46.78347" lon="5.51877">
        <ele>298.5</ele>
        <time>2012-11-24T13:46:38.000Z</time>
      </trkpt>
      <trkpt lat="46.78348" lon="5.51872">
        <ele>299</ele>
        <time>2012-11-24T13:46:43.000Z</time>
      </trkpt>
      <trkpt lat="46.78349" lon="5.5187">
        <ele>299</ele>
        <time>2012-11-24T13:46:44.000Z</time>
      </trkpt>
      <trkpt lat="46.78351" lon="5.51865">
        <ele>299.1</ele>
        <time>2012-11-24T13:46:49.000Z</time>
      </trkpt>
      <trkpt lat="46.78351" lon="5.51864">
        <ele>299.1</ele>
        <time>2012-11-24T13:46:50.000Z</time>
      </trkpt>
      <trkpt lat="46.78353" lon="5.51859">
        <ele>299</ele>
        <time>2012-11-24T13:46:55.000Z</time>
      </trkpt>
      <trkpt lat="46.78353" lon="5.51858">
        <ele>299</ele>
        <time>2012-11-24T13:46:56.000Z</time>
      </trkpt>
      <trkpt lat="46.78355" lon="5.51852">
        <ele>299.3</ele>
        <time>2012-11-24T13:47:02.000Z</time>
      </trkpt>
      <trkpt lat="46.78355" lon="5.51851">
        <ele>299.2</ele>
        <time>2012-11-24T13:47:03.000Z</time>
      </trkpt>
      <trkpt lat="46.78357" lon="5.51846">
        <ele>299.5</ele>
        <time>2012-11-24T13:47:07.000Z</time>
      </trkpt>
      <trkpt lat="46.78357" lon="5.51844">
        <ele>299.7</ele>
        <time>2012-11-24T13:47:08.000Z</time>
      </trkpt>
      <trkpt lat="46.78358" lon="5.51839">
        <ele>300.2</ele>
        <time>2012-11-24T13:47:11.000Z</time>
      </trkpt>
      <trkpt lat="46.78358" lon="5.51837">
        <ele>300.6</ele>
        <time>2012-11-24T13:47:12.000Z</time>
      </trkpt>
      <trkpt lat="46.78359" lon="5.51832">
        <ele>300.9</ele>
        <time>2012-11-24T13:47:15.000Z</time>
      </trkpt>
      <trkpt lat="46.78359" lon="5.51831">
        <ele>301.1</ele>
        <time>2012-11-24T13:47:16.000Z</time>
      </trkpt>
      <trkpt lat="46.7836" lon="5.51829">
        <ele>300.9</ele>
        <time>2012-11-24T13:47:17.000Z</time>
      </trkpt>
      <trkpt lat="46.78361" lon="5.51814">
        <ele>301.1</ele>
        <time>2012-11-24T13:47:26.000Z</time>
      </trkpt>
      <trkpt lat="46.78363" lon="5.51809">
        <ele>300.7</ele>
        <time>2012-11-24T13:47:30.000Z</time>
      </trkpt>
      <trkpt lat="46.78363" lon="5.51807">
        <ele>300.7</ele>
        <time>2012-11-24T13:47:31.000Z</time>
      </trkpt>
      <trkpt lat="46.78365" lon="5.51802">
        <ele>300.2</ele>
        <time>2012-11-24T13:47:35.000Z</time>
      </trkpt>
      <trkpt lat="46.78365" lon="5.518">
        <ele>300.1</ele>
        <time>2012-11-24T13:47:36.000Z</time>
      </trkpt>
      <trkpt lat="46.78366" lon="5.51795">
        <ele>299.6</ele>
        <time>2012-11-24T13:47:40.000Z</time>
      </trkpt>
      <trkpt lat="46.78366" lon="5.51793">
        <ele>299.7</ele>
        <time>2012-11-24T13:47:41.000Z</time>
      </trkpt>
      <trkpt lat="46.78367" lon="5.51788">
        <ele>299.4</ele>
        <time>2012-11-24T13:47:45.000Z</time>
      </trkpt>
      <trkpt lat="46.78367" lon="5.51786">
        <ele>299.3</ele>
        <time>2012-11-24T13:47:46.000Z</time>
      </trkpt>
      <trkpt lat="46.78368" lon="5.51781">
        <ele>299.6</ele>
        <time>2012-11-24T13:47:50.000Z</time>
      </trkpt>
      <trkpt lat="46.78368" lon="5.51779">
        <ele>299.7</ele>
        <time>2012-11-24T13:47:51.000Z</time>
      </trkpt>
      <trkpt lat="46.78369" lon="5.51773">
        <ele>300.2</ele>
        <time>2012-11-24T13:47:55.000Z</time>
      </trkpt>
      <trkpt lat="46.78369" lon="5.51771">
        <ele>300.3</ele>
        <time>2012-11-24T13:47:56.000Z</time>
      </trkpt>
      <trkpt lat="46.7837" lon="5.51766">
        <ele>300.7</ele>
        <time>2012-11-24T13:47:59.000Z</time>
      </trkpt>
      <trkpt lat="46.7837" lon="5.51764">
        <ele>300.9</ele>
        <time>2012-11-24T13:48:00.000Z</time>
      </trkpt>
      <trkpt lat="46.7837" lon="5.51758">
        <ele>301.1</ele>
        <time>2012-11-24T13:48:04.000Z</time>
      </trkpt>
      <trkpt lat="46.78371" lon="5.51756">
        <ele>301.2</ele>
        <time>2012-11-24T13:48:05.000Z</time>
      </trkpt>
      <trkpt lat="46.78372" lon="5.51752">
        <ele>301.8</ele>
        <time>2012-11-24T13:48:08.000Z</time>
      </trkpt>
      <trkpt lat="46.78372" lon="5.5175">
        <ele>301.9</ele>
        <time>2012-11-24T13:48:09.000Z</time>
      </trkpt>
      <trkpt lat="46.78372" lon="5.51745">
        <ele>302.3</ele>
        <time>2012-11-24T13:48:12.000Z</time>
      </trkpt>
      <trkpt lat="46.78372" lon="5.51743">
        <ele>302.3</ele>
        <time>2012-11-24T13:48:13.000Z</time>
      </trkpt>
      <trkpt lat="46.78373" lon="5.51737">
        <ele>302.5</ele>
        <time>2012-11-24T13:48:17.000Z</time>
      </trkpt>
      <trkpt lat="46.78373" lon="5.51735">
        <ele>302.6</ele>
        <time>2012-11-24T13:48:18.000Z</time>
      </trkpt>
      <trkpt lat="46.78374" lon="5.5172">
        <ele>303</ele>
        <time>2012-11-24T13:48:26.000Z</time>
      </trkpt>
      <trkpt lat="46.78375" lon="5.51715">
        <ele>301.2</ele>
        <time>2012-11-24T13:48:32.000Z</time>
      </trkpt>
      <trkpt lat="46.78375" lon="5.51714">
        <ele>301</ele>
        <time>2012-11-24T13:48:33.000Z</time>
      </trkpt>
      <trkpt lat="46.78377" lon="5.51709">
        <ele>300.9</ele>
        <time>2012-11-24T13:48:37.000Z</time>
      </trkpt>
      <trkpt lat="46.78377" lon="5.51708">
        <ele>300.6</ele>
        <time>2012-11-24T13:48:38.000Z</time>
      </trkpt>
      <trkpt lat="46.78378" lon="5.51702">
        <ele>301.1</ele>
        <time>2012-11-24T13:48:42.000Z</time>
      </trkpt>
      <trkpt lat="46.78378" lon="5.51701">
        <ele>301.3</ele>
        <time>2012-11-24T13:48:43.000Z</time>
      </trkpt>
      <trkpt lat="46.78379" lon="5.51696">
        <ele>302.1</ele>
        <time>2012-11-24T13:48:48.000Z</time>
      </trkpt>
      <trkpt lat="46.78379" lon="5.51695">
        <ele>302.2</ele>
        <time>2012-11-24T13:48:49.000Z</time>
      </trkpt>
      <trkpt lat="46.78381" lon="5.5169">
        <ele>303</ele>
        <time>2012-11-24T13:48:54.000Z</time>
      </trkpt>
      <trkpt lat="46.78382" lon="5.51689">
        <ele>303</ele>
        <time>2012-11-24T13:48:55.000Z</time>
      </trkpt>
      <trkpt lat="46.78383" lon="5.51683">
        <ele>303.5</ele>
        <time>2012-11-24T13:49:07.000Z</time>
      </trkpt>
      <trkpt lat="46.78383" lon="5.51682">
        <ele>303.5</ele>
        <time>2012-11-24T13:49:08.000Z</time>
      </trkpt>
      <trkpt lat="46.78385" lon="5.51677">
        <ele>303.2</ele>
        <time>2012-11-24T13:49:12.000Z</time>
      </trkpt>
      <trkpt lat="46.78386" lon="5.51676">
        <ele>303</ele>
        <time>2012-11-24T13:49:13.000Z</time>
      </trkpt>
      <trkpt lat="46.78388" lon="5.51671">
        <ele>302.4</ele>
        <time>2012-11-24T13:49:17.000Z</time>
      </trkpt>
      <trkpt lat="46.78389" lon="5.5167">
        <ele>302.2</ele>
        <time>2012-11-24T13:49:18.000Z</time>
      </trkpt>
      <trkpt lat="46.78392" lon="5.51666">
        <ele>301.9</ele>
        <time>2012-11-24T13:49:22.000Z</time>
      </trkpt>
      <trkpt lat="46.78392" lon="5.51665">
        <ele>301.8</ele>
        <time>2012-11-24T13:49:23.000Z</time>
      </trkpt>
      <trkpt lat="46.78395" lon="5.51661">
        <ele>301.9</ele>
        <time>2012-11-24T13:49:27.000Z</time>
      </trkpt>
      <trkpt lat="46.78396" lon="5.5166">
        <ele>302</ele>
        <time>2012-11-24T13:49:28.000Z</time>
      </trkpt>
      <trkpt lat="46.78398" lon="5.51655">
        <ele>302.1</ele>
        <time>2012-11-24T13:49:32.000Z</time>
      </trkpt>
      <trkpt lat="46.78399" lon="5.51654">
        <ele>302.1</ele>
        <time>2012-11-24T13:49:33.000Z</time>
      </trkpt>
      <trkpt lat="46.78402" lon="5.5165">
        <ele>302.2</ele>
        <time>2012-11-24T13:49:37.000Z</time>
      </trkpt>
      <trkpt lat="46.78403" lon="5.51649">
        <ele>302.2</ele>
        <time>2012-11-24T13:49:38.000Z</time>
      </trkpt>
      <trkpt lat="46.78405" lon="5.51644">
        <ele>302.3</ele>
        <time>2012-11-24T13:49:42.000Z</time>
      </trkpt>
      <trkpt lat="46.78406" lon="5.51643">
        <ele>302.2</ele>
        <time>2012-11-24T13:49:43.000Z</time>
      </trkpt>
      <trkpt lat="46.78408" lon="5.51638">
        <ele>301.9</ele>
        <time>2012-11-24T13:49:47.000Z</time>
      </trkpt>
      <trkpt lat="46.78409" lon="5.51637">
        <ele>301.9</ele>
        <time>2012-11-24T13:49:48.000Z</time>
      </trkpt>
      <trkpt lat="46.78412" lon="5.51632">
        <ele>302.2</ele>
        <time>2012-11-24T13:49:52.000Z</time>
      </trkpt>
      <trkpt lat="46.78412" lon="5.5163">
        <ele>302.5</ele>
        <time>2012-11-24T13:49:53.000Z</time>
      </trkpt>
      <trkpt lat="46.78415" lon="5.51626">
        <ele>303.8</ele>
        <time>2012-11-24T13:49:56.000Z</time>
      </trkpt>
      <trkpt lat="46.78416" lon="5.51624">
        <ele>305</ele>
        <time>2012-11-24T13:49:57.000Z</time>
      </trkpt>
      <trkpt lat="46.78418" lon="5.51619">
        <ele>305.5</ele>
        <time>2012-11-24T13:50:00.000Z</time>
      </trkpt>
      <trkpt lat="46.78419" lon="5.51618">
        <ele>305.2</ele>
        <time>2012-11-24T13:50:01.000Z</time>
      </trkpt>
      <trkpt lat="46.7842" lon="5.51613">
        <ele>304.4</ele>
        <time>2012-11-24T13:50:04.000Z</time>
      </trkpt>
      <trkpt lat="46.78421" lon="5.51612">
        <ele>304.1</ele>
        <time>2012-11-24T13:50:05.000Z</time>
      </trkpt>
      <trkpt lat="46.78423" lon="5.51607">
        <ele>303.2</ele>
        <time>2012-11-24T13:50:09.000Z</time>
      </trkpt>
      <trkpt lat="46.78424" lon="5.51606">
        <ele>302.9</ele>
        <time>2012-11-24T13:50:10.000Z</time>
      </trkpt>
      <trkpt lat="46.78426" lon="5.516">
        <ele>302.7</ele>
        <time>2012-11-24T13:50:14.000Z</time>
      </trkpt>
      <trkpt lat="46.78427" lon="5.51599">
        <ele>302.7</ele>
        <time>2012-11-24T13:50:15.000Z</time>
      </trkpt>
      <trkpt lat="46.78429" lon="5.51593">
        <ele>302.3</ele>
        <time>2012-11-24T13:50:19.000Z</time>
      </trkpt>
      <trkpt lat="46.78434" lon="5.51581">
        <ele>304.2</ele>
        <time>2012-11-24T13:50:27.000Z</time>
      </trkpt>
      <trkpt lat="46.78436" lon="5.51577">
        <ele>303</ele>
        <time>2012-11-24T13:50:31.000Z</time>
      </trkpt>
      <trkpt lat="46.78437" lon="5.51575">
        <ele>302.4</ele>
        <time>2012-11-24T13:50:32.000Z</time>
      </trkpt>
      <trkpt lat="46.78439" lon="5.5157">
        <ele>301.7</ele>
        <time>2012-11-24T13:50:36.000Z</time>
      </trkpt>
      <trkpt lat="46.78439" lon="5.51568">
        <ele>301.5</ele>
        <time>2012-11-24T13:50:37.000Z</time>
      </trkpt>
      <trkpt lat="46.78441" lon="5.51562">
        <ele>300.8</ele>
        <time>2012-11-24T13:50:41.000Z</time>
      </trkpt>
      <trkpt lat="46.78441" lon="5.51561">
        <ele>300.7</ele>
        <time>2012-11-24T13:50:42.000Z</time>
      </trkpt>
      <trkpt lat="46.78443" lon="5.51555">
        <ele>300</ele>
        <time>2012-11-24T13:50:46.000Z</time>
      </trkpt>
      <trkpt lat="46.78443" lon="5.51554">
        <ele>299.9</ele>
        <time>2012-11-24T13:50:47.000Z</time>
      </trkpt>
      <trkpt lat="46.78445" lon="5.51548">
        <ele>299.3</ele>
        <time>2012-11-24T13:50:51.000Z</time>
      </trkpt>
      <trkpt lat="46.78445" lon="5.51546">
        <ele>299.2</ele>
        <time>2012-11-24T13:50:52.000Z</time>
      </trkpt>
      <trkpt lat="46.78447" lon="5.51541">
        <ele>298.4</ele>
        <time>2012-11-24T13:50:56.000Z</time>
      </trkpt>
      <trkpt lat="46.78447" lon="5.51539">
        <ele>298.3</ele>
        <time>2012-11-24T13:50:57.000Z</time>
      </trkpt>
      <trkpt lat="46.78448" lon="5.51534">
        <ele>298.2</ele>
        <time>2012-11-24T13:51:00.000Z</time>
      </trkpt>
      <trkpt lat="46.78449" lon="5.51533">
        <ele>298.2</ele>
        <time>2012-11-24T13:51:01.000Z</time>
      </trkpt>
      <trkpt lat="46.7845" lon="5.51528">
        <ele>298.3</ele>
        <time>2012-11-24T13:51:04.000Z</time>
      </trkpt>
      <trkpt lat="46.7845" lon="5.51527">
        <ele>298.5</ele>
        <time>2012-11-24T13:51:05.000Z</time>
      </trkpt>
      <trkpt lat="46.78451" lon="5.51522">
        <ele>298.8</ele>
        <time>2012-11-24T13:51:08.000Z</time>
      </trkpt>
      <trkpt lat="46.78452" lon="5.5152">
        <ele>298.9</ele>
        <time>2012-11-24T13:51:09.000Z</time>
      </trkpt>
      <trkpt lat="46.78453" lon="5.51515">
        <ele>299.3</ele>
        <time>2012-11-24T13:51:11.000Z</time>
      </trkpt>
      <trkpt lat="46.78454" lon="5.51514">
        <ele>299.6</ele>
        <time>2012-11-24T13:51:12.000Z</time>
      </trkpt>
      <trkpt lat="46.78455" lon="5.51509">
        <ele>300.1</ele>
        <time>2012-11-24T13:51:15.000Z</time>
      </trkpt>
      <trkpt lat="46.78455" lon="5.51507">
        <ele>300.1</ele>
        <time>2012-11-24T13:51:16.000Z</time>
      </trkpt>
      <trkpt lat="46.78457" lon="5.51502">
        <ele>300.6</ele>
        <time>2012-11-24T13:51:19.000Z</time>
      </trkpt>
      <trkpt lat="46.78457" lon="5.51501">
        <ele>300.9</ele>
        <time>2012-11-24T13:51:20.000Z</time>
      </trkpt>
      <trkpt lat="46.78459" lon="5.51496">
        <ele>301.6</ele>
        <time>2012-11-24T13:51:23.000Z</time>
      </trkpt>
      <trkpt lat="46.78459" lon="5.51494">
        <ele>301.6</ele>
        <time>2012-11-24T13:51:24.000Z</time>
      </trkpt>
      <trkpt lat="46.78461" lon="5.51488">
        <ele>302.1</ele>
        <time>2012-11-24T13:51:28.000Z</time>
      </trkpt>
      <trkpt lat="46.78461" lon="5.51486">
        <ele>302.2</ele>
        <time>2012-11-24T13:51:29.000Z</time>
      </trkpt>
      <trkpt lat="46.78463" lon="5.5148">
        <ele>302.2</ele>
        <time>2012-11-24T13:51:33.000Z</time>
      </trkpt>
      <trkpt lat="46.78463" lon="5.51479">
        <ele>302.2</ele>
        <time>2012-11-24T13:51:34.000Z</time>
      </trkpt>
      <trkpt lat="46.78464" lon="5.51473">
        <ele>302.1</ele>
        <time>2012-11-24T13:51:38.000Z</time>
      </trkpt>
      <trkpt lat="46.78465" lon="5.51471">
        <ele>302.1</ele>
        <time>2012-11-24T13:51:39.000Z</time>
      </trkpt>
      <trkpt lat="46.78466" lon="5.51466">
        <ele>302</ele>
        <time>2012-11-24T13:51:42.000Z</time>
      </trkpt>
      <trkpt lat="46.78466" lon="5.51465">
        <ele>302</ele>
        <time>2012-11-24T13:51:43.000Z</time>
      </trkpt>
      <trkpt lat="46.78468" lon="5.5146">
        <ele>301.8</ele>
        <time>2012-11-24T13:51:46.000Z</time>
      </trkpt>
      <trkpt lat="46.78468" lon="5.51459">
        <ele>301.7</ele>
        <time>2012-11-24T13:51:47.000Z</time>
      </trkpt>
      <trkpt lat="46.7847" lon="5.51453">
        <ele>301.1</ele>
        <time>2012-11-24T13:51:51.000Z</time>
      </trkpt>
      <trkpt lat="46.7847" lon="5.51451">
        <ele>301</ele>
        <time>2012-11-24T13:51:52.000Z</time>
      </trkpt>
      <trkpt lat="46.78471" lon="5.51445">
        <ele>300.5</ele>
        <time>2012-11-24T13:51:56.000Z</time>
      </trkpt>
      <trkpt lat="46.78472" lon="5.51444">
        <ele>300.3</ele>
        <time>2012-11-24T13:51:57.000Z</time>
      </trkpt>
      <trkpt lat="46.78473" lon="5.51438">
        <ele>299.7</ele>
        <time>2012-11-24T13:52:01.000Z</time>
      </trkpt>
      <trkpt lat="46.78473" lon="5.51436">
        <ele>299.6</ele>
        <time>2012-11-24T13:52:02.000Z</time>
      </trkpt>
      <trkpt lat="46.78474" lon="5.51431">
        <ele>300</ele>
        <time>2012-11-24T13:52:05.000Z</time>
      </trkpt>
      <trkpt lat="46.78474" lon="5.51429">
        <ele>300.2</ele>
        <time>2012-11-24T13:52:06.000Z</time>
      </trkpt>
      <trkpt lat="46.78476" lon="5.51423">
        <ele>299.9</ele>
        <time>2012-11-24T13:52:10.000Z</time>
      </trkpt>
      <trkpt lat="46.78476" lon="5.51421">
        <ele>300.1</ele>
        <time>2012-11-24T13:52:11.000Z</time>
      </trkpt>
      <trkpt lat="46.78477" lon="5.51416">
        <ele>300.2</ele>
        <time>2012-11-24T13:52:14.000Z</time>
      </trkpt>
      <trkpt lat="46.78477" lon="5.51414">
        <ele>300.3</ele>
        <time>2012-11-24T13:52:15.000Z</time>
      </trkpt>
      <trkpt lat="46.78478" lon="5.51408">
        <ele>300.4</ele>
        <time>2012-11-24T13:52:19.000Z</time>
      </trkpt>
      <trkpt lat="46.78478" lon="5.51406">
        <ele>300.5</ele>
        <time>2012-11-24T13:52:20.000Z</time>
      </trkpt>
      <trkpt lat="46.78478" lon="5.51401">
        <ele>300.6</ele>
        <time>2012-11-24T13:52:23.000Z</time>
      </trkpt>
      <trkpt lat="46.78478" lon="5.514">
        <ele>300.7</ele>
        <time>2012-11-24T13:52:24.000Z</time>
      </trkpt>
      <trkpt lat="46.78479" lon="5.51395">
        <ele>301.1</ele>
        <time>2012-11-24T13:52:27.000Z</time>
      </trkpt>
      <trkpt lat="46.78479" lon="5.51393">
        <ele>301.1</ele>
        <time>2012-11-24T13:52:28.000Z</time>
      </trkpt>
      <trkpt lat="46.78478" lon="5.51388">
        <ele>301.4</ele>
        <time>2012-11-24T13:52:31.000Z</time>
      </trkpt>
      <trkpt lat="46.78478" lon="5.51386">
        <ele>301.5</ele>
        <time>2012-11-24T13:52:32.000Z</time>
      </trkpt>
      <trkpt lat="46.78477" lon="5.51381">
        <ele>302.2</ele>
        <time>2012-11-24T13:52:35.000Z</time>
      </trkpt>
      <trkpt lat="46.78477" lon="5.51379">
        <ele>302.4</ele>
        <time>2012-11-24T13:52:36.000Z</time>
      </trkpt>
      <trkpt lat="46.78476" lon="5.51374">
        <ele>302.7</ele>
        <time>2012-11-24T13:52:39.000Z</time>
      </trkpt>
      <trkpt lat="46.78475" lon="5.51373">
        <ele>302.7</ele>
        <time>2012-11-24T13:52:40.000Z</time>
      </trkpt>
      <trkpt lat="46.78474" lon="5.51368">
        <ele>303</ele>
        <time>2012-11-24T13:52:43.000Z</time>
      </trkpt>
      <trkpt lat="46.78473" lon="5.51367">
        <ele>303</ele>
        <time>2012-11-24T13:52:44.000Z</time>
      </trkpt>
      <trkpt lat="46.78472" lon="5.51361">
        <ele>302.9</ele>
        <time>2012-11-24T13:52:48.000Z</time>
      </trkpt>
      <trkpt lat="46.78472" lon="5.5136">
        <ele>302.9</ele>
        <time>2012-11-24T13:52:49.000Z</time>
      </trkpt>
      <trkpt lat="46.7847" lon="5.51355">
        <ele>302.9</ele>
        <time>2012-11-24T13:52:53.000Z</time>
      </trkpt>
      <trkpt lat="46.78469" lon="5.51353">
        <ele>303.1</ele>
        <time>2012-11-24T13:52:54.000Z</time>
      </trkpt>
      <trkpt lat="46.78468" lon="5.51347">
        <ele>303.1</ele>
        <time>2012-11-24T13:52:58.000Z</time>
      </trkpt>
      <trkpt lat="46.78467" lon="5.51345">
        <ele>303.2</ele>
        <time>2012-11-24T13:52:59.000Z</time>
      </trkpt>
      <trkpt lat="46.78466" lon="5.51339">
        <ele>303.4</ele>
        <time>2012-11-24T13:53:03.000Z</time>
      </trkpt>
      <trkpt lat="46.78466" lon="5.51338">
        <ele>303.4</ele>
        <time>2012-11-24T13:53:04.000Z</time>
      </trkpt>
      <trkpt lat="46.78465" lon="5.51332">
        <ele>303.3</ele>
        <time>2012-11-24T13:53:08.000Z</time>
      </trkpt>
      <trkpt lat="46.78465" lon="5.51331">
        <ele>303.4</ele>
        <time>2012-11-24T13:53:09.000Z</time>
      </trkpt>
      <trkpt lat="46.78464" lon="5.51324">
        <ele>303.3</ele>
        <time>2012-11-24T13:53:13.000Z</time>
      </trkpt>
      <trkpt lat="46.78464" lon="5.51323">
        <ele>303.5</ele>
        <time>2012-11-24T13:53:14.000Z</time>
      </trkpt>
      <trkpt lat="46.78463" lon="5.51317">
        <ele>303.8</ele>
        <time>2012-11-24T13:53:17.000Z</time>
      </trkpt>
      <trkpt lat="46.78462" lon="5.51315">
        <ele>303.9</ele>
        <time>2012-11-24T13:53:18.000Z</time>
      </trkpt>
      <trkpt lat="46.78462" lon="5.5131">
        <ele>303.9</ele>
        <time>2012-11-24T13:53:21.000Z</time>
      </trkpt>
      <trkpt lat="46.78461" lon="5.51308">
        <ele>304</ele>
        <time>2012-11-24T13:53:22.000Z</time>
      </trkpt>
      <trkpt lat="46.78461" lon="5.51303">
        <ele>304.2</ele>
        <time>2012-11-24T13:53:25.000Z</time>
      </trkpt>
      <trkpt lat="46.78461" lon="5.51301">
        <ele>304.2</ele>
        <time>2012-11-24T13:53:26.000Z</time>
      </trkpt>
      <trkpt lat="46.78461" lon="5.51295">
        <ele>304.2</ele>
        <time>2012-11-24T13:53:30.000Z</time>
      </trkpt>
      <trkpt lat="46.78461" lon="5.51294">
        <ele>304</ele>
        <time>2012-11-24T13:53:31.000Z</time>
      </trkpt>
      <trkpt lat="46.78461" lon="5.51288">
        <ele>303.5</ele>
        <time>2012-11-24T13:53:35.000Z</time>
      </trkpt>
      <trkpt lat="46.78462" lon="5.51287">
        <ele>303.1</ele>
        <time>2012-11-24T13:53:36.000Z</time>
      </trkpt>
      <trkpt lat="46.78466" lon="5.51286">
        <ele>302.2</ele>
        <time>2012-11-24T13:53:40.000Z</time>
      </trkpt>
      <trkpt lat="46.78467" lon="5.51287">
        <ele>302</ele>
        <time>2012-11-24T13:53:41.000Z</time>
      </trkpt>
      <trkpt lat="46.7847" lon="5.5129">
        <ele>301.1</ele>
        <time>2012-11-24T13:53:44.000Z</time>
      </trkpt>
      <trkpt lat="46.78471" lon="5.51291">
        <ele>300.9</ele>
        <time>2012-11-24T13:53:45.000Z</time>
      </trkpt>
      <trkpt lat="46.78475" lon="5.51294">
        <ele>300.2</ele>
        <time>2012-11-24T13:53:49.000Z</time>
      </trkpt>
      <trkpt lat="46.78476" lon="5.51295">
        <ele>300.1</ele>
        <time>2012-11-24T13:53:50.000Z</time>
      </trkpt>
      <trkpt lat="46.78479" lon="5.51297">
        <ele>300</ele>
        <time>2012-11-24T13:53:53.000Z</time>
      </trkpt>
      <trkpt lat="46.7848" lon="5.51298">
        <ele>300.1</ele>
        <time>2012-11-24T13:53:54.000Z</time>
      </trkpt>
      <trkpt lat="46.78483" lon="5.513">
        <ele>300.3</ele>
        <time>2012-11-24T13:53:57.000Z</time>
      </trkpt>
      <trkpt lat="46.78484" lon="5.51301">
        <ele>300.4</ele>
        <time>2012-11-24T13:53:58.000Z</time>
      </trkpt>
      <trkpt lat="46.78487" lon="5.51303">
        <ele>300.2</ele>
        <time>2012-11-24T13:54:01.000Z</time>
      </trkpt>
      <trkpt lat="46.78488" lon="5.51304">
        <ele>300</ele>
        <time>2012-11-24T13:54:02.000Z</time>
      </trkpt>
      <trkpt lat="46.78492" lon="5.51306">
        <ele>299.4</ele>
        <time>2012-11-24T13:54:06.000Z</time>
      </trkpt>
      <trkpt lat="46.78492" lon="5.51307">
        <ele>299.4</ele>
        <time>2012-11-24T13:54:07.000Z</time>
      </trkpt>
      <trkpt lat="46.78496" lon="5.5131">
        <ele>299.1</ele>
        <time>2012-11-24T13:54:11.000Z</time>
      </trkpt>
      <trkpt lat="46.78497" lon="5.51311">
        <ele>299</ele>
        <time>2012-11-24T13:54:12.000Z</time>
      </trkpt>
      <trkpt lat="46.78501" lon="5.51314">
        <ele>298.8</ele>
        <time>2012-11-24T13:54:16.000Z</time>
      </trkpt>
      <trkpt lat="46.78502" lon="5.51314">
        <ele>298.7</ele>
        <time>2012-11-24T13:54:17.000Z</time>
      </trkpt>
      <trkpt lat="46.78506" lon="5.51317">
        <ele>298.3</ele>
        <time>2012-11-24T13:54:21.000Z</time>
      </trkpt>
      <trkpt lat="46.78506" lon="5.51318">
        <ele>298.4</ele>
        <time>2012-11-24T13:54:22.000Z</time>
      </trkpt>
      <trkpt lat="46.7851" lon="5.51321">
        <ele>298.1</ele>
        <time>2012-11-24T13:54:26.000Z</time>
      </trkpt>
      <trkpt lat="46.78511" lon="5.51321">
        <ele>298</ele>
        <time>2012-11-24T13:54:27.000Z</time>
      </trkpt>
      <trkpt lat="46.78515" lon="5.51324">
        <ele>297.8</ele>
        <time>2012-11-24T13:54:31.000Z</time>
      </trkpt>
      <trkpt lat="46.78516" lon="5.51324">
        <ele>297.7</ele>
        <time>2012-11-24T13:54:32.000Z</time>
      </trkpt>
      <trkpt lat="46.78519" lon="5.51326">
        <ele>297.7</ele>
        <time>2012-11-24T13:54:35.000Z</time>
      </trkpt>
      <trkpt lat="46.7852" lon="5.51327">
        <ele>297.7</ele>
        <time>2012-11-24T13:54:36.000Z</time>
      </trkpt>
      <trkpt lat="46.78523" lon="5.51329">
        <ele>297.9</ele>
        <time>2012-11-24T13:54:39.000Z</time>
      </trkpt>
      <trkpt lat="46.78524" lon="5.5133">
        <ele>298</ele>
        <time>2012-11-24T13:54:40.000Z</time>
      </trkpt>
      <trkpt lat="46.78528" lon="5.51331">
        <ele>298.2</ele>
        <time>2012-11-24T13:54:44.000Z</time>
      </trkpt>
      <trkpt lat="46.78528" lon="5.51332">
        <ele>298.1</ele>
        <time>2012-11-24T13:54:45.000Z</time>
      </trkpt>
      <trkpt lat="46.78532" lon="5.51335">
        <ele>297.5</ele>
        <time>2012-11-24T13:54:49.000Z</time>
      </trkpt>
      <trkpt lat="46.78533" lon="5.51336">
        <ele>297.3</ele>
        <time>2012-11-24T13:54:50.000Z</time>
      </trkpt>
      <trkpt lat="46.78536" lon="5.51338">
        <ele>297.1</ele>
        <time>2012-11-24T13:54:53.000Z</time>
      </trkpt>
      <trkpt lat="46.78537" lon="5.51339">
        <ele>297.1</ele>
        <time>2012-11-24T13:54:54.000Z</time>
      </trkpt>
      <trkpt lat="46.7854" lon="5.51342">
        <ele>296.8</ele>
        <time>2012-11-24T13:54:58.000Z</time>
      </trkpt>
      <trkpt lat="46.78541" lon="5.51343">
        <ele>296.8</ele>
        <time>2012-11-24T13:54:59.000Z</time>
      </trkpt>
      <trkpt lat="46.78544" lon="5.51346">
        <ele>296.7</ele>
        <time>2012-11-24T13:55:02.000Z</time>
      </trkpt>
      <trkpt lat="46.78545" lon="5.51346">
        <ele>296.6</ele>
        <time>2012-11-24T13:55:03.000Z</time>
      </trkpt>
      <trkpt lat="46.78548" lon="5.51349">
        <ele>296.4</ele>
        <time>2012-11-24T13:55:06.000Z</time>
      </trkpt>
      <trkpt lat="46.78549" lon="5.5135">
        <ele>296.4</ele>
        <time>2012-11-24T13:55:07.000Z</time>
      </trkpt>
      <trkpt lat="46.78553" lon="5.51353">
        <ele>296.2</ele>
        <time>2012-11-24T13:55:11.000Z</time>
      </trkpt>
      <trkpt lat="46.78554" lon="5.51354">
        <ele>296.1</ele>
        <time>2012-11-24T13:55:12.000Z</time>
      </trkpt>
      <trkpt lat="46.78558" lon="5.51357">
        <ele>296</ele>
        <time>2012-11-24T13:55:16.000Z</time>
      </trkpt>
      <trkpt lat="46.78559" lon="5.51357">
        <ele>295.9</ele>
        <time>2012-11-24T13:55:17.000Z</time>
      </trkpt>
      <trkpt lat="46.78562" lon="5.51361">
        <ele>296.2</ele>
        <time>2012-11-24T13:55:21.000Z</time>
      </trkpt>
      <trkpt lat="46.78563" lon="5.51361">
        <ele>296.5</ele>
        <time>2012-11-24T13:55:22.000Z</time>
      </trkpt>
      <trkpt lat="46.78567" lon="5.51364">
        <ele>297.2</ele>
        <time>2012-11-24T13:55:25.000Z</time>
      </trkpt>
      <trkpt lat="46.78568" lon="5.51364">
        <ele>297.4</ele>
        <time>2012-11-24T13:55:26.000Z</time>
      </trkpt>
      <trkpt lat="46.78571" lon="5.51366">
        <ele>297.5</ele>
        <time>2012-11-24T13:55:29.000Z</time>
      </trkpt>
      <trkpt lat="46.78572" lon="5.51367">
        <ele>297.5</ele>
        <time>2012-11-24T13:55:30.000Z</time>
      </trkpt>
      <trkpt lat="46.78576" lon="5.51368">
        <ele>297.4</ele>
        <time>2012-11-24T13:55:33.000Z</time>
      </trkpt>
      <trkpt lat="46.78577" lon="5.51369">
        <ele>297.4</ele>
        <time>2012-11-24T13:55:34.000Z</time>
      </trkpt>
      <trkpt lat="46.78581" lon="5.51372">
        <ele>298.3</ele>
        <time>2012-11-24T13:55:41.000Z</time>
      </trkpt>
      <trkpt lat="46.78582" lon="5.51372">
        <ele>298.2</ele>
        <time>2012-11-24T13:55:42.000Z</time>
      </trkpt>
      <trkpt lat="46.78585" lon="5.51374">
        <ele>297.7</ele>
        <time>2012-11-24T13:55:46.000Z</time>
      </trkpt>
      <trkpt lat="46.78586" lon="5.51375">
        <ele>297.5</ele>
        <time>2012-11-24T13:55:47.000Z</time>
      </trkpt>
      <trkpt lat="46.78589" lon="5.51377">
        <ele>297.2</ele>
        <time>2012-11-24T13:55:50.000Z</time>
      </trkpt>
      <trkpt lat="46.7859" lon="5.51378">
        <ele>297.2</ele>
        <time>2012-11-24T13:55:51.000Z</time>
      </trkpt>
      <trkpt lat="46.78593" lon="5.51381">
        <ele>297.2</ele>
        <time>2012-11-24T13:55:54.000Z</time>
      </trkpt>
      <trkpt lat="46.78594" lon="5.51382">
        <ele>297.1</ele>
        <time>2012-11-24T13:55:55.000Z</time>
      </trkpt>
      <trkpt lat="46.78598" lon="5.51384">
        <ele>296.6</ele>
        <time>2012-11-24T13:55:59.000Z</time>
      </trkpt>
      <trkpt lat="46.78599" lon="5.51385">
        <ele>296.6</ele>
        <time>2012-11-24T13:56:00.000Z</time>
      </trkpt>
      <trkpt lat="46.78603" lon="5.51388">
        <ele>296.5</ele>
        <time>2012-11-24T13:56:04.000Z</time>
      </trkpt>
      <trkpt lat="46.78604" lon="5.51389">
        <ele>296.8</ele>
        <time>2012-11-24T13:56:05.000Z</time>
      </trkpt>
      <trkpt lat="46.78607" lon="5.51391">
        <ele>297.2</ele>
        <time>2012-11-24T13:56:08.000Z</time>
      </trkpt>
      <trkpt lat="46.78608" lon="5.51392">
        <ele>297.1</ele>
        <time>2012-11-24T13:56:09.000Z</time>
      </trkpt>
      <trkpt lat="46.78612" lon="5.51395">
        <ele>297.4</ele>
        <time>2012-11-24T13:56:13.000Z</time>
      </trkpt>
      <trkpt lat="46.78613" lon="5.51396">
        <ele>297.4</ele>
        <time>2012-11-24T13:56:14.000Z</time>
      </trkpt>
      <trkpt lat="46.78617" lon="5.51398">
        <ele>297.4</ele>
        <time>2012-11-24T13:56:18.000Z</time>
      </trkpt>
      <trkpt lat="46.78626" lon="5.51403">
        <ele>296.5</ele>
        <time>2012-11-24T13:56:27.000Z</time>
      </trkpt>
      <trkpt lat="46.78629" lon="5.51406">
        <ele>295.7</ele>
        <time>2012-11-24T13:56:30.000Z</time>
      </trkpt>
      <trkpt lat="46.7863" lon="5.51406">
        <ele>295.7</ele>
        <time>2012-11-24T13:56:31.000Z</time>
      </trkpt>
      <trkpt lat="46.78633" lon="5.51409">
        <ele>296.1</ele>
        <time>2012-11-24T13:56:35.000Z</time>
      </trkpt>
      <trkpt lat="46.78634" lon="5.51409">
        <ele>296.3</ele>
        <time>2012-11-24T13:56:36.000Z</time>
      </trkpt>
      <trkpt lat="46.78637" lon="5.51411">
        <ele>296.4</ele>
        <time>2012-11-24T13:56:40.000Z</time>
      </trkpt>
      <trkpt lat="46.78638" lon="5.51412">
        <ele>296</ele>
        <time>2012-11-24T13:56:41.000Z</time>
      </trkpt>
      <trkpt lat="46.78641" lon="5.51415">
        <ele>295.3</ele>
        <time>2012-11-24T13:56:45.000Z</time>
      </trkpt>
      <trkpt lat="46.78642" lon="5.51416">
        <ele>295</ele>
        <time>2012-11-24T13:56:46.000Z</time>
      </trkpt>
      <trkpt lat="46.78646" lon="5.51419">
        <ele>294.4</ele>
        <time>2012-11-24T13:56:50.000Z</time>
      </trkpt>
      <trkpt lat="46.78647" lon="5.5142">
        <ele>294.4</ele>
        <time>2012-11-24T13:56:51.000Z</time>
      </trkpt>
      <trkpt lat="46.78651" lon="5.51423">
        <ele>294.1</ele>
        <time>2012-11-24T13:56:55.000Z</time>
      </trkpt>
      <trkpt lat="46.78652" lon="5.51423">
        <ele>294</ele>
        <time>2012-11-24T13:56:56.000Z</time>
      </trkpt>
      <trkpt lat="46.78655" lon="5.51427">
        <ele>293.6</ele>
        <time>2012-11-24T13:57:00.000Z</time>
      </trkpt>
      <trkpt lat="46.78656" lon="5.51428">
        <ele>293.6</ele>
        <time>2012-11-24T13:57:01.000Z</time>
      </trkpt>
      <trkpt lat="46.78659" lon="5.51431">
        <ele>293.6</ele>
        <time>2012-11-24T13:57:05.000Z</time>
      </trkpt>
      <trkpt lat="46.7866" lon="5.51432">
        <ele>293.6</ele>
        <time>2012-11-24T13:57:06.000Z</time>
      </trkpt>
      <trkpt lat="46.78664" lon="5.51436">
        <ele>293.4</ele>
        <time>2012-11-24T13:57:10.000Z</time>
      </trkpt>
      <trkpt lat="46.78664" lon="5.51437">
        <ele>293.3</ele>
        <time>2012-11-24T13:57:11.000Z</time>
      </trkpt>
      <trkpt lat="46.78667" lon="5.5144">
        <ele>293.3</ele>
        <time>2012-11-24T13:57:15.000Z</time>
      </trkpt>
      <trkpt lat="46.78668" lon="5.51441">
        <ele>293.3</ele>
        <time>2012-11-24T13:57:16.000Z</time>
      </trkpt>
      <trkpt lat="46.78671" lon="5.51444">
        <ele>293.3</ele>
        <time>2012-11-24T13:57:19.000Z</time>
      </trkpt>
      <trkpt lat="46.78672" lon="5.51445">
        <ele>293.3</ele>
        <time>2012-11-24T13:57:20.000Z</time>
      </trkpt>
      <trkpt lat="46.78675" lon="5.51447">
        <ele>293.5</ele>
        <time>2012-11-24T13:57:23.000Z</time>
      </trkpt>
      <trkpt lat="46.78676" lon="5.51448">
        <ele>293.8</ele>
        <time>2012-11-24T13:57:24.000Z</time>
      </trkpt>
      <trkpt lat="46.7868" lon="5.51451">
        <ele>294.3</ele>
        <time>2012-11-24T13:57:27.000Z</time>
      </trkpt>
      <trkpt lat="46.7868" lon="5.51452">
        <ele>294.2</ele>
        <time>2012-11-24T13:57:28.000Z</time>
      </trkpt>
      <trkpt lat="46.78683" lon="5.51455">
        <ele>293.8</ele>
        <time>2012-11-24T13:57:32.000Z</time>
      </trkpt>
      <trkpt lat="46.78684" lon="5.51456">
        <ele>293.7</ele>
        <time>2012-11-24T13:57:33.000Z</time>
      </trkpt>
      <trkpt lat="46.78687" lon="5.51459">
        <ele>294.7</ele>
        <time>2012-11-24T13:57:36.000Z</time>
      </trkpt>
      <trkpt lat="46.78689" lon="5.5146">
        <ele>295.2</ele>
        <time>2012-11-24T13:57:37.000Z</time>
      </trkpt>
      <trkpt lat="46.78693" lon="5.51462">
        <ele>295.8</ele>
        <time>2012-11-24T13:57:40.000Z</time>
      </trkpt>
      <trkpt lat="46.78694" lon="5.51463">
        <ele>296</ele>
        <time>2012-11-24T13:57:41.000Z</time>
      </trkpt>
      <trkpt lat="46.78697" lon="5.51467">
        <ele>295.4</ele>
        <time>2012-11-24T13:57:45.000Z</time>
      </trkpt>
      <trkpt lat="46.78698" lon="5.51468">
        <ele>295.4</ele>
        <time>2012-11-24T13:57:46.000Z</time>
      </trkpt>
      <trkpt lat="46.78701" lon="5.51473">
        <ele>295.6</ele>
        <time>2012-11-24T13:57:50.000Z</time>
      </trkpt>
      <trkpt lat="46.78702" lon="5.51474">
        <ele>295.6</ele>
        <time>2012-11-24T13:57:51.000Z</time>
      </trkpt>
      <trkpt lat="46.78704" lon="5.51479">
        <ele>295.4</ele>
        <time>2012-11-24T13:57:55.000Z</time>
      </trkpt>
      <trkpt lat="46.78705" lon="5.5148">
        <ele>295.5</ele>
        <time>2012-11-24T13:57:56.000Z</time>
      </trkpt>
      <trkpt lat="46.78708" lon="5.51482">
        <ele>295.6</ele>
        <time>2012-11-24T13:57:59.000Z</time>
      </trkpt>
      <trkpt lat="46.78709" lon="5.51483">
        <ele>295.4</ele>
        <time>2012-11-24T13:58:00.000Z</time>
      </trkpt>
      <trkpt lat="46.78713" lon="5.51487">
        <ele>295.2</ele>
        <time>2012-11-24T13:58:04.000Z</time>
      </trkpt>
      <trkpt lat="46.78713" lon="5.51488">
        <ele>295.1</ele>
        <time>2012-11-24T13:58:05.000Z</time>
      </trkpt>
      <trkpt lat="46.78716" lon="5.51493">
        <ele>294.5</ele>
        <time>2012-11-24T13:58:09.000Z</time>
      </trkpt>
      <trkpt lat="46.78717" lon="5.51494">
        <ele>294.4</ele>
        <time>2012-11-24T13:58:10.000Z</time>
      </trkpt>
      <trkpt lat="46.7872" lon="5.51497">
        <ele>294.3</ele>
        <time>2012-11-24T13:58:13.000Z</time>
      </trkpt>
      <trkpt lat="46.78721" lon="5.51498">
        <ele>294.4</ele>
        <time>2012-11-24T13:58:14.000Z</time>
      </trkpt>
      <trkpt lat="46.78724" lon="5.51502">
        <ele>294.8</ele>
        <time>2012-11-24T13:58:17.000Z</time>
      </trkpt>
      <trkpt lat="46.78725" lon="5.51503">
        <ele>294.9</ele>
        <time>2012-11-24T13:58:18.000Z</time>
      </trkpt>
      <trkpt lat="46.78727" lon="5.51506">
        <ele>294.9</ele>
        <time>2012-11-24T13:58:21.000Z</time>
      </trkpt>
      <trkpt lat="46.78728" lon="5.51508">
        <ele>295</ele>
        <time>2012-11-24T13:58:22.000Z</time>
      </trkpt>
      <trkpt lat="46.78731" lon="5.51512">
        <ele>294.5</ele>
        <time>2012-11-24T13:58:26.000Z</time>
      </trkpt>
      <trkpt lat="46.78732" lon="5.51513">
        <ele>294.5</ele>
        <time>2012-11-24T13:58:27.000Z</time>
      </trkpt>
      <trkpt lat="46.78734" lon="5.51517">
        <ele>293.9</ele>
        <time>2012-11-24T13:58:31.000Z</time>
      </trkpt>
      <trkpt lat="46.78735" lon="5.51518">
        <ele>293.7</ele>
        <time>2012-11-24T13:58:32.000Z</time>
      </trkpt>
      <trkpt lat="46.78738" lon="5.51523">
        <ele>293.5</ele>
        <time>2012-11-24T13:58:36.000Z</time>
      </trkpt>
      <trkpt lat="46.78738" lon="5.51525">
        <ele>293.4</ele>
        <time>2012-11-24T13:58:37.000Z</time>
      </trkpt>
      <trkpt lat="46.78741" lon="5.51529">
        <ele>292.7</ele>
        <time>2012-11-24T13:58:41.000Z</time>
      </trkpt>
      <trkpt lat="46.78742" lon="5.5153">
        <ele>292.7</ele>
        <time>2012-11-24T13:58:42.000Z</time>
      </trkpt>
      <trkpt lat="46.78745" lon="5.51534">
        <ele>292.2</ele>
        <time>2012-11-24T13:58:46.000Z</time>
      </trkpt>
      <trkpt lat="46.78745" lon="5.51535">
        <ele>292</ele>
        <time>2012-11-24T13:58:47.000Z</time>
      </trkpt>
      <trkpt lat="46.78748" lon="5.51539">
        <ele>291.4</ele>
        <time>2012-11-24T13:58:51.000Z</time>
      </trkpt>
      <trkpt lat="46.78748" lon="5.5154">
        <ele>291.2</ele>
        <time>2012-11-24T13:58:52.000Z</time>
      </trkpt>
      <trkpt lat="46.78751" lon="5.51544">
        <ele>290.5</ele>
        <time>2012-11-24T13:58:56.000Z</time>
      </trkpt>
      <trkpt lat="46.78752" lon="5.51545">
        <ele>290.3</ele>
        <time>2012-11-24T13:58:57.000Z</time>
      </trkpt>
      <trkpt lat="46.78754" lon="5.5155">
        <ele>289.4</ele>
        <time>2012-11-24T13:59:01.000Z</time>
      </trkpt>
      <trkpt lat="46.78755" lon="5.51551">
        <ele>289.2</ele>
        <time>2012-11-24T13:59:02.000Z</time>
      </trkpt>
      <trkpt lat="46.78758" lon="5.51555">
        <ele>288.5</ele>
        <time>2012-11-24T13:59:06.000Z</time>
      </trkpt>
      <trkpt lat="46.78758" lon="5.51557">
        <ele>288.3</ele>
        <time>2012-11-24T13:59:07.000Z</time>
      </trkpt>
      <trkpt lat="46.78762" lon="5.51559">
        <ele>286</ele>
        <time>2012-11-24T13:59:16.000Z</time>
      </trkpt>
      <trkpt lat="46.78763" lon="5.51558">
        <ele>285.9</ele>
        <time>2012-11-24T13:59:17.000Z</time>
      </trkpt>
      <trkpt lat="46.78762" lon="5.51564">
        <ele>283.3</ele>
        <time>2012-11-24T13:59:35.000Z</time>
      </trkpt>
      <trkpt lat="46.78763" lon="5.51565">
        <ele>283.2</ele>
        <time>2012-11-24T13:59:36.000Z</time>
      </trkpt>
      <trkpt lat="46.78765" lon="5.51571">
        <ele>282.9</ele>
        <time>2012-11-24T13:59:40.000Z</time>
      </trkpt>
      <trkpt lat="46.78766" lon="5.51572">
        <ele>282.7</ele>
        <time>2012-11-24T13:59:41.000Z</time>
      </trkpt>
      <trkpt lat="46.78769" lon="5.51576">
        <ele>282.5</ele>
        <time>2012-11-24T13:59:45.000Z</time>
      </trkpt>
      <trkpt lat="46.7877" lon="5.51577">
        <ele>282.6</ele>
        <time>2012-11-24T13:59:46.000Z</time>
      </trkpt>
      <trkpt lat="46.78772" lon="5.5158">
        <ele>282.6</ele>
        <time>2012-11-24T13:59:49.000Z</time>
      </trkpt>
      <trkpt lat="46.78773" lon="5.51581">
        <ele>282.6</ele>
        <time>2012-11-24T13:59:50.000Z</time>
      </trkpt>
      <trkpt lat="46.78776" lon="5.51584">
        <ele>282.7</ele>
        <time>2012-11-24T13:59:53.000Z</time>
      </trkpt>
      <trkpt lat="46.78777" lon="5.51586">
        <ele>282.6</ele>
        <time>2012-11-24T13:59:54.000Z</time>
      </trkpt>
      <trkpt lat="46.78779" lon="5.51589">
        <ele>282.6</ele>
        <time>2012-11-24T13:59:57.000Z</time>
      </trkpt>
      <trkpt lat="46.7878" lon="5.5159">
        <ele>282.8</ele>
        <time>2012-11-24T13:59:58.000Z</time>
      </trkpt>
      <trkpt lat="46.78783" lon="5.51593">
        <ele>282.8</ele>
        <time>2012-11-24T14:00:01.000Z</time>
      </trkpt>
      <trkpt lat="46.78784" lon="5.51594">
        <ele>282.9</ele>
        <time>2012-11-24T14:00:02.000Z</time>
      </trkpt>
      <trkpt lat="46.78787" lon="5.51599">
        <ele>282.7</ele>
        <time>2012-11-24T14:00:06.000Z</time>
      </trkpt>
      <trkpt lat="46.78787" lon="5.516">
        <ele>282.7</ele>
        <time>2012-11-24T14:00:07.000Z</time>
      </trkpt>
      <trkpt lat="46.7879" lon="5.51604">
        <ele>282.6</ele>
        <time>2012-11-24T14:00:11.000Z</time>
      </trkpt>
      <trkpt lat="46.78791" lon="5.51606">
        <ele>282.5</ele>
        <time>2012-11-24T14:00:12.000Z</time>
      </trkpt>
      <trkpt lat="46.78794" lon="5.51609">
        <ele>282.7</ele>
        <time>2012-11-24T14:00:15.000Z</time>
      </trkpt>
      <trkpt lat="46.78794" lon="5.51611">
        <ele>282.7</ele>
        <time>2012-11-24T14:00:16.000Z</time>
      </trkpt>
      <trkpt lat="46.78797" lon="5.51616">
        <ele>282.9</ele>
        <time>2012-11-24T14:00:20.000Z</time>
      </trkpt>
      <trkpt lat="46.78798" lon="5.51617">
        <ele>282.8</ele>
        <time>2012-11-24T14:00:21.000Z</time>
      </trkpt>
      <trkpt lat="46.788" lon="5.51622">
        <ele>282.9</ele>
        <time>2012-11-24T14:00:25.000Z</time>
      </trkpt>
      <trkpt lat="46.788" lon="5.51623">
        <ele>283.1</ele>
        <time>2012-11-24T14:00:26.000Z</time>
      </trkpt>
      <trkpt lat="46.78803" lon="5.51627">
        <ele>283.9</ele>
        <time>2012-11-24T14:00:29.000Z</time>
      </trkpt>
      <trkpt lat="46.78804" lon="5.51628">
        <ele>284.4</ele>
        <time>2012-11-24T14:00:30.000Z</time>
      </trkpt>
      <trkpt lat="46.78807" lon="5.51632">
        <ele>285.2</ele>
        <time>2012-11-24T14:00:33.000Z</time>
      </trkpt>
      <trkpt lat="46.78808" lon="5.51633">
        <ele>285.4</ele>
        <time>2012-11-24T14:00:34.000Z</time>
      </trkpt>
      <trkpt lat="46.7881" lon="5.51637">
        <ele>286.2</ele>
        <time>2012-11-24T14:00:37.000Z</time>
      </trkpt>
      <trkpt lat="46.7881" lon="5.51639">
        <ele>286.5</ele>
        <time>2012-11-24T14:00:38.000Z</time>
      </trkpt>
      <trkpt lat="46.78813" lon="5.51643">
        <ele>287.2</ele>
        <time>2012-11-24T14:00:41.000Z</time>
      </trkpt>
      <trkpt lat="46.78814" lon="5.51644">
        <ele>287.4</ele>
        <time>2012-11-24T14:00:42.000Z</time>
      </trkpt>
      <trkpt lat="46.78816" lon="5.51648">
        <ele>288.3</ele>
        <time>2012-11-24T14:00:45.000Z</time>
      </trkpt>
      <trkpt lat="46.78817" lon="5.51649">
        <ele>288.2</ele>
        <time>2012-11-24T14:00:46.000Z</time>
      </trkpt>
      <trkpt lat="46.78818" lon="5.51654">
        <ele>288</ele>
        <time>2012-11-24T14:00:50.000Z</time>
      </trkpt>
      <trkpt lat="46.78819" lon="5.51655">
        <ele>288</ele>
        <time>2012-11-24T14:00:51.000Z</time>
      </trkpt>
      <trkpt lat="46.78821" lon="5.5166">
        <ele>287.5</ele>
        <time>2012-11-24T14:00:55.000Z</time>
      </trkpt>
      <trkpt lat="46.78822" lon="5.51661">
        <ele>287.4</ele>
        <time>2012-11-24T14:00:56.000Z</time>
      </trkpt>
      <trkpt lat="46.78825" lon="5.51664">
        <ele>287.9</ele>
        <time>2012-11-24T14:00:59.000Z</time>
      </trkpt>
      <trkpt lat="46.78826" lon="5.51664">
        <ele>288.2</ele>
        <time>2012-11-24T14:01:00.000Z</time>
      </trkpt>
      <trkpt lat="46.7883" lon="5.51668">
        <ele>288.4</ele>
        <time>2012-11-24T14:01:03.000Z</time>
      </trkpt>
      <trkpt lat="46.78831" lon="5.51669">
        <ele>288.6</ele>
        <time>2012-11-24T14:01:04.000Z</time>
      </trkpt>
      <trkpt lat="46.78832" lon="5.51674">
        <ele>288.8</ele>
        <time>2012-11-24T14:01:08.000Z</time>
      </trkpt>
      <trkpt lat="46.78832" lon="5.51675">
        <ele>288.9</ele>
        <time>2012-11-24T14:01:09.000Z</time>
      </trkpt>
      <trkpt lat="46.78832" lon="5.51681">
        <ele>289.1</ele>
        <time>2012-11-24T14:01:14.000Z</time>
      </trkpt>
      <trkpt lat="46.78833" lon="5.51682">
        <ele>289.2</ele>
        <time>2012-11-24T14:01:15.000Z</time>
      </trkpt>
      <trkpt lat="46.78834" lon="5.51687">
        <ele>289.3</ele>
        <time>2012-11-24T14:01:18.000Z</time>
      </trkpt>
      <trkpt lat="46.78835" lon="5.51689">
        <ele>289.5</ele>
        <time>2012-11-24T14:01:19.000Z</time>
      </trkpt>
      <trkpt lat="46.78835" lon="5.51694">
        <ele>289.5</ele>
        <time>2012-11-24T14:01:22.000Z</time>
      </trkpt>
      <trkpt lat="46.78835" lon="5.51696">
        <ele>288.8</ele>
        <time>2012-11-24T14:01:23.000Z</time>
      </trkpt>
      <trkpt lat="46.78834" lon="5.51702">
        <ele>287.8</ele>
        <time>2012-11-24T14:01:26.000Z</time>
      </trkpt>
      <trkpt lat="46.78834" lon="5.51704">
        <ele>287.7</ele>
        <time>2012-11-24T14:01:27.000Z</time>
      </trkpt>
      <trkpt lat="46.78834" lon="5.51709">
        <ele>287.4</ele>
        <time>2012-11-24T14:01:30.000Z</time>
      </trkpt>
      <trkpt lat="46.78834" lon="5.51711">
        <ele>287.4</ele>
        <time>2012-11-24T14:01:31.000Z</time>
      </trkpt>
      <trkpt lat="46.78833" lon="5.51716">
        <ele>287.4</ele>
        <time>2012-11-24T14:01:35.000Z</time>
      </trkpt>
      <trkpt lat="46.78833" lon="5.51718">
        <ele>287.3</ele>
        <time>2012-11-24T14:01:36.000Z</time>
      </trkpt>
      <trkpt lat="46.78834" lon="5.51723">
        <ele>287.1</ele>
        <time>2012-11-24T14:01:40.000Z</time>
      </trkpt>
      <trkpt lat="46.78834" lon="5.51725">
        <ele>287.2</ele>
        <time>2012-11-24T14:01:41.000Z</time>
      </trkpt>
      <trkpt lat="46.78835" lon="5.51731">
        <ele>286.8</ele>
        <time>2012-11-24T14:01:44.000Z</time>
      </trkpt>
      <trkpt lat="46.78835" lon="5.51733">
        <ele>287</ele>
        <time>2012-11-24T14:01:45.000Z</time>
      </trkpt>
      <trkpt lat="46.78836" lon="5.51739">
        <ele>286.9</ele>
        <time>2012-11-24T14:01:48.000Z</time>
      </trkpt>
      <trkpt lat="46.78836" lon="5.5174">
        <ele>286.8</ele>
        <time>2012-11-24T14:01:49.000Z</time>
      </trkpt>
      <trkpt lat="46.78838" lon="5.51745">
        <ele>285.8</ele>
        <time>2012-11-24T14:01:53.000Z</time>
      </trkpt>
      <trkpt lat="46.78839" lon="5.51746">
        <ele>285.9</ele>
        <time>2012-11-24T14:01:54.000Z</time>
      </trkpt>
      <trkpt lat="46.78841" lon="5.51751">
        <ele>286.9</ele>
        <time>2012-11-24T14:02:46.000Z</time>
      </trkpt>
      <trkpt lat="46.78841" lon="5.51752">
        <ele>287.1</ele>
        <time>2012-11-24T14:02:47.000Z</time>
      </trkpt>
      <trkpt lat="46.78844" lon="5.51757">
        <ele>288</ele>
        <time>2012-11-24T14:03:15.000Z</time>
      </trkpt>
      <trkpt lat="46.78844" lon="5.51757">
        <ele>288</ele>
        <time>2012-11-24T14:03:16.000Z</time>
      </trkpt>
      <trkpt lat="46.78846" lon="5.51761">
        <ele>287.9</ele>
        <time>2012-11-24T14:03:19.000Z</time>
      </trkpt>
      <trkpt lat="46.78846" lon="5.51763">
        <ele>288.1</ele>
        <time>2012-11-24T14:03:20.000Z</time>
      </trkpt>
      <trkpt lat="46.78845" lon="5.51768">
        <ele>287.9</ele>
        <time>2012-11-24T14:03:24.000Z</time>
      </trkpt>
      <trkpt lat="46.78845" lon="5.51769">
        <ele>287.9</ele>
        <time>2012-11-24T14:03:25.000Z</time>
      </trkpt>
      <trkpt lat="46.78845" lon="5.51776">
        <ele>288.9</ele>
        <time>2012-11-24T14:03:31.000Z</time>
      </trkpt>
      <trkpt lat="46.78845" lon="5.51777">
        <ele>288.6</ele>
        <time>2012-11-24T14:03:32.000Z</time>
      </trkpt>
      <trkpt lat="46.78846" lon="5.51783">
        <ele>288.7</ele>
        <time>2012-11-24T14:03:35.000Z</time>
      </trkpt>
      <trkpt lat="46.78846" lon="5.51784">
        <ele>288.6</ele>
        <time>2012-11-24T14:03:36.000Z</time>
      </trkpt>
      <trkpt lat="46.78848" lon="5.51789">
        <ele>288.6</ele>
        <time>2012-11-24T14:03:39.000Z</time>
      </trkpt>
      <trkpt lat="46.78851" lon="5.51792">
        <ele>288.7</ele>
        <time>2012-11-24T14:03:40.000Z</time>
      </trkpt>
      <trkpt lat="46.78852" lon="5.51797">
        <ele>288.8</ele>
        <time>2012-11-24T14:03:46.000Z</time>
      </trkpt>
      <trkpt lat="46.78852" lon="5.51798">
        <ele>289</ele>
        <time>2012-11-24T14:03:47.000Z</time>
      </trkpt>
      <trkpt lat="46.7885" lon="5.51803">
        <ele>289.8</ele>
        <time>2012-11-24T14:04:06.000Z</time>
      </trkpt>
      <trkpt lat="46.78851" lon="5.51804">
        <ele>289.4</ele>
        <time>2012-11-24T14:04:07.000Z</time>
      </trkpt>
      <trkpt lat="46.78852" lon="5.5181">
        <ele>289.2</ele>
        <time>2012-11-24T14:04:11.000Z</time>
      </trkpt>
      <trkpt lat="46.78852" lon="5.51811">
        <ele>289.7</ele>
        <time>2012-11-24T14:04:12.000Z</time>
      </trkpt>
      <trkpt lat="46.78855" lon="5.51815">
        <ele>286.7</ele>
        <time>2012-11-24T14:04:16.000Z</time>
      </trkpt>
      <trkpt lat="46.78856" lon="5.51816">
        <ele>287</ele>
        <time>2012-11-24T14:04:17.000Z</time>
      </trkpt>
      <trkpt lat="46.78857" lon="5.51819">
        <ele>287.5</ele>
        <time>2012-11-24T14:04:19.000Z</time>
      </trkpt>
      <trkpt lat="46.78871" lon="5.51835">
        <ele>292.5</ele>
        <time>2012-11-24T14:04:31.000Z</time>
      </trkpt>
      <trkpt lat="46.78871" lon="5.51841">
        <ele>286.3</ele>
        <time>2012-11-24T14:04:39.000Z</time>
      </trkpt>
      <trkpt lat="46.78871" lon="5.51842">
        <ele>286.1</ele>
        <time>2012-11-24T14:04:40.000Z</time>
      </trkpt>
      <trkpt lat="46.78873" lon="5.51846">
        <ele>283.4</ele>
        <time>2012-11-24T14:04:45.000Z</time>
      </trkpt>
      <trkpt lat="46.78873" lon="5.51848">
        <ele>282.6</ele>
        <time>2012-11-24T14:04:46.000Z</time>
      </trkpt>
      <trkpt lat="46.78875" lon="5.51852">
        <ele>281.4</ele>
        <time>2012-11-24T14:04:51.000Z</time>
      </trkpt>
      <trkpt lat="46.78875" lon="5.51853">
        <ele>281.3</ele>
        <time>2012-11-24T14:04:52.000Z</time>
      </trkpt>
      <trkpt lat="46.78876" lon="5.51858">
        <ele>282.3</ele>
        <time>2012-11-24T14:04:56.000Z</time>
      </trkpt>
      <trkpt lat="46.78877" lon="5.5186">
        <ele>282.6</ele>
        <time>2012-11-24T14:04:57.000Z</time>
      </trkpt>
      <trkpt lat="46.78878" lon="5.51865">
        <ele>282.1</ele>
        <time>2012-11-24T14:05:01.000Z</time>
      </trkpt>
      <trkpt lat="46.78879" lon="5.51867">
        <ele>282.2</ele>
        <time>2012-11-24T14:05:02.000Z</time>
      </trkpt>
      <trkpt lat="46.78881" lon="5.51871">
        <ele>283.6</ele>
        <time>2012-11-24T14:05:06.000Z</time>
      </trkpt>
      <trkpt lat="46.78881" lon="5.51872">
        <ele>283.9</ele>
        <time>2012-11-24T14:05:07.000Z</time>
      </trkpt>
      <trkpt lat="46.78882" lon="5.51878">
        <ele>284</ele>
        <time>2012-11-24T14:05:14.000Z</time>
      </trkpt>
      <trkpt lat="46.78882" lon="5.51879">
        <ele>283.8</ele>
        <time>2012-11-24T14:05:15.000Z</time>
      </trkpt>
      <trkpt lat="46.78884" lon="5.51884">
        <ele>283.8</ele>
        <time>2012-11-24T14:05:19.000Z</time>
      </trkpt>
      <trkpt lat="46.78885" lon="5.51884">
        <ele>283.9</ele>
        <time>2012-11-24T14:05:20.000Z</time>
      </trkpt>
      <trkpt lat="46.78887" lon="5.5189">
        <ele>284.2</ele>
        <time>2012-11-24T14:05:25.000Z</time>
      </trkpt>
      <trkpt lat="46.78887" lon="5.51891">
        <ele>284.3</ele>
        <time>2012-11-24T14:05:26.000Z</time>
      </trkpt>
      <trkpt lat="46.78888" lon="5.51896">
        <ele>283.7</ele>
        <time>2012-11-24T14:05:30.000Z</time>
      </trkpt>
      <trkpt lat="46.78888" lon="5.51898">
        <ele>283.7</ele>
        <time>2012-11-24T14:05:31.000Z</time>
      </trkpt>
      <trkpt lat="46.7889" lon="5.51903">
        <ele>283.1</ele>
        <time>2012-11-24T14:05:35.000Z</time>
      </trkpt>
      <trkpt lat="46.78892" lon="5.51905">
        <ele>282.8</ele>
        <time>2012-11-24T14:05:36.000Z</time>
      </trkpt>
      <trkpt lat="46.78894" lon="5.5191">
        <ele>283</ele>
        <time>2012-11-24T14:05:39.000Z</time>
      </trkpt>
      <trkpt lat="46.78894" lon="5.51912">
        <ele>283</ele>
        <time>2012-11-24T14:05:40.000Z</time>
      </trkpt>
      <trkpt lat="46.78896" lon="5.51917">
        <ele>283.5</ele>
        <time>2012-11-24T14:05:44.000Z</time>
      </trkpt>
      <trkpt lat="46.78897" lon="5.51918">
        <ele>283.4</ele>
        <time>2012-11-24T14:05:45.000Z</time>
      </trkpt>
      <trkpt lat="46.78898" lon="5.51923">
        <ele>282.8</ele>
        <time>2012-11-24T14:05:49.000Z</time>
      </trkpt>
      <trkpt lat="46.78898" lon="5.51925">
        <ele>282.5</ele>
        <time>2012-11-24T14:05:50.000Z</time>
      </trkpt>
      <trkpt lat="46.78898" lon="5.51931">
        <ele>281.5</ele>
        <time>2012-11-24T14:05:54.000Z</time>
      </trkpt>
      <trkpt lat="46.78898" lon="5.51932">
        <ele>281.4</ele>
        <time>2012-11-24T14:05:55.000Z</time>
      </trkpt>
      <trkpt lat="46.78899" lon="5.51938">
        <ele>281.7</ele>
        <time>2012-11-24T14:06:02.000Z</time>
      </trkpt>
      <trkpt lat="46.78899" lon="5.51939">
        <ele>281.6</ele>
        <time>2012-11-24T14:06:03.000Z</time>
      </trkpt>
      <trkpt lat="46.78902" lon="5.51944">
        <ele>281.5</ele>
        <time>2012-11-24T14:06:08.000Z</time>
      </trkpt>
      <trkpt lat="46.78902" lon="5.51946">
        <ele>281.5</ele>
        <time>2012-11-24T14:06:09.000Z</time>
      </trkpt>
      <trkpt lat="46.78903" lon="5.51951">
        <ele>281.8</ele>
        <time>2012-11-24T14:06:13.000Z</time>
      </trkpt>
      <trkpt lat="46.78904" lon="5.51952">
        <ele>282</ele>
        <time>2012-11-24T14:06:14.000Z</time>
      </trkpt>
      <trkpt lat="46.78904" lon="5.51953">
        <ele>282.2</ele>
        <time>2012-11-24T14:06:20.000Z</time>
      </trkpt>
      <trkpt lat="46.78903" lon="5.51962">
        <ele>282.2</ele>
        <time>2012-11-24T14:06:29.000Z</time>
      </trkpt>
      <trkpt lat="46.78906" lon="5.51962">
        <ele>278.6</ele>
        <time>2012-11-24T14:06:32.000Z</time>
      </trkpt>
      <trkpt lat="46.78908" lon="5.51965">
        <ele>277.9</ele>
        <time>2012-11-24T14:06:33.000Z</time>
      </trkpt>
      <trkpt lat="46.7891" lon="5.51969">
        <ele>281.5</ele>
        <time>2012-11-24T14:06:43.000Z</time>
      </trkpt>
      <trkpt lat="46.78908" lon="5.51973">
        <ele>286.6</ele>
        <time>2012-11-24T14:06:44.000Z</time>
      </trkpt>
      <trkpt lat="46.7891" lon="5.51979">
        <ele>288.1</ele>
        <time>2012-11-24T14:06:47.000Z</time>
      </trkpt>
      <trkpt lat="46.7891" lon="5.51981">
        <ele>287.9</ele>
        <time>2012-11-24T14:06:48.000Z</time>
      </trkpt>
      <trkpt lat="46.78911" lon="5.51987">
        <ele>287.4</ele>
        <time>2012-11-24T14:06:51.000Z</time>
      </trkpt>
      <trkpt lat="46.78912" lon="5.51989">
        <ele>286.8</ele>
        <time>2012-11-24T14:06:52.000Z</time>
      </trkpt>
      <trkpt lat="46.78913" lon="5.51995">
        <ele>286.2</ele>
        <time>2012-11-24T14:06:55.000Z</time>
      </trkpt>
      <trkpt lat="46.78914" lon="5.51997">
        <ele>285.5</ele>
        <time>2012-11-24T14:06:56.000Z</time>
      </trkpt>
      <trkpt lat="46.78915" lon="5.52002">
        <ele>285.5</ele>
        <time>2012-11-24T14:07:00.000Z</time>
      </trkpt>
      <trkpt lat="46.78915" lon="5.52003">
        <ele>285.3</ele>
        <time>2012-11-24T14:07:01.000Z</time>
      </trkpt>
      <trkpt lat="46.78916" lon="5.52009">
        <ele>285.8</ele>
        <time>2012-11-24T14:07:06.000Z</time>
      </trkpt>
      <trkpt lat="46.78917" lon="5.5201">
        <ele>285.8</ele>
        <time>2012-11-24T14:07:07.000Z</time>
      </trkpt>
      <trkpt lat="46.7892" lon="5.52012">
        <ele>285.6</ele>
        <time>2012-11-24T14:07:10.000Z</time>
      </trkpt>
      <trkpt lat="46.78922" lon="5.52012">
        <ele>284.8</ele>
        <time>2012-11-24T14:07:11.000Z</time>
      </trkpt>
      <trkpt lat="46.78925" lon="5.52013">
        <ele>283.9</ele>
        <time>2012-11-24T14:07:13.000Z</time>
      </trkpt>
      <trkpt lat="46.78926" lon="5.52014">
        <ele>282.5</ele>
        <time>2012-11-24T14:07:14.000Z</time>
      </trkpt>
      <trkpt lat="46.78929" lon="5.52018">
        <ele>283.6</ele>
        <time>2012-11-24T14:07:18.000Z</time>
      </trkpt>
      <trkpt lat="46.78929" lon="5.52019">
        <ele>283.3</ele>
        <time>2012-11-24T14:07:19.000Z</time>
      </trkpt>
      <trkpt lat="46.78928" lon="5.52025">
        <ele>286.4</ele>
        <time>2012-11-24T14:07:30.000Z</time>
      </trkpt>
      <trkpt lat="46.78927" lon="5.52026">
        <ele>286.7</ele>
        <time>2012-11-24T14:07:31.000Z</time>
      </trkpt>
      <trkpt lat="46.78926" lon="5.52031">
        <ele>287.8</ele>
        <time>2012-11-24T14:07:34.000Z</time>
      </trkpt>
      <trkpt lat="46.78925" lon="5.52033">
        <ele>288.2</ele>
        <time>2012-11-24T14:07:35.000Z</time>
      </trkpt>
      <trkpt lat="46.78924" lon="5.52037">
        <ele>289</ele>
        <time>2012-11-24T14:07:38.000Z</time>
      </trkpt>
      <trkpt lat="46.78923" lon="5.52039">
        <ele>289.2</ele>
        <time>2012-11-24T14:07:39.000Z</time>
      </trkpt>
      <trkpt lat="46.78921" lon="5.52043">
        <ele>289.7</ele>
        <time>2012-11-24T14:07:42.000Z</time>
      </trkpt>
      <trkpt lat="46.78921" lon="5.52045">
        <ele>290.1</ele>
        <time>2012-11-24T14:07:43.000Z</time>
      </trkpt>
      <trkpt lat="46.78919" lon="5.52051">
        <ele>290.4</ele>
        <time>2012-11-24T14:07:47.000Z</time>
      </trkpt>
      <trkpt lat="46.78918" lon="5.52052">
        <ele>289.9</ele>
        <time>2012-11-24T14:07:48.000Z</time>
      </trkpt>
      <trkpt lat="46.78915" lon="5.52055">
        <ele>290</ele>
        <time>2012-11-24T14:07:51.000Z</time>
      </trkpt>
      <trkpt lat="46.78914" lon="5.52056">
        <ele>289.9</ele>
        <time>2012-11-24T14:07:52.000Z</time>
      </trkpt>
      <trkpt lat="46.78911" lon="5.5206">
        <ele>290</ele>
        <time>2012-11-24T14:07:56.000Z</time>
      </trkpt>
      <trkpt lat="46.78911" lon="5.52062">
        <ele>290</ele>
        <time>2012-11-24T14:07:57.000Z</time>
      </trkpt>
      <trkpt lat="46.78909" lon="5.52067">
        <ele>290.1</ele>
        <time>2012-11-24T14:08:00.000Z</time>
      </trkpt>
      <trkpt lat="46.78909" lon="5.52069">
        <ele>290.1</ele>
        <time>2012-11-24T14:08:01.000Z</time>
      </trkpt>
      <trkpt lat="46.7891" lon="5.52074">
        <ele>289.9</ele>
        <time>2012-11-24T14:08:04.000Z</time>
      </trkpt>
      <trkpt lat="46.7891" lon="5.52075">
        <ele>289.5</ele>
        <time>2012-11-24T14:08:05.000Z</time>
      </trkpt>
      <trkpt lat="46.78912" lon="5.52079">
        <ele>289.4</ele>
        <time>2012-11-24T14:08:07.000Z</time>
      </trkpt>
      <trkpt lat="46.78913" lon="5.52081">
        <ele>289.4</ele>
        <time>2012-11-24T14:08:08.000Z</time>
      </trkpt>
      <trkpt lat="46.78915" lon="5.52084">
        <ele>289.6</ele>
        <time>2012-11-24T14:08:10.000Z</time>
      </trkpt>
      <trkpt lat="46.78917" lon="5.52085">
        <ele>289.9</ele>
        <time>2012-11-24T14:08:11.000Z</time>
      </trkpt>
      <trkpt lat="46.7892" lon="5.5209">
        <ele>290.8</ele>
        <time>2012-11-24T14:08:15.000Z</time>
      </trkpt>
      <trkpt lat="46.7892" lon="5.52091">
        <ele>291.2</ele>
        <time>2012-11-24T14:08:16.000Z</time>
      </trkpt>
      <trkpt lat="46.78922" lon="5.52097">
        <ele>292.6</ele>
        <time>2012-11-24T14:08:21.000Z</time>
      </trkpt>
      <trkpt lat="46.78923" lon="5.52098">
        <ele>292.9</ele>
        <time>2012-11-24T14:08:22.000Z</time>
      </trkpt>
      <trkpt lat="46.78925" lon="5.52102">
        <ele>293.4</ele>
        <time>2012-11-24T14:08:26.000Z</time>
      </trkpt>
      <trkpt lat="46.78925" lon="5.52103">
        <ele>293.5</ele>
        <time>2012-11-24T14:08:27.000Z</time>
      </trkpt>
      <trkpt lat="46.78929" lon="5.52106">
        <ele>294.3</ele>
        <time>2012-11-24T14:08:36.000Z</time>
      </trkpt>
      <trkpt lat="46.78929" lon="5.52107">
        <ele>294.3</ele>
        <time>2012-11-24T14:08:37.000Z</time>
      </trkpt>
      <trkpt lat="46.78931" lon="5.52112">
        <ele>295.7</ele>
        <time>2012-11-24T14:08:44.000Z</time>
      </trkpt>
      <trkpt lat="46.78932" lon="5.52113">
        <ele>296</ele>
        <time>2012-11-24T14:08:45.000Z</time>
      </trkpt>
      <trkpt lat="46.78933" lon="5.52118">
        <ele>296.5</ele>
        <time>2012-11-24T14:08:51.000Z</time>
      </trkpt>
      <trkpt lat="46.78933" lon="5.52119">
        <ele>296.7</ele>
        <time>2012-11-24T14:08:52.000Z</time>
      </trkpt>
      <trkpt lat="46.78933" lon="5.52126">
        <ele>296.4</ele>
        <time>2012-11-24T14:08:57.000Z</time>
      </trkpt>
      <trkpt lat="46.78934" lon="5.52127">
        <ele>296.4</ele>
        <time>2012-11-24T14:08:58.000Z</time>
      </trkpt>
      <trkpt lat="46.78936" lon="5.52131">
        <ele>296.5</ele>
        <time>2012-11-24T14:09:01.000Z</time>
      </trkpt>
      <trkpt lat="46.78936" lon="5.52133">
        <ele>296.8</ele>
        <time>2012-11-24T14:09:02.000Z</time>
      </trkpt>
      <trkpt lat="46.78939" lon="5.52138">
        <ele>297.2</ele>
        <time>2012-11-24T14:09:08.000Z</time>
      </trkpt>
      <trkpt lat="46.7894" lon="5.52139">
        <ele>297.9</ele>
        <time>2012-11-24T14:09:09.000Z</time>
      </trkpt>
      <trkpt lat="46.78941" lon="5.52143">
        <ele>297.5</ele>
        <time>2012-11-24T14:09:12.000Z</time>
      </trkpt>
      <trkpt lat="46.78942" lon="5.52145">
        <ele>297.3</ele>
        <time>2012-11-24T14:09:13.000Z</time>
      </trkpt>
      <trkpt lat="46.78944" lon="5.52149">
        <ele>296.9</ele>
        <time>2012-11-24T14:09:16.000Z</time>
      </trkpt>
      <trkpt lat="46.78945" lon="5.5215">
        <ele>296.9</ele>
        <time>2012-11-24T14:09:17.000Z</time>
      </trkpt>
      <trkpt lat="46.78948" lon="5.52154">
        <ele>297.3</ele>
        <time>2012-11-24T14:09:21.000Z</time>
      </trkpt>
      <trkpt lat="46.78949" lon="5.52156">
        <ele>297.5</ele>
        <time>2012-11-24T14:09:22.000Z</time>
      </trkpt>
      <trkpt lat="46.78951" lon="5.52161">
        <ele>298</ele>
        <time>2012-11-24T14:09:26.000Z</time>
      </trkpt>
      <trkpt lat="46.78951" lon="5.52162">
        <ele>298.2</ele>
        <time>2012-11-24T14:09:27.000Z</time>
      </trkpt>
      <trkpt lat="46.78953" lon="5.52167">
        <ele>298.5</ele>
        <time>2012-11-24T14:09:31.000Z</time>
      </trkpt>
      <trkpt lat="46.78953" lon="5.52169">
        <ele>298.4</ele>
        <time>2012-11-24T14:09:32.000Z</time>
      </trkpt>
      <trkpt lat="46.78955" lon="5.52173">
        <ele>298.5</ele>
        <time>2012-11-24T14:09:36.000Z</time>
      </trkpt>
      <trkpt lat="46.78955" lon="5.52175">
        <ele>298.6</ele>
        <time>2012-11-24T14:09:37.000Z</time>
      </trkpt>
      <trkpt lat="46.78955" lon="5.52181">
        <ele>298.7</ele>
        <time>2012-11-24T14:09:43.000Z</time>
      </trkpt>
      <trkpt lat="46.78955" lon="5.52183">
        <ele>298.7</ele>
        <time>2012-11-24T14:09:44.000Z</time>
      </trkpt>
      <trkpt lat="46.78956" lon="5.52188">
        <ele>299.1</ele>
        <time>2012-11-24T14:09:49.000Z</time>
      </trkpt>
      <trkpt lat="46.78957" lon="5.52189">
        <ele>299.2</ele>
        <time>2012-11-24T14:09:50.000Z</time>
      </trkpt>
      <trkpt lat="46.7896" lon="5.52192">
        <ele>299.5</ele>
        <time>2012-11-24T14:09:55.000Z</time>
      </trkpt>
      <trkpt lat="46.78961" lon="5.52193">
        <ele>299.5</ele>
        <time>2012-11-24T14:09:56.000Z</time>
      </trkpt>
      <trkpt lat="46.78964" lon="5.52196">
        <ele>300</ele>
        <time>2012-11-24T14:10:01.000Z</time>
      </trkpt>
      <trkpt lat="46.78965" lon="5.52197">
        <ele>300.1</ele>
        <time>2012-11-24T14:10:02.000Z</time>
      </trkpt>
      <trkpt lat="46.78968" lon="5.52201">
        <ele>300.1</ele>
        <time>2012-11-24T14:10:07.000Z</time>
      </trkpt>
      <trkpt lat="46.78969" lon="5.52201">
        <ele>300.1</ele>
        <time>2012-11-24T14:10:08.000Z</time>
      </trkpt>
      <trkpt lat="46.78971" lon="5.52206">
        <ele>300.5</ele>
        <time>2012-11-24T14:10:13.000Z</time>
      </trkpt>
      <trkpt lat="46.78972" lon="5.52207">
        <ele>300.3</ele>
        <time>2012-11-24T14:10:14.000Z</time>
      </trkpt>
      <trkpt lat="46.78974" lon="5.52212">
        <ele>300.1</ele>
        <time>2012-11-24T14:10:18.000Z</time>
      </trkpt>
      <trkpt lat="46.78974" lon="5.52213">
        <ele>300.2</ele>
        <time>2012-11-24T14:10:19.000Z</time>
      </trkpt>
      <trkpt lat="46.78974" lon="5.52219">
        <ele>300.7</ele>
        <time>2012-11-24T14:10:23.000Z</time>
      </trkpt>
      <trkpt lat="46.78974" lon="5.52221">
        <ele>300.6</ele>
        <time>2012-11-24T14:10:24.000Z</time>
      </trkpt>
      <trkpt lat="46.78977" lon="5.52226">
        <ele>301.5</ele>
        <time>2012-11-24T14:10:28.000Z</time>
      </trkpt>
      <trkpt lat="46.78977" lon="5.52227">
        <ele>301.6</ele>
        <time>2012-11-24T14:10:29.000Z</time>
      </trkpt>
      <trkpt lat="46.7898" lon="5.52231">
        <ele>302.3</ele>
        <time>2012-11-24T14:10:33.000Z</time>
      </trkpt>
      <trkpt lat="46.7898" lon="5.52232">
        <ele>302.4</ele>
        <time>2012-11-24T14:10:34.000Z</time>
      </trkpt>
      <trkpt lat="46.78982" lon="5.52237">
        <ele>302.7</ele>
        <time>2012-11-24T14:10:38.000Z</time>
      </trkpt>
      <trkpt lat="46.78983" lon="5.52238">
        <ele>303.1</ele>
        <time>2012-11-24T14:10:39.000Z</time>
      </trkpt>
      <trkpt lat="46.78984" lon="5.52242">
        <ele>302.5</ele>
        <time>2012-11-24T14:10:42.000Z</time>
      </trkpt>
      <trkpt lat="46.78985" lon="5.52244">
        <ele>302.2</ele>
        <time>2012-11-24T14:10:43.000Z</time>
      </trkpt>
      <trkpt lat="46.78987" lon="5.52249">
        <ele>302.3</ele>
        <time>2012-11-24T14:10:46.000Z</time>
      </trkpt>
      <trkpt lat="46.78987" lon="5.5225">
        <ele>302.1</ele>
        <time>2012-11-24T14:10:47.000Z</time>
      </trkpt>
      <trkpt lat="46.78989" lon="5.52255">
        <ele>301.5</ele>
        <time>2012-11-24T14:10:50.000Z</time>
      </trkpt>
      <trkpt lat="46.7899" lon="5.52257">
        <ele>301.7</ele>
        <time>2012-11-24T14:10:51.000Z</time>
      </trkpt>
      <trkpt lat="46.78992" lon="5.52261">
        <ele>301.8</ele>
        <time>2012-11-24T14:10:54.000Z</time>
      </trkpt>
      <trkpt lat="46.78992" lon="5.52263">
        <ele>301.4</ele>
        <time>2012-11-24T14:10:55.000Z</time>
      </trkpt>
      <trkpt lat="46.78994" lon="5.52268">
        <ele>301.2</ele>
        <time>2012-11-24T14:10:58.000Z</time>
      </trkpt>
      <trkpt lat="46.78995" lon="5.52269">
        <ele>301.4</ele>
        <time>2012-11-24T14:10:59.000Z</time>
      </trkpt>
      <trkpt lat="46.78998" lon="5.52274">
        <ele>302</ele>
        <time>2012-11-24T14:11:03.000Z</time>
      </trkpt>
      <trkpt lat="46.78999" lon="5.52275">
        <ele>302.2</ele>
        <time>2012-11-24T14:11:04.000Z</time>
      </trkpt>
      <trkpt lat="46.79002" lon="5.52279">
        <ele>302.4</ele>
        <time>2012-11-24T14:11:08.000Z</time>
      </trkpt>
      <trkpt lat="46.79002" lon="5.5228">
        <ele>302.3</ele>
        <time>2012-11-24T14:11:09.000Z</time>
      </trkpt>
      <trkpt lat="46.79006" lon="5.52284">
        <ele>304.1</ele>
        <time>2012-11-24T14:11:16.000Z</time>
      </trkpt>
      <trkpt lat="46.79006" lon="5.52285">
        <ele>304.4</ele>
        <time>2012-11-24T14:11:17.000Z</time>
      </trkpt>
      <trkpt lat="46.79008" lon="5.5229">
        <ele>305.3</ele>
        <time>2012-11-24T14:11:21.000Z</time>
      </trkpt>
      <trkpt lat="46.79008" lon="5.52291">
        <ele>305.6</ele>
        <time>2012-11-24T14:11:22.000Z</time>
      </trkpt>
      <trkpt lat="46.79009" lon="5.52297">
        <ele>306</ele>
        <time>2012-11-24T14:11:27.000Z</time>
      </trkpt>
      <trkpt lat="46.7901" lon="5.52298">
        <ele>306.6</ele>
        <time>2012-11-24T14:11:28.000Z</time>
      </trkpt>
      <trkpt lat="46.79012" lon="5.52302">
        <ele>306.6</ele>
        <time>2012-11-24T14:11:32.000Z</time>
      </trkpt>
      <trkpt lat="46.79013" lon="5.52304">
        <ele>306.6</ele>
        <time>2012-11-24T14:11:33.000Z</time>
      </trkpt>
      <trkpt lat="46.79016" lon="5.52308">
        <ele>306.6</ele>
        <time>2012-11-24T14:11:36.000Z</time>
      </trkpt>
      <trkpt lat="46.79016" lon="5.5231">
        <ele>306.5</ele>
        <time>2012-11-24T14:11:37.000Z</time>
      </trkpt>
      <trkpt lat="46.79019" lon="5.52314">
        <ele>307</ele>
        <time>2012-11-24T14:11:40.000Z</time>
      </trkpt>
      <trkpt lat="46.79019" lon="5.52315">
        <ele>307</ele>
        <time>2012-11-24T14:11:41.000Z</time>
      </trkpt>
      <trkpt lat="46.79021" lon="5.5232">
        <ele>307.4</ele>
        <time>2012-11-24T14:11:44.000Z</time>
      </trkpt>
      <trkpt lat="46.79021" lon="5.52321">
        <ele>307.3</ele>
        <time>2012-11-24T14:11:45.000Z</time>
      </trkpt>
      <trkpt lat="46.79022" lon="5.52326">
        <ele>307.8</ele>
        <time>2012-11-24T14:11:48.000Z</time>
      </trkpt>
      <trkpt lat="46.79023" lon="5.52328">
        <ele>307.9</ele>
        <time>2012-11-24T14:11:49.000Z</time>
      </trkpt>
      <trkpt lat="46.79024" lon="5.52333">
        <ele>308</ele>
        <time>2012-11-24T14:11:53.000Z</time>
      </trkpt>
      <trkpt lat="46.79024" lon="5.52334">
        <ele>308.1</ele>
        <time>2012-11-24T14:11:54.000Z</time>
      </trkpt>
      <trkpt lat="46.79027" lon="5.5234">
        <ele>308.5</ele>
        <time>2012-11-24T14:11:58.000Z</time>
      </trkpt>
      <trkpt lat="46.79027" lon="5.52341">
        <ele>308.8</ele>
        <time>2012-11-24T14:11:59.000Z</time>
      </trkpt>
      <trkpt lat="46.79029" lon="5.52346">
        <ele>309.6</ele>
        <time>2012-11-24T14:12:03.000Z</time>
      </trkpt>
      <trkpt lat="46.7903" lon="5.52347">
        <ele>310</ele>
        <time>2012-11-24T14:12:04.000Z</time>
      </trkpt>
      <trkpt lat="46.79032" lon="5.52351">
        <ele>312</ele>
        <time>2012-11-24T14:12:08.000Z</time>
      </trkpt>
      <trkpt lat="46.79032" lon="5.52352">
        <ele>312.3</ele>
        <time>2012-11-24T14:12:09.000Z</time>
      </trkpt>
      <trkpt lat="46.79035" lon="5.52355">
        <ele>312.9</ele>
        <time>2012-11-24T14:12:12.000Z</time>
      </trkpt>
      <trkpt lat="46.79036" lon="5.52357">
        <ele>312.5</ele>
        <time>2012-11-24T14:12:13.000Z</time>
      </trkpt>
      <trkpt lat="46.79038" lon="5.5236">
        <ele>312.2</ele>
        <time>2012-11-24T14:12:16.000Z</time>
      </trkpt>
      <trkpt lat="46.79039" lon="5.52362">
        <ele>312.6</ele>
        <time>2012-11-24T14:12:17.000Z</time>
      </trkpt>
      <trkpt lat="46.79042" lon="5.52365">
        <ele>312.4</ele>
        <time>2012-11-24T14:12:20.000Z</time>
      </trkpt>
      <trkpt lat="46.79043" lon="5.52367">
        <ele>312.4</ele>
        <time>2012-11-24T14:12:21.000Z</time>
      </trkpt>
      <trkpt lat="46.79045" lon="5.52372">
        <ele>312.5</ele>
        <time>2012-11-24T14:12:25.000Z</time>
      </trkpt>
      <trkpt lat="46.79046" lon="5.52372">
        <ele>312.8</ele>
        <time>2012-11-24T14:12:26.000Z</time>
      </trkpt>
      <trkpt lat="46.7905" lon="5.52374">
        <ele>312.3</ele>
        <time>2012-11-24T14:12:30.000Z</time>
      </trkpt>
      <trkpt lat="46.79051" lon="5.52375">
        <ele>312.2</ele>
        <time>2012-11-24T14:12:31.000Z</time>
      </trkpt>
      <trkpt lat="46.79054" lon="5.52378">
        <ele>312.3</ele>
        <time>2012-11-24T14:12:34.000Z</time>
      </trkpt>
      <trkpt lat="46.79054" lon="5.52379">
        <ele>312.1</ele>
        <time>2012-11-24T14:12:35.000Z</time>
      </trkpt>
      <trkpt lat="46.79058" lon="5.52383">
        <ele>312.1</ele>
        <time>2012-11-24T14:12:42.000Z</time>
      </trkpt>
      <trkpt lat="46.79058" lon="5.52384">
        <ele>312.1</ele>
        <time>2012-11-24T14:12:43.000Z</time>
      </trkpt>
      <trkpt lat="46.7906" lon="5.5239">
        <ele>312.5</ele>
        <time>2012-11-24T14:12:48.000Z</time>
      </trkpt>
      <trkpt lat="46.7906" lon="5.52391">
        <ele>312.6</ele>
        <time>2012-11-24T14:12:49.000Z</time>
      </trkpt>
      <trkpt lat="46.79062" lon="5.52395">
        <ele>312.5</ele>
        <time>2012-11-24T14:12:53.000Z</time>
      </trkpt>
      <trkpt lat="46.79063" lon="5.52396">
        <ele>312.6</ele>
        <time>2012-11-24T14:12:54.000Z</time>
      </trkpt>
      <trkpt lat="46.79066" lon="5.52401">
        <ele>312.4</ele>
        <time>2012-11-24T14:12:58.000Z</time>
      </trkpt>
      <trkpt lat="46.79066" lon="5.52402">
        <ele>312.4</ele>
        <time>2012-11-24T14:12:59.000Z</time>
      </trkpt>
      <trkpt lat="46.79069" lon="5.52407">
        <ele>312.4</ele>
        <time>2012-11-24T14:13:03.000Z</time>
      </trkpt>
      <trkpt lat="46.79069" lon="5.52409">
        <ele>312.4</ele>
        <time>2012-11-24T14:13:04.000Z</time>
      </trkpt>
      <trkpt lat="46.79071" lon="5.52413">
        <ele>312.1</ele>
        <time>2012-11-24T14:13:07.000Z</time>
      </trkpt>
      <trkpt lat="46.79072" lon="5.52414">
        <ele>312.1</ele>
        <time>2012-11-24T14:13:08.000Z</time>
      </trkpt>
      <trkpt lat="46.79075" lon="5.52419">
        <ele>312.3</ele>
        <time>2012-11-24T14:13:12.000Z</time>
      </trkpt>
      <trkpt lat="46.79075" lon="5.5242">
        <ele>312.3</ele>
        <time>2012-11-24T14:13:13.000Z</time>
      </trkpt>
      <trkpt lat="46.79079" lon="5.52424">
        <ele>312.6</ele>
        <time>2012-11-24T14:13:17.000Z</time>
      </trkpt>
      <trkpt lat="46.7908" lon="5.52425">
        <ele>312.6</ele>
        <time>2012-11-24T14:13:18.000Z</time>
      </trkpt>
      <trkpt lat="46.79082" lon="5.5243">
        <ele>312.1</ele>
        <time>2012-11-24T14:13:22.000Z</time>
      </trkpt>
      <trkpt lat="46.79083" lon="5.52431">
        <ele>312.1</ele>
        <time>2012-11-24T14:13:23.000Z</time>
      </trkpt>
      <trkpt lat="46.79085" lon="5.52437">
        <ele>312</ele>
        <time>2012-11-24T14:13:27.000Z</time>
      </trkpt>
      <trkpt lat="46.79085" lon="5.52438">
        <ele>312</ele>
        <time>2012-11-24T14:13:28.000Z</time>
      </trkpt>
      <trkpt lat="46.79087" lon="5.52443">
        <ele>311.6</ele>
        <time>2012-11-24T14:13:32.000Z</time>
      </trkpt>
      <trkpt lat="46.79088" lon="5.52444">
        <ele>311.6</ele>
        <time>2012-11-24T14:13:33.000Z</time>
      </trkpt>
      <trkpt lat="46.79089" lon="5.5245">
        <ele>311.4</ele>
        <time>2012-11-24T14:13:37.000Z</time>
      </trkpt>
      <trkpt lat="46.79089" lon="5.52452">
        <ele>311.3</ele>
        <time>2012-11-24T14:13:38.000Z</time>
      </trkpt>
      <trkpt lat="46.79091" lon="5.52456">
        <ele>310.6</ele>
        <time>2012-11-24T14:13:41.000Z</time>
      </trkpt>
      <trkpt lat="46.79091" lon="5.52458">
        <ele>310.6</ele>
        <time>2012-11-24T14:13:42.000Z</time>
      </trkpt>
      <trkpt lat="46.79093" lon="5.52463">
        <ele>310.6</ele>
        <time>2012-11-24T14:13:46.000Z</time>
      </trkpt>
      <trkpt lat="46.79094" lon="5.52464">
        <ele>310.6</ele>
        <time>2012-11-24T14:13:47.000Z</time>
      </trkpt>
      <trkpt lat="46.79097" lon="5.52469">
        <ele>310.7</ele>
        <time>2012-11-24T14:13:52.000Z</time>
      </trkpt>
      <trkpt lat="46.79097" lon="5.5247">
        <ele>310.6</ele>
        <time>2012-11-24T14:13:53.000Z</time>
      </trkpt>
      <trkpt lat="46.79098" lon="5.52476">
        <ele>310.2</ele>
        <time>2012-11-24T14:13:59.000Z</time>
      </trkpt>
      <trkpt lat="46.79099" lon="5.52477">
        <ele>309.8</ele>
        <time>2012-11-24T14:14:00.000Z</time>
      </trkpt>
      <trkpt lat="46.79101" lon="5.52482">
        <ele>310</ele>
        <time>2012-11-24T14:14:05.000Z</time>
      </trkpt>
      <trkpt lat="46.79101" lon="5.52484">
        <ele>310.1</ele>
        <time>2012-11-24T14:14:06.000Z</time>
      </trkpt>
      <trkpt lat="46.79102" lon="5.52489">
        <ele>310.6</ele>
        <time>2012-11-24T14:14:10.000Z</time>
      </trkpt>
      <trkpt lat="46.79103" lon="5.52491">
        <ele>310.8</ele>
        <time>2012-11-24T14:14:11.000Z</time>
      </trkpt>
      <trkpt lat="46.79106" lon="5.52495">
        <ele>310.9</ele>
        <time>2012-11-24T14:14:15.000Z</time>
      </trkpt>
      <trkpt lat="46.79107" lon="5.52496">
        <ele>311</ele>
        <time>2012-11-24T14:14:16.000Z</time>
      </trkpt>
      <trkpt lat="46.79109" lon="5.525">
        <ele>310.9</ele>
        <time>2012-11-24T14:14:19.000Z</time>
      </trkpt>
      <trkpt lat="46.7911" lon="5.52501">
        <ele>310</ele>
        <time>2012-11-24T14:14:20.000Z</time>
      </trkpt>
      <trkpt lat="46.79112" lon="5.52506">
        <ele>309.7</ele>
        <time>2012-11-24T14:14:22.000Z</time>
      </trkpt>
      <trkpt lat="46.79112" lon="5.52508">
        <ele>310.3</ele>
        <time>2012-11-24T14:14:23.000Z</time>
      </trkpt>
      <trkpt lat="46.79114" lon="5.52512">
        <ele>311.3</ele>
        <time>2012-11-24T14:14:25.000Z</time>
      </trkpt>
      <trkpt lat="46.79115" lon="5.52514">
        <ele>311.2</ele>
        <time>2012-11-24T14:14:26.000Z</time>
      </trkpt>
      <trkpt lat="46.79117" lon="5.52518">
        <ele>309.7</ele>
        <time>2012-11-24T14:14:30.000Z</time>
      </trkpt>
      <trkpt lat="46.79117" lon="5.52519">
        <ele>309.3</ele>
        <time>2012-11-24T14:14:31.000Z</time>
      </trkpt>
      <trkpt lat="46.79119" lon="5.52524">
        <ele>309.1</ele>
        <time>2012-11-24T14:14:37.000Z</time>
      </trkpt>
      <trkpt lat="46.7912" lon="5.52525">
        <ele>309.2</ele>
        <time>2012-11-24T14:14:38.000Z</time>
      </trkpt>
      <trkpt lat="46.79123" lon="5.5253">
        <ele>308.8</ele>
        <time>2012-11-24T14:14:43.000Z</time>
      </trkpt>
      <trkpt lat="46.79123" lon="5.52531">
        <ele>308.5</ele>
        <time>2012-11-24T14:14:44.000Z</time>
      </trkpt>
      <trkpt lat="46.79125" lon="5.52535">
        <ele>307.4</ele>
        <time>2012-11-24T14:14:47.000Z</time>
      </trkpt>
      <trkpt lat="46.79126" lon="5.52537">
        <ele>307.3</ele>
        <time>2012-11-24T14:14:48.000Z</time>
      </trkpt>
      <trkpt lat="46.79127" lon="5.5254">
        <ele>306.3</ele>
        <time>2012-11-24T14:14:50.000Z</time>
      </trkpt>
      <trkpt lat="46.79129" lon="5.52542">
        <ele>306.2</ele>
        <time>2012-11-24T14:14:51.000Z</time>
      </trkpt>
      <trkpt lat="46.79131" lon="5.52545">
        <ele>306.7</ele>
        <time>2012-11-24T14:14:53.000Z</time>
      </trkpt>
      <trkpt lat="46.79132" lon="5.52547">
        <ele>306.9</ele>
        <time>2012-11-24T14:14:54.000Z</time>
      </trkpt>
      <trkpt lat="46.79134" lon="5.52551">
        <ele>307</ele>
        <time>2012-11-24T14:14:57.000Z</time>
      </trkpt>
      <trkpt lat="46.79135" lon="5.52552">
        <ele>307</ele>
        <time>2012-11-24T14:14:58.000Z</time>
      </trkpt>
      <trkpt lat="46.79138" lon="5.52555">
        <ele>306.7</ele>
        <time>2012-11-24T14:15:01.000Z</time>
      </trkpt>
      <trkpt lat="46.79139" lon="5.52556">
        <ele>306.8</ele>
        <time>2012-11-24T14:15:02.000Z</time>
      </trkpt>
      <trkpt lat="46.79142" lon="5.52559">
        <ele>306.9</ele>
        <time>2012-11-24T14:15:05.000Z</time>
      </trkpt>
      <trkpt lat="46.79143" lon="5.5256">
        <ele>306.7</ele>
        <time>2012-11-24T14:15:06.000Z</time>
      </trkpt>
      <trkpt lat="46.79147" lon="5.52561">
        <ele>308.2</ele>
        <time>2012-11-24T14:15:10.000Z</time>
      </trkpt>
      <trkpt lat="46.79148" lon="5.52561">
        <ele>308.5</ele>
        <time>2012-11-24T14:15:11.000Z</time>
      </trkpt>
      <trkpt lat="46.79152" lon="5.5256">
        <ele>308.6</ele>
        <time>2012-11-24T14:15:15.000Z</time>
      </trkpt>
      <trkpt lat="46.79153" lon="5.52559">
        <ele>308.6</ele>
        <time>2012-11-24T14:15:16.000Z</time>
      </trkpt>
      <trkpt lat="46.79156" lon="5.52555">
        <ele>308.6</ele>
        <time>2012-11-24T14:15:20.000Z</time>
      </trkpt>
      <trkpt lat="46.7916" lon="5.52524">
        <ele>314.8</ele>
        <time>2012-11-24T14:15:33.000Z</time>
      </trkpt>
      <trkpt lat="46.79163" lon="5.52519">
        <ele>313.4</ele>
        <time>2012-11-24T14:15:38.000Z</time>
      </trkpt>
      <trkpt lat="46.79163" lon="5.52519">
        <ele>312.9</ele>
        <time>2012-11-24T14:15:39.000Z</time>
      </trkpt>
      <trkpt lat="46.79167" lon="5.52515">
        <ele>311</ele>
        <time>2012-11-24T14:15:45.000Z</time>
      </trkpt>
      <trkpt lat="46.79167" lon="5.52514">
        <ele>310.8</ele>
        <time>2012-11-24T14:15:46.000Z</time>
      </trkpt>
      <trkpt lat="46.7917" lon="5.5251">
        <ele>310.1</ele>
        <time>2012-11-24T14:15:51.000Z</time>
      </trkpt>
      <trkpt lat="46.79171" lon="5.52509">
        <ele>310.1</ele>
        <time>2012-11-24T14:15:52.000Z</time>
      </trkpt>
      <trkpt lat="46.79174" lon="5.52504">
        <ele>309.6</ele>
        <time>2012-11-24T14:15:57.000Z</time>
      </trkpt>
      <trkpt lat="46.79174" lon="5.52503">
        <ele>309.6</ele>
        <time>2012-11-24T14:15:58.000Z</time>
      </trkpt>
      <trkpt lat="46.79177" lon="5.525">
        <ele>308.5</ele>
        <time>2012-11-24T14:16:02.000Z</time>
      </trkpt>
      <trkpt lat="46.79178" lon="5.525">
        <ele>308.5</ele>
        <time>2012-11-24T14:16:03.000Z</time>
      </trkpt>
      <trkpt lat="46.79182" lon="5.52497">
        <ele>309.1</ele>
        <time>2012-11-24T14:16:07.000Z</time>
      </trkpt>
      <trkpt lat="46.79183" lon="5.52496">
        <ele>308.9</ele>
        <time>2012-11-24T14:16:08.000Z</time>
      </trkpt>
      <trkpt lat="46.79186" lon="5.52492">
        <ele>309.6</ele>
        <time>2012-11-24T14:16:11.000Z</time>
      </trkpt>
      <trkpt lat="46.79187" lon="5.52491">
        <ele>309.6</ele>
        <time>2012-11-24T14:16:12.000Z</time>
      </trkpt>
      <trkpt lat="46.79191" lon="5.52487">
        <ele>310.1</ele>
        <time>2012-11-24T14:16:16.000Z</time>
      </trkpt>
      <trkpt lat="46.79191" lon="5.52486">
        <ele>310.2</ele>
        <time>2012-11-24T14:16:17.000Z</time>
      </trkpt>
      <trkpt lat="46.79194" lon="5.52482">
        <ele>310.4</ele>
        <time>2012-11-24T14:16:21.000Z</time>
      </trkpt>
      <trkpt lat="46.79195" lon="5.52481">
        <ele>310.1</ele>
        <time>2012-11-24T14:16:22.000Z</time>
      </trkpt>
      <trkpt lat="46.79198" lon="5.52477">
        <ele>309.5</ele>
        <time>2012-11-24T14:16:26.000Z</time>
      </trkpt>
      <trkpt lat="46.79198" lon="5.52476">
        <ele>309.5</ele>
        <time>2012-11-24T14:16:27.000Z</time>
      </trkpt>
      <trkpt lat="46.792" lon="5.52471">
        <ele>309.5</ele>
        <time>2012-11-24T14:16:31.000Z</time>
      </trkpt>
      <trkpt lat="46.79201" lon="5.5247">
        <ele>309.3</ele>
        <time>2012-11-24T14:16:32.000Z</time>
      </trkpt>
      <trkpt lat="46.79204" lon="5.52467">
        <ele>308.3</ele>
        <time>2012-11-24T14:16:36.000Z</time>
      </trkpt>
      <trkpt lat="46.79205" lon="5.52467">
        <ele>308</ele>
        <time>2012-11-24T14:16:37.000Z</time>
      </trkpt>
      <trkpt lat="46.79208" lon="5.52463">
        <ele>307.7</ele>
        <time>2012-11-24T14:16:41.000Z</time>
      </trkpt>
      <trkpt lat="46.79208" lon="5.52462">
        <ele>307.8</ele>
        <time>2012-11-24T14:16:42.000Z</time>
      </trkpt>
      <trkpt lat="46.7921" lon="5.52457">
        <ele>308.1</ele>
        <time>2012-11-24T14:16:46.000Z</time>
      </trkpt>
      <trkpt lat="46.79211" lon="5.52456">
        <ele>308</ele>
        <time>2012-11-24T14:16:47.000Z</time>
      </trkpt>
      <trkpt lat="46.79214" lon="5.52452">
        <ele>308.3</ele>
        <time>2012-11-24T14:16:51.000Z</time>
      </trkpt>
      <trkpt lat="46.79215" lon="5.5245">
        <ele>308.7</ele>
        <time>2012-11-24T14:16:52.000Z</time>
      </trkpt>
      <trkpt lat="46.79217" lon="5.52447">
        <ele>309.3</ele>
        <time>2012-11-24T14:16:55.000Z</time>
      </trkpt>
      <trkpt lat="46.79218" lon="5.52446">
        <ele>309.5</ele>
        <time>2012-11-24T14:16:56.000Z</time>
      </trkpt>
      <trkpt lat="46.79221" lon="5.52442">
        <ele>309.9</ele>
        <time>2012-11-24T14:17:00.000Z</time>
      </trkpt>
      <trkpt lat="46.79222" lon="5.52441">
        <ele>310</ele>
        <time>2012-11-24T14:17:01.000Z</time>
      </trkpt>
      <trkpt lat="46.79225" lon="5.52438">
        <ele>310.2</ele>
        <time>2012-11-24T14:17:04.000Z</time>
      </trkpt>
      <trkpt lat="46.79226" lon="5.52437">
        <ele>310.3</ele>
        <time>2012-11-24T14:17:05.000Z</time>
      </trkpt>
      <trkpt lat="46.79228" lon="5.52433">
        <ele>311.4</ele>
        <time>2012-11-24T14:17:08.000Z</time>
      </trkpt>
      <trkpt lat="46.79229" lon="5.52432">
        <ele>311.7</ele>
        <time>2012-11-24T14:17:09.000Z</time>
      </trkpt>
      <trkpt lat="46.79233" lon="5.52428">
        <ele>312.9</ele>
        <time>2012-11-24T14:17:13.000Z</time>
      </trkpt>
      <trkpt lat="46.79234" lon="5.52427">
        <ele>313.2</ele>
        <time>2012-11-24T14:17:14.000Z</time>
      </trkpt>
      <trkpt lat="46.79236" lon="5.52423">
        <ele>312.8</ele>
        <time>2012-11-24T14:17:18.000Z</time>
      </trkpt>
      <trkpt lat="46.79237" lon="5.52421">
        <ele>312.7</ele>
        <time>2012-11-24T14:17:19.000Z</time>
      </trkpt>
      <trkpt lat="46.7924" lon="5.52417">
        <ele>312.2</ele>
        <time>2012-11-24T14:17:23.000Z</time>
      </trkpt>
      <trkpt lat="46.7924" lon="5.52415">
        <ele>311.9</ele>
        <time>2012-11-24T14:17:24.000Z</time>
      </trkpt>
      <trkpt lat="46.79243" lon="5.52411">
        <ele>311.1</ele>
        <time>2012-11-24T14:17:28.000Z</time>
      </trkpt>
      <trkpt lat="46.79244" lon="5.5241">
        <ele>311.2</ele>
        <time>2012-11-24T14:17:29.000Z</time>
      </trkpt>
      <trkpt lat="46.79247" lon="5.52406">
        <ele>311.5</ele>
        <time>2012-11-24T14:17:33.000Z</time>
      </trkpt>
      <trkpt lat="46.79248" lon="5.52405">
        <ele>311.7</ele>
        <time>2012-11-24T14:17:34.000Z</time>
      </trkpt>
      <trkpt lat="46.79251" lon="5.52402">
        <ele>311.4</ele>
        <time>2012-11-24T14:17:37.000Z</time>
      </trkpt>
      <trkpt lat="46.79252" lon="5.52401">
        <ele>311.4</ele>
        <time>2012-11-24T14:17:38.000Z</time>
      </trkpt>
      <trkpt lat="46.79255" lon="5.52397">
        <ele>311.1</ele>
        <time>2012-11-24T14:17:42.000Z</time>
      </trkpt>
      <trkpt lat="46.79256" lon="5.52397">
        <ele>311</ele>
        <time>2012-11-24T14:17:43.000Z</time>
      </trkpt>
      <trkpt lat="46.79259" lon="5.52395">
        <ele>311.2</ele>
        <time>2012-11-24T14:17:46.000Z</time>
      </trkpt>
      <trkpt lat="46.7926" lon="5.52394">
        <ele>311.1</ele>
        <time>2012-11-24T14:17:47.000Z</time>
      </trkpt>
      <trkpt lat="46.79263" lon="5.52391">
        <ele>311</ele>
        <time>2012-11-24T14:17:50.000Z</time>
      </trkpt>
      <trkpt lat="46.79264" lon="5.5239">
        <ele>310.9</ele>
        <time>2012-11-24T14:17:51.000Z</time>
      </trkpt>
      <trkpt lat="46.79267" lon="5.52386">
        <ele>311.1</ele>
        <time>2012-11-24T14:17:54.000Z</time>
      </trkpt>
      <trkpt lat="46.79267" lon="5.52385">
        <ele>311.1</ele>
        <time>2012-11-24T14:17:55.000Z</time>
      </trkpt>
      <trkpt lat="46.7927" lon="5.5238">
        <ele>311.4</ele>
        <time>2012-11-24T14:17:59.000Z</time>
      </trkpt>
      <trkpt lat="46.79271" lon="5.52379">
        <ele>311.3</ele>
        <time>2012-11-24T14:18:00.000Z</time>
      </trkpt>
      <trkpt lat="46.79274" lon="5.52374">
        <ele>311.7</ele>
        <time>2012-11-24T14:18:04.000Z</time>
      </trkpt>
      <trkpt lat="46.79274" lon="5.52373">
        <ele>311.7</ele>
        <time>2012-11-24T14:18:05.000Z</time>
      </trkpt>
      <trkpt lat="46.79277" lon="5.52369">
        <ele>310.4</ele>
        <time>2012-11-24T14:18:10.000Z</time>
      </trkpt>
      <trkpt lat="46.79278" lon="5.52368">
        <ele>310.1</ele>
        <time>2012-11-24T14:18:11.000Z</time>
      </trkpt>
      <trkpt lat="46.7928" lon="5.52364">
        <ele>309.9</ele>
        <time>2012-11-24T14:18:15.000Z</time>
      </trkpt>
      <trkpt lat="46.79281" lon="5.52363">
        <ele>310</ele>
        <time>2012-11-24T14:18:16.000Z</time>
      </trkpt>
      <trkpt lat="46.79283" lon="5.5236">
        <ele>309.9</ele>
        <time>2012-11-24T14:18:19.000Z</time>
      </trkpt>
      <trkpt lat="46.79284" lon="5.52359">
        <ele>310</ele>
        <time>2012-11-24T14:18:20.000Z</time>
      </trkpt>
      <trkpt lat="46.79288" lon="5.52355">
        <ele>309.6</ele>
        <time>2012-11-24T14:18:24.000Z</time>
      </trkpt>
      <trkpt lat="46.79289" lon="5.52354">
        <ele>309.7</ele>
        <time>2012-11-24T14:18:25.000Z</time>
      </trkpt>
      <trkpt lat="46.79291" lon="5.52351">
        <ele>309.7</ele>
        <time>2012-11-24T14:18:28.000Z</time>
      </trkpt>
      <trkpt lat="46.79292" lon="5.5235">
        <ele>309.6</ele>
        <time>2012-11-24T14:18:29.000Z</time>
      </trkpt>
      <trkpt lat="46.79295" lon="5.52346">
        <ele>310.1</ele>
        <time>2012-11-24T14:18:32.000Z</time>
      </trkpt>
      <trkpt lat="46.79295" lon="5.52345">
        <ele>310.2</ele>
        <time>2012-11-24T14:18:33.000Z</time>
      </trkpt>
      <trkpt lat="46.79297" lon="5.5234">
        <ele>309.4</ele>
        <time>2012-11-24T14:18:37.000Z</time>
      </trkpt>
      <trkpt lat="46.79298" lon="5.52339">
        <ele>309.1</ele>
        <time>2012-11-24T14:18:38.000Z</time>
      </trkpt>
      <trkpt lat="46.793" lon="5.52334">
        <ele>308.4</ele>
        <time>2012-11-24T14:18:42.000Z</time>
      </trkpt>
      <trkpt lat="46.79301" lon="5.52333">
        <ele>308.2</ele>
        <time>2012-11-24T14:18:43.000Z</time>
      </trkpt>
      <trkpt lat="46.79304" lon="5.52329">
        <ele>306.6</ele>
        <time>2012-11-24T14:18:48.000Z</time>
      </trkpt>
      <trkpt lat="46.79304" lon="5.52328">
        <ele>306.3</ele>
        <time>2012-11-24T14:18:49.000Z</time>
      </trkpt>
      <trkpt lat="46.79307" lon="5.52324">
        <ele>304.4</ele>
        <time>2012-11-24T14:18:54.000Z</time>
      </trkpt>
      <trkpt lat="46.79308" lon="5.52323">
        <ele>304.1</ele>
        <time>2012-11-24T14:18:55.000Z</time>
      </trkpt>
      <trkpt lat="46.7931" lon="5.52318">
        <ele>304.1</ele>
        <time>2012-11-24T14:18:59.000Z</time>
      </trkpt>
      <trkpt lat="46.79311" lon="5.52317">
        <ele>304</ele>
        <time>2012-11-24T14:19:00.000Z</time>
      </trkpt>
      <trkpt lat="46.79314" lon="5.52313">
        <ele>304.3</ele>
        <time>2012-11-24T14:19:04.000Z</time>
      </trkpt>
      <trkpt lat="46.79315" lon="5.52312">
        <ele>304.4</ele>
        <time>2012-11-24T14:19:05.000Z</time>
      </trkpt>
      <trkpt lat="46.79318" lon="5.52308">
        <ele>304.1</ele>
        <time>2012-11-24T14:19:09.000Z</time>
      </trkpt>
      <trkpt lat="46.79318" lon="5.52307">
        <ele>303.9</ele>
        <time>2012-11-24T14:19:10.000Z</time>
      </trkpt>
      <trkpt lat="46.79321" lon="5.52303">
        <ele>303.8</ele>
        <time>2012-11-24T14:19:14.000Z</time>
      </trkpt>
      <trkpt lat="46.79322" lon="5.52302">
        <ele>303.7</ele>
        <time>2012-11-24T14:19:15.000Z</time>
      </trkpt>
      <trkpt lat="46.79326" lon="5.52298">
        <ele>303.9</ele>
        <time>2012-11-24T14:19:19.000Z</time>
      </trkpt>
      <trkpt lat="46.79327" lon="5.52297">
        <ele>304.2</ele>
        <time>2012-11-24T14:19:20.000Z</time>
      </trkpt>
      <trkpt lat="46.79329" lon="5.52293">
        <ele>305</ele>
        <time>2012-11-24T14:19:23.000Z</time>
      </trkpt>
      <trkpt lat="46.7933" lon="5.52292">
        <ele>305.4</ele>
        <time>2012-11-24T14:19:24.000Z</time>
      </trkpt>
      <trkpt lat="46.79332" lon="5.52287">
        <ele>305.9</ele>
        <time>2012-11-24T14:19:27.000Z</time>
      </trkpt>
      <trkpt lat="46.79333" lon="5.52286">
        <ele>305.9</ele>
        <time>2012-11-24T14:19:28.000Z</time>
      </trkpt>
      <trkpt lat="46.79337" lon="5.52282">
        <ele>305.7</ele>
        <time>2012-11-24T14:19:32.000Z</time>
      </trkpt>
      <trkpt lat="46.79337" lon="5.52281">
        <ele>305.5</ele>
        <time>2012-11-24T14:19:33.000Z</time>
      </trkpt>
      <trkpt lat="46.7934" lon="5.52276">
        <ele>304.7</ele>
        <time>2012-11-24T14:19:38.000Z</time>
      </trkpt>
      <trkpt lat="46.79341" lon="5.52275">
        <ele>304.8</ele>
        <time>2012-11-24T14:19:39.000Z</time>
      </trkpt>
      <trkpt lat="46.79344" lon="5.52272">
        <ele>305.7</ele>
        <time>2012-11-24T14:19:42.000Z</time>
      </trkpt>
      <trkpt lat="46.79345" lon="5.52271">
        <ele>305.5</ele>
        <time>2012-11-24T14:19:43.000Z</time>
      </trkpt>
      <trkpt lat="46.79349" lon="5.52268">
        <ele>304</ele>
        <time>2012-11-24T14:19:48.000Z</time>
      </trkpt>
      <trkpt lat="46.7935" lon="5.52267">
        <ele>303.6</ele>
        <time>2012-11-24T14:19:49.000Z</time>
      </trkpt>
      <trkpt lat="46.79352" lon="5.52262">
        <ele>302</ele>
        <time>2012-11-24T14:19:55.000Z</time>
      </trkpt>
      <trkpt lat="46.79353" lon="5.52262">
        <ele>301.8</ele>
        <time>2012-11-24T14:19:56.000Z</time>
      </trkpt>
      <trkpt lat="46.79356" lon="5.52257">
        <ele>299.9</ele>
        <time>2012-11-24T14:20:02.000Z</time>
      </trkpt>
      <trkpt lat="46.79356" lon="5.52257">
        <ele>299.6</ele>
        <time>2012-11-24T14:20:03.000Z</time>
      </trkpt>
      <trkpt lat="46.79359" lon="5.52254">
        <ele>298.3</ele>
        <time>2012-11-24T14:20:08.000Z</time>
      </trkpt>
      <trkpt lat="46.7936" lon="5.52253">
        <ele>298.3</ele>
        <time>2012-11-24T14:20:09.000Z</time>
      </trkpt>
      <trkpt lat="46.79363" lon="5.52248">
        <ele>297.6</ele>
        <time>2012-11-24T14:20:13.000Z</time>
      </trkpt>
      <trkpt lat="46.79363" lon="5.52247">
        <ele>297.7</ele>
        <time>2012-11-24T14:20:14.000Z</time>
      </trkpt>
      <trkpt lat="46.79366" lon="5.52243">
        <ele>298</ele>
        <time>2012-11-24T14:20:18.000Z</time>
      </trkpt>
      <trkpt lat="46.79367" lon="5.52241">
        <ele>298.2</ele>
        <time>2012-11-24T14:20:19.000Z</time>
      </trkpt>
      <trkpt lat="46.7937" lon="5.52237">
        <ele>298.3</ele>
        <time>2012-11-24T14:20:23.000Z</time>
      </trkpt>
      <trkpt lat="46.79371" lon="5.52235">
        <ele>298.4</ele>
        <time>2012-11-24T14:20:24.000Z</time>
      </trkpt>
      <trkpt lat="46.79374" lon="5.52232">
        <ele>299.1</ele>
        <time>2012-11-24T14:20:27.000Z</time>
      </trkpt>
      <trkpt lat="46.79374" lon="5.5223">
        <ele>299.1</ele>
        <time>2012-11-24T14:20:28.000Z</time>
      </trkpt>
      <trkpt lat="46.79377" lon="5.52227">
        <ele>298.9</ele>
        <time>2012-11-24T14:20:31.000Z</time>
      </trkpt>
      <trkpt lat="46.79378" lon="5.52226">
        <ele>299.1</ele>
        <time>2012-11-24T14:20:32.000Z</time>
      </trkpt>
      <trkpt lat="46.79381" lon="5.52222">
        <ele>299</ele>
        <time>2012-11-24T14:20:35.000Z</time>
      </trkpt>
      <trkpt lat="46.79381" lon="5.52221">
        <ele>298.8</ele>
        <time>2012-11-24T14:20:36.000Z</time>
      </trkpt>
      <trkpt lat="46.79384" lon="5.52216">
        <ele>298.5</ele>
        <time>2012-11-24T14:20:40.000Z</time>
      </trkpt>
      <trkpt lat="46.79385" lon="5.52216">
        <ele>298.4</ele>
        <time>2012-11-24T14:20:41.000Z</time>
      </trkpt>
      <trkpt lat="46.79388" lon="5.52212">
        <ele>298</ele>
        <time>2012-11-24T14:20:45.000Z</time>
      </trkpt>
      <trkpt lat="46.79389" lon="5.52211">
        <ele>297.8</ele>
        <time>2012-11-24T14:20:46.000Z</time>
      </trkpt>
      <trkpt lat="46.79392" lon="5.52207">
        <ele>297.9</ele>
        <time>2012-11-24T14:20:50.000Z</time>
      </trkpt>
      <trkpt lat="46.79393" lon="5.52206">
        <ele>297.9</ele>
        <time>2012-11-24T14:20:51.000Z</time>
      </trkpt>
      <trkpt lat="46.79395" lon="5.52201">
        <ele>298</ele>
        <time>2012-11-24T14:20:54.000Z</time>
      </trkpt>
      <trkpt lat="46.79396" lon="5.522">
        <ele>297.8</ele>
        <time>2012-11-24T14:20:55.000Z</time>
      </trkpt>
      <trkpt lat="46.79399" lon="5.52195">
        <ele>298.6</ele>
        <time>2012-11-24T14:20:58.000Z</time>
      </trkpt>
      <trkpt lat="46.794" lon="5.52194">
        <ele>299</ele>
        <time>2012-11-24T14:20:59.000Z</time>
      </trkpt>
      <trkpt lat="46.79403" lon="5.5219">
        <ele>300.1</ele>
        <time>2012-11-24T14:21:02.000Z</time>
      </trkpt>
      <trkpt lat="46.79404" lon="5.52189">
        <ele>300.2</ele>
        <time>2012-11-24T14:21:03.000Z</time>
      </trkpt>
      <trkpt lat="46.79407" lon="5.52184">
        <ele>301.1</ele>
        <time>2012-11-24T14:21:06.000Z</time>
      </trkpt>
      <trkpt lat="46.79407" lon="5.52183">
        <ele>301.3</ele>
        <time>2012-11-24T14:21:07.000Z</time>
      </trkpt>
      <trkpt lat="46.79411" lon="5.52179">
        <ele>301.9</ele>
        <time>2012-11-24T14:21:11.000Z</time>
      </trkpt>
      <trkpt lat="46.79411" lon="5.52177">
        <ele>302.2</ele>
        <time>2012-11-24T14:21:12.000Z</time>
      </trkpt>
      <trkpt lat="46.79414" lon="5.52173">
        <ele>302.7</ele>
        <time>2012-11-24T14:21:16.000Z</time>
      </trkpt>
      <trkpt lat="46.79415" lon="5.52172">
        <ele>302.7</ele>
        <time>2012-11-24T14:21:17.000Z</time>
      </trkpt>
      <trkpt lat="46.79418" lon="5.52168">
        <ele>303</ele>
        <time>2012-11-24T14:21:20.000Z</time>
      </trkpt>
      <trkpt lat="46.79418" lon="5.52167">
        <ele>303.1</ele>
        <time>2012-11-24T14:21:21.000Z</time>
      </trkpt>
      <trkpt lat="46.79421" lon="5.52163">
        <ele>303.4</ele>
        <time>2012-11-24T14:21:24.000Z</time>
      </trkpt>
      <trkpt lat="46.79422" lon="5.52162">
        <ele>303.3</ele>
        <time>2012-11-24T14:21:25.000Z</time>
      </trkpt>
      <trkpt lat="46.79425" lon="5.52159">
        <ele>303.4</ele>
        <time>2012-11-24T14:21:28.000Z</time>
      </trkpt>
      <trkpt lat="46.79426" lon="5.52157">
        <ele>303.5</ele>
        <time>2012-11-24T14:21:29.000Z</time>
      </trkpt>
      <trkpt lat="46.79429" lon="5.52154">
        <ele>303.8</ele>
        <time>2012-11-24T14:21:32.000Z</time>
      </trkpt>
      <trkpt lat="46.79429" lon="5.52152">
        <ele>304</ele>
        <time>2012-11-24T14:21:33.000Z</time>
      </trkpt>
      <trkpt lat="46.79432" lon="5.52149">
        <ele>304</ele>
        <time>2012-11-24T14:21:36.000Z</time>
      </trkpt>
      <trkpt lat="46.79433" lon="5.52148">
        <ele>304.1</ele>
        <time>2012-11-24T14:21:37.000Z</time>
      </trkpt>
      <trkpt lat="46.79436" lon="5.52144">
        <ele>303.9</ele>
        <time>2012-11-24T14:21:40.000Z</time>
      </trkpt>
      <trkpt lat="46.79436" lon="5.52143">
        <ele>304.1</ele>
        <time>2012-11-24T14:21:41.000Z</time>
      </trkpt>
      <trkpt lat="46.79439" lon="5.5214">
        <ele>304.4</ele>
        <time>2012-11-24T14:21:44.000Z</time>
      </trkpt>
      <trkpt lat="46.7944" lon="5.52138">
        <ele>305</ele>
        <time>2012-11-24T14:21:45.000Z</time>
      </trkpt>
      <trkpt lat="46.79443" lon="5.52135">
        <ele>305.8</ele>
        <time>2012-11-24T14:21:48.000Z</time>
      </trkpt>
      <trkpt lat="46.79444" lon="5.52134">
        <ele>305.8</ele>
        <time>2012-11-24T14:21:49.000Z</time>
      </trkpt>
      <trkpt lat="46.79447" lon="5.52129">
        <ele>304.8</ele>
        <time>2012-11-24T14:21:53.000Z</time>
      </trkpt>
      <trkpt lat="46.79447" lon="5.52128">
        <ele>304.7</ele>
        <time>2012-11-24T14:21:54.000Z</time>
      </trkpt>
      <trkpt lat="46.79451" lon="5.52124">
        <ele>304.8</ele>
        <time>2012-11-24T14:21:58.000Z</time>
      </trkpt>
      <trkpt lat="46.79452" lon="5.52122">
        <ele>305.2</ele>
        <time>2012-11-24T14:21:59.000Z</time>
      </trkpt>
      <trkpt lat="46.79455" lon="5.52119">
        <ele>305.5</ele>
        <time>2012-11-24T14:22:02.000Z</time>
      </trkpt>
      <trkpt lat="46.79456" lon="5.52118">
        <ele>305.6</ele>
        <time>2012-11-24T14:22:03.000Z</time>
      </trkpt>
      <trkpt lat="46.79459" lon="5.52115">
        <ele>305.7</ele>
        <time>2012-11-24T14:22:06.000Z</time>
      </trkpt>
      <trkpt lat="46.7946" lon="5.52114">
        <ele>305.6</ele>
        <time>2012-11-24T14:22:07.000Z</time>
      </trkpt>
      <trkpt lat="46.79462" lon="5.5211">
        <ele>305.6</ele>
        <time>2012-11-24T14:22:10.000Z</time>
      </trkpt>
      <trkpt lat="46.79463" lon="5.52109">
        <ele>305.5</ele>
        <time>2012-11-24T14:22:11.000Z</time>
      </trkpt>
      <trkpt lat="46.79465" lon="5.52105">
        <ele>301</ele>
        <time>2012-11-24T14:22:28.000Z</time>
      </trkpt>
      <trkpt lat="46.79466" lon="5.52103">
        <ele>300.7</ele>
        <time>2012-11-24T14:22:29.000Z</time>
      </trkpt>
      <trkpt lat="46.79468" lon="5.521">
        <ele>300.2</ele>
        <time>2012-11-24T14:22:32.000Z</time>
      </trkpt>
      <trkpt lat="46.79469" lon="5.52098">
        <ele>300.2</ele>
        <time>2012-11-24T14:22:33.000Z</time>
      </trkpt>
      <trkpt lat="46.79472" lon="5.52094">
        <ele>299.7</ele>
        <time>2012-11-24T14:22:37.000Z</time>
      </trkpt>
      <trkpt lat="46.79473" lon="5.52093">
        <ele>299.5</ele>
        <time>2012-11-24T14:22:38.000Z</time>
      </trkpt>
      <trkpt lat="46.79475" lon="5.52089">
        <ele>299.3</ele>
        <time>2012-11-24T14:22:42.000Z</time>
      </trkpt>
      <trkpt lat="46.79476" lon="5.52088">
        <ele>299.1</ele>
        <time>2012-11-24T14:22:43.000Z</time>
      </trkpt>
      <trkpt lat="46.79478" lon="5.52085">
        <ele>299</ele>
        <time>2012-11-24T14:22:46.000Z</time>
      </trkpt>
      <trkpt lat="46.79479" lon="5.52084">
        <ele>299.1</ele>
        <time>2012-11-24T14:22:47.000Z</time>
      </trkpt>
      <trkpt lat="46.79482" lon="5.5208">
        <ele>299.7</ele>
        <time>2012-11-24T14:22:50.000Z</time>
      </trkpt>
      <trkpt lat="46.79483" lon="5.52079">
        <ele>299.8</ele>
        <time>2012-11-24T14:22:51.000Z</time>
      </trkpt>
      <trkpt lat="46.79487" lon="5.52076">
        <ele>299.9</ele>
        <time>2012-11-24T14:22:55.000Z</time>
      </trkpt>
      <trkpt lat="46.79488" lon="5.52075">
        <ele>300.1</ele>
        <time>2012-11-24T14:22:56.000Z</time>
      </trkpt>
      <trkpt lat="46.79491" lon="5.52071">
        <ele>300.3</ele>
        <time>2012-11-24T14:23:00.000Z</time>
      </trkpt>
      <trkpt lat="46.79492" lon="5.5207">
        <ele>300.4</ele>
        <time>2012-11-24T14:23:01.000Z</time>
      </trkpt>
      <trkpt lat="46.79495" lon="5.52067">
        <ele>300.6</ele>
        <time>2012-11-24T14:23:05.000Z</time>
      </trkpt>
      <trkpt lat="46.79496" lon="5.52066">
        <ele>300.7</ele>
        <time>2012-11-24T14:23:06.000Z</time>
      </trkpt>
      <trkpt lat="46.79499" lon="5.52062">
        <ele>301.3</ele>
        <time>2012-11-24T14:23:09.000Z</time>
      </trkpt>
      <trkpt lat="46.79499" lon="5.52061">
        <ele>301.4</ele>
        <time>2012-11-24T14:23:10.000Z</time>
      </trkpt>
      <trkpt lat="46.79503" lon="5.52057">
        <ele>301.3</ele>
        <time>2012-11-24T14:23:14.000Z</time>
      </trkpt>
      <trkpt lat="46.79503" lon="5.52056">
        <ele>301.3</ele>
        <time>2012-11-24T14:23:15.000Z</time>
      </trkpt>
      <trkpt lat="46.79505" lon="5.52052">
        <ele>301.9</ele>
        <time>2012-11-24T14:23:18.000Z</time>
      </trkpt>
      <trkpt lat="46.79506" lon="5.5205">
        <ele>301.8</ele>
        <time>2012-11-24T14:23:19.000Z</time>
      </trkpt>
      <trkpt lat="46.79509" lon="5.52047">
        <ele>301.2</ele>
        <time>2012-11-24T14:23:23.000Z</time>
      </trkpt>
      <trkpt lat="46.7951" lon="5.52046">
        <ele>301</ele>
        <time>2012-11-24T14:23:24.000Z</time>
      </trkpt>
      <trkpt lat="46.79513" lon="5.52042">
        <ele>300.2</ele>
        <time>2012-11-24T14:23:28.000Z</time>
      </trkpt>
      <trkpt lat="46.79513" lon="5.52041">
        <ele>300</ele>
        <time>2012-11-24T14:23:29.000Z</time>
      </trkpt>
      <trkpt lat="46.79516" lon="5.52037">
        <ele>300.5</ele>
        <time>2012-11-24T14:23:33.000Z</time>
      </trkpt>
      <trkpt lat="46.79517" lon="5.52036">
        <ele>300.5</ele>
        <time>2012-11-24T14:23:34.000Z</time>
      </trkpt>
      <trkpt lat="46.7952" lon="5.52033">
        <ele>300.7</ele>
        <time>2012-11-24T14:23:38.000Z</time>
      </trkpt>
      <trkpt lat="46.79521" lon="5.52032">
        <ele>300.7</ele>
        <time>2012-11-24T14:23:39.000Z</time>
      </trkpt>
      <trkpt lat="46.79524" lon="5.52028">
        <ele>300.7</ele>
        <time>2012-11-24T14:23:43.000Z</time>
      </trkpt>
      <trkpt lat="46.79524" lon="5.52027">
        <ele>300.7</ele>
        <time>2012-11-24T14:23:44.000Z</time>
      </trkpt>
      <trkpt lat="46.79528" lon="5.52023">
        <ele>301.4</ele>
        <time>2012-11-24T14:23:48.000Z</time>
      </trkpt>
      <trkpt lat="46.79529" lon="5.52022">
        <ele>301.4</ele>
        <time>2012-11-24T14:23:49.000Z</time>
      </trkpt>
      <trkpt lat="46.79532" lon="5.52019">
        <ele>301.7</ele>
        <time>2012-11-24T14:23:53.000Z</time>
      </trkpt>
      <trkpt lat="46.79532" lon="5.52017">
        <ele>301.9</ele>
        <time>2012-11-24T14:23:54.000Z</time>
      </trkpt>
      <trkpt lat="46.79535" lon="5.52013">
        <ele>301.6</ele>
        <time>2012-11-24T14:23:58.000Z</time>
      </trkpt>
      <trkpt lat="46.79536" lon="5.52012">
        <ele>301.4</ele>
        <time>2012-11-24T14:23:59.000Z</time>
      </trkpt>
      <trkpt lat="46.79538" lon="5.52008">
        <ele>301</ele>
        <time>2012-11-24T14:24:03.000Z</time>
      </trkpt>
      <trkpt lat="46.79539" lon="5.52007">
        <ele>300.8</ele>
        <time>2012-11-24T14:24:04.000Z</time>
      </trkpt>
      <trkpt lat="46.79542" lon="5.52002">
        <ele>301.3</ele>
        <time>2012-11-24T14:24:08.000Z</time>
      </trkpt>
      <trkpt lat="46.79542" lon="5.52001">
        <ele>301.1</ele>
        <time>2012-11-24T14:24:09.000Z</time>
      </trkpt>
      <trkpt lat="46.79545" lon="5.51997">
        <ele>300.8</ele>
        <time>2012-11-24T14:24:13.000Z</time>
      </trkpt>
      <trkpt lat="46.79546" lon="5.51996">
        <ele>301</ele>
        <time>2012-11-24T14:24:14.000Z</time>
      </trkpt>
      <trkpt lat="46.79548" lon="5.51992">
        <ele>300.2</ele>
        <time>2012-11-24T14:24:18.000Z</time>
      </trkpt>
      <trkpt lat="46.79549" lon="5.51991">
        <ele>299.9</ele>
        <time>2012-11-24T14:24:19.000Z</time>
      </trkpt>
      <trkpt lat="46.79552" lon="5.51987">
        <ele>298.7</ele>
        <time>2012-11-24T14:24:23.000Z</time>
      </trkpt>
      <trkpt lat="46.79552" lon="5.51986">
        <ele>298.6</ele>
        <time>2012-11-24T14:24:24.000Z</time>
      </trkpt>
      <trkpt lat="46.79555" lon="5.51981">
        <ele>298.3</ele>
        <time>2012-11-24T14:24:28.000Z</time>
      </trkpt>
      <trkpt lat="46.79555" lon="5.5198">
        <ele>298.2</ele>
        <time>2012-11-24T14:24:29.000Z</time>
      </trkpt>
      <trkpt lat="46.79559" lon="5.51977">
        <ele>298.1</ele>
        <time>2012-11-24T14:24:33.000Z</time>
      </trkpt>
      <trkpt lat="46.79559" lon="5.51976">
        <ele>298</ele>
        <time>2012-11-24T14:24:34.000Z</time>
      </trkpt>
      <trkpt lat="46.79562" lon="5.51972">
        <ele>297.8</ele>
        <time>2012-11-24T14:24:38.000Z</time>
      </trkpt>
      <trkpt lat="46.79563" lon="5.51971">
        <ele>297.8</ele>
        <time>2012-11-24T14:24:39.000Z</time>
      </trkpt>
      <trkpt lat="46.79566" lon="5.51967">
        <ele>296.6</ele>
        <time>2012-11-24T14:24:43.000Z</time>
      </trkpt>
      <trkpt lat="46.79566" lon="5.51966">
        <ele>296.5</ele>
        <time>2012-11-24T14:24:44.000Z</time>
      </trkpt>
      <trkpt lat="46.79569" lon="5.51961">
        <ele>295.6</ele>
        <time>2012-11-24T14:24:49.000Z</time>
      </trkpt>
      <trkpt lat="46.7957" lon="5.5196">
        <ele>295.6</ele>
        <time>2012-11-24T14:24:50.000Z</time>
      </trkpt>
      <trkpt lat="46.79573" lon="5.51957">
        <ele>295.6</ele>
        <time>2012-11-24T14:24:55.000Z</time>
      </trkpt>
      <trkpt lat="46.79574" lon="5.51956">
        <ele>295.4</ele>
        <time>2012-11-24T14:24:56.000Z</time>
      </trkpt>
      <trkpt lat="46.79577" lon="5.51952">
        <ele>294.2</ele>
        <time>2012-11-24T14:25:01.000Z</time>
      </trkpt>
      <trkpt lat="46.79578" lon="5.51952">
        <ele>293.8</ele>
        <time>2012-11-24T14:25:02.000Z</time>
      </trkpt>
      <trkpt lat="46.79581" lon="5.51947">
        <ele>293.8</ele>
        <time>2012-11-24T14:25:07.000Z</time>
      </trkpt>
      <trkpt lat="46.79582" lon="5.51946">
        <ele>293.8</ele>
        <time>2012-11-24T14:25:08.000Z</time>
      </trkpt>
      <trkpt lat="46.79585" lon="5.51942">
        <ele>293.2</ele>
        <time>2012-11-24T14:25:13.000Z</time>
      </trkpt>
      <trkpt lat="46.79586" lon="5.51941">
        <ele>293</ele>
        <time>2012-11-24T14:25:14.000Z</time>
      </trkpt>
      <trkpt lat="46.79589" lon="5.51937">
        <ele>292.1</ele>
        <time>2012-11-24T14:25:19.000Z</time>
      </trkpt>
      <trkpt lat="46.79594" lon="5.51916">
        <ele>289.8</ele>
        <time>2012-11-24T14:25:30.000Z</time>
      </trkpt>
      <trkpt lat="46.79598" lon="5.51914">
        <ele>289</ele>
        <time>2012-11-24T14:25:35.000Z</time>
      </trkpt>
      <trkpt lat="46.79599" lon="5.51914">
        <ele>288.7</ele>
        <time>2012-11-24T14:25:36.000Z</time>
      </trkpt>
      <trkpt lat="46.79603" lon="5.51912">
        <ele>280.9</ele>
        <time>2012-11-24T14:25:50.000Z</time>
      </trkpt>
      <trkpt lat="46.79603" lon="5.51911">
        <ele>280.6</ele>
        <time>2012-11-24T14:25:51.000Z</time>
      </trkpt>
      <trkpt lat="46.79606" lon="5.51907">
        <ele>281.2</ele>
        <time>2012-11-24T14:25:56.000Z</time>
      </trkpt>
      <trkpt lat="46.79607" lon="5.51906">
        <ele>281.2</ele>
        <time>2012-11-24T14:25:57.000Z</time>
      </trkpt>
      <trkpt lat="46.7961" lon="5.51903">
        <ele>281.3</ele>
        <time>2012-11-24T14:26:01.000Z</time>
      </trkpt>
      <trkpt lat="46.7961" lon="5.51902">
        <ele>281.6</ele>
        <time>2012-11-24T14:26:02.000Z</time>
      </trkpt>
      <trkpt lat="46.79614" lon="5.51899">
        <ele>281.7</ele>
        <time>2012-11-24T14:26:06.000Z</time>
      </trkpt>
      <trkpt lat="46.79614" lon="5.51898">
        <ele>281.5</ele>
        <time>2012-11-24T14:26:07.000Z</time>
      </trkpt>
      <trkpt lat="46.79617" lon="5.51894">
        <ele>281.2</ele>
        <time>2012-11-24T14:26:11.000Z</time>
      </trkpt>
      <trkpt lat="46.79617" lon="5.51892">
        <ele>281.4</ele>
        <time>2012-11-24T14:26:12.000Z</time>
      </trkpt>
      <trkpt lat="46.79621" lon="5.51888">
        <ele>281.8</ele>
        <time>2012-11-24T14:26:17.000Z</time>
      </trkpt>
      <trkpt lat="46.79621" lon="5.51888">
        <ele>281.9</ele>
        <time>2012-11-24T14:26:18.000Z</time>
      </trkpt>
      <trkpt lat="46.79624" lon="5.51885">
        <ele>282.3</ele>
        <time>2012-11-24T14:26:22.000Z</time>
      </trkpt>
      <trkpt lat="46.79625" lon="5.51884">
        <ele>282.1</ele>
        <time>2012-11-24T14:26:23.000Z</time>
      </trkpt>
      <trkpt lat="46.79628" lon="5.51879">
        <ele>282.6</ele>
        <time>2012-11-24T14:26:28.000Z</time>
      </trkpt>
      <trkpt lat="46.79629" lon="5.51878">
        <ele>282.8</ele>
        <time>2012-11-24T14:26:29.000Z</time>
      </trkpt>
      <trkpt lat="46.79632" lon="5.51873">
        <ele>283.5</ele>
        <time>2012-11-24T14:26:34.000Z</time>
      </trkpt>
      <trkpt lat="46.79632" lon="5.51873">
        <ele>283.7</ele>
        <time>2012-11-24T14:26:35.000Z</time>
      </trkpt>
      <trkpt lat="46.79635" lon="5.51869">
        <ele>284.5</ele>
        <time>2012-11-24T14:26:39.000Z</time>
      </trkpt>
      <trkpt lat="46.79636" lon="5.51868">
        <ele>284.7</ele>
        <time>2012-11-24T14:26:40.000Z</time>
      </trkpt>
      <trkpt lat="46.7964" lon="5.51864">
        <ele>285.3</ele>
        <time>2012-11-24T14:26:44.000Z</time>
      </trkpt>
      <trkpt lat="46.7964" lon="5.51863">
        <ele>285.2</ele>
        <time>2012-11-24T14:26:45.000Z</time>
      </trkpt>
      <trkpt lat="46.79643" lon="5.5186">
        <ele>285</ele>
        <time>2012-11-24T14:26:49.000Z</time>
      </trkpt>
      <trkpt lat="46.79644" lon="5.5186">
        <ele>285.2</ele>
        <time>2012-11-24T14:26:50.000Z</time>
      </trkpt>
      <trkpt lat="46.79648" lon="5.51856">
        <ele>285.6</ele>
        <time>2012-11-24T14:26:54.000Z</time>
      </trkpt>
      <trkpt lat="46.79649" lon="5.51855">
        <ele>285.9</ele>
        <time>2012-11-24T14:26:55.000Z</time>
      </trkpt>
      <trkpt lat="46.79652" lon="5.51851">
        <ele>286.3</ele>
        <time>2012-11-24T14:26:59.000Z</time>
      </trkpt>
      <trkpt lat="46.79653" lon="5.5185">
        <ele>286.4</ele>
        <time>2012-11-24T14:27:00.000Z</time>
      </trkpt>
      <trkpt lat="46.79656" lon="5.51847">
        <ele>287.1</ele>
        <time>2012-11-24T14:27:04.000Z</time>
      </trkpt>
      <trkpt lat="46.79657" lon="5.51846">
        <ele>287.4</ele>
        <time>2012-11-24T14:27:05.000Z</time>
      </trkpt>
      <trkpt lat="46.7966" lon="5.51842">
        <ele>288.2</ele>
        <time>2012-11-24T14:27:09.000Z</time>
      </trkpt>
      <trkpt lat="46.79661" lon="5.5184">
        <ele>288.6</ele>
        <time>2012-11-24T14:27:10.000Z</time>
      </trkpt>
      <trkpt lat="46.79663" lon="5.51837">
        <ele>289.1</ele>
        <time>2012-11-24T14:27:13.000Z</time>
      </trkpt>
      <trkpt lat="46.79664" lon="5.51836">
        <ele>289.4</ele>
        <time>2012-11-24T14:27:14.000Z</time>
      </trkpt>
      <trkpt lat="46.79667" lon="5.51832">
        <ele>290</ele>
        <time>2012-11-24T14:27:18.000Z</time>
      </trkpt>
      <trkpt lat="46.79668" lon="5.51832">
        <ele>290.5</ele>
        <time>2012-11-24T14:27:19.000Z</time>
      </trkpt>
      <trkpt lat="46.79671" lon="5.51828">
        <ele>291.1</ele>
        <time>2012-11-24T14:27:23.000Z</time>
      </trkpt>
      <trkpt lat="46.79672" lon="5.51828">
        <ele>291.2</ele>
        <time>2012-11-24T14:27:24.000Z</time>
      </trkpt>
      <trkpt lat="46.79675" lon="5.51824">
        <ele>291.1</ele>
        <time>2012-11-24T14:27:28.000Z</time>
      </trkpt>
      <trkpt lat="46.79676" lon="5.51824">
        <ele>291</ele>
        <time>2012-11-24T14:27:29.000Z</time>
      </trkpt>
      <trkpt lat="46.79678" lon="5.51818">
        <ele>290.5</ele>
        <time>2012-11-24T14:27:34.000Z</time>
      </trkpt>
      <trkpt lat="46.79678" lon="5.51817">
        <ele>290.4</ele>
        <time>2012-11-24T14:27:35.000Z</time>
      </trkpt>
      <trkpt lat="46.79681" lon="5.51813">
        <ele>290.3</ele>
        <time>2012-11-24T14:27:39.000Z</time>
      </trkpt>
      <trkpt lat="46.79681" lon="5.51812">
        <ele>290.2</ele>
        <time>2012-11-24T14:27:40.000Z</time>
      </trkpt>
      <trkpt lat="46.79685" lon="5.5181">
        <ele>289.8</ele>
        <time>2012-11-24T14:27:44.000Z</time>
      </trkpt>
      <trkpt lat="46.79685" lon="5.51809">
        <ele>289.5</ele>
        <time>2012-11-24T14:27:45.000Z</time>
      </trkpt>
      <trkpt lat="46.79689" lon="5.51805">
        <ele>288.5</ele>
        <time>2012-11-24T14:27:50.000Z</time>
      </trkpt>
      <trkpt lat="46.79689" lon="5.51804">
        <ele>288.3</ele>
        <time>2012-11-24T14:27:51.000Z</time>
      </trkpt>
      <trkpt lat="46.79691" lon="5.518">
        <ele>287.7</ele>
        <time>2012-11-24T14:27:55.000Z</time>
      </trkpt>
      <trkpt lat="46.79692" lon="5.51799">
        <ele>287.4</ele>
        <time>2012-11-24T14:27:56.000Z</time>
      </trkpt>
      <trkpt lat="46.79695" lon="5.51794">
        <ele>285.7</ele>
        <time>2012-11-24T14:28:01.000Z</time>
      </trkpt>
      <trkpt lat="46.79695" lon="5.51793">
        <ele>285.5</ele>
        <time>2012-11-24T14:28:02.000Z</time>
      </trkpt>
      <trkpt lat="46.79699" lon="5.51789">
        <ele>284.5</ele>
        <time>2012-11-24T14:28:07.000Z</time>
      </trkpt>
      <trkpt lat="46.79699" lon="5.51788">
        <ele>284.4</ele>
        <time>2012-11-24T14:28:08.000Z</time>
      </trkpt>
      <trkpt lat="46.79702" lon="5.51784">
        <ele>283.4</ele>
        <time>2012-11-24T14:28:13.000Z</time>
      </trkpt>
      <trkpt lat="46.79703" lon="5.51784">
        <ele>283.2</ele>
        <time>2012-11-24T14:28:14.000Z</time>
      </trkpt>
      <trkpt lat="46.79705" lon="5.51778">
        <ele>280.4</ele>
        <time>2012-11-24T14:28:20.000Z</time>
      </trkpt>
      <trkpt lat="46.79706" lon="5.51778">
        <ele>280.2</ele>
        <time>2012-11-24T14:28:21.000Z</time>
      </trkpt>
      <trkpt lat="46.79709" lon="5.51774">
        <ele>279.3</ele>
        <time>2012-11-24T14:28:27.000Z</time>
      </trkpt>
      <trkpt lat="46.7971" lon="5.51773">
        <ele>279.3</ele>
        <time>2012-11-24T14:28:28.000Z</time>
      </trkpt>
      <trkpt lat="46.79713" lon="5.51771">
        <ele>279.4</ele>
        <time>2012-11-24T14:28:32.000Z</time>
      </trkpt>
      <trkpt lat="46.79714" lon="5.5177">
        <ele>279.5</ele>
        <time>2012-11-24T14:28:33.000Z</time>
      </trkpt>
      <trkpt lat="46.79718" lon="5.51767">
        <ele>279.4</ele>
        <time>2012-11-24T14:28:37.000Z</time>
      </trkpt>
      <trkpt lat="46.79718" lon="5.51766">
        <ele>279.3</ele>
        <time>2012-11-24T14:28:38.000Z</time>
      </trkpt>
      <trkpt lat="46.79722" lon="5.51764">
        <ele>278.8</ele>
        <time>2012-11-24T14:28:42.000Z</time>
      </trkpt>
      <trkpt lat="46.79723" lon="5.51764">
        <ele>278.6</ele>
        <time>2012-11-24T14:28:43.000Z</time>
      </trkpt>
      <trkpt lat="46.79726" lon="5.51761">
        <ele>278.6</ele>
        <time>2012-11-24T14:28:47.000Z</time>
      </trkpt>
      <trkpt lat="46.79727" lon="5.5176">
        <ele>278.5</ele>
        <time>2012-11-24T14:28:48.000Z</time>
      </trkpt>
      <trkpt lat="46.79731" lon="5.51757">
        <ele>278.1</ele>
        <time>2012-11-24T14:28:53.000Z</time>
      </trkpt>
      <trkpt lat="46.79732" lon="5.51756">
        <ele>277.7</ele>
        <time>2012-11-24T14:28:54.000Z</time>
      </trkpt>
      <trkpt lat="46.79736" lon="5.51753">
        <ele>276.5</ele>
        <time>2012-11-24T14:28:59.000Z</time>
      </trkpt>
      <trkpt lat="46.79736" lon="5.51753">
        <ele>276.2</ele>
        <time>2012-11-24T14:29:00.000Z</time>
      </trkpt>
      <trkpt lat="46.7974" lon="5.5175">
        <ele>275.5</ele>
        <time>2012-11-24T14:29:05.000Z</time>
      </trkpt>
      <trkpt lat="46.79741" lon="5.51749">
        <ele>275.2</ele>
        <time>2012-11-24T14:29:06.000Z</time>
      </trkpt>
      <trkpt lat="46.79745" lon="5.51746">
        <ele>275.4</ele>
        <time>2012-11-24T14:29:10.000Z</time>
      </trkpt>
      <trkpt lat="46.79745" lon="5.51746">
        <ele>275.4</ele>
        <time>2012-11-24T14:29:11.000Z</time>
      </trkpt>
      <trkpt lat="46.79749" lon="5.51742">
        <ele>275.9</ele>
        <time>2012-11-24T14:29:16.000Z</time>
      </trkpt>
      <trkpt lat="46.79749" lon="5.51741">
        <ele>275.9</ele>
        <time>2012-11-24T14:29:17.000Z</time>
      </trkpt>
      <trkpt lat="46.79753" lon="5.51738">
        <ele>274.8</ele>
        <time>2012-11-24T14:29:22.000Z</time>
      </trkpt>
      <trkpt lat="46.79754" lon="5.51738">
        <ele>274.9</ele>
        <time>2012-11-24T14:29:23.000Z</time>
      </trkpt>
      <trkpt lat="46.79757" lon="5.51735">
        <ele>275.9</ele>
        <time>2012-11-24T14:29:29.000Z</time>
      </trkpt>
      <trkpt lat="46.79758" lon="5.51734">
        <ele>276</ele>
        <time>2012-11-24T14:29:30.000Z</time>
      </trkpt>
      <trkpt lat="46.79759" lon="5.51736">
        <ele>273.8</ele>
        <time>2012-11-24T14:31:59.000Z</time>
      </trkpt>
      <trkpt lat="46.79752" lon="5.51731">
        <ele>275.6</ele>
        <time>2012-11-24T14:32:00.000Z</time>
      </trkpt>
      <trkpt lat="46.79755" lon="5.51735">
        <ele>275.2</ele>
        <time>2012-11-24T14:32:08.000Z</time>
      </trkpt>
      <trkpt lat="46.79755" lon="5.51736">
        <ele>275.1</ele>
        <time>2012-11-24T14:32:09.000Z</time>
      </trkpt>
      <trkpt lat="46.79752" lon="5.5174">
        <ele>272.8</ele>
        <time>2012-11-24T14:36:02.000Z</time>
      </trkpt>
      <trkpt lat="46.79751" lon="5.51741">
        <ele>272.6</ele>
        <time>2012-11-24T14:36:03.000Z</time>
      </trkpt>
      <trkpt lat="46.79747" lon="5.51742">
        <ele>272.1</ele>
        <time>2012-11-24T14:36:07.000Z</time>
      </trkpt>
      <trkpt lat="46.79747" lon="5.51743">
        <ele>272.1</ele>
        <time>2012-11-24T14:36:08.000Z</time>
      </trkpt>
      <trkpt lat="46.79743" lon="5.51744">
        <ele>271.8</ele>
        <time>2012-11-24T14:36:13.000Z</time>
      </trkpt>
      <trkpt lat="46.79742" lon="5.51745">
        <ele>271.8</ele>
        <time>2012-11-24T14:36:14.000Z</time>
      </trkpt>
      <trkpt lat="46.79738" lon="5.51747">
        <ele>271.4</ele>
        <time>2012-11-24T14:36:20.000Z</time>
      </trkpt>
      <trkpt lat="46.79728" lon="5.51757">
        <ele>271.7</ele>
        <time>2012-11-24T14:36:28.000Z</time>
      </trkpt>
      <trkpt lat="46.79724" lon="5.51759">
        <ele>271.4</ele>
        <time>2012-11-24T14:36:31.000Z</time>
      </trkpt>
      <trkpt lat="46.79723" lon="5.5176">
        <ele>271</ele>
        <time>2012-11-24T14:36:32.000Z</time>
      </trkpt>
      <trkpt lat="46.79722" lon="5.51764">
        <ele>270.2</ele>
        <time>2012-11-24T14:36:35.000Z</time>
      </trkpt>
      <trkpt lat="46.7972" lon="5.51766">
        <ele>271.3</ele>
        <time>2012-11-24T14:36:36.000Z</time>
      </trkpt>
      <trkpt lat="46.79719" lon="5.51772">
        <ele>270.3</ele>
        <time>2012-11-24T14:36:41.000Z</time>
      </trkpt>
      <trkpt lat="46.79718" lon="5.51773">
        <ele>270</ele>
        <time>2012-11-24T14:36:42.000Z</time>
      </trkpt>
      <trkpt lat="46.79717" lon="5.51778">
        <ele>268.9</ele>
        <time>2012-11-24T14:36:46.000Z</time>
      </trkpt>
      <trkpt lat="46.79717" lon="5.5178">
        <ele>268.1</ele>
        <time>2012-11-24T14:36:47.000Z</time>
      </trkpt>
      <trkpt lat="46.79715" lon="5.51784">
        <ele>273.6</ele>
        <time>2012-11-24T14:36:49.000Z</time>
      </trkpt>
      <trkpt lat="46.79714" lon="5.51785">
        <ele>274.4</ele>
        <time>2012-11-24T14:36:50.000Z</time>
      </trkpt>
      <trkpt lat="46.79711" lon="5.51789">
        <ele>275.9</ele>
        <time>2012-11-24T14:36:53.000Z</time>
      </trkpt>
      <trkpt lat="46.79709" lon="5.51789">
        <ele>276.9</ele>
        <time>2012-11-24T14:36:54.000Z</time>
      </trkpt>
      <trkpt lat="46.79705" lon="5.5179">
        <ele>277.6</ele>
        <time>2012-11-24T14:36:57.000Z</time>
      </trkpt>
      <trkpt lat="46.79704" lon="5.51791">
        <ele>278.1</ele>
        <time>2012-11-24T14:36:58.000Z</time>
      </trkpt>
      <trkpt lat="46.797" lon="5.51791">
        <ele>276.1</ele>
        <time>2012-11-24T14:37:01.000Z</time>
      </trkpt>
      <trkpt lat="46.79699" lon="5.51792">
        <ele>275.4</ele>
        <time>2012-11-24T14:37:02.000Z</time>
      </trkpt>
      <trkpt lat="46.79695" lon="5.51796">
        <ele>278.9</ele>
        <time>2012-11-24T14:37:06.000Z</time>
      </trkpt>
      <trkpt lat="46.79695" lon="5.51797">
        <ele>278.7</ele>
        <time>2012-11-24T14:37:07.000Z</time>
      </trkpt>
      <trkpt lat="46.79691" lon="5.51801">
        <ele>279.5</ele>
        <time>2012-11-24T14:37:12.000Z</time>
      </trkpt>
      <trkpt lat="46.79691" lon="5.51801">
        <ele>278.5</ele>
        <time>2012-11-24T14:37:13.000Z</time>
      </trkpt>
      <trkpt lat="46.79693" lon="5.51795">
        <ele>275.6</ele>
        <time>2012-11-24T14:37:18.000Z</time>
      </trkpt>
      <trkpt lat="46.79693" lon="5.51793">
        <ele>275.2</ele>
        <time>2012-11-24T14:37:19.000Z</time>
      </trkpt>
      <trkpt lat="46.79694" lon="5.51787">
        <ele>274.1</ele>
        <time>2012-11-24T14:37:23.000Z</time>
      </trkpt>
      <trkpt lat="46.79694" lon="5.51786">
        <ele>273.8</ele>
        <time>2012-11-24T14:37:24.000Z</time>
      </trkpt>
      <trkpt lat="46.79694" lon="5.5178">
        <ele>273.8</ele>
        <time>2012-11-24T14:37:32.000Z</time>
      </trkpt>
      <trkpt lat="46.79693" lon="5.51779">
        <ele>273.8</ele>
        <time>2012-11-24T14:37:33.000Z</time>
      </trkpt>
      <trkpt lat="46.7969" lon="5.51774">
        <ele>274.1</ele>
        <time>2012-11-24T14:37:38.000Z</time>
      </trkpt>
      <trkpt lat="46.7969" lon="5.51773">
        <ele>274.3</ele>
        <time>2012-11-24T14:37:39.000Z</time>
      </trkpt>
      <trkpt lat="46.79688" lon="5.51769">
        <ele>275.1</ele>
        <time>2012-11-24T14:37:43.000Z</time>
      </trkpt>
      <trkpt lat="46.79687" lon="5.51767">
        <ele>275.1</ele>
        <time>2012-11-24T14:37:44.000Z</time>
      </trkpt>
      <trkpt lat="46.79686" lon="5.51761">
        <ele>274.7</ele>
        <time>2012-11-24T14:37:48.000Z</time>
      </trkpt>
      <trkpt lat="46.79686" lon="5.51759">
        <ele>274.7</ele>
        <time>2012-11-24T14:37:49.000Z</time>
      </trkpt>
      <trkpt lat="46.79684" lon="5.51753">
        <ele>275.2</ele>
        <time>2012-11-24T14:37:53.000Z</time>
      </trkpt>
      <trkpt lat="46.79684" lon="5.51751">
        <ele>275.4</ele>
        <time>2012-11-24T14:37:54.000Z</time>
      </trkpt>
      <trkpt lat="46.79686" lon="5.51746">
        <ele>276.5</ele>
        <time>2012-11-24T14:38:27.000Z</time>
      </trkpt>
      <trkpt lat="46.79686" lon="5.51745">
        <ele>276.6</ele>
        <time>2012-11-24T14:38:28.000Z</time>
      </trkpt>
      <trkpt lat="46.79684" lon="5.51739">
        <ele>276.4</ele>
        <time>2012-11-24T14:38:32.000Z</time>
      </trkpt>
      <trkpt lat="46.79684" lon="5.51737">
        <ele>276.4</ele>
        <time>2012-11-24T14:38:33.000Z</time>
      </trkpt>
      <trkpt lat="46.79681" lon="5.51733">
        <ele>276.3</ele>
        <time>2012-11-24T14:38:37.000Z</time>
      </trkpt>
      <trkpt lat="46.7968" lon="5.51732">
        <ele>276</ele>
        <time>2012-11-24T14:38:38.000Z</time>
      </trkpt>
      <trkpt lat="46.79677" lon="5.5173">
        <ele>275.9</ele>
        <time>2012-11-24T14:38:40.000Z</time>
      </trkpt>
      <trkpt lat="46.79676" lon="5.51729">
        <ele>276.4</ele>
        <time>2012-11-24T14:38:41.000Z</time>
      </trkpt>
      <trkpt lat="46.79672" lon="5.51726">
        <ele>276.9</ele>
        <time>2012-11-24T14:38:44.000Z</time>
      </trkpt>
      <trkpt lat="46.7967" lon="5.51726">
        <ele>277.2</ele>
        <time>2012-11-24T14:38:45.000Z</time>
      </trkpt>
      <trkpt lat="46.79667" lon="5.51724">
        <ele>277.4</ele>
        <time>2012-11-24T14:38:49.000Z</time>
      </trkpt>
      <trkpt lat="46.79666" lon="5.51724">
        <ele>277.3</ele>
        <time>2012-11-24T14:38:50.000Z</time>
      </trkpt>
      <trkpt lat="46.79662" lon="5.51723">
        <ele>277.3</ele>
        <time>2012-11-24T14:39:00.000Z</time>
      </trkpt>
      <trkpt lat="46.79662" lon="5.51723">
        <ele>277.4</ele>
        <time>2012-11-24T14:39:01.000Z</time>
      </trkpt>
      <trkpt lat="46.79658" lon="5.5172">
        <ele>278</ele>
        <time>2012-11-24T14:39:05.000Z</time>
      </trkpt>
      <trkpt lat="46.79657" lon="5.51719">
        <ele>278.2</ele>
        <time>2012-11-24T14:39:06.000Z</time>
      </trkpt>
      <trkpt lat="46.79654" lon="5.51715">
        <ele>278.3</ele>
        <time>2012-11-24T14:39:10.000Z</time>
      </trkpt>
      <trkpt lat="46.79654" lon="5.51714">
        <ele>278.4</ele>
        <time>2012-11-24T14:39:11.000Z</time>
      </trkpt>
      <trkpt lat="46.7965" lon="5.51714">
        <ele>278.8</ele>
        <time>2012-11-24T14:39:15.000Z</time>
      </trkpt>
      <trkpt lat="46.79649" lon="5.51716">
        <ele>278.9</ele>
        <time>2012-11-24T14:39:16.000Z</time>
      </trkpt>
      <trkpt lat="46.79645" lon="5.51716">
        <ele>279.6</ele>
        <time>2012-11-24T14:39:20.000Z</time>
      </trkpt>
      <trkpt lat="46.79643" lon="5.51716">
        <ele>279.6</ele>
        <time>2012-11-24T14:39:21.000Z</time>
      </trkpt>
      <trkpt lat="46.79639" lon="5.51717">
        <ele>279.4</ele>
        <time>2012-11-24T14:39:24.000Z</time>
      </trkpt>
      <trkpt lat="46.79638" lon="5.51717">
        <ele>279.6</ele>
        <time>2012-11-24T14:39:25.000Z</time>
      </trkpt>
      <trkpt lat="46.79635" lon="5.51717">
        <ele>279.9</ele>
        <time>2012-11-24T14:39:28.000Z</time>
      </trkpt>
      <trkpt lat="46.79633" lon="5.51717">
        <ele>280</ele>
        <time>2012-11-24T14:39:29.000Z</time>
      </trkpt>
      <trkpt lat="46.79629" lon="5.51719">
        <ele>280.9</ele>
        <time>2012-11-24T14:39:33.000Z</time>
      </trkpt>
      <trkpt lat="46.79628" lon="5.51718">
        <ele>280.9</ele>
        <time>2012-11-24T14:39:34.000Z</time>
      </trkpt>
      <trkpt lat="46.79624" lon="5.51717">
        <ele>280.7</ele>
        <time>2012-11-24T14:39:39.000Z</time>
      </trkpt>
      <trkpt lat="46.79623" lon="5.51717">
        <ele>280.5</ele>
        <time>2012-11-24T14:39:40.000Z</time>
      </trkpt>
      <trkpt lat="46.79619" lon="5.51717">
        <ele>280.8</ele>
        <time>2012-11-24T14:39:45.000Z</time>
      </trkpt>
      <trkpt lat="46.79618" lon="5.51717">
        <ele>281.3</ele>
        <time>2012-11-24T14:39:46.000Z</time>
      </trkpt>
      <trkpt lat="46.79615" lon="5.51717">
        <ele>282</ele>
        <time>2012-11-24T14:39:49.000Z</time>
      </trkpt>
      <trkpt lat="46.79613" lon="5.51717">
        <ele>282.1</ele>
        <time>2012-11-24T14:39:50.000Z</time>
      </trkpt>
      <trkpt lat="46.79609" lon="5.51715">
        <ele>282.9</ele>
        <time>2012-11-24T14:39:54.000Z</time>
      </trkpt>
      <trkpt lat="46.79609" lon="5.51714">
        <ele>283.4</ele>
        <time>2012-11-24T14:39:55.000Z</time>
      </trkpt>
      <trkpt lat="46.79605" lon="5.51712">
        <ele>284.4</ele>
        <time>2012-11-24T14:40:00.000Z</time>
      </trkpt>
      <trkpt lat="46.79604" lon="5.51712">
        <ele>284.6</ele>
        <time>2012-11-24T14:40:01.000Z</time>
      </trkpt>
      <trkpt lat="46.796" lon="5.5171">
        <ele>285.7</ele>
        <time>2012-11-24T14:40:05.000Z</time>
      </trkpt>
      <trkpt lat="46.79599" lon="5.51709">
        <ele>285.8</ele>
        <time>2012-11-24T14:40:06.000Z</time>
      </trkpt>
      <trkpt lat="46.79595" lon="5.51706">
        <ele>286.3</ele>
        <time>2012-11-24T14:40:10.000Z</time>
      </trkpt>
      <trkpt lat="46.79594" lon="5.51705">
        <ele>286.6</ele>
        <time>2012-11-24T14:40:11.000Z</time>
      </trkpt>
      <trkpt lat="46.79591" lon="5.517">
        <ele>286.1</ele>
        <time>2012-11-24T14:40:14.000Z</time>
      </trkpt>
      <trkpt lat="46.7959" lon="5.51699">
        <ele>286.5</ele>
        <time>2012-11-24T14:40:15.000Z</time>
      </trkpt>
      <trkpt lat="46.79587" lon="5.51695">
        <ele>287</ele>
        <time>2012-11-24T14:40:18.000Z</time>
      </trkpt>
      <trkpt lat="46.79586" lon="5.51694">
        <ele>287.4</ele>
        <time>2012-11-24T14:40:19.000Z</time>
      </trkpt>
      <trkpt lat="46.79582" lon="5.51691">
        <ele>287.9</ele>
        <time>2012-11-24T14:40:22.000Z</time>
      </trkpt>
      <trkpt lat="46.79581" lon="5.5169">
        <ele>287.9</ele>
        <time>2012-11-24T14:40:23.000Z</time>
      </trkpt>
      <trkpt lat="46.79577" lon="5.51687">
        <ele>288.3</ele>
        <time>2012-11-24T14:40:27.000Z</time>
      </trkpt>
      <trkpt lat="46.79577" lon="5.51686">
        <ele>288.4</ele>
        <time>2012-11-24T14:40:28.000Z</time>
      </trkpt>
      <trkpt lat="46.79575" lon="5.51681">
        <ele>288.9</ele>
        <time>2012-11-24T14:40:31.000Z</time>
      </trkpt>
      <trkpt lat="46.79574" lon="5.5168">
        <ele>288.3</ele>
        <time>2012-11-24T14:40:32.000Z</time>
      </trkpt>
      <trkpt lat="46.79575" lon="5.51674">
        <ele>287.8</ele>
        <time>2012-11-24T14:40:36.000Z</time>
      </trkpt>
      <trkpt lat="46.79575" lon="5.51673">
        <ele>287.8</ele>
        <time>2012-11-24T14:40:37.000Z</time>
      </trkpt>
      <trkpt lat="46.79573" lon="5.51671">
        <ele>288</ele>
        <time>2012-11-24T14:40:39.000Z</time>
      </trkpt>
      <trkpt lat="46.79571" lon="5.51671">
        <ele>287.5</ele>
        <time>2012-11-24T14:40:40.000Z</time>
      </trkpt>
      <trkpt lat="46.79567" lon="5.5167">
        <ele>287</ele>
        <time>2012-11-24T14:40:42.000Z</time>
      </trkpt>
      <trkpt lat="46.79565" lon="5.51669">
        <ele>286.9</ele>
        <time>2012-11-24T14:40:43.000Z</time>
      </trkpt>
      <trkpt lat="46.79562" lon="5.51668">
        <ele>287.2</ele>
        <time>2012-11-24T14:40:45.000Z</time>
      </trkpt>
      <trkpt lat="46.7956" lon="5.51667">
        <ele>287.2</ele>
        <time>2012-11-24T14:40:46.000Z</time>
      </trkpt>
      <trkpt lat="46.79557" lon="5.51664">
        <ele>288.4</ele>
        <time>2012-11-24T14:40:49.000Z</time>
      </trkpt>
      <trkpt lat="46.79557" lon="5.51662">
        <ele>288.3</ele>
        <time>2012-11-24T14:40:50.000Z</time>
      </trkpt>
      <trkpt lat="46.79554" lon="5.51658">
        <ele>287.9</ele>
        <time>2012-11-24T14:40:53.000Z</time>
      </trkpt>
      <trkpt lat="46.79554" lon="5.51657">
        <ele>288.1</ele>
        <time>2012-11-24T14:40:54.000Z</time>
      </trkpt>
      <trkpt lat="46.79552" lon="5.51652">
        <ele>288.7</ele>
        <time>2012-11-24T14:40:57.000Z</time>
      </trkpt>
      <trkpt lat="46.79551" lon="5.51651">
        <ele>288.8</ele>
        <time>2012-11-24T14:40:58.000Z</time>
      </trkpt>
      <trkpt lat="46.7955" lon="5.51646">
        <ele>289.7</ele>
        <time>2012-11-24T14:41:02.000Z</time>
      </trkpt>
      <trkpt lat="46.79549" lon="5.51644">
        <ele>289.6</ele>
        <time>2012-11-24T14:41:03.000Z</time>
      </trkpt>
      <trkpt lat="46.79548" lon="5.51639">
        <ele>289.8</ele>
        <time>2012-11-24T14:41:07.000Z</time>
      </trkpt>
      <trkpt lat="46.79548" lon="5.51638">
        <ele>289.7</ele>
        <time>2012-11-24T14:41:08.000Z</time>
      </trkpt>
      <trkpt lat="46.79546" lon="5.51632">
        <ele>290.2</ele>
        <time>2012-11-24T14:41:13.000Z</time>
      </trkpt>
      <trkpt lat="46.79545" lon="5.51631">
        <ele>290.3</ele>
        <time>2012-11-24T14:41:14.000Z</time>
      </trkpt>
      <trkpt lat="46.79544" lon="5.51625">
        <ele>290.8</ele>
        <time>2012-11-24T14:41:20.000Z</time>
      </trkpt>
      <trkpt lat="46.79544" lon="5.51625">
        <ele>290.8</ele>
        <time>2012-11-24T14:41:21.000Z</time>
      </trkpt>
      <trkpt lat="46.79542" lon="5.51619">
        <ele>292.4</ele>
        <time>2012-11-24T14:41:27.000Z</time>
      </trkpt>
      <trkpt lat="46.79541" lon="5.51618">
        <ele>292.4</ele>
        <time>2012-11-24T14:41:28.000Z</time>
      </trkpt>
      <trkpt lat="46.79542" lon="5.51611">
        <ele>290.8</ele>
        <time>2012-11-24T14:41:33.000Z</time>
      </trkpt>
      <trkpt lat="46.79542" lon="5.5161">
        <ele>290.6</ele>
        <time>2012-11-24T14:41:34.000Z</time>
      </trkpt>
      <trkpt lat="46.79544" lon="5.51605">
        <ele>289.9</ele>
        <time>2012-11-24T14:41:38.000Z</time>
      </trkpt>
      <trkpt lat="46.79544" lon="5.51603">
        <ele>289.9</ele>
        <time>2012-11-24T14:41:39.000Z</time>
      </trkpt>
      <trkpt lat="46.79544" lon="5.51596">
        <ele>289.7</ele>
        <time>2012-11-24T14:41:45.000Z</time>
      </trkpt>
      <trkpt lat="46.79544" lon="5.51596">
        <ele>289.7</ele>
        <time>2012-11-24T14:41:46.000Z</time>
      </trkpt>
      <trkpt lat="46.79543" lon="5.5159">
        <ele>289</ele>
        <time>2012-11-24T14:41:52.000Z</time>
      </trkpt>
      <trkpt lat="46.79543" lon="5.51588">
        <ele>289.1</ele>
        <time>2012-11-24T14:41:53.000Z</time>
      </trkpt>
      <trkpt lat="46.79541" lon="5.51583">
        <ele>289.6</ele>
        <time>2012-11-24T14:41:56.000Z</time>
      </trkpt>
      <trkpt lat="46.79541" lon="5.51582">
        <ele>289.8</ele>
        <time>2012-11-24T14:41:57.000Z</time>
      </trkpt>
      <trkpt lat="46.79538" lon="5.51577">
        <ele>290.5</ele>
        <time>2012-11-24T14:42:00.000Z</time>
      </trkpt>
      <trkpt lat="46.79538" lon="5.51576">
        <ele>290.8</ele>
        <time>2012-11-24T14:42:01.000Z</time>
      </trkpt>
      <trkpt lat="46.79535" lon="5.51571">
        <ele>291</ele>
        <time>2012-11-24T14:42:04.000Z</time>
      </trkpt>
      <trkpt lat="46.79534" lon="5.5157">
        <ele>291.3</ele>
        <time>2012-11-24T14:42:05.000Z</time>
      </trkpt>
      <trkpt lat="46.79532" lon="5.51567">
        <ele>291.3</ele>
        <time>2012-11-24T14:42:09.000Z</time>
      </trkpt>
      <trkpt lat="46.79531" lon="5.51564">
        <ele>290.5</ele>
        <time>2012-11-24T14:42:10.000Z</time>
      </trkpt>
      <trkpt lat="46.7953" lon="5.51559">
        <ele>290.2</ele>
        <time>2012-11-24T14:42:12.000Z</time>
      </trkpt>
      <trkpt lat="46.79529" lon="5.51557">
        <ele>290.3</ele>
        <time>2012-11-24T14:42:13.000Z</time>
      </trkpt>
      <trkpt lat="46.79527" lon="5.51552">
        <ele>290.3</ele>
        <time>2012-11-24T14:42:16.000Z</time>
      </trkpt>
      <trkpt lat="46.79526" lon="5.51551">
        <ele>290.4</ele>
        <time>2012-11-24T14:42:17.000Z</time>
      </trkpt>
      <trkpt lat="46.79524" lon="5.51545">
        <ele>290</ele>
        <time>2012-11-24T14:42:22.000Z</time>
      </trkpt>
      <trkpt lat="46.79524" lon="5.51544">
        <ele>289.8</ele>
        <time>2012-11-24T14:42:23.000Z</time>
      </trkpt>
      <trkpt lat="46.79521" lon="5.51539">
        <ele>290.4</ele>
        <time>2012-11-24T14:42:28.000Z</time>
      </trkpt>
      <trkpt lat="46.7952" lon="5.51538">
        <ele>290.8</ele>
        <time>2012-11-24T14:42:29.000Z</time>
      </trkpt>
      <trkpt lat="46.79518" lon="5.51533">
        <ele>291.4</ele>
        <time>2012-11-24T14:42:34.000Z</time>
      </trkpt>
      <trkpt lat="46.79517" lon="5.51532">
        <ele>291.6</ele>
        <time>2012-11-24T14:42:35.000Z</time>
      </trkpt>
      <trkpt lat="46.79514" lon="5.51527">
        <ele>292.1</ele>
        <time>2012-11-24T14:42:40.000Z</time>
      </trkpt>
      <trkpt lat="46.79514" lon="5.51527">
        <ele>292.1</ele>
        <time>2012-11-24T14:42:41.000Z</time>
      </trkpt>
      <trkpt lat="46.79512" lon="5.51521">
        <ele>290.9</ele>
        <time>2012-11-24T14:42:49.000Z</time>
      </trkpt>
      <trkpt lat="46.79512" lon="5.5152">
        <ele>290.6</ele>
        <time>2012-11-24T14:42:50.000Z</time>
      </trkpt>
      <trkpt lat="46.79512" lon="5.51514">
        <ele>291.3</ele>
        <time>2012-11-24T14:42:54.000Z</time>
      </trkpt>
      <trkpt lat="46.79512" lon="5.51513">
        <ele>291.5</ele>
        <time>2012-11-24T14:42:55.000Z</time>
      </trkpt>
      <trkpt lat="46.79511" lon="5.51506">
        <ele>292.5</ele>
        <time>2012-11-24T14:42:59.000Z</time>
      </trkpt>
      <trkpt lat="46.7951" lon="5.51505">
        <ele>292.9</ele>
        <time>2012-11-24T14:43:00.000Z</time>
      </trkpt>
      <trkpt lat="46.79509" lon="5.515">
        <ele>292.6</ele>
        <time>2012-11-24T14:43:03.000Z</time>
      </trkpt>
      <trkpt lat="46.79509" lon="5.51498">
        <ele>292.8</ele>
        <time>2012-11-24T14:43:04.000Z</time>
      </trkpt>
      <trkpt lat="46.7951" lon="5.51492">
        <ele>292.7</ele>
        <time>2012-11-24T14:43:08.000Z</time>
      </trkpt>
      <trkpt lat="46.7951" lon="5.51491">
        <ele>292.4</ele>
        <time>2012-11-24T14:43:09.000Z</time>
      </trkpt>
      <trkpt lat="46.79511" lon="5.51485">
        <ele>291.8</ele>
        <time>2012-11-24T14:43:13.000Z</time>
      </trkpt>
      <trkpt lat="46.79511" lon="5.51484">
        <ele>291.9</ele>
        <time>2012-11-24T14:43:14.000Z</time>
      </trkpt>
      <trkpt lat="46.7951" lon="5.51478">
        <ele>292.5</ele>
        <time>2012-11-24T14:43:18.000Z</time>
      </trkpt>
      <trkpt lat="46.7951" lon="5.51477">
        <ele>292.4</ele>
        <time>2012-11-24T14:43:19.000Z</time>
      </trkpt>
      <trkpt lat="46.79509" lon="5.51471">
        <ele>291.3</ele>
        <time>2012-11-24T14:43:23.000Z</time>
      </trkpt>
      <trkpt lat="46.79509" lon="5.51469">
        <ele>291.1</ele>
        <time>2012-11-24T14:43:24.000Z</time>
      </trkpt>
      <trkpt lat="46.79509" lon="5.51464">
        <ele>290.6</ele>
        <time>2012-11-24T14:43:29.000Z</time>
      </trkpt>
      <trkpt lat="46.79509" lon="5.51463">
        <ele>290.7</ele>
        <time>2012-11-24T14:43:30.000Z</time>
      </trkpt>
      <trkpt lat="46.79508" lon="5.51456">
        <ele>290.4</ele>
        <time>2012-11-24T14:43:35.000Z</time>
      </trkpt>
      <trkpt lat="46.79508" lon="5.51455">
        <ele>290.4</ele>
        <time>2012-11-24T14:43:36.000Z</time>
      </trkpt>
      <trkpt lat="46.79507" lon="5.51449">
        <ele>289.6</ele>
        <time>2012-11-24T14:43:41.000Z</time>
      </trkpt>
      <trkpt lat="46.79507" lon="5.51446">
        <ele>289.1</ele>
        <time>2012-11-24T14:43:42.000Z</time>
      </trkpt>
      <trkpt lat="46.79506" lon="5.51441">
        <ele>288.2</ele>
        <time>2012-11-24T14:43:45.000Z</time>
      </trkpt>
      <trkpt lat="46.79506" lon="5.5144">
        <ele>288.2</ele>
        <time>2012-11-24T14:43:46.000Z</time>
      </trkpt>
      <trkpt lat="46.79507" lon="5.51434">
        <ele>289.1</ele>
        <time>2012-11-24T14:43:52.000Z</time>
      </trkpt>
      <trkpt lat="46.79508" lon="5.51433">
        <ele>289</ele>
        <time>2012-11-24T14:43:53.000Z</time>
      </trkpt>
      <trkpt lat="46.7951" lon="5.51428">
        <ele>288.7</ele>
        <time>2012-11-24T14:43:56.000Z</time>
      </trkpt>
      <trkpt lat="46.79511" lon="5.51426">
        <ele>289.2</ele>
        <time>2012-11-24T14:43:57.000Z</time>
      </trkpt>
      <trkpt lat="46.79512" lon="5.51421">
        <ele>289.7</ele>
        <time>2012-11-24T14:44:00.000Z</time>
      </trkpt>
      <trkpt lat="46.79512" lon="5.51419">
        <ele>289.6</ele>
        <time>2012-11-24T14:44:01.000Z</time>
      </trkpt>
      <trkpt lat="46.79512" lon="5.51414">
        <ele>289.5</ele>
        <time>2012-11-24T14:44:05.000Z</time>
      </trkpt>
      <trkpt lat="46.79512" lon="5.51412">
        <ele>289.3</ele>
        <time>2012-11-24T14:44:06.000Z</time>
      </trkpt>
      <trkpt lat="46.79511" lon="5.51406">
        <ele>288</ele>
        <time>2012-11-24T14:44:10.000Z</time>
      </trkpt>
      <trkpt lat="46.79511" lon="5.51405">
        <ele>287.8</ele>
        <time>2012-11-24T14:44:11.000Z</time>
      </trkpt>
      <trkpt lat="46.79512" lon="5.51399">
        <ele>287.1</ele>
        <time>2012-11-24T14:44:17.000Z</time>
      </trkpt>
      <trkpt lat="46.79512" lon="5.51398">
        <ele>287.3</ele>
        <time>2012-11-24T14:44:18.000Z</time>
      </trkpt>
      <trkpt lat="46.79511" lon="5.51392">
        <ele>287.3</ele>
        <time>2012-11-24T14:44:22.000Z</time>
      </trkpt>
      <trkpt lat="46.79512" lon="5.51391">
        <ele>287.4</ele>
        <time>2012-11-24T14:44:23.000Z</time>
      </trkpt>
      <trkpt lat="46.79512" lon="5.51385">
        <ele>286.9</ele>
        <time>2012-11-24T14:44:27.000Z</time>
      </trkpt>
      <trkpt lat="46.79512" lon="5.51384">
        <ele>286.9</ele>
        <time>2012-11-24T14:44:28.000Z</time>
      </trkpt>
      <trkpt lat="46.79511" lon="5.51378">
        <ele>286.2</ele>
        <time>2012-11-24T14:44:32.000Z</time>
      </trkpt>
      <trkpt lat="46.7951" lon="5.51377">
        <ele>285.8</ele>
        <time>2012-11-24T14:44:33.000Z</time>
      </trkpt>
      <trkpt lat="46.7951" lon="5.51371">
        <ele>285.9</ele>
        <time>2012-11-24T14:44:37.000Z</time>
      </trkpt>
      <trkpt lat="46.79509" lon="5.5137">
        <ele>286</ele>
        <time>2012-11-24T14:44:38.000Z</time>
      </trkpt>
      <trkpt lat="46.79509" lon="5.51365">
        <ele>286.3</ele>
        <time>2012-11-24T14:44:42.000Z</time>
      </trkpt>
      <trkpt lat="46.79508" lon="5.51363">
        <ele>286.2</ele>
        <time>2012-11-24T14:44:43.000Z</time>
      </trkpt>
      <trkpt lat="46.79509" lon="5.51357">
        <ele>286.6</ele>
        <time>2012-11-24T14:44:48.000Z</time>
      </trkpt>
      <trkpt lat="46.79509" lon="5.51356">
        <ele>286.6</ele>
        <time>2012-11-24T14:44:49.000Z</time>
      </trkpt>
      <trkpt lat="46.79509" lon="5.5135">
        <ele>286.7</ele>
        <time>2012-11-24T14:44:55.000Z</time>
      </trkpt>
      <trkpt lat="46.7951" lon="5.51349">
        <ele>286.7</ele>
        <time>2012-11-24T14:44:56.000Z</time>
      </trkpt>
      <trkpt lat="46.7951" lon="5.51343">
        <ele>285.4</ele>
        <time>2012-11-24T14:45:01.000Z</time>
      </trkpt>
      <trkpt lat="46.79509" lon="5.51341">
        <ele>285.2</ele>
        <time>2012-11-24T14:45:02.000Z</time>
      </trkpt>
      <trkpt lat="46.79507" lon="5.51336">
        <ele>284.9</ele>
        <time>2012-11-24T14:45:05.000Z</time>
      </trkpt>
      <trkpt lat="46.79506" lon="5.51335">
        <ele>284.9</ele>
        <time>2012-11-24T14:45:06.000Z</time>
      </trkpt>
      <trkpt lat="46.79505" lon="5.51329">
        <ele>284.7</ele>
        <time>2012-11-24T14:45:10.000Z</time>
      </trkpt>
      <trkpt lat="46.79505" lon="5.51327">
        <ele>284.6</ele>
        <time>2012-11-24T14:45:11.000Z</time>
      </trkpt>
      <trkpt lat="46.79504" lon="5.51322">
        <ele>284.8</ele>
        <time>2012-11-24T14:45:15.000Z</time>
      </trkpt>
      <trkpt lat="46.79504" lon="5.51321">
        <ele>284.9</ele>
        <time>2012-11-24T14:45:16.000Z</time>
      </trkpt>
      <trkpt lat="46.79502" lon="5.51315">
        <ele>286</ele>
        <time>2012-11-24T14:45:21.000Z</time>
      </trkpt>
      <trkpt lat="46.79502" lon="5.51313">
        <ele>286</ele>
        <time>2012-11-24T14:45:22.000Z</time>
      </trkpt>
      <trkpt lat="46.795" lon="5.51308">
        <ele>284.8</ele>
        <time>2012-11-24T14:45:28.000Z</time>
      </trkpt>
      <trkpt lat="46.79499" lon="5.51307">
        <ele>284.6</ele>
        <time>2012-11-24T14:45:29.000Z</time>
      </trkpt>
      <trkpt lat="46.79497" lon="5.51302">
        <ele>284.6</ele>
        <time>2012-11-24T14:45:33.000Z</time>
      </trkpt>
      <trkpt lat="46.79497" lon="5.51301">
        <ele>284.4</ele>
        <time>2012-11-24T14:45:34.000Z</time>
      </trkpt>
      <trkpt lat="46.79495" lon="5.51297">
        <ele>283.7</ele>
        <time>2012-11-24T14:45:37.000Z</time>
      </trkpt>
      <trkpt lat="46.79493" lon="5.51296">
        <ele>283.7</ele>
        <time>2012-11-24T14:45:38.000Z</time>
      </trkpt>
      <trkpt lat="46.7949" lon="5.51292">
        <ele>284</ele>
        <time>2012-11-24T14:45:41.000Z</time>
      </trkpt>
      <trkpt lat="46.79489" lon="5.51291">
        <ele>283.8</ele>
        <time>2012-11-24T14:45:42.000Z</time>
      </trkpt>
      <trkpt lat="46.79487" lon="5.51287">
        <ele>283.4</ele>
        <time>2012-11-24T14:45:45.000Z</time>
      </trkpt>
      <trkpt lat="46.79485" lon="5.51286">
        <ele>283.4</ele>
        <time>2012-11-24T14:45:46.000Z</time>
      </trkpt>
      <trkpt lat="46.79482" lon="5.51283">
        <ele>283.5</ele>
        <time>2012-11-24T14:45:49.000Z</time>
      </trkpt>
      <trkpt lat="46.79481" lon="5.51282">
        <ele>283.5</ele>
        <time>2012-11-24T14:45:50.000Z</time>
      </trkpt>
      <trkpt lat="46.79477" lon="5.51281">
        <ele>283.8</ele>
        <time>2012-11-24T14:45:54.000Z</time>
      </trkpt>
      <trkpt lat="46.79476" lon="5.51281">
        <ele>284.1</ele>
        <time>2012-11-24T14:45:55.000Z</time>
      </trkpt>
      <trkpt lat="46.79472" lon="5.51279">
        <ele>284.5</ele>
        <time>2012-11-24T14:45:59.000Z</time>
      </trkpt>
      <trkpt lat="46.79471" lon="5.5128">
        <ele>284.6</ele>
        <time>2012-11-24T14:46:00.000Z</time>
      </trkpt>
      <trkpt lat="46.79467" lon="5.51279">
        <ele>285.4</ele>
        <time>2012-11-24T14:46:05.000Z</time>
      </trkpt>
      <trkpt lat="46.79466" lon="5.51279">
        <ele>285.6</ele>
        <time>2012-11-24T14:46:06.000Z</time>
      </trkpt>
      <trkpt lat="46.79462" lon="5.51279">
        <ele>286.3</ele>
        <time>2012-11-24T14:46:10.000Z</time>
      </trkpt>
      <trkpt lat="46.7946" lon="5.51278">
        <ele>285.8</ele>
        <time>2012-11-24T14:46:11.000Z</time>
      </trkpt>
      <trkpt lat="46.79456" lon="5.51276">
        <ele>285.7</ele>
        <time>2012-11-24T14:46:14.000Z</time>
      </trkpt>
      <trkpt lat="46.79455" lon="5.51275">
        <ele>285.8</ele>
        <time>2012-11-24T14:46:15.000Z</time>
      </trkpt>
      <trkpt lat="46.79456" lon="5.5127">
        <ele>285.2</ele>
        <time>2012-11-24T14:46:31.000Z</time>
      </trkpt>
      <trkpt lat="46.79457" lon="5.51269">
        <ele>285</ele>
        <time>2012-11-24T14:46:32.000Z</time>
      </trkpt>
      <trkpt lat="46.79459" lon="5.51264">
        <ele>287.1</ele>
        <time>2012-11-24T14:46:49.000Z</time>
      </trkpt>
      <trkpt lat="46.79459" lon="5.51262">
        <ele>287.4</ele>
        <time>2012-11-24T14:46:50.000Z</time>
      </trkpt>
      <trkpt lat="46.79455" lon="5.51259">
        <ele>286.5</ele>
        <time>2012-11-24T14:46:57.000Z</time>
      </trkpt>
      <trkpt lat="46.79454" lon="5.5126">
        <ele>286.4</ele>
        <time>2012-11-24T14:46:58.000Z</time>
      </trkpt>
      <trkpt lat="46.7945" lon="5.5126">
        <ele>286.5</ele>
        <time>2012-11-24T14:47:02.000Z</time>
      </trkpt>
      <trkpt lat="46.79449" lon="5.5126">
        <ele>286.5</ele>
        <time>2012-11-24T14:47:03.000Z</time>
      </trkpt>
      <trkpt lat="46.79444" lon="5.51261">
        <ele>286.8</ele>
        <time>2012-11-24T14:47:07.000Z</time>
      </trkpt>
      <trkpt lat="46.79443" lon="5.51261">
        <ele>286.5</ele>
        <time>2012-11-24T14:47:08.000Z</time>
      </trkpt>
      <trkpt lat="46.79439" lon="5.51262">
        <ele>286.8</ele>
        <time>2012-11-24T14:47:12.000Z</time>
      </trkpt>
      <trkpt lat="46.79438" lon="5.51262">
        <ele>287</ele>
        <time>2012-11-24T14:47:13.000Z</time>
      </trkpt>
      <trkpt lat="46.79435" lon="5.51265">
        <ele>287.1</ele>
        <time>2012-11-24T14:47:19.000Z</time>
      </trkpt>
      <trkpt lat="46.79434" lon="5.51265">
        <ele>287.4</ele>
        <time>2012-11-24T14:47:20.000Z</time>
      </trkpt>
      <trkpt lat="46.7943" lon="5.51266">
        <ele>287.8</ele>
        <time>2012-11-24T14:47:24.000Z</time>
      </trkpt>
      <trkpt lat="46.79429" lon="5.51266">
        <ele>288</ele>
        <time>2012-11-24T14:47:25.000Z</time>
      </trkpt>
      <trkpt lat="46.79426" lon="5.51265">
        <ele>288.6</ele>
        <time>2012-11-24T14:47:28.000Z</time>
      </trkpt>
      <trkpt lat="46.79425" lon="5.51264">
        <ele>289.1</ele>
        <time>2012-11-24T14:47:29.000Z</time>
      </trkpt>
      <trkpt lat="46.79422" lon="5.51261">
        <ele>289.7</ele>
        <time>2012-11-24T14:47:32.000Z</time>
      </trkpt>
      <trkpt lat="46.79421" lon="5.5126">
        <ele>290</ele>
        <time>2012-11-24T14:47:33.000Z</time>
      </trkpt>
      <trkpt lat="46.79417" lon="5.51258">
        <ele>289</ele>
        <time>2012-11-24T14:47:38.000Z</time>
      </trkpt>
      <trkpt lat="46.79416" lon="5.51258">
        <ele>288.9</ele>
        <time>2012-11-24T14:47:39.000Z</time>
      </trkpt>
      <trkpt lat="46.79412" lon="5.51258">
        <ele>289.4</ele>
        <time>2012-11-24T14:47:44.000Z</time>
      </trkpt>
      <trkpt lat="46.79411" lon="5.51259">
        <ele>289.5</ele>
        <time>2012-11-24T14:47:45.000Z</time>
      </trkpt>
      <trkpt lat="46.79407" lon="5.5126">
        <ele>289.6</ele>
        <time>2012-11-24T14:47:49.000Z</time>
      </trkpt>
      <trkpt lat="46.79407" lon="5.5126">
        <ele>289.7</ele>
        <time>2012-11-24T14:47:50.000Z</time>
      </trkpt>
      <trkpt lat="46.79403" lon="5.51258">
        <ele>290.1</ele>
        <time>2012-11-24T14:47:54.000Z</time>
      </trkpt>
      <trkpt lat="46.79402" lon="5.51258">
        <ele>290</ele>
        <time>2012-11-24T14:47:55.000Z</time>
      </trkpt>
      <trkpt lat="46.79398" lon="5.51257">
        <ele>290.5</ele>
        <time>2012-11-24T14:48:00.000Z</time>
      </trkpt>
      <trkpt lat="46.79397" lon="5.51258">
        <ele>290.2</ele>
        <time>2012-11-24T14:48:01.000Z</time>
      </trkpt>
      <trkpt lat="46.79395" lon="5.51261">
        <ele>289.7</ele>
        <time>2012-11-24T14:48:04.000Z</time>
      </trkpt>
      <trkpt lat="46.79394" lon="5.51262">
        <ele>289.8</ele>
        <time>2012-11-24T14:48:05.000Z</time>
      </trkpt>
      <trkpt lat="46.79391" lon="5.51266">
        <ele>290.2</ele>
        <time>2012-11-24T14:48:08.000Z</time>
      </trkpt>
      <trkpt lat="46.7939" lon="5.51267">
        <ele>290.7</ele>
        <time>2012-11-24T14:48:09.000Z</time>
      </trkpt>
      <trkpt lat="46.79386" lon="5.51269">
        <ele>290.3</ele>
        <time>2012-11-24T14:48:13.000Z</time>
      </trkpt>
      <trkpt lat="46.79385" lon="5.51269">
        <ele>290</ele>
        <time>2012-11-24T14:48:14.000Z</time>
      </trkpt>
      <trkpt lat="46.79383" lon="5.51274">
        <ele>289.7</ele>
        <time>2012-11-24T14:48:18.000Z</time>
      </trkpt>
      <trkpt lat="46.79383" lon="5.51276">
        <ele>289.5</ele>
        <time>2012-11-24T14:48:19.000Z</time>
      </trkpt>
      <trkpt lat="46.79382" lon="5.51281">
        <ele>289.6</ele>
        <time>2012-11-24T14:48:23.000Z</time>
      </trkpt>
      <trkpt lat="46.79382" lon="5.51283">
        <ele>289.5</ele>
        <time>2012-11-24T14:48:24.000Z</time>
      </trkpt>
      <trkpt lat="46.79385" lon="5.51287">
        <ele>289.8</ele>
        <time>2012-11-24T14:48:40.000Z</time>
      </trkpt>
      <trkpt lat="46.79385" lon="5.51288">
        <ele>288.7</ele>
        <time>2012-11-24T14:48:41.000Z</time>
      </trkpt>
      <trkpt lat="46.79385" lon="5.51293">
        <ele>289.8</ele>
        <time>2012-11-24T14:48:48.000Z</time>
      </trkpt>
      <trkpt lat="46.79386" lon="5.51294">
        <ele>289.6</ele>
        <time>2012-11-24T14:48:49.000Z</time>
      </trkpt>
      <trkpt lat="46.79384" lon="5.51299">
        <ele>289.1</ele>
        <time>2012-11-24T14:48:53.000Z</time>
      </trkpt>
      <trkpt lat="46.79383" lon="5.51301">
        <ele>287.8</ele>
        <time>2012-11-24T14:48:54.000Z</time>
      </trkpt>
      <trkpt lat="46.79381" lon="5.51305">
        <ele>287.7</ele>
        <time>2012-11-24T14:48:57.000Z</time>
      </trkpt>
      <trkpt lat="46.7938" lon="5.51306">
        <ele>287.9</ele>
        <time>2012-11-24T14:48:58.000Z</time>
      </trkpt>
      <trkpt lat="46.79377" lon="5.51311">
        <ele>287.4</ele>
        <time>2012-11-24T14:49:03.000Z</time>
      </trkpt>
      <trkpt lat="46.79376" lon="5.51312">
        <ele>287.5</ele>
        <time>2012-11-24T14:49:04.000Z</time>
      </trkpt>
      <trkpt lat="46.79373" lon="5.51316">
        <ele>288.5</ele>
        <time>2012-11-24T14:49:10.000Z</time>
      </trkpt>
      <trkpt lat="46.79373" lon="5.51316">
        <ele>288.6</ele>
        <time>2012-11-24T14:49:11.000Z</time>
      </trkpt>
      <trkpt lat="46.79369" lon="5.51315">
        <ele>286.9</ele>
        <time>2012-11-24T14:49:29.000Z</time>
      </trkpt>
      <trkpt lat="46.79369" lon="5.51315">
        <ele>287</ele>
        <time>2012-11-24T14:49:30.000Z</time>
      </trkpt>
      <trkpt lat="46.79364" lon="5.51315">
        <ele>286.1</ele>
        <time>2012-11-24T14:49:37.000Z</time>
      </trkpt>
      <trkpt lat="46.79364" lon="5.51315">
        <ele>286.3</ele>
        <time>2012-11-24T14:49:38.000Z</time>
      </trkpt>
      <trkpt lat="46.7936" lon="5.51312">
        <ele>286.1</ele>
        <time>2012-11-24T14:49:43.000Z</time>
      </trkpt>
      <trkpt lat="46.79359" lon="5.51311">
        <ele>286.1</ele>
        <time>2012-11-24T14:49:44.000Z</time>
      </trkpt>
      <trkpt lat="46.79356" lon="5.51307">
        <ele>285.7</ele>
        <time>2012-11-24T14:49:48.000Z</time>
      </trkpt>
      <trkpt lat="46.79355" lon="5.51306">
        <ele>285.7</ele>
        <time>2012-11-24T14:49:49.000Z</time>
      </trkpt>
      <trkpt lat="46.7935" lon="5.51305">
        <ele>286</ele>
        <time>2012-11-24T14:49:54.000Z</time>
      </trkpt>
      <trkpt lat="46.7935" lon="5.51305">
        <ele>285.9</ele>
        <time>2012-11-24T14:49:55.000Z</time>
      </trkpt>
      <trkpt lat="46.79346" lon="5.51303">
        <ele>286</ele>
        <time>2012-11-24T14:50:02.000Z</time>
      </trkpt>
      <trkpt lat="46.79345" lon="5.51302">
        <ele>286.5</ele>
        <time>2012-11-24T14:50:03.000Z</time>
      </trkpt>
      <trkpt lat="46.79345" lon="5.51297">
        <ele>285.6</ele>
        <time>2012-11-24T14:50:17.000Z</time>
      </trkpt>
      <trkpt lat="46.79344" lon="5.51295">
        <ele>285.2</ele>
        <time>2012-11-24T14:50:18.000Z</time>
      </trkpt>
      <trkpt lat="46.79342" lon="5.51291">
        <ele>284.8</ele>
        <time>2012-11-24T14:50:21.000Z</time>
      </trkpt>
      <trkpt lat="46.7934" lon="5.51278">
        <ele>272.9</ele>
        <time>2012-11-24T14:50:30.000Z</time>
      </trkpt>
      <trkpt lat="46.79336" lon="5.51279">
        <ele>275.4</ele>
        <time>2012-11-24T14:50:42.000Z</time>
      </trkpt>
      <trkpt lat="46.79335" lon="5.51277">
        <ele>276.2</ele>
        <time>2012-11-24T14:50:43.000Z</time>
      </trkpt>
      <trkpt lat="46.79332" lon="5.51274">
        <ele>276.6</ele>
        <time>2012-11-24T14:50:48.000Z</time>
      </trkpt>
      <trkpt lat="46.79331" lon="5.51273">
        <ele>276.5</ele>
        <time>2012-11-24T14:50:49.000Z</time>
      </trkpt>
      <trkpt lat="46.79328" lon="5.5127">
        <ele>277</ele>
        <time>2012-11-24T14:50:53.000Z</time>
      </trkpt>
      <trkpt lat="46.79327" lon="5.51269">
        <ele>277.1</ele>
        <time>2012-11-24T14:50:54.000Z</time>
      </trkpt>
      <trkpt lat="46.79324" lon="5.51266">
        <ele>277.3</ele>
        <time>2012-11-24T14:50:58.000Z</time>
      </trkpt>
      <trkpt lat="46.79323" lon="5.51265">
        <ele>277.1</ele>
        <time>2012-11-24T14:50:59.000Z</time>
      </trkpt>
      <trkpt lat="46.7932" lon="5.51262">
        <ele>277.9</ele>
        <time>2012-11-24T14:51:03.000Z</time>
      </trkpt>
      <trkpt lat="46.79319" lon="5.51261">
        <ele>278.2</ele>
        <time>2012-11-24T14:51:04.000Z</time>
      </trkpt>
      <trkpt lat="46.79316" lon="5.51258">
        <ele>279.9</ele>
        <time>2012-11-24T14:51:16.000Z</time>
      </trkpt>
      <trkpt lat="46.79315" lon="5.51257">
        <ele>280.2</ele>
        <time>2012-11-24T14:51:17.000Z</time>
      </trkpt>
      <trkpt lat="46.79311" lon="5.51254">
        <ele>280.7</ele>
        <time>2012-11-24T14:51:20.000Z</time>
      </trkpt>
      <trkpt lat="46.7931" lon="5.51252">
        <ele>280.9</ele>
        <time>2012-11-24T14:51:21.000Z</time>
      </trkpt>
      <trkpt lat="46.79306" lon="5.51249">
        <ele>282</ele>
        <time>2012-11-24T14:51:24.000Z</time>
      </trkpt>
      <trkpt lat="46.79305" lon="5.51249">
        <ele>282.2</ele>
        <time>2012-11-24T14:51:25.000Z</time>
      </trkpt>
      <trkpt lat="46.79301" lon="5.51247">
        <ele>283.5</ele>
        <time>2012-11-24T14:51:29.000Z</time>
      </trkpt>
      <trkpt lat="46.79299" lon="5.51248">
        <ele>283.8</ele>
        <time>2012-11-24T14:51:30.000Z</time>
      </trkpt>
      <trkpt lat="46.79295" lon="5.51249">
        <ele>284.3</ele>
        <time>2012-11-24T14:51:33.000Z</time>
      </trkpt>
      <trkpt lat="46.79294" lon="5.51249">
        <ele>284.5</ele>
        <time>2012-11-24T14:51:34.000Z</time>
      </trkpt>
      <trkpt lat="46.79289" lon="5.51249">
        <ele>286</ele>
        <time>2012-11-24T14:51:37.000Z</time>
      </trkpt>
      <trkpt lat="46.79288" lon="5.51249">
        <ele>286.5</ele>
        <time>2012-11-24T14:51:38.000Z</time>
      </trkpt>
      <trkpt lat="46.79284" lon="5.51251">
        <ele>287.8</ele>
        <time>2012-11-24T14:51:41.000Z</time>
      </trkpt>
      <trkpt lat="46.79283" lon="5.51252">
        <ele>288.4</ele>
        <time>2012-11-24T14:51:42.000Z</time>
      </trkpt>
      <trkpt lat="46.79279" lon="5.51254">
        <ele>289.4</ele>
        <time>2012-11-24T14:51:45.000Z</time>
      </trkpt>
      <trkpt lat="46.79278" lon="5.51254">
        <ele>289.3</ele>
        <time>2012-11-24T14:51:46.000Z</time>
      </trkpt>
      <trkpt lat="46.79274" lon="5.51255">
        <ele>287.6</ele>
        <time>2012-11-24T14:51:50.000Z</time>
      </trkpt>
      <trkpt lat="46.79273" lon="5.51256">
        <ele>287</ele>
        <time>2012-11-24T14:51:51.000Z</time>
      </trkpt>
      <trkpt lat="46.7927" lon="5.5126">
        <ele>286.6</ele>
        <time>2012-11-24T14:51:54.000Z</time>
      </trkpt>
      <trkpt lat="46.79269" lon="5.5126">
        <ele>286.6</ele>
        <time>2012-11-24T14:51:55.000Z</time>
      </trkpt>
      <trkpt lat="46.79267" lon="5.51266">
        <ele>283.3</ele>
        <time>2012-11-24T14:52:11.000Z</time>
      </trkpt>
      <trkpt lat="46.79267" lon="5.51267">
        <ele>282</ele>
        <time>2012-11-24T14:52:12.000Z</time>
      </trkpt>
      <trkpt lat="46.79265" lon="5.51271">
        <ele>281.8</ele>
        <time>2012-11-24T14:52:15.000Z</time>
      </trkpt>
      <trkpt lat="46.79263" lon="5.51272">
        <ele>281.8</ele>
        <time>2012-11-24T14:52:16.000Z</time>
      </trkpt>
      <trkpt lat="46.7926" lon="5.51274">
        <ele>281.3</ele>
        <time>2012-11-24T14:52:19.000Z</time>
      </trkpt>
      <trkpt lat="46.79258" lon="5.51275">
        <ele>281.3</ele>
        <time>2012-11-24T14:52:20.000Z</time>
      </trkpt>
      <trkpt lat="46.79254" lon="5.51275">
        <ele>282.1</ele>
        <time>2012-11-24T14:52:24.000Z</time>
      </trkpt>
      <trkpt lat="46.79253" lon="5.51276">
        <ele>282.3</ele>
        <time>2012-11-24T14:52:25.000Z</time>
      </trkpt>
      <trkpt lat="46.79249" lon="5.51276">
        <ele>282.8</ele>
        <time>2012-11-24T14:52:29.000Z</time>
      </trkpt>
      <trkpt lat="46.79248" lon="5.51275">
        <ele>282.8</ele>
        <time>2012-11-24T14:52:30.000Z</time>
      </trkpt>
      <trkpt lat="46.79244" lon="5.51272">
        <ele>283.5</ele>
        <time>2012-11-24T14:52:35.000Z</time>
      </trkpt>
      <trkpt lat="46.79244" lon="5.51272">
        <ele>283.6</ele>
        <time>2012-11-24T14:52:36.000Z</time>
      </trkpt>
      <trkpt lat="46.7924" lon="5.51269">
        <ele>283.7</ele>
        <time>2012-11-24T14:52:40.000Z</time>
      </trkpt>
      <trkpt lat="46.7924" lon="5.51268">
        <ele>283.7</ele>
        <time>2012-11-24T14:52:41.000Z</time>
      </trkpt>
      <trkpt lat="46.79237" lon="5.51263">
        <ele>283.6</ele>
        <time>2012-11-24T14:52:46.000Z</time>
      </trkpt>
      <trkpt lat="46.79237" lon="5.51262">
        <ele>283.6</ele>
        <time>2012-11-24T14:52:47.000Z</time>
      </trkpt>
      <trkpt lat="46.79234" lon="5.51257">
        <ele>283.7</ele>
        <time>2012-11-24T14:52:52.000Z</time>
      </trkpt>
      <trkpt lat="46.79234" lon="5.51257">
        <ele>283.8</ele>
        <time>2012-11-24T14:52:53.000Z</time>
      </trkpt>
      <trkpt lat="46.79232" lon="5.51252">
        <ele>283.5</ele>
        <time>2012-11-24T14:52:57.000Z</time>
      </trkpt>
      <trkpt lat="46.79231" lon="5.51251">
        <ele>283.4</ele>
        <time>2012-11-24T14:52:58.000Z</time>
      </trkpt>
      <trkpt lat="46.79234" lon="5.51255">
        <ele>283.9</ele>
        <time>2012-11-24T14:55:17.000Z</time>
      </trkpt>
      <trkpt lat="46.79234" lon="5.51257">
        <ele>284</ele>
        <time>2012-11-24T14:55:18.000Z</time>
      </trkpt>
      <trkpt lat="46.79232" lon="5.51263">
        <ele>284.5</ele>
        <time>2012-11-24T14:55:22.000Z</time>
      </trkpt>
      <trkpt lat="46.79232" lon="5.51264">
        <ele>284.6</ele>
        <time>2012-11-24T14:55:23.000Z</time>
      </trkpt>
      <trkpt lat="46.79229" lon="5.51269">
        <ele>285.5</ele>
        <time>2012-11-24T14:55:29.000Z</time>
      </trkpt>
      <trkpt lat="46.79229" lon="5.5127">
        <ele>285.7</ele>
        <time>2012-11-24T14:55:30.000Z</time>
      </trkpt>
      <trkpt lat="46.79227" lon="5.51275">
        <ele>286.3</ele>
        <time>2012-11-24T14:55:35.000Z</time>
      </trkpt>
      <trkpt lat="46.79226" lon="5.51276">
        <ele>286.5</ele>
        <time>2012-11-24T14:55:36.000Z</time>
      </trkpt>
      <trkpt lat="46.79224" lon="5.51281">
        <ele>286.8</ele>
        <time>2012-11-24T14:55:41.000Z</time>
      </trkpt>
      <trkpt lat="46.79223" lon="5.51282">
        <ele>287.1</ele>
        <time>2012-11-24T14:55:42.000Z</time>
      </trkpt>
      <trkpt lat="46.79222" lon="5.51288">
        <ele>287.4</ele>
        <time>2012-11-24T14:55:47.000Z</time>
      </trkpt>
      <trkpt lat="46.79222" lon="5.51289">
        <ele>287.4</ele>
        <time>2012-11-24T14:55:48.000Z</time>
      </trkpt>
      <trkpt lat="46.79221" lon="5.51294">
        <ele>287.1</ele>
        <time>2012-11-24T14:55:52.000Z</time>
      </trkpt>
      <trkpt lat="46.7922" lon="5.51295">
        <ele>287.1</ele>
        <time>2012-11-24T14:55:53.000Z</time>
      </trkpt>
      <trkpt lat="46.79219" lon="5.51301">
        <ele>287.2</ele>
        <time>2012-11-24T14:55:58.000Z</time>
      </trkpt>
      <trkpt lat="46.79218" lon="5.51303">
        <ele>287.1</ele>
        <time>2012-11-24T14:55:59.000Z</time>
      </trkpt>
      <trkpt lat="46.79217" lon="5.51307">
        <ele>287</ele>
        <time>2012-11-24T14:56:02.000Z</time>
      </trkpt>
      <trkpt lat="46.79217" lon="5.51309">
        <ele>287.1</ele>
        <time>2012-11-24T14:56:03.000Z</time>
      </trkpt>
      <trkpt lat="46.79216" lon="5.51315">
        <ele>287.1</ele>
        <time>2012-11-24T14:56:06.000Z</time>
      </trkpt>
      <trkpt lat="46.79215" lon="5.51317">
        <ele>287.2</ele>
        <time>2012-11-24T14:56:07.000Z</time>
      </trkpt>
      <trkpt lat="46.79214" lon="5.51322">
        <ele>287.3</ele>
        <time>2012-11-24T14:56:10.000Z</time>
      </trkpt>
      <trkpt lat="46.79213" lon="5.51324">
        <ele>287.2</ele>
        <time>2012-11-24T14:56:11.000Z</time>
      </trkpt>
      <trkpt lat="46.79211" lon="5.5133">
        <ele>287.5</ele>
        <time>2012-11-24T14:56:14.000Z</time>
      </trkpt>
      <trkpt lat="46.79211" lon="5.51332">
        <ele>287.4</ele>
        <time>2012-11-24T14:56:15.000Z</time>
      </trkpt>
      <trkpt lat="46.79209" lon="5.51337">
        <ele>287.4</ele>
        <time>2012-11-24T14:56:18.000Z</time>
      </trkpt>
      <trkpt lat="46.79209" lon="5.51338">
        <ele>287.3</ele>
        <time>2012-11-24T14:56:19.000Z</time>
      </trkpt>
      <trkpt lat="46.79208" lon="5.51343">
        <ele>287.7</ele>
        <time>2012-11-24T14:56:22.000Z</time>
      </trkpt>
      <trkpt lat="46.79208" lon="5.51345">
        <ele>287.7</ele>
        <time>2012-11-24T14:56:23.000Z</time>
      </trkpt>
      <trkpt lat="46.79209" lon="5.51351">
        <ele>287.9</ele>
        <time>2012-11-24T14:56:26.000Z</time>
      </trkpt>
      <trkpt lat="46.79208" lon="5.51352">
        <ele>287.8</ele>
        <time>2012-11-24T14:56:27.000Z</time>
      </trkpt>
      <trkpt lat="46.79205" lon="5.51356">
        <ele>287.5</ele>
        <time>2012-11-24T14:56:31.000Z</time>
      </trkpt>
      <trkpt lat="46.79204" lon="5.51357">
        <ele>287.4</ele>
        <time>2012-11-24T14:56:32.000Z</time>
      </trkpt>
      <trkpt lat="46.79203" lon="5.51362">
        <ele>287</ele>
        <time>2012-11-24T14:56:35.000Z</time>
      </trkpt>
      <trkpt lat="46.79202" lon="5.51363">
        <ele>286.9</ele>
        <time>2012-11-24T14:56:36.000Z</time>
      </trkpt>
      <trkpt lat="46.79202" lon="5.51369">
        <ele>286.8</ele>
        <time>2012-11-24T14:56:39.000Z</time>
      </trkpt>
      <trkpt lat="46.79201" lon="5.5137">
        <ele>286.7</ele>
        <time>2012-11-24T14:56:40.000Z</time>
      </trkpt>
      <trkpt lat="46.792" lon="5.51375">
        <ele>285.6</ele>
        <time>2012-11-24T14:56:43.000Z</time>
      </trkpt>
      <trkpt lat="46.79199" lon="5.51376">
        <ele>285.7</ele>
        <time>2012-11-24T14:56:44.000Z</time>
      </trkpt>
      <trkpt lat="46.792" lon="5.51382">
        <ele>285.7</ele>
        <time>2012-11-24T14:56:46.000Z</time>
      </trkpt>
      <trkpt lat="46.792" lon="5.51384">
        <ele>285.7</ele>
        <time>2012-11-24T14:56:47.000Z</time>
      </trkpt>
      <trkpt lat="46.79198" lon="5.51389">
        <ele>285.5</ele>
        <time>2012-11-24T14:56:49.000Z</time>
      </trkpt>
      <trkpt lat="46.79198" lon="5.51391">
        <ele>285.5</ele>
        <time>2012-11-24T14:56:50.000Z</time>
      </trkpt>
      <trkpt lat="46.79196" lon="5.51395">
        <ele>284.8</ele>
        <time>2012-11-24T14:56:52.000Z</time>
      </trkpt>
      <trkpt lat="46.79196" lon="5.51397">
        <ele>284.3</ele>
        <time>2012-11-24T14:56:53.000Z</time>
      </trkpt>
      <trkpt lat="46.79195" lon="5.51402">
        <ele>283.8</ele>
        <time>2012-11-24T14:56:55.000Z</time>
      </trkpt>
      <trkpt lat="46.79194" lon="5.51405">
        <ele>283.6</ele>
        <time>2012-11-24T14:56:56.000Z</time>
      </trkpt>
      <trkpt lat="46.79193" lon="5.51411">
        <ele>280.8</ele>
        <time>2012-11-24T14:56:58.000Z</time>
      </trkpt>
      <trkpt lat="46.79193" lon="5.51414">
        <ele>280.4</ele>
        <time>2012-11-24T14:56:59.000Z</time>
      </trkpt>
      <trkpt lat="46.79192" lon="5.51419">
        <ele>279.4</ele>
        <time>2012-11-24T14:57:01.000Z</time>
      </trkpt>
      <trkpt lat="46.79191" lon="5.51421">
        <ele>278.5</ele>
        <time>2012-11-24T14:57:02.000Z</time>
      </trkpt>
      <trkpt lat="46.7919" lon="5.51427">
        <ele>277.3</ele>
        <time>2012-11-24T14:57:05.000Z</time>
      </trkpt>
      <trkpt lat="46.7919" lon="5.51428">
        <ele>277</ele>
        <time>2012-11-24T14:57:06.000Z</time>
      </trkpt>
      <trkpt lat="46.79186" lon="5.51429">
        <ele>276.7</ele>
        <time>2012-11-24T14:57:10.000Z</time>
      </trkpt>
      <trkpt lat="46.79184" lon="5.51429">
        <ele>276.8</ele>
        <time>2012-11-24T14:57:11.000Z</time>
      </trkpt>
      <trkpt lat="46.7918" lon="5.51429">
        <ele>275.9</ele>
        <time>2012-11-24T14:57:14.000Z</time>
      </trkpt>
      <trkpt lat="46.79179" lon="5.51429">
        <ele>276.3</ele>
        <time>2012-11-24T14:57:15.000Z</time>
      </trkpt>
      <trkpt lat="46.79175" lon="5.51429">
        <ele>276.5</ele>
        <time>2012-11-24T14:57:17.000Z</time>
      </trkpt>
      <trkpt lat="46.79173" lon="5.51429">
        <ele>276.4</ele>
        <time>2012-11-24T14:57:18.000Z</time>
      </trkpt>
      <trkpt lat="46.7917" lon="5.51428">
        <ele>276.6</ele>
        <time>2012-11-24T14:57:20.000Z</time>
      </trkpt>
      <trkpt lat="46.79168" lon="5.51428">
        <ele>276.6</ele>
        <time>2012-11-24T14:57:21.000Z</time>
      </trkpt>
      <trkpt lat="46.79164" lon="5.51427">
        <ele>276.5</ele>
        <time>2012-11-24T14:57:24.000Z</time>
      </trkpt>
      <trkpt lat="46.79163" lon="5.51426">
        <ele>276.4</ele>
        <time>2012-11-24T14:57:25.000Z</time>
      </trkpt>
      <trkpt lat="46.7916" lon="5.51425">
        <ele>276.3</ele>
        <time>2012-11-24T14:57:28.000Z</time>
      </trkpt>
      <trkpt lat="46.79158" lon="5.51424">
        <ele>276.4</ele>
        <time>2012-11-24T14:57:29.000Z</time>
      </trkpt>
      <trkpt lat="46.79155" lon="5.51424">
        <ele>276.6</ele>
        <time>2012-11-24T14:57:32.000Z</time>
      </trkpt>
      <trkpt lat="46.79154" lon="5.51423">
        <ele>276.7</ele>
        <time>2012-11-24T14:57:33.000Z</time>
      </trkpt>
      <trkpt lat="46.7915" lon="5.51422">
        <ele>277</ele>
        <time>2012-11-24T14:57:36.000Z</time>
      </trkpt>
      <trkpt lat="46.79149" lon="5.51421">
        <ele>276.8</ele>
        <time>2012-11-24T14:57:37.000Z</time>
      </trkpt>
      <trkpt lat="46.79146" lon="5.51419">
        <ele>277</ele>
        <time>2012-11-24T14:57:40.000Z</time>
      </trkpt>
      <trkpt lat="46.79145" lon="5.51418">
        <ele>276.8</ele>
        <time>2012-11-24T14:57:41.000Z</time>
      </trkpt>
      <trkpt lat="46.79141" lon="5.51416">
        <ele>276.4</ele>
        <time>2012-11-24T14:57:44.000Z</time>
      </trkpt>
      <trkpt lat="46.7914" lon="5.51415">
        <ele>276.5</ele>
        <time>2012-11-24T14:57:45.000Z</time>
      </trkpt>
      <trkpt lat="46.79137" lon="5.51413">
        <ele>276.6</ele>
        <time>2012-11-24T14:57:48.000Z</time>
      </trkpt>
      <trkpt lat="46.79136" lon="5.51412">
        <ele>276.7</ele>
        <time>2012-11-24T14:57:49.000Z</time>
      </trkpt>
      <trkpt lat="46.79133" lon="5.51411">
        <ele>276.7</ele>
        <time>2012-11-24T14:57:52.000Z</time>
      </trkpt>
      <trkpt lat="46.79132" lon="5.5141">
        <ele>276.8</ele>
        <time>2012-11-24T14:57:53.000Z</time>
      </trkpt>
      <trkpt lat="46.79128" lon="5.51407">
        <ele>277</ele>
        <time>2012-11-24T14:57:57.000Z</time>
      </trkpt>
      <trkpt lat="46.79127" lon="5.51407">
        <ele>276.9</ele>
        <time>2012-11-24T14:57:58.000Z</time>
      </trkpt>
      <trkpt lat="46.79123" lon="5.51405">
        <ele>276.9</ele>
        <time>2012-11-24T14:58:01.000Z</time>
      </trkpt>
      <trkpt lat="46.79122" lon="5.51405">
        <ele>277</ele>
        <time>2012-11-24T14:58:02.000Z</time>
      </trkpt>
      <trkpt lat="46.79118" lon="5.51402">
        <ele>276.8</ele>
        <time>2012-11-24T14:58:06.000Z</time>
      </trkpt>
      <trkpt lat="46.79117" lon="5.51402">
        <ele>276.8</ele>
        <time>2012-11-24T14:58:07.000Z</time>
      </trkpt>
      <trkpt lat="46.79113" lon="5.51401">
        <ele>276.6</ele>
        <time>2012-11-24T14:58:10.000Z</time>
      </trkpt>
      <trkpt lat="46.79112" lon="5.51401">
        <ele>276.5</ele>
        <time>2012-11-24T14:58:11.000Z</time>
      </trkpt>
      <trkpt lat="46.79108" lon="5.51398">
        <ele>276.8</ele>
        <time>2012-11-24T14:58:14.000Z</time>
      </trkpt>
      <trkpt lat="46.79107" lon="5.51398">
        <ele>276.8</ele>
        <time>2012-11-24T14:58:15.000Z</time>
      </trkpt>
      <trkpt lat="46.79103" lon="5.51396">
        <ele>276.7</ele>
        <time>2012-11-24T14:58:18.000Z</time>
      </trkpt>
      <trkpt lat="46.79102" lon="5.51395">
        <ele>276.7</ele>
        <time>2012-11-24T14:58:19.000Z</time>
      </trkpt>
      <trkpt lat="46.79099" lon="5.51393">
        <ele>276.9</ele>
        <time>2012-11-24T14:58:22.000Z</time>
      </trkpt>
      <trkpt lat="46.79098" lon="5.51392">
        <ele>276.9</ele>
        <time>2012-11-24T14:58:23.000Z</time>
      </trkpt>
      <trkpt lat="46.79094" lon="5.51389">
        <ele>277</ele>
        <time>2012-11-24T14:58:27.000Z</time>
      </trkpt>
      <trkpt lat="46.79093" lon="5.51389">
        <ele>277</ele>
        <time>2012-11-24T14:58:28.000Z</time>
      </trkpt>
      <trkpt lat="46.79089" lon="5.51387">
        <ele>277.3</ele>
        <time>2012-11-24T14:58:32.000Z</time>
      </trkpt>
      <trkpt lat="46.79087" lon="5.51387">
        <ele>277.6</ele>
        <time>2012-11-24T14:58:33.000Z</time>
      </trkpt>
      <trkpt lat="46.79083" lon="5.51389">
        <ele>278</ele>
        <time>2012-11-24T14:58:36.000Z</time>
      </trkpt>
      <trkpt lat="46.79082" lon="5.51389">
        <ele>278.1</ele>
        <time>2012-11-24T14:58:37.000Z</time>
      </trkpt>
      <trkpt lat="46.79078" lon="5.51389">
        <ele>278.3</ele>
        <time>2012-11-24T14:58:41.000Z</time>
      </trkpt>
      <trkpt lat="46.79077" lon="5.51389">
        <ele>278.3</ele>
        <time>2012-11-24T14:58:42.000Z</time>
      </trkpt>
      <trkpt lat="46.79073" lon="5.51391">
        <ele>278</ele>
        <time>2012-11-24T14:58:50.000Z</time>
      </trkpt>
      <trkpt lat="46.79072" lon="5.51392">
        <ele>278</ele>
        <time>2012-11-24T14:58:51.000Z</time>
      </trkpt>
      <trkpt lat="46.79069" lon="5.51394">
        <ele>279</ele>
        <time>2012-11-24T14:58:57.000Z</time>
      </trkpt>
      <trkpt lat="46.79068" lon="5.51395">
        <ele>279.1</ele>
        <time>2012-11-24T14:58:58.000Z</time>
      </trkpt>
      <trkpt lat="46.79065" lon="5.51399">
        <ele>279.4</ele>
        <time>2012-11-24T14:59:02.000Z</time>
      </trkpt>
      <trkpt lat="46.79065" lon="5.51399">
        <ele>279.5</ele>
        <time>2012-11-24T14:59:03.000Z</time>
      </trkpt>
      <trkpt lat="46.79062" lon="5.51404">
        <ele>279.7</ele>
        <time>2012-11-24T14:59:08.000Z</time>
      </trkpt>
      <trkpt lat="46.79062" lon="5.51405">
        <ele>279.7</ele>
        <time>2012-11-24T14:59:09.000Z</time>
      </trkpt>
      <trkpt lat="46.79059" lon="5.51408">
        <ele>279.6</ele>
        <time>2012-11-24T14:59:13.000Z</time>
      </trkpt>
      <trkpt lat="46.79059" lon="5.5141">
        <ele>279.5</ele>
        <time>2012-11-24T14:59:14.000Z</time>
      </trkpt>
      <trkpt lat="46.79057" lon="5.51416">
        <ele>279.4</ele>
        <time>2012-11-24T14:59:18.000Z</time>
      </trkpt>
      <trkpt lat="46.79057" lon="5.51417">
        <ele>279.3</ele>
        <time>2012-11-24T14:59:19.000Z</time>
      </trkpt>
      <trkpt lat="46.79055" lon="5.51422">
        <ele>279</ele>
        <time>2012-11-24T14:59:23.000Z</time>
      </trkpt>
      <trkpt lat="46.79055" lon="5.51423">
        <ele>279.1</ele>
        <time>2012-11-24T14:59:24.000Z</time>
      </trkpt>
      <trkpt lat="46.79054" lon="5.51429">
        <ele>279.8</ele>
        <time>2012-11-24T14:59:28.000Z</time>
      </trkpt>
      <trkpt lat="46.79054" lon="5.5143">
        <ele>279.7</ele>
        <time>2012-11-24T14:59:29.000Z</time>
      </trkpt>
      <trkpt lat="46.79052" lon="5.51436">
        <ele>280</ele>
        <time>2012-11-24T14:59:33.000Z</time>
      </trkpt>
      <trkpt lat="46.79052" lon="5.51437">
        <ele>280</ele>
        <time>2012-11-24T14:59:34.000Z</time>
      </trkpt>
      <trkpt lat="46.79051" lon="5.51442">
        <ele>279.3</ele>
        <time>2012-11-24T14:59:38.000Z</time>
      </trkpt>
      <trkpt lat="46.79051" lon="5.51444">
        <ele>279.3</ele>
        <time>2012-11-24T14:59:39.000Z</time>
      </trkpt>
      <trkpt lat="46.79049" lon="5.51449">
        <ele>280.1</ele>
        <time>2012-11-24T14:59:43.000Z</time>
      </trkpt>
      <trkpt lat="46.79049" lon="5.51451">
        <ele>280.4</ele>
        <time>2012-11-24T14:59:44.000Z</time>
      </trkpt>
      <trkpt lat="46.79046" lon="5.51456">
        <ele>281.6</ele>
        <time>2012-11-24T14:59:48.000Z</time>
      </trkpt>
      <trkpt lat="46.79046" lon="5.51457">
        <ele>281.9</ele>
        <time>2012-11-24T14:59:49.000Z</time>
      </trkpt>
      <trkpt lat="46.79044" lon="5.51462">
        <ele>282.5</ele>
        <time>2012-11-24T14:59:52.000Z</time>
      </trkpt>
      <trkpt lat="46.79044" lon="5.51463">
        <ele>282.7</ele>
        <time>2012-11-24T14:59:53.000Z</time>
      </trkpt>
      <trkpt lat="46.79043" lon="5.51469">
        <ele>283.1</ele>
        <time>2012-11-24T14:59:56.000Z</time>
      </trkpt>
      <trkpt lat="46.79043" lon="5.51471">
        <ele>283.2</ele>
        <time>2012-11-24T14:59:57.000Z</time>
      </trkpt>
      <trkpt lat="46.79042" lon="5.51475">
        <ele>283.5</ele>
        <time>2012-11-24T15:00:00.000Z</time>
      </trkpt>
      <trkpt lat="46.79042" lon="5.51477">
        <ele>283.7</ele>
        <time>2012-11-24T15:00:01.000Z</time>
      </trkpt>
      <trkpt lat="46.7904" lon="5.51482">
        <ele>284.1</ele>
        <time>2012-11-24T15:00:04.000Z</time>
      </trkpt>
      <trkpt lat="46.7904" lon="5.51484">
        <ele>284.6</ele>
        <time>2012-11-24T15:00:05.000Z</time>
      </trkpt>
      <trkpt lat="46.79039" lon="5.51489">
        <ele>284.2</ele>
        <time>2012-11-24T15:00:09.000Z</time>
      </trkpt>
      <trkpt lat="46.79038" lon="5.5149">
        <ele>283.9</ele>
        <time>2012-11-24T15:00:10.000Z</time>
      </trkpt>
      <trkpt lat="46.79035" lon="5.51494">
        <ele>283</ele>
        <time>2012-11-24T15:00:14.000Z</time>
      </trkpt>
      <trkpt lat="46.79035" lon="5.51495">
        <ele>283.1</ele>
        <time>2012-11-24T15:00:15.000Z</time>
      </trkpt>
      <trkpt lat="46.79033" lon="5.51501">
        <ele>282.9</ele>
        <time>2012-11-24T15:00:19.000Z</time>
      </trkpt>
      <trkpt lat="46.79032" lon="5.51503">
        <ele>282.7</ele>
        <time>2012-11-24T15:00:20.000Z</time>
      </trkpt>
      <trkpt lat="46.79032" lon="5.51508">
        <ele>282.9</ele>
        <time>2012-11-24T15:00:23.000Z</time>
      </trkpt>
      <trkpt lat="46.79031" lon="5.5151">
        <ele>283.2</ele>
        <time>2012-11-24T15:00:24.000Z</time>
      </trkpt>
      <trkpt lat="46.7903" lon="5.51516">
        <ele>284</ele>
        <time>2012-11-24T15:00:28.000Z</time>
      </trkpt>
      <trkpt lat="46.79029" lon="5.51517">
        <ele>283.8</ele>
        <time>2012-11-24T15:00:29.000Z</time>
      </trkpt>
      <trkpt lat="46.79027" lon="5.51522">
        <ele>284.2</ele>
        <time>2012-11-24T15:00:33.000Z</time>
      </trkpt>
      <trkpt lat="46.79027" lon="5.51523">
        <ele>284.5</ele>
        <time>2012-11-24T15:00:34.000Z</time>
      </trkpt>
      <trkpt lat="46.79025" lon="5.51528">
        <ele>285.1</ele>
        <time>2012-11-24T15:00:37.000Z</time>
      </trkpt>
      <trkpt lat="46.79025" lon="5.5153">
        <ele>285.5</ele>
        <time>2012-11-24T15:00:38.000Z</time>
      </trkpt>
      <trkpt lat="46.79024" lon="5.51537">
        <ele>286.4</ele>
        <time>2012-11-24T15:00:42.000Z</time>
      </trkpt>
      <trkpt lat="46.79023" lon="5.51538">
        <ele>286.4</ele>
        <time>2012-11-24T15:00:43.000Z</time>
      </trkpt>
      <trkpt lat="46.79023" lon="5.51544">
        <ele>287.6</ele>
        <time>2012-11-24T15:00:47.000Z</time>
      </trkpt>
      <trkpt lat="46.79022" lon="5.51546">
        <ele>287.9</ele>
        <time>2012-11-24T15:00:48.000Z</time>
      </trkpt>
      <trkpt lat="46.79022" lon="5.51551">
        <ele>288.2</ele>
        <time>2012-11-24T15:00:52.000Z</time>
      </trkpt>
      <trkpt lat="46.79022" lon="5.51553">
        <ele>288.2</ele>
        <time>2012-11-24T15:00:53.000Z</time>
      </trkpt>
      <trkpt lat="46.79021" lon="5.51559">
        <ele>287</ele>
        <time>2012-11-24T15:00:57.000Z</time>
      </trkpt>
      <trkpt lat="46.7902" lon="5.5156">
        <ele>287.1</ele>
        <time>2012-11-24T15:00:58.000Z</time>
      </trkpt>
      <trkpt lat="46.79018" lon="5.51566">
        <ele>287.8</ele>
        <time>2012-11-24T15:01:02.000Z</time>
      </trkpt>
      <trkpt lat="46.79018" lon="5.51567">
        <ele>287.7</ele>
        <time>2012-11-24T15:01:03.000Z</time>
      </trkpt>
      <trkpt lat="46.79017" lon="5.51573">
        <ele>287</ele>
        <time>2012-11-24T15:01:06.000Z</time>
      </trkpt>
      <trkpt lat="46.79017" lon="5.51575">
        <ele>287.2</ele>
        <time>2012-11-24T15:01:07.000Z</time>
      </trkpt>
      <trkpt lat="46.79015" lon="5.51579">
        <ele>286.7</ele>
        <time>2012-11-24T15:01:09.000Z</time>
      </trkpt>
      <trkpt lat="46.79015" lon="5.51581">
        <ele>286.5</ele>
        <time>2012-11-24T15:01:10.000Z</time>
      </trkpt>
      <trkpt lat="46.79013" lon="5.51586">
        <ele>285.8</ele>
        <time>2012-11-24T15:01:13.000Z</time>
      </trkpt>
      <trkpt lat="46.79013" lon="5.51588">
        <ele>285.8</ele>
        <time>2012-11-24T15:01:14.000Z</time>
      </trkpt>
      <trkpt lat="46.79013" lon="5.51594">
        <ele>285.5</ele>
        <time>2012-11-24T15:01:20.000Z</time>
      </trkpt>
      <trkpt lat="46.79012" lon="5.51596">
        <ele>285.4</ele>
        <time>2012-11-24T15:01:21.000Z</time>
      </trkpt>
      <trkpt lat="46.79012" lon="5.51602">
        <ele>284.3</ele>
        <time>2012-11-24T15:01:25.000Z</time>
      </trkpt>
      <trkpt lat="46.79012" lon="5.51604">
        <ele>284.6</ele>
        <time>2012-11-24T15:01:26.000Z</time>
      </trkpt>
      <trkpt lat="46.7901" lon="5.51609">
        <ele>285.5</ele>
        <time>2012-11-24T15:01:31.000Z</time>
      </trkpt>
      <trkpt lat="46.7901" lon="5.51611">
        <ele>285.8</ele>
        <time>2012-11-24T15:01:32.000Z</time>
      </trkpt>
      <trkpt lat="46.79009" lon="5.51616">
        <ele>285.7</ele>
        <time>2012-11-24T15:01:35.000Z</time>
      </trkpt>
      <trkpt lat="46.79008" lon="5.51618">
        <ele>285.1</ele>
        <time>2012-11-24T15:01:36.000Z</time>
      </trkpt>
      <trkpt lat="46.79008" lon="5.51624">
        <ele>285.2</ele>
        <time>2012-11-24T15:01:39.000Z</time>
      </trkpt>
      <trkpt lat="46.79007" lon="5.51626">
        <ele>285.2</ele>
        <time>2012-11-24T15:01:40.000Z</time>
      </trkpt>
      <trkpt lat="46.79006" lon="5.51631">
        <ele>284</ele>
        <time>2012-11-24T15:01:43.000Z</time>
      </trkpt>
      <trkpt lat="46.79005" lon="5.51632">
        <ele>284</ele>
        <time>2012-11-24T15:01:44.000Z</time>
      </trkpt>
      <trkpt lat="46.79003" lon="5.51636">
        <ele>283.7</ele>
        <time>2012-11-24T15:01:47.000Z</time>
      </trkpt>
      <trkpt lat="46.79002" lon="5.51638">
        <ele>283.6</ele>
        <time>2012-11-24T15:01:48.000Z</time>
      </trkpt>
      <trkpt lat="46.79" lon="5.51643">
        <ele>283.7</ele>
        <time>2012-11-24T15:01:51.000Z</time>
      </trkpt>
      <trkpt lat="46.79" lon="5.51645">
        <ele>283.7</ele>
        <time>2012-11-24T15:01:52.000Z</time>
      </trkpt>
      <trkpt lat="46.78998" lon="5.5165">
        <ele>283.7</ele>
        <time>2012-11-24T15:01:56.000Z</time>
      </trkpt>
      <trkpt lat="46.78997" lon="5.51651">
        <ele>283.7</ele>
        <time>2012-11-24T15:01:57.000Z</time>
      </trkpt>
      <trkpt lat="46.78995" lon="5.51655">
        <ele>283.8</ele>
        <time>2012-11-24T15:02:00.000Z</time>
      </trkpt>
      <trkpt lat="46.78995" lon="5.51657">
        <ele>283.6</ele>
        <time>2012-11-24T15:02:01.000Z</time>
      </trkpt>
      <trkpt lat="46.78993" lon="5.51661">
        <ele>283.7</ele>
        <time>2012-11-24T15:02:03.000Z</time>
      </trkpt>
      <trkpt lat="46.78992" lon="5.51663">
        <ele>283.8</ele>
        <time>2012-11-24T15:02:04.000Z</time>
      </trkpt>
      <trkpt lat="46.7899" lon="5.51668">
        <ele>283.7</ele>
        <time>2012-11-24T15:02:07.000Z</time>
      </trkpt>
      <trkpt lat="46.7899" lon="5.5167">
        <ele>283.7</ele>
        <time>2012-11-24T15:02:08.000Z</time>
      </trkpt>
      <trkpt lat="46.78988" lon="5.51675">
        <ele>283.6</ele>
        <time>2012-11-24T15:02:12.000Z</time>
      </trkpt>
      <trkpt lat="46.78989" lon="5.51676">
        <ele>283.5</ele>
        <time>2012-11-24T15:02:13.000Z</time>
      </trkpt>
      <trkpt lat="46.78985" lon="5.51681">
        <ele>283</ele>
        <time>2012-11-24T15:02:23.000Z</time>
      </trkpt>
      <trkpt lat="46.78985" lon="5.51682">
        <ele>283</ele>
        <time>2012-11-24T15:02:24.000Z</time>
      </trkpt>
      <trkpt lat="46.78983" lon="5.51686">
        <ele>282.9</ele>
        <time>2012-11-24T15:02:26.000Z</time>
      </trkpt>
      <trkpt lat="46.78982" lon="5.51688">
        <ele>282.7</ele>
        <time>2012-11-24T15:02:27.000Z</time>
      </trkpt>
      <trkpt lat="46.78981" lon="5.51693">
        <ele>282</ele>
        <time>2012-11-24T15:02:30.000Z</time>
      </trkpt>
      <trkpt lat="46.7898" lon="5.51694">
        <ele>282.3</ele>
        <time>2012-11-24T15:02:31.000Z</time>
      </trkpt>
      <trkpt lat="46.78978" lon="5.51699">
        <ele>281.9</ele>
        <time>2012-11-24T15:02:34.000Z</time>
      </trkpt>
      <trkpt lat="46.78978" lon="5.51701">
        <ele>281.9</ele>
        <time>2012-11-24T15:02:35.000Z</time>
      </trkpt>
      <trkpt lat="46.78976" lon="5.51707">
        <ele>283.3</ele>
        <time>2012-11-24T15:02:40.000Z</time>
      </trkpt>
      <trkpt lat="46.78975" lon="5.51708">
        <ele>283.4</ele>
        <time>2012-11-24T15:02:41.000Z</time>
      </trkpt>
      <trkpt lat="46.78973" lon="5.51713">
        <ele>283.1</ele>
        <time>2012-11-24T15:02:45.000Z</time>
      </trkpt>
      <trkpt lat="46.78972" lon="5.51714">
        <ele>283</ele>
        <time>2012-11-24T15:02:46.000Z</time>
      </trkpt>
      <trkpt lat="46.78969" lon="5.51719">
        <ele>282.8</ele>
        <time>2012-11-24T15:02:50.000Z</time>
      </trkpt>
      <trkpt lat="46.78968" lon="5.5172">
        <ele>282.8</ele>
        <time>2012-11-24T15:02:51.000Z</time>
      </trkpt>
      <trkpt lat="46.78965" lon="5.51724">
        <ele>281.3</ele>
        <time>2012-11-24T15:02:55.000Z</time>
      </trkpt>
      <trkpt lat="46.78964" lon="5.51724">
        <ele>281</ele>
        <time>2012-11-24T15:02:56.000Z</time>
      </trkpt>
      <trkpt lat="46.78962" lon="5.51728">
        <ele>280.8</ele>
        <time>2012-11-24T15:02:59.000Z</time>
      </trkpt>
      <trkpt lat="46.78961" lon="5.51729">
        <ele>280.7</ele>
        <time>2012-11-24T15:03:00.000Z</time>
      </trkpt>
      <trkpt lat="46.78959" lon="5.51734">
        <ele>281.1</ele>
        <time>2012-11-24T15:03:03.000Z</time>
      </trkpt>
      <trkpt lat="46.78959" lon="5.51735">
        <ele>281.1</ele>
        <time>2012-11-24T15:03:04.000Z</time>
      </trkpt>
      <trkpt lat="46.78957" lon="5.51741">
        <ele>281.1</ele>
        <time>2012-11-24T15:03:08.000Z</time>
      </trkpt>
      <trkpt lat="46.78957" lon="5.51743">
        <ele>281.2</ele>
        <time>2012-11-24T15:03:09.000Z</time>
      </trkpt>
      <trkpt lat="46.78954" lon="5.51746">
        <ele>281</ele>
        <time>2012-11-24T15:03:13.000Z</time>
      </trkpt>
      <trkpt lat="46.78953" lon="5.51747">
        <ele>281.2</ele>
        <time>2012-11-24T15:03:14.000Z</time>
      </trkpt>
      <trkpt lat="46.7895" lon="5.51749">
        <ele>281.5</ele>
        <time>2012-11-24T15:03:17.000Z</time>
      </trkpt>
      <trkpt lat="46.78948" lon="5.5175">
        <ele>281.3</ele>
        <time>2012-11-24T15:03:18.000Z</time>
      </trkpt>
      <trkpt lat="46.78944" lon="5.5175">
        <ele>281</ele>
        <time>2012-11-24T15:03:22.000Z</time>
      </trkpt>
      <trkpt lat="46.78943" lon="5.5175">
        <ele>281.1</ele>
        <time>2012-11-24T15:03:23.000Z</time>
      </trkpt>
      <trkpt lat="46.78939" lon="5.51749">
        <ele>281.6</ele>
        <time>2012-11-24T15:03:27.000Z</time>
      </trkpt>
      <trkpt lat="46.78938" lon="5.51749">
        <ele>281.8</ele>
        <time>2012-11-24T15:03:28.000Z</time>
      </trkpt>
      <trkpt lat="46.78934" lon="5.5175">
        <ele>282.1</ele>
        <time>2012-11-24T15:03:32.000Z</time>
      </trkpt>
      <trkpt lat="46.78933" lon="5.5175">
        <ele>282.2</ele>
        <time>2012-11-24T15:03:33.000Z</time>
      </trkpt>
      <trkpt lat="46.78929" lon="5.5175">
        <ele>282</ele>
        <time>2012-11-24T15:03:37.000Z</time>
      </trkpt>
      <trkpt lat="46.78928" lon="5.5175">
        <ele>282</ele>
        <time>2012-11-24T15:03:38.000Z</time>
      </trkpt>
      <trkpt lat="46.78924" lon="5.51748">
        <ele>282.5</ele>
        <time>2012-11-24T15:03:42.000Z</time>
      </trkpt>
      <trkpt lat="46.78923" lon="5.51748">
        <ele>282.6</ele>
        <time>2012-11-24T15:03:43.000Z</time>
      </trkpt>
      <trkpt lat="46.78918" lon="5.51749">
        <ele>282.8</ele>
        <time>2012-11-24T15:03:47.000Z</time>
      </trkpt>
      <trkpt lat="46.78917" lon="5.5175">
        <ele>283</ele>
        <time>2012-11-24T15:03:48.000Z</time>
      </trkpt>
      <trkpt lat="46.78913" lon="5.51752">
        <ele>283.3</ele>
        <time>2012-11-24T15:03:51.000Z</time>
      </trkpt>
      <trkpt lat="46.78912" lon="5.51752">
        <ele>283.5</ele>
        <time>2012-11-24T15:03:52.000Z</time>
      </trkpt>
      <trkpt lat="46.78908" lon="5.51753">
        <ele>283.5</ele>
        <time>2012-11-24T15:03:57.000Z</time>
      </trkpt>
      <trkpt lat="46.78907" lon="5.51753">
        <ele>283.4</ele>
        <time>2012-11-24T15:03:58.000Z</time>
      </trkpt>
      <trkpt lat="46.78904" lon="5.51753">
        <ele>283.4</ele>
        <time>2012-11-24T15:04:01.000Z</time>
      </trkpt>
      <trkpt lat="46.78902" lon="5.51753">
        <ele>283.2</ele>
        <time>2012-11-24T15:04:02.000Z</time>
      </trkpt>
      <trkpt lat="46.78898" lon="5.51753">
        <ele>282.9</ele>
        <time>2012-11-24T15:04:05.000Z</time>
      </trkpt>
      <trkpt lat="46.78897" lon="5.51753">
        <ele>282.8</ele>
        <time>2012-11-24T15:04:06.000Z</time>
      </trkpt>
      <trkpt lat="46.78894" lon="5.51753">
        <ele>283.3</ele>
        <time>2012-11-24T15:04:08.000Z</time>
      </trkpt>
      <trkpt lat="46.78892" lon="5.51753">
        <ele>283.6</ele>
        <time>2012-11-24T15:04:09.000Z</time>
      </trkpt>
      <trkpt lat="46.78888" lon="5.51752">
        <ele>284.3</ele>
        <time>2012-11-24T15:04:12.000Z</time>
      </trkpt>
      <trkpt lat="46.78887" lon="5.51751">
        <ele>284.5</ele>
        <time>2012-11-24T15:04:13.000Z</time>
      </trkpt>
      <trkpt lat="46.78883" lon="5.51749">
        <ele>284.8</ele>
        <time>2012-11-24T15:04:16.000Z</time>
      </trkpt>
      <trkpt lat="46.78881" lon="5.51749">
        <ele>285</ele>
        <time>2012-11-24T15:04:17.000Z</time>
      </trkpt>
      <trkpt lat="46.78878" lon="5.51748">
        <ele>285.5</ele>
        <time>2012-11-24T15:04:20.000Z</time>
      </trkpt>
      <trkpt lat="46.78862" lon="5.51745">
        <ele>289.5</ele>
        <time>2012-11-24T15:04:30.000Z</time>
      </trkpt>
      <trkpt lat="46.78858" lon="5.51742">
        <ele>289</ele>
        <time>2012-11-24T15:04:34.000Z</time>
      </trkpt>
      <trkpt lat="46.78857" lon="5.51742">
        <ele>288.7</ele>
        <time>2012-11-24T15:04:35.000Z</time>
      </trkpt>
      <trkpt lat="46.78854" lon="5.51744">
        <ele>289.1</ele>
        <time>2012-11-24T15:04:38.000Z</time>
      </trkpt>
      <trkpt lat="46.78852" lon="5.51743">
        <ele>289.6</ele>
        <time>2012-11-24T15:04:39.000Z</time>
      </trkpt>
      <trkpt lat="46.78849" lon="5.51741">
        <ele>286.4</ele>
        <time>2012-11-24T15:04:43.000Z</time>
      </trkpt>
      <trkpt lat="46.78848" lon="5.51741">
        <ele>285.2</ele>
        <time>2012-11-24T15:04:44.000Z</time>
      </trkpt>
      <trkpt lat="46.78844" lon="5.5174">
        <ele>283.4</ele>
        <time>2012-11-24T15:04:49.000Z</time>
      </trkpt>
      <trkpt lat="46.78843" lon="5.51741">
        <ele>284.9</ele>
        <time>2012-11-24T15:04:50.000Z</time>
      </trkpt>
      <trkpt lat="46.78839" lon="5.51744">
        <ele>285.9</ele>
        <time>2012-11-24T15:04:53.000Z</time>
      </trkpt>
      <trkpt lat="46.78838" lon="5.51746">
        <ele>286.2</ele>
        <time>2012-11-24T15:04:54.000Z</time>
      </trkpt>
      <trkpt lat="46.78835" lon="5.51749">
        <ele>284.3</ele>
        <time>2012-11-24T15:04:57.000Z</time>
      </trkpt>
      <trkpt lat="46.78834" lon="5.5175">
        <ele>284</ele>
        <time>2012-11-24T15:04:58.000Z</time>
      </trkpt>
      <trkpt lat="46.78838" lon="5.51747">
        <ele>279.6</ele>
        <time>2012-11-24T15:05:38.000Z</time>
      </trkpt>
      <trkpt lat="46.78839" lon="5.51746">
        <ele>278.9</ele>
        <time>2012-11-24T15:05:39.000Z</time>
      </trkpt>
      <trkpt lat="46.78839" lon="5.5174">
        <ele>277</ele>
        <time>2012-11-24T15:06:14.000Z</time>
      </trkpt>
      <trkpt lat="46.78839" lon="5.51738">
        <ele>277.9</ele>
        <time>2012-11-24T15:06:15.000Z</time>
      </trkpt>
      <trkpt lat="46.78838" lon="5.51734">
        <ele>277.9</ele>
        <time>2012-11-24T15:06:18.000Z</time>
      </trkpt>
      <trkpt lat="46.78838" lon="5.51732">
        <ele>278</ele>
        <time>2012-11-24T15:06:19.000Z</time>
      </trkpt>
      <trkpt lat="46.78836" lon="5.51726">
        <ele>278.3</ele>
        <time>2012-11-24T15:06:24.000Z</time>
      </trkpt>
      <trkpt lat="46.78836" lon="5.51725">
        <ele>278.1</ele>
        <time>2012-11-24T15:06:25.000Z</time>
      </trkpt>
      <trkpt lat="46.78834" lon="5.5172">
        <ele>277.9</ele>
        <time>2012-11-24T15:06:30.000Z</time>
      </trkpt>
      <trkpt lat="46.78834" lon="5.51719">
        <ele>277.9</ele>
        <time>2012-11-24T15:06:31.000Z</time>
      </trkpt>
      <trkpt lat="46.78833" lon="5.51713">
        <ele>277.4</ele>
        <time>2012-11-24T15:06:36.000Z</time>
      </trkpt>
      <trkpt lat="46.78833" lon="5.51712">
        <ele>277.5</ele>
        <time>2012-11-24T15:06:37.000Z</time>
      </trkpt>
      <trkpt lat="46.78831" lon="5.51707">
        <ele>277.8</ele>
        <time>2012-11-24T15:06:41.000Z</time>
      </trkpt>
      <trkpt lat="46.78831" lon="5.51706">
        <ele>277.7</ele>
        <time>2012-11-24T15:06:42.000Z</time>
      </trkpt>
      <trkpt lat="46.7883" lon="5.51701">
        <ele>277.6</ele>
        <time>2012-11-24T15:06:46.000Z</time>
      </trkpt>
      <trkpt lat="46.78829" lon="5.51699">
        <ele>277.7</ele>
        <time>2012-11-24T15:06:47.000Z</time>
      </trkpt>
      <trkpt lat="46.78828" lon="5.51694">
        <ele>278.1</ele>
        <time>2012-11-24T15:06:51.000Z</time>
      </trkpt>
      <trkpt lat="46.78828" lon="5.51692">
        <ele>278.2</ele>
        <time>2012-11-24T15:06:52.000Z</time>
      </trkpt>
      <trkpt lat="46.78826" lon="5.51687">
        <ele>278.6</ele>
        <time>2012-11-24T15:06:56.000Z</time>
      </trkpt>
      <trkpt lat="46.78825" lon="5.51685">
        <ele>278.8</ele>
        <time>2012-11-24T15:06:57.000Z</time>
      </trkpt>
      <trkpt lat="46.78823" lon="5.51681">
        <ele>279.2</ele>
        <time>2012-11-24T15:07:00.000Z</time>
      </trkpt>
      <trkpt lat="46.78823" lon="5.51679">
        <ele>279.4</ele>
        <time>2012-11-24T15:07:01.000Z</time>
      </trkpt>
      <trkpt lat="46.78821" lon="5.51675">
        <ele>279.8</ele>
        <time>2012-11-24T15:07:04.000Z</time>
      </trkpt>
      <trkpt lat="46.7882" lon="5.51673">
        <ele>279.9</ele>
        <time>2012-11-24T15:07:05.000Z</time>
      </trkpt>
      <trkpt lat="46.78818" lon="5.51668">
        <ele>280</ele>
        <time>2012-11-24T15:07:08.000Z</time>
      </trkpt>
      <trkpt lat="46.78818" lon="5.51667">
        <ele>280.3</ele>
        <time>2012-11-24T15:07:09.000Z</time>
      </trkpt>
      <trkpt lat="46.78816" lon="5.51661">
        <ele>280.5</ele>
        <time>2012-11-24T15:07:13.000Z</time>
      </trkpt>
      <trkpt lat="46.78816" lon="5.51659">
        <ele>280</ele>
        <time>2012-11-24T15:07:14.000Z</time>
      </trkpt>
      <trkpt lat="46.78814" lon="5.51654">
        <ele>279.1</ele>
        <time>2012-11-24T15:07:18.000Z</time>
      </trkpt>
      <trkpt lat="46.78813" lon="5.51652">
        <ele>278.9</ele>
        <time>2012-11-24T15:07:19.000Z</time>
      </trkpt>
      <trkpt lat="46.78811" lon="5.51647">
        <ele>278.3</ele>
        <time>2012-11-24T15:07:23.000Z</time>
      </trkpt>
      <trkpt lat="46.78811" lon="5.51646">
        <ele>278.2</ele>
        <time>2012-11-24T15:07:24.000Z</time>
      </trkpt>
      <trkpt lat="46.78809" lon="5.5164">
        <ele>278.5</ele>
        <time>2012-11-24T15:07:28.000Z</time>
      </trkpt>
      <trkpt lat="46.78808" lon="5.51639">
        <ele>278.5</ele>
        <time>2012-11-24T15:07:29.000Z</time>
      </trkpt>
      <trkpt lat="46.78806" lon="5.51635">
        <ele>279.2</ele>
        <time>2012-11-24T15:07:32.000Z</time>
      </trkpt>
      <trkpt lat="46.78805" lon="5.51633">
        <ele>279.4</ele>
        <time>2012-11-24T15:07:33.000Z</time>
      </trkpt>
      <trkpt lat="46.78802" lon="5.51628">
        <ele>280.4</ele>
        <time>2012-11-24T15:07:37.000Z</time>
      </trkpt>
      <trkpt lat="46.78801" lon="5.51627">
        <ele>280.6</ele>
        <time>2012-11-24T15:07:38.000Z</time>
      </trkpt>
      <trkpt lat="46.78799" lon="5.51622">
        <ele>280.9</ele>
        <time>2012-11-24T15:07:42.000Z</time>
      </trkpt>
      <trkpt lat="46.78798" lon="5.5162">
        <ele>281</ele>
        <time>2012-11-24T15:07:43.000Z</time>
      </trkpt>
      <trkpt lat="46.78796" lon="5.51616">
        <ele>281.2</ele>
        <time>2012-11-24T15:07:46.000Z</time>
      </trkpt>
      <trkpt lat="46.78795" lon="5.51614">
        <ele>281.5</ele>
        <time>2012-11-24T15:07:47.000Z</time>
      </trkpt>
      <trkpt lat="46.78793" lon="5.5161">
        <ele>282.1</ele>
        <time>2012-11-24T15:07:50.000Z</time>
      </trkpt>
      <trkpt lat="46.78792" lon="5.51609">
        <ele>282.2</ele>
        <time>2012-11-24T15:07:51.000Z</time>
      </trkpt>
      <trkpt lat="46.78789" lon="5.51605">
        <ele>283.1</ele>
        <time>2012-11-24T15:07:54.000Z</time>
      </trkpt>
      <trkpt lat="46.78788" lon="5.51604">
        <ele>283.4</ele>
        <time>2012-11-24T15:07:55.000Z</time>
      </trkpt>
      <trkpt lat="46.78785" lon="5.51601">
        <ele>284.5</ele>
        <time>2012-11-24T15:07:58.000Z</time>
      </trkpt>
      <trkpt lat="46.78783" lon="5.51599">
        <ele>284.7</ele>
        <time>2012-11-24T15:07:59.000Z</time>
      </trkpt>
      <trkpt lat="46.7878" lon="5.51595">
        <ele>285.6</ele>
        <time>2012-11-24T15:08:02.000Z</time>
      </trkpt>
      <trkpt lat="46.78779" lon="5.51594">
        <ele>285.9</ele>
        <time>2012-11-24T15:08:03.000Z</time>
      </trkpt>
      <trkpt lat="46.78776" lon="5.51591">
        <ele>286.8</ele>
        <time>2012-11-24T15:08:06.000Z</time>
      </trkpt>
      <trkpt lat="46.78775" lon="5.5159">
        <ele>286.8</ele>
        <time>2012-11-24T15:08:07.000Z</time>
      </trkpt>
      <trkpt lat="46.78772" lon="5.51587">
        <ele>287.5</ele>
        <time>2012-11-24T15:08:10.000Z</time>
      </trkpt>
      <trkpt lat="46.78771" lon="5.51585">
        <ele>287.6</ele>
        <time>2012-11-24T15:08:11.000Z</time>
      </trkpt>
      <trkpt lat="46.78768" lon="5.51582">
        <ele>287.9</ele>
        <time>2012-11-24T15:08:14.000Z</time>
      </trkpt>
      <trkpt lat="46.78767" lon="5.51581">
        <ele>287.9</ele>
        <time>2012-11-24T15:08:15.000Z</time>
      </trkpt>
      <trkpt lat="46.78765" lon="5.51577">
        <ele>288.2</ele>
        <time>2012-11-24T15:08:18.000Z</time>
      </trkpt>
      <trkpt lat="46.78764" lon="5.51576">
        <ele>288.4</ele>
        <time>2012-11-24T15:08:19.000Z</time>
      </trkpt>
      <trkpt lat="46.78763" lon="5.51575">
        <ele>288.6</ele>
        <time>2012-11-24T15:08:20.000Z</time>
      </trkpt>
      <trkpt lat="46.78753" lon="5.51568">
        <ele>284.5</ele>
        <time>2012-11-24T15:08:29.000Z</time>
      </trkpt>
      <trkpt lat="46.78751" lon="5.51563">
        <ele>285.2</ele>
        <time>2012-11-24T15:08:32.000Z</time>
      </trkpt>
      <trkpt lat="46.7875" lon="5.51562">
        <ele>284.3</ele>
        <time>2012-11-24T15:08:33.000Z</time>
      </trkpt>
      <trkpt lat="46.78749" lon="5.51558">
        <ele>284.4</ele>
        <time>2012-11-24T15:08:36.000Z</time>
      </trkpt>
      <trkpt lat="46.78748" lon="5.51556">
        <ele>284.6</ele>
        <time>2012-11-24T15:08:37.000Z</time>
      </trkpt>
      <trkpt lat="46.78746" lon="5.51552">
        <ele>284.2</ele>
        <time>2012-11-24T15:08:41.000Z</time>
      </trkpt>
      <trkpt lat="46.78745" lon="5.51551">
        <ele>284.3</ele>
        <time>2012-11-24T15:08:42.000Z</time>
      </trkpt>
      <trkpt lat="46.78742" lon="5.51547">
        <ele>284.7</ele>
        <time>2012-11-24T15:08:45.000Z</time>
      </trkpt>
      <trkpt lat="46.78741" lon="5.51546">
        <ele>284.8</ele>
        <time>2012-11-24T15:08:46.000Z</time>
      </trkpt>
      <trkpt lat="46.78738" lon="5.51543">
        <ele>284.7</ele>
        <time>2012-11-24T15:08:49.000Z</time>
      </trkpt>
      <trkpt lat="46.78738" lon="5.51542">
        <ele>284.6</ele>
        <time>2012-11-24T15:08:50.000Z</time>
      </trkpt>
      <trkpt lat="46.78735" lon="5.51538">
        <ele>284.6</ele>
        <time>2012-11-24T15:08:53.000Z</time>
      </trkpt>
      <trkpt lat="46.78735" lon="5.51537">
        <ele>284.6</ele>
        <time>2012-11-24T15:08:54.000Z</time>
      </trkpt>
      <trkpt lat="46.78732" lon="5.51532">
        <ele>284.4</ele>
        <time>2012-11-24T15:08:58.000Z</time>
      </trkpt>
      <trkpt lat="46.78732" lon="5.51531">
        <ele>284.4</ele>
        <time>2012-11-24T15:08:59.000Z</time>
      </trkpt>
      <trkpt lat="46.78728" lon="5.51526">
        <ele>284.8</ele>
        <time>2012-11-24T15:09:03.000Z</time>
      </trkpt>
      <trkpt lat="46.78728" lon="5.51525">
        <ele>285.1</ele>
        <time>2012-11-24T15:09:04.000Z</time>
      </trkpt>
      <trkpt lat="46.78725" lon="5.51522">
        <ele>285.4</ele>
        <time>2012-11-24T15:09:07.000Z</time>
      </trkpt>
      <trkpt lat="46.78724" lon="5.5152">
        <ele>285.5</ele>
        <time>2012-11-24T15:09:08.000Z</time>
      </trkpt>
      <trkpt lat="46.78722" lon="5.51516">
        <ele>285.9</ele>
        <time>2012-11-24T15:09:11.000Z</time>
      </trkpt>
      <trkpt lat="46.78722" lon="5.51514">
        <ele>286</ele>
        <time>2012-11-24T15:09:12.000Z</time>
      </trkpt>
      <trkpt lat="46.78719" lon="5.51511">
        <ele>286.4</ele>
        <time>2012-11-24T15:09:15.000Z</time>
      </trkpt>
      <trkpt lat="46.78718" lon="5.51509">
        <ele>286.5</ele>
        <time>2012-11-24T15:09:16.000Z</time>
      </trkpt>
      <trkpt lat="46.78715" lon="5.51506">
        <ele>286.9</ele>
        <time>2012-11-24T15:09:19.000Z</time>
      </trkpt>
      <trkpt lat="46.78714" lon="5.51505">
        <ele>287</ele>
        <time>2012-11-24T15:09:20.000Z</time>
      </trkpt>
      <trkpt lat="46.78713" lon="5.51504">
        <ele>287.2</ele>
        <time>2012-11-24T15:09:21.000Z</time>
      </trkpt>
      <trkpt lat="46.78713" lon="5.51486">
        <ele>281.1</ele>
        <time>2012-11-24T15:09:31.000Z</time>
      </trkpt>
      <trkpt lat="46.78717" lon="5.51485">
        <ele>286.5</ele>
        <time>2012-11-24T15:09:44.000Z</time>
      </trkpt>
      <trkpt lat="46.78718" lon="5.51485">
        <ele>286</ele>
        <time>2012-11-24T15:09:45.000Z</time>
      </trkpt>
      <trkpt lat="46.78718" lon="5.51491">
        <ele>282.2</ele>
        <time>2012-11-24T15:10:11.000Z</time>
      </trkpt>
      <trkpt lat="46.78717" lon="5.51493">
        <ele>282.4</ele>
        <time>2012-11-24T15:10:12.000Z</time>
      </trkpt>
      <trkpt lat="46.78714" lon="5.51494">
        <ele>282.5</ele>
        <time>2012-11-24T15:10:21.000Z</time>
      </trkpt>
      <trkpt lat="46.78706" lon="5.51516">
        <ele>279.6</ele>
        <time>2012-11-24T15:10:31.000Z</time>
      </trkpt>
      <trkpt lat="46.78707" lon="5.51514">
        <ele>280.3</ele>
        <time>2012-11-24T15:10:35.000Z</time>
      </trkpt>
      <trkpt lat="46.78712" lon="5.51507">
        <ele>282.7</ele>
        <time>2012-11-24T15:10:36.000Z</time>
      </trkpt>
      <trkpt lat="46.78711" lon="5.51503">
        <ele>284</ele>
        <time>2012-11-24T15:10:38.000Z</time>
      </trkpt>
      <trkpt lat="46.7871" lon="5.51501">
        <ele>284.6</ele>
        <time>2012-11-24T15:10:39.000Z</time>
      </trkpt>
      <trkpt lat="46.78707" lon="5.51497">
        <ele>286.5</ele>
        <time>2012-11-24T15:10:42.000Z</time>
      </trkpt>
      <trkpt lat="46.78707" lon="5.51496">
        <ele>287.1</ele>
        <time>2012-11-24T15:10:43.000Z</time>
      </trkpt>
      <trkpt lat="46.78704" lon="5.51492">
        <ele>287.6</ele>
        <time>2012-11-24T15:10:47.000Z</time>
      </trkpt>
      <trkpt lat="46.78703" lon="5.51491">
        <ele>287.2</ele>
        <time>2012-11-24T15:10:48.000Z</time>
      </trkpt>
      <trkpt lat="46.78701" lon="5.51486">
        <ele>287.3</ele>
        <time>2012-11-24T15:10:51.000Z</time>
      </trkpt>
      <trkpt lat="46.787" lon="5.51484">
        <ele>287.1</ele>
        <time>2012-11-24T15:10:52.000Z</time>
      </trkpt>
      <trkpt lat="46.78698" lon="5.51481">
        <ele>286.6</ele>
        <time>2012-11-24T15:10:53.000Z</time>
      </trkpt>
      <trkpt lat="46.78695" lon="5.51478">
        <ele>286.2</ele>
        <time>2012-11-24T15:10:54.000Z</time>
      </trkpt>
      <trkpt lat="46.78692" lon="5.51475">
        <ele>287.1</ele>
        <time>2012-11-24T15:10:55.000Z</time>
      </trkpt>
      <trkpt lat="46.7869" lon="5.51473">
        <ele>287.3</ele>
        <time>2012-11-24T15:10:56.000Z</time>
      </trkpt>
      <trkpt lat="46.78688" lon="5.5147">
        <ele>287.5</ele>
        <time>2012-11-24T15:10:57.000Z</time>
      </trkpt>
      <trkpt lat="46.78686" lon="5.51467">
        <ele>287.6</ele>
        <time>2012-11-24T15:10:58.000Z</time>
      </trkpt>
      <trkpt lat="46.78684" lon="5.51465">
        <ele>287.8</ele>
        <time>2012-11-24T15:10:59.000Z</time>
      </trkpt>
      <trkpt lat="46.78682" lon="5.51463">
        <ele>287.8</ele>
        <time>2012-11-24T15:11:00.000Z</time>
      </trkpt>
      <trkpt lat="46.7868" lon="5.5146">
        <ele>288</ele>
        <time>2012-11-24T15:11:01.000Z</time>
      </trkpt>
      <trkpt lat="46.78678" lon="5.51459">
        <ele>288.1</ele>
        <time>2012-11-24T15:11:02.000Z</time>
      </trkpt>
      <trkpt lat="46.78675" lon="5.51455">
        <ele>288.5</ele>
        <time>2012-11-24T15:11:05.000Z</time>
      </trkpt>
      <trkpt lat="46.78675" lon="5.51453">
        <ele>288.7</ele>
        <time>2012-11-24T15:11:06.000Z</time>
      </trkpt>
      <trkpt lat="46.78672" lon="5.51449">
        <ele>289.5</ele>
        <time>2012-11-24T15:11:09.000Z</time>
      </trkpt>
      <trkpt lat="46.78671" lon="5.51448">
        <ele>289.8</ele>
        <time>2012-11-24T15:11:10.000Z</time>
      </trkpt>
      <trkpt lat="46.78668" lon="5.51444">
        <ele>290</ele>
        <time>2012-11-24T15:11:14.000Z</time>
      </trkpt>
      <trkpt lat="46.78667" lon="5.51443">
        <ele>290</ele>
        <time>2012-11-24T15:11:15.000Z</time>
      </trkpt>
      <trkpt lat="46.78663" lon="5.51439">
        <ele>290.7</ele>
        <time>2012-11-24T15:11:19.000Z</time>
      </trkpt>
      <trkpt lat="46.78663" lon="5.51438">
        <ele>290.9</ele>
        <time>2012-11-24T15:11:20.000Z</time>
      </trkpt>
      <trkpt lat="46.7866" lon="5.51434">
        <ele>291.7</ele>
        <time>2012-11-24T15:11:23.000Z</time>
      </trkpt>
      <trkpt lat="46.78659" lon="5.51433">
        <ele>291.6</ele>
        <time>2012-11-24T15:11:24.000Z</time>
      </trkpt>
      <trkpt lat="46.78655" lon="5.5143">
        <ele>291.4</ele>
        <time>2012-11-24T15:11:28.000Z</time>
      </trkpt>
      <trkpt lat="46.78654" lon="5.51429">
        <ele>291.4</ele>
        <time>2012-11-24T15:11:29.000Z</time>
      </trkpt>
      <trkpt lat="46.78651" lon="5.51425">
        <ele>291.4</ele>
        <time>2012-11-24T15:11:33.000Z</time>
      </trkpt>
      <trkpt lat="46.7865" lon="5.51424">
        <ele>291.5</ele>
        <time>2012-11-24T15:11:34.000Z</time>
      </trkpt>
      <trkpt lat="46.78646" lon="5.51421">
        <ele>292.5</ele>
        <time>2012-11-24T15:11:38.000Z</time>
      </trkpt>
      <trkpt lat="46.78645" lon="5.51421">
        <ele>292.5</ele>
        <time>2012-11-24T15:11:39.000Z</time>
      </trkpt>
      <trkpt lat="46.78642" lon="5.51418">
        <ele>292.8</ele>
        <time>2012-11-24T15:11:42.000Z</time>
      </trkpt>
      <trkpt lat="46.78641" lon="5.51418">
        <ele>292.8</ele>
        <time>2012-11-24T15:11:43.000Z</time>
      </trkpt>
      <trkpt lat="46.78637" lon="5.51415">
        <ele>293</ele>
        <time>2012-11-24T15:11:46.000Z</time>
      </trkpt>
      <trkpt lat="46.78636" lon="5.51414">
        <ele>293.1</ele>
        <time>2012-11-24T15:11:47.000Z</time>
      </trkpt>
      <trkpt lat="46.78632" lon="5.51411">
        <ele>293.2</ele>
        <time>2012-11-24T15:11:50.000Z</time>
      </trkpt>
      <trkpt lat="46.78631" lon="5.51411">
        <ele>293.3</ele>
        <time>2012-11-24T15:11:51.000Z</time>
      </trkpt>
      <trkpt lat="46.78628" lon="5.51407">
        <ele>293.2</ele>
        <time>2012-11-24T15:11:54.000Z</time>
      </trkpt>
      <trkpt lat="46.78627" lon="5.51406">
        <ele>293.1</ele>
        <time>2012-11-24T15:11:55.000Z</time>
      </trkpt>
      <trkpt lat="46.78624" lon="5.51404">
        <ele>293</ele>
        <time>2012-11-24T15:11:58.000Z</time>
      </trkpt>
      <trkpt lat="46.78623" lon="5.51403">
        <ele>293.1</ele>
        <time>2012-11-24T15:11:59.000Z</time>
      </trkpt>
      <trkpt lat="46.78619" lon="5.51402">
        <ele>293.3</ele>
        <time>2012-11-24T15:12:02.000Z</time>
      </trkpt>
      <trkpt lat="46.78618" lon="5.51401">
        <ele>293.3</ele>
        <time>2012-11-24T15:12:03.000Z</time>
      </trkpt>
      <trkpt lat="46.78615" lon="5.51399">
        <ele>293.4</ele>
        <time>2012-11-24T15:12:06.000Z</time>
      </trkpt>
      <trkpt lat="46.78613" lon="5.51397">
        <ele>293.3</ele>
        <time>2012-11-24T15:12:07.000Z</time>
      </trkpt>
      <trkpt lat="46.7861" lon="5.51394">
        <ele>292.7</ele>
        <time>2012-11-24T15:12:10.000Z</time>
      </trkpt>
      <trkpt lat="46.78609" lon="5.51393">
        <ele>292.8</ele>
        <time>2012-11-24T15:12:11.000Z</time>
      </trkpt>
      <trkpt lat="46.78606" lon="5.51391">
        <ele>292.6</ele>
        <time>2012-11-24T15:12:14.000Z</time>
      </trkpt>
      <trkpt lat="46.78605" lon="5.5139">
        <ele>292.6</ele>
        <time>2012-11-24T15:12:15.000Z</time>
      </trkpt>
      <trkpt lat="46.78601" lon="5.51388">
        <ele>292.8</ele>
        <time>2012-11-24T15:12:18.000Z</time>
      </trkpt>
      <trkpt lat="46.786" lon="5.51387">
        <ele>292.9</ele>
        <time>2012-11-24T15:12:19.000Z</time>
      </trkpt>
      <trkpt lat="46.78597" lon="5.51385">
        <ele>293.2</ele>
        <time>2012-11-24T15:12:21.000Z</time>
      </trkpt>
      <trkpt lat="46.78583" lon="5.51378">
        <ele>294.9</ele>
        <time>2012-11-24T15:12:32.000Z</time>
      </trkpt>
      <trkpt lat="46.78579" lon="5.51375">
        <ele>294.7</ele>
        <time>2012-11-24T15:12:35.000Z</time>
      </trkpt>
      <trkpt lat="46.78578" lon="5.51374">
        <ele>294.7</ele>
        <time>2012-11-24T15:12:36.000Z</time>
      </trkpt>
      <trkpt lat="46.78575" lon="5.51372">
        <ele>294.1</ele>
        <time>2012-11-24T15:12:39.000Z</time>
      </trkpt>
      <trkpt lat="46.78574" lon="5.51371">
        <ele>294.2</ele>
        <time>2012-11-24T15:12:40.000Z</time>
      </trkpt>
      <trkpt lat="46.78571" lon="5.51368">
        <ele>294</ele>
        <time>2012-11-24T15:12:43.000Z</time>
      </trkpt>
      <trkpt lat="46.7857" lon="5.51367">
        <ele>294</ele>
        <time>2012-11-24T15:12:44.000Z</time>
      </trkpt>
      <trkpt lat="46.78566" lon="5.51366">
        <ele>294</ele>
        <time>2012-11-24T15:12:47.000Z</time>
      </trkpt>
      <trkpt lat="46.78565" lon="5.51365">
        <ele>293.9</ele>
        <time>2012-11-24T15:12:48.000Z</time>
      </trkpt>
      <trkpt lat="46.78562" lon="5.51363">
        <ele>293.7</ele>
        <time>2012-11-24T15:12:51.000Z</time>
      </trkpt>
      <trkpt lat="46.78561" lon="5.51362">
        <ele>293.6</ele>
        <time>2012-11-24T15:12:52.000Z</time>
      </trkpt>
      <trkpt lat="46.78558" lon="5.51359">
        <ele>293.5</ele>
        <time>2012-11-24T15:12:55.000Z</time>
      </trkpt>
      <trkpt lat="46.78557" lon="5.51359">
        <ele>293.6</ele>
        <time>2012-11-24T15:12:56.000Z</time>
      </trkpt>
      <trkpt lat="46.78553" lon="5.51356">
        <ele>293.6</ele>
        <time>2012-11-24T15:12:59.000Z</time>
      </trkpt>
      <trkpt lat="46.78552" lon="5.51355">
        <ele>293.8</ele>
        <time>2012-11-24T15:13:00.000Z</time>
      </trkpt>
      <trkpt lat="46.78548" lon="5.51352">
        <ele>294</ele>
        <time>2012-11-24T15:13:03.000Z</time>
      </trkpt>
      <trkpt lat="46.78547" lon="5.51352">
        <ele>294</ele>
        <time>2012-11-24T15:13:04.000Z</time>
      </trkpt>
      <trkpt lat="46.78544" lon="5.51349">
        <ele>294</ele>
        <time>2012-11-24T15:13:07.000Z</time>
      </trkpt>
      <trkpt lat="46.78543" lon="5.51348">
        <ele>294</ele>
        <time>2012-11-24T15:13:08.000Z</time>
      </trkpt>
      <trkpt lat="46.7854" lon="5.51346">
        <ele>293.9</ele>
        <time>2012-11-24T15:13:11.000Z</time>
      </trkpt>
      <trkpt lat="46.78539" lon="5.51345">
        <ele>294</ele>
        <time>2012-11-24T15:13:12.000Z</time>
      </trkpt>
      <trkpt lat="46.78536" lon="5.51342">
        <ele>293.9</ele>
        <time>2012-11-24T15:13:15.000Z</time>
      </trkpt>
      <trkpt lat="46.78535" lon="5.51341">
        <ele>294</ele>
        <time>2012-11-24T15:13:16.000Z</time>
      </trkpt>
      <trkpt lat="46.78531" lon="5.51339">
        <ele>294.2</ele>
        <time>2012-11-24T15:13:19.000Z</time>
      </trkpt>
      <trkpt lat="46.7853" lon="5.51338">
        <ele>294.2</ele>
        <time>2012-11-24T15:13:20.000Z</time>
      </trkpt>
      <trkpt lat="46.78529" lon="5.51337">
        <ele>294.2</ele>
        <time>2012-11-24T15:13:21.000Z</time>
      </trkpt>
      <trkpt lat="46.78516" lon="5.51325">
        <ele>292.3</ele>
        <time>2012-11-24T15:13:32.000Z</time>
      </trkpt>
      <trkpt lat="46.78513" lon="5.51322">
        <ele>292.7</ele>
        <time>2012-11-24T15:13:35.000Z</time>
      </trkpt>
      <trkpt lat="46.78512" lon="5.51322">
        <ele>292.7</ele>
        <time>2012-11-24T15:13:36.000Z</time>
      </trkpt>
      <trkpt lat="46.78508" lon="5.5132">
        <ele>292.9</ele>
        <time>2012-11-24T15:13:39.000Z</time>
      </trkpt>
      <trkpt lat="46.78507" lon="5.5132">
        <ele>293.1</ele>
        <time>2012-11-24T15:13:40.000Z</time>
      </trkpt>
      <trkpt lat="46.78503" lon="5.51318">
        <ele>294</ele>
        <time>2012-11-24T15:13:43.000Z</time>
      </trkpt>
      <trkpt lat="46.78502" lon="5.51317">
        <ele>294.4</ele>
        <time>2012-11-24T15:13:44.000Z</time>
      </trkpt>
      <trkpt lat="46.78499" lon="5.51314">
        <ele>294.7</ele>
        <time>2012-11-24T15:13:47.000Z</time>
      </trkpt>
      <trkpt lat="46.78498" lon="5.51313">
        <ele>294.8</ele>
        <time>2012-11-24T15:13:48.000Z</time>
      </trkpt>
      <trkpt lat="46.78494" lon="5.51311">
        <ele>295</ele>
        <time>2012-11-24T15:13:51.000Z</time>
      </trkpt>
      <trkpt lat="46.78493" lon="5.5131">
        <ele>294.8</ele>
        <time>2012-11-24T15:13:52.000Z</time>
      </trkpt>
      <trkpt lat="46.7849" lon="5.51308">
        <ele>295.2</ele>
        <time>2012-11-24T15:13:55.000Z</time>
      </trkpt>
      <trkpt lat="46.78489" lon="5.51307">
        <ele>295.2</ele>
        <time>2012-11-24T15:13:56.000Z</time>
      </trkpt>
      <trkpt lat="46.78486" lon="5.51305">
        <ele>295.6</ele>
        <time>2012-11-24T15:13:59.000Z</time>
      </trkpt>
      <trkpt lat="46.78485" lon="5.51304">
        <ele>295.7</ele>
        <time>2012-11-24T15:14:00.000Z</time>
      </trkpt>
      <trkpt lat="46.78481" lon="5.51303">
        <ele>295.7</ele>
        <time>2012-11-24T15:14:03.000Z</time>
      </trkpt>
      <trkpt lat="46.7848" lon="5.51302">
        <ele>295.6</ele>
        <time>2012-11-24T15:14:04.000Z</time>
      </trkpt>
      <trkpt lat="46.78476" lon="5.51299">
        <ele>295.2</ele>
        <time>2012-11-24T15:14:08.000Z</time>
      </trkpt>
      <trkpt lat="46.78475" lon="5.51298">
        <ele>295.2</ele>
        <time>2012-11-24T15:14:09.000Z</time>
      </trkpt>
      <trkpt lat="46.78472" lon="5.51296">
        <ele>295.3</ele>
        <time>2012-11-24T15:14:12.000Z</time>
      </trkpt>
      <trkpt lat="46.78471" lon="5.51295">
        <ele>295.3</ele>
        <time>2012-11-24T15:14:13.000Z</time>
      </trkpt>
      <trkpt lat="46.78467" lon="5.51292">
        <ele>295.7</ele>
        <time>2012-11-24T15:14:16.000Z</time>
      </trkpt>
      <trkpt lat="46.78466" lon="5.51292">
        <ele>295.8</ele>
        <time>2012-11-24T15:14:17.000Z</time>
      </trkpt>
      <trkpt lat="46.78462" lon="5.5129">
        <ele>296.6</ele>
        <time>2012-11-24T15:14:20.000Z</time>
      </trkpt>
      <trkpt lat="46.78461" lon="5.51289">
        <ele>297.1</ele>
        <time>2012-11-24T15:14:21.000Z</time>
      </trkpt>
      <trkpt lat="46.78458" lon="5.51286">
        <ele>297.6</ele>
        <time>2012-11-24T15:14:24.000Z</time>
      </trkpt>
      <trkpt lat="46.78457" lon="5.51285">
        <ele>297.6</ele>
        <time>2012-11-24T15:14:25.000Z</time>
      </trkpt>
      <trkpt lat="46.78454" lon="5.51281">
        <ele>297.6</ele>
        <time>2012-11-24T15:14:28.000Z</time>
      </trkpt>
      <trkpt lat="46.78453" lon="5.5128">
        <ele>297.7</ele>
        <time>2012-11-24T15:14:29.000Z</time>
      </trkpt>
      <trkpt lat="46.7845" lon="5.51277">
        <ele>297.6</ele>
        <time>2012-11-24T15:14:32.000Z</time>
      </trkpt>
      <trkpt lat="46.7845" lon="5.51276">
        <ele>297.6</ele>
        <time>2012-11-24T15:14:33.000Z</time>
      </trkpt>
      <trkpt lat="46.78446" lon="5.51274">
        <ele>297.3</ele>
        <time>2012-11-24T15:14:36.000Z</time>
      </trkpt>
      <trkpt lat="46.78445" lon="5.51273">
        <ele>297.3</ele>
        <time>2012-11-24T15:14:37.000Z</time>
      </trkpt>
      <trkpt lat="46.78442" lon="5.51271">
        <ele>297.8</ele>
        <time>2012-11-24T15:14:40.000Z</time>
      </trkpt>
      <trkpt lat="46.78441" lon="5.51271">
        <ele>297.9</ele>
        <time>2012-11-24T15:14:41.000Z</time>
      </trkpt>
      <trkpt lat="46.78437" lon="5.51269">
        <ele>298.2</ele>
        <time>2012-11-24T15:14:44.000Z</time>
      </trkpt>
      <trkpt lat="46.78436" lon="5.51269">
        <ele>297.9</ele>
        <time>2012-11-24T15:14:45.000Z</time>
      </trkpt>
      <trkpt lat="46.78432" lon="5.51268">
        <ele>297.7</ele>
        <time>2012-11-24T15:14:48.000Z</time>
      </trkpt>
      <trkpt lat="46.78431" lon="5.51268">
        <ele>297.6</ele>
        <time>2012-11-24T15:14:49.000Z</time>
      </trkpt>
      <trkpt lat="46.78427" lon="5.51267">
        <ele>297.8</ele>
        <time>2012-11-24T15:14:52.000Z</time>
      </trkpt>
      <trkpt lat="46.78426" lon="5.51267">
        <ele>297.8</ele>
        <time>2012-11-24T15:14:53.000Z</time>
      </trkpt>
      <trkpt lat="46.78422" lon="5.51266">
        <ele>296.9</ele>
        <time>2012-11-24T15:14:57.000Z</time>
      </trkpt>
      <trkpt lat="46.7842" lon="5.51265">
        <ele>296.9</ele>
        <time>2012-11-24T15:14:58.000Z</time>
      </trkpt>
      <trkpt lat="46.78417" lon="5.51265">
        <ele>297.4</ele>
        <time>2012-11-24T15:15:01.000Z</time>
      </trkpt>
      <trkpt lat="46.78416" lon="5.51265">
        <ele>297.4</ele>
        <time>2012-11-24T15:15:02.000Z</time>
      </trkpt>
      <trkpt lat="46.78412" lon="5.51264">
        <ele>297.3</ele>
        <time>2012-11-24T15:15:05.000Z</time>
      </trkpt>
      <trkpt lat="46.78411" lon="5.51264">
        <ele>297.3</ele>
        <time>2012-11-24T15:15:06.000Z</time>
      </trkpt>
      <trkpt lat="46.78407" lon="5.51262">
        <ele>297.4</ele>
        <time>2012-11-24T15:15:10.000Z</time>
      </trkpt>
      <trkpt lat="46.78406" lon="5.51261">
        <ele>297.6</ele>
        <time>2012-11-24T15:15:11.000Z</time>
      </trkpt>
      <trkpt lat="46.78402" lon="5.51259">
        <ele>298.1</ele>
        <time>2012-11-24T15:15:15.000Z</time>
      </trkpt>
      <trkpt lat="46.784" lon="5.51259">
        <ele>298.1</ele>
        <time>2012-11-24T15:15:16.000Z</time>
      </trkpt>
      <trkpt lat="46.78397" lon="5.51259">
        <ele>298.5</ele>
        <time>2012-11-24T15:15:19.000Z</time>
      </trkpt>
      <trkpt lat="46.78395" lon="5.51259">
        <ele>298.6</ele>
        <time>2012-11-24T15:15:20.000Z</time>
      </trkpt>
      <trkpt lat="46.78394" lon="5.51259">
        <ele>298.8</ele>
        <time>2012-11-24T15:15:21.000Z</time>
      </trkpt>
      <trkpt lat="46.7838" lon="5.51261">
        <ele>297.9</ele>
        <time>2012-11-24T15:15:29.000Z</time>
      </trkpt>
      <trkpt lat="46.78376" lon="5.51258">
        <ele>299.2</ele>
        <time>2012-11-24T15:15:33.000Z</time>
      </trkpt>
      <trkpt lat="46.78376" lon="5.51256">
        <ele>298.9</ele>
        <time>2012-11-24T15:15:34.000Z</time>
      </trkpt>
      <trkpt lat="46.78373" lon="5.51255">
        <ele>299.4</ele>
        <time>2012-11-24T15:15:37.000Z</time>
      </trkpt>
      <trkpt lat="46.78371" lon="5.51255">
        <ele>299.6</ele>
        <time>2012-11-24T15:15:38.000Z</time>
      </trkpt>
      <trkpt lat="46.78367" lon="5.51254">
        <ele>300.2</ele>
        <time>2012-11-24T15:15:42.000Z</time>
      </trkpt>
      <trkpt lat="46.78366" lon="5.51254">
        <ele>300.4</ele>
        <time>2012-11-24T15:15:43.000Z</time>
      </trkpt>
      <trkpt lat="46.78362" lon="5.51254">
        <ele>301.1</ele>
        <time>2012-11-24T15:15:47.000Z</time>
      </trkpt>
      <trkpt lat="46.78361" lon="5.51254">
        <ele>301.3</ele>
        <time>2012-11-24T15:15:48.000Z</time>
      </trkpt>
      <trkpt lat="46.78357" lon="5.51253">
        <ele>300.7</ele>
        <time>2012-11-24T15:15:52.000Z</time>
      </trkpt>
      <trkpt lat="46.78356" lon="5.51253">
        <ele>300.6</ele>
        <time>2012-11-24T15:15:53.000Z</time>
      </trkpt>
      <trkpt lat="46.78352" lon="5.51253">
        <ele>300.2</ele>
        <time>2012-11-24T15:15:57.000Z</time>
      </trkpt>
      <trkpt lat="46.78351" lon="5.51253">
        <ele>300.2</ele>
        <time>2012-11-24T15:15:58.000Z</time>
      </trkpt>
      <trkpt lat="46.78354" lon="5.51255">
        <ele>298.7</ele>
        <time>2012-11-24T15:16:47.000Z</time>
      </trkpt>
      <trkpt lat="46.78356" lon="5.51253">
        <ele>299.2</ele>
        <time>2012-11-24T15:16:48.000Z</time>
      </trkpt>
      <trkpt lat="46.78352" lon="5.51253">
        <ele>299.6</ele>
        <time>2012-11-24T15:17:14.000Z</time>
      </trkpt>
      <trkpt lat="46.78351" lon="5.51254">
        <ele>301.1</ele>
        <time>2012-11-24T15:17:15.000Z</time>
      </trkpt>
      <trkpt lat="46.78347" lon="5.51252">
        <ele>302.4</ele>
        <time>2012-11-24T15:17:19.000Z</time>
      </trkpt>
      <trkpt lat="46.78346" lon="5.51252">
        <ele>302.5</ele>
        <time>2012-11-24T15:17:20.000Z</time>
      </trkpt>
      <trkpt lat="46.78345" lon="5.51251">
        <ele>302.4</ele>
        <time>2012-11-24T15:17:21.000Z</time>
      </trkpt>
      <trkpt lat="46.78332" lon="5.51245">
        <ele>298.3</ele>
        <time>2012-11-24T15:17:29.000Z</time>
      </trkpt>
      <trkpt lat="46.78328" lon="5.51243">
        <ele>297.2</ele>
        <time>2012-11-24T15:17:33.000Z</time>
      </trkpt>
      <trkpt lat="46.78327" lon="5.51243">
        <ele>297.1</ele>
        <time>2012-11-24T15:17:34.000Z</time>
      </trkpt>
      <trkpt lat="46.78323" lon="5.51242">
        <ele>297</ele>
        <time>2012-11-24T15:17:46.000Z</time>
      </trkpt>
      <trkpt lat="46.78322" lon="5.51242">
        <ele>298</ele>
        <time>2012-11-24T15:17:47.000Z</time>
      </trkpt>
      <trkpt lat="46.78318" lon="5.51239">
        <ele>297.6</ele>
        <time>2012-11-24T15:17:55.000Z</time>
      </trkpt>
      <trkpt lat="46.78317" lon="5.51239">
        <ele>297.5</ele>
        <time>2012-11-24T15:17:56.000Z</time>
      </trkpt>
      <trkpt lat="46.78313" lon="5.51239">
        <ele>297.5</ele>
        <time>2012-11-24T15:17:59.000Z</time>
      </trkpt>
      <trkpt lat="46.78312" lon="5.51239">
        <ele>297.6</ele>
        <time>2012-11-24T15:18:00.000Z</time>
      </trkpt>
      <trkpt lat="46.78308" lon="5.51239">
        <ele>297.3</ele>
        <time>2012-11-24T15:18:03.000Z</time>
      </trkpt>
      <trkpt lat="46.78306" lon="5.51238">
        <ele>297.2</ele>
        <time>2012-11-24T15:18:04.000Z</time>
      </trkpt>
      <trkpt lat="46.78303" lon="5.51237">
        <ele>297</ele>
        <time>2012-11-24T15:18:07.000Z</time>
      </trkpt>
      <trkpt lat="46.78301" lon="5.51237">
        <ele>296.9</ele>
        <time>2012-11-24T15:18:08.000Z</time>
      </trkpt>
      <trkpt lat="46.78298" lon="5.51237">
        <ele>296.9</ele>
        <time>2012-11-24T15:18:11.000Z</time>
      </trkpt>
      <trkpt lat="46.78296" lon="5.51237">
        <ele>296.9</ele>
        <time>2012-11-24T15:18:12.000Z</time>
      </trkpt>
      <trkpt lat="46.78292" lon="5.51237">
        <ele>297</ele>
        <time>2012-11-24T15:18:15.000Z</time>
      </trkpt>
      <trkpt lat="46.78291" lon="5.51237">
        <ele>296.9</ele>
        <time>2012-11-24T15:18:16.000Z</time>
      </trkpt>
      <trkpt lat="46.78288" lon="5.51236">
        <ele>297</ele>
        <time>2012-11-24T15:18:19.000Z</time>
      </trkpt>
      <trkpt lat="46.78286" lon="5.51236">
        <ele>297.2</ele>
        <time>2012-11-24T15:18:20.000Z</time>
      </trkpt>
      <trkpt lat="46.78284" lon="5.51236">
        <ele>296.7</ele>
        <time>2012-11-24T15:18:22.000Z</time>
      </trkpt>
      <trkpt lat="46.78272" lon="5.51233">
        <ele>299.9</ele>
        <time>2012-11-24T15:18:31.000Z</time>
      </trkpt>
      <trkpt lat="46.78268" lon="5.51233">
        <ele>300</ele>
        <time>2012-11-24T15:18:34.000Z</time>
      </trkpt>
      <trkpt lat="46.78267" lon="5.51232">
        <ele>300</ele>
        <time>2012-11-24T15:18:35.000Z</time>
      </trkpt>
      <trkpt lat="46.78263" lon="5.51231">
        <ele>300.1</ele>
        <time>2012-11-24T15:18:39.000Z</time>
      </trkpt>
      <trkpt lat="46.78261" lon="5.5123">
        <ele>300.2</ele>
        <time>2012-11-24T15:18:40.000Z</time>
      </trkpt>
      <trkpt lat="46.78257" lon="5.51229">
        <ele>299.8</ele>
        <time>2012-11-24T15:18:43.000Z</time>
      </trkpt>
      <trkpt lat="46.78256" lon="5.51228">
        <ele>299.7</ele>
        <time>2012-11-24T15:18:44.000Z</time>
      </trkpt>
      <trkpt lat="46.78252" lon="5.51226">
        <ele>298.5</ele>
        <time>2012-11-24T15:18:48.000Z</time>
      </trkpt>
      <trkpt lat="46.78251" lon="5.51226">
        <ele>298.2</ele>
        <time>2012-11-24T15:18:49.000Z</time>
      </trkpt>
      <trkpt lat="46.78247" lon="5.51223">
        <ele>297.3</ele>
        <time>2012-11-24T15:18:53.000Z</time>
      </trkpt>
      <trkpt lat="46.78246" lon="5.51223">
        <ele>297</ele>
        <time>2012-11-24T15:18:54.000Z</time>
      </trkpt>
      <trkpt lat="46.78242" lon="5.51221">
        <ele>296.2</ele>
        <time>2012-11-24T15:18:58.000Z</time>
      </trkpt>
      <trkpt lat="46.78241" lon="5.5122">
        <ele>295.9</ele>
        <time>2012-11-24T15:18:59.000Z</time>
      </trkpt>
      <trkpt lat="46.78237" lon="5.51218">
        <ele>295.4</ele>
        <time>2012-11-24T15:19:03.000Z</time>
      </trkpt>
      <trkpt lat="46.78236" lon="5.51218">
        <ele>295.6</ele>
        <time>2012-11-24T15:19:04.000Z</time>
      </trkpt>
      <trkpt lat="46.78233" lon="5.51216">
        <ele>295.8</ele>
        <time>2012-11-24T15:19:15.000Z</time>
      </trkpt>
      <trkpt lat="46.78232" lon="5.51215">
        <ele>295.7</ele>
        <time>2012-11-24T15:19:16.000Z</time>
      </trkpt>
      <trkpt lat="46.78229" lon="5.51214">
        <ele>295.8</ele>
        <time>2012-11-24T15:19:19.000Z</time>
      </trkpt>
      <trkpt lat="46.78228" lon="5.51213">
        <ele>295.6</ele>
        <time>2012-11-24T15:19:20.000Z</time>
      </trkpt>
      <trkpt lat="46.78226" lon="5.51212">
        <ele>295.6</ele>
        <time>2012-11-24T15:19:21.000Z</time>
      </trkpt>
      <trkpt lat="46.78221" lon="5.51196">
        <ele>298.5</ele>
        <time>2012-11-24T15:19:30.000Z</time>
      </trkpt>
      <trkpt lat="46.78217" lon="5.51195">
        <ele>293.9</ele>
        <time>2012-11-24T15:19:44.000Z</time>
      </trkpt>
      <trkpt lat="46.78216" lon="5.51194">
        <ele>294</ele>
        <time>2012-11-24T15:19:45.000Z</time>
      </trkpt>
      <trkpt lat="46.78212" lon="5.51191">
        <ele>294.5</ele>
        <time>2012-11-24T15:19:48.000Z</time>
      </trkpt>
      <trkpt lat="46.78212" lon="5.5119">
        <ele>294.5</ele>
        <time>2012-11-24T15:19:49.000Z</time>
      </trkpt>
      <trkpt lat="46.78209" lon="5.51186">
        <ele>294.7</ele>
        <time>2012-11-24T15:19:52.000Z</time>
      </trkpt>
      <trkpt lat="46.78208" lon="5.51185">
        <ele>294.6</ele>
        <time>2012-11-24T15:19:53.000Z</time>
      </trkpt>
      <trkpt lat="46.78206" lon="5.51179">
        <ele>294.2</ele>
        <time>2012-11-24T15:19:57.000Z</time>
      </trkpt>
      <trkpt lat="46.78206" lon="5.51177">
        <ele>294.2</ele>
        <time>2012-11-24T15:19:58.000Z</time>
      </trkpt>
      <trkpt lat="46.78206" lon="5.51172">
        <ele>294.1</ele>
        <time>2012-11-24T15:20:01.000Z</time>
      </trkpt>
      <trkpt lat="46.78206" lon="5.5117">
        <ele>294.3</ele>
        <time>2012-11-24T15:20:02.000Z</time>
      </trkpt>
      <trkpt lat="46.78206" lon="5.51164">
        <ele>295.2</ele>
        <time>2012-11-24T15:20:05.000Z</time>
      </trkpt>
      <trkpt lat="46.78206" lon="5.51162">
        <ele>295.1</ele>
        <time>2012-11-24T15:20:06.000Z</time>
      </trkpt>
      <trkpt lat="46.78207" lon="5.51157">
        <ele>295.1</ele>
        <time>2012-11-24T15:20:09.000Z</time>
      </trkpt>
      <trkpt lat="46.78207" lon="5.51155">
        <ele>295.1</ele>
        <time>2012-11-24T15:20:10.000Z</time>
      </trkpt>
      <trkpt lat="46.78208" lon="5.5115">
        <ele>295.3</ele>
        <time>2012-11-24T15:20:13.000Z</time>
      </trkpt>
      <trkpt lat="46.78208" lon="5.51148">
        <ele>295.3</ele>
        <time>2012-11-24T15:20:14.000Z</time>
      </trkpt>
      <trkpt lat="46.78209" lon="5.51142">
        <ele>295.2</ele>
        <time>2012-11-24T15:20:18.000Z</time>
      </trkpt>
      <trkpt lat="46.78209" lon="5.51141">
        <ele>295.3</ele>
        <time>2012-11-24T15:20:19.000Z</time>
      </trkpt>
      <trkpt lat="46.78209" lon="5.51135">
        <ele>295.6</ele>
        <time>2012-11-24T15:20:22.000Z</time>
      </trkpt>
      <trkpt lat="46.78209" lon="5.51133">
        <ele>295.6</ele>
        <time>2012-11-24T15:20:23.000Z</time>
      </trkpt>
      <trkpt lat="46.78209" lon="5.51127">
        <ele>295.1</ele>
        <time>2012-11-24T15:20:27.000Z</time>
      </trkpt>
      <trkpt lat="46.78209" lon="5.51126">
        <ele>294.9</ele>
        <time>2012-11-24T15:20:28.000Z</time>
      </trkpt>
      <trkpt lat="46.7821" lon="5.51119">
        <ele>294.1</ele>
        <time>2012-11-24T15:20:32.000Z</time>
      </trkpt>
      <trkpt lat="46.78211" lon="5.51118">
        <ele>294</ele>
        <time>2012-11-24T15:20:33.000Z</time>
      </trkpt>
      <trkpt lat="46.78212" lon="5.51112">
        <ele>293.9</ele>
        <time>2012-11-24T15:20:37.000Z</time>
      </trkpt>
      <trkpt lat="46.78212" lon="5.51111">
        <ele>293.8</ele>
        <time>2012-11-24T15:20:38.000Z</time>
      </trkpt>
      <trkpt lat="46.78213" lon="5.51104">
        <ele>293.7</ele>
        <time>2012-11-24T15:20:42.000Z</time>
      </trkpt>
      <trkpt lat="46.78213" lon="5.51103">
        <ele>293.6</ele>
        <time>2012-11-24T15:20:43.000Z</time>
      </trkpt>
      <trkpt lat="46.78214" lon="5.51097">
        <ele>293.9</ele>
        <time>2012-11-24T15:20:46.000Z</time>
      </trkpt>
      <trkpt lat="46.78214" lon="5.51096">
        <ele>293.9</ele>
        <time>2012-11-24T15:20:47.000Z</time>
      </trkpt>
      <trkpt lat="46.78215" lon="5.51091">
        <ele>293.6</ele>
        <time>2012-11-24T15:20:50.000Z</time>
      </trkpt>
      <trkpt lat="46.78216" lon="5.51089">
        <ele>293.6</ele>
        <time>2012-11-24T15:20:51.000Z</time>
      </trkpt>
      <trkpt lat="46.78216" lon="5.51083">
        <ele>293.6</ele>
        <time>2012-11-24T15:20:55.000Z</time>
      </trkpt>
      <trkpt lat="46.78216" lon="5.51081">
        <ele>293.7</ele>
        <time>2012-11-24T15:20:56.000Z</time>
      </trkpt>
      <trkpt lat="46.78217" lon="5.51076">
        <ele>293.9</ele>
        <time>2012-11-24T15:20:59.000Z</time>
      </trkpt>
      <trkpt lat="46.78217" lon="5.51074">
        <ele>293.9</ele>
        <time>2012-11-24T15:21:00.000Z</time>
      </trkpt>
      <trkpt lat="46.78218" lon="5.51069">
        <ele>293.9</ele>
        <time>2012-11-24T15:21:03.000Z</time>
      </trkpt>
      <trkpt lat="46.78219" lon="5.51068">
        <ele>293.9</ele>
        <time>2012-11-24T15:21:04.000Z</time>
      </trkpt>
      <trkpt lat="46.7822" lon="5.51063">
        <ele>294.3</ele>
        <time>2012-11-24T15:21:07.000Z</time>
      </trkpt>
      <trkpt lat="46.7822" lon="5.51061">
        <ele>294.5</ele>
        <time>2012-11-24T15:21:08.000Z</time>
      </trkpt>
      <trkpt lat="46.78221" lon="5.51056">
        <ele>295.2</ele>
        <time>2012-11-24T15:21:11.000Z</time>
      </trkpt>
      <trkpt lat="46.78221" lon="5.51054">
        <ele>295.6</ele>
        <time>2012-11-24T15:21:12.000Z</time>
      </trkpt>
      <trkpt lat="46.78222" lon="5.51049">
        <ele>295.7</ele>
        <time>2012-11-24T15:21:15.000Z</time>
      </trkpt>
      <trkpt lat="46.78222" lon="5.51047">
        <ele>295.8</ele>
        <time>2012-11-24T15:21:16.000Z</time>
      </trkpt>
      <trkpt lat="46.78222" lon="5.51042">
        <ele>296.6</ele>
        <time>2012-11-24T15:21:19.000Z</time>
      </trkpt>
      <trkpt lat="46.78223" lon="5.5104">
        <ele>296.8</ele>
        <time>2012-11-24T15:21:20.000Z</time>
      </trkpt>
      <trkpt lat="46.78223" lon="5.51036">
        <ele>297.2</ele>
        <time>2012-11-24T15:21:22.000Z</time>
      </trkpt>
      <trkpt lat="46.7822" lon="5.51019">
        <ele>299</ele>
        <time>2012-11-24T15:21:30.000Z</time>
      </trkpt>
      <trkpt lat="46.78219" lon="5.51012">
        <ele>300.2</ele>
        <time>2012-11-24T15:21:33.000Z</time>
      </trkpt>
      <trkpt lat="46.7822" lon="5.51007">
        <ele>300.6</ele>
        <time>2012-11-24T15:21:37.000Z</time>
      </trkpt>
      <trkpt lat="46.78219" lon="5.51005">
        <ele>300.8</ele>
        <time>2012-11-24T15:21:38.000Z</time>
      </trkpt>
      <trkpt lat="46.78219" lon="5.50999">
        <ele>301.2</ele>
        <time>2012-11-24T15:21:42.000Z</time>
      </trkpt>
      <trkpt lat="46.78218" lon="5.50998">
        <ele>301.4</ele>
        <time>2012-11-24T15:21:43.000Z</time>
      </trkpt>
      <trkpt lat="46.78215" lon="5.50993">
        <ele>296.8</ele>
        <time>2012-11-24T15:21:50.000Z</time>
      </trkpt>
      <trkpt lat="46.78214" lon="5.50993">
        <ele>296.6</ele>
        <time>2012-11-24T15:21:51.000Z</time>
      </trkpt>
      <trkpt lat="46.7821" lon="5.50993">
        <ele>296.2</ele>
        <time>2012-11-24T15:21:55.000Z</time>
      </trkpt>
      <trkpt lat="46.78209" lon="5.50994">
        <ele>296</ele>
        <time>2012-11-24T15:21:56.000Z</time>
      </trkpt>
      <trkpt lat="46.78208" lon="5.50988">
        <ele>295.2</ele>
        <time>2012-11-24T15:22:16.000Z</time>
      </trkpt>
      <trkpt lat="46.78208" lon="5.50986">
        <ele>294.9</ele>
        <time>2012-11-24T15:22:17.000Z</time>
      </trkpt>
      <trkpt lat="46.78207" lon="5.5098">
        <ele>295.1</ele>
        <time>2012-11-24T15:22:20.000Z</time>
      </trkpt>
      <trkpt lat="46.78206" lon="5.50978">
        <ele>295.4</ele>
        <time>2012-11-24T15:22:21.000Z</time>
      </trkpt>
      <trkpt lat="46.78205" lon="5.50977">
        <ele>295.7</ele>
        <time>2012-11-24T15:22:22.000Z</time>
      </trkpt>
      <trkpt lat="46.78193" lon="5.50962">
        <ele>302.7</ele>
        <time>2012-11-24T15:22:30.000Z</time>
      </trkpt>
      <trkpt lat="46.7819" lon="5.50957">
        <ele>299.9</ele>
        <time>2012-11-24T15:22:34.000Z</time>
      </trkpt>
      <trkpt lat="46.7819" lon="5.50956">
        <ele>299.5</ele>
        <time>2012-11-24T15:22:35.000Z</time>
      </trkpt>
      <trkpt lat="46.78187" lon="5.50952">
        <ele>297</ele>
        <time>2012-11-24T15:22:39.000Z</time>
      </trkpt>
      <trkpt lat="46.78186" lon="5.50951">
        <ele>296.4</ele>
        <time>2012-11-24T15:22:40.000Z</time>
      </trkpt>
      <trkpt lat="46.78183" lon="5.50948">
        <ele>296.1</ele>
        <time>2012-11-24T15:22:43.000Z</time>
      </trkpt>
      <trkpt lat="46.78182" lon="5.50946">
        <ele>296</ele>
        <time>2012-11-24T15:22:44.000Z</time>
      </trkpt>
      <trkpt lat="46.78179" lon="5.50942">
        <ele>296.3</ele>
        <time>2012-11-24T15:22:47.000Z</time>
      </trkpt>
      <trkpt lat="46.78178" lon="5.50941">
        <ele>296.4</ele>
        <time>2012-11-24T15:22:48.000Z</time>
      </trkpt>
      <trkpt lat="46.78175" lon="5.50936">
        <ele>298</ele>
        <time>2012-11-24T15:22:51.000Z</time>
      </trkpt>
      <trkpt lat="46.78173" lon="5.50934">
        <ele>298.8</ele>
        <time>2012-11-24T15:22:52.000Z</time>
      </trkpt>
      <trkpt lat="46.78171" lon="5.5093">
        <ele>300.6</ele>
        <time>2012-11-24T15:22:55.000Z</time>
      </trkpt>
      <trkpt lat="46.7817" lon="5.50929">
        <ele>300.7</ele>
        <time>2012-11-24T15:22:56.000Z</time>
      </trkpt>
      <trkpt lat="46.78167" lon="5.50926">
        <ele>300.8</ele>
        <time>2012-11-24T15:22:59.000Z</time>
      </trkpt>
      <trkpt lat="46.78166" lon="5.50924">
        <ele>300.3</ele>
        <time>2012-11-24T15:23:00.000Z</time>
      </trkpt>
      <trkpt lat="46.78163" lon="5.50921">
        <ele>299.5</ele>
        <time>2012-11-24T15:23:03.000Z</time>
      </trkpt>
      <trkpt lat="46.78162" lon="5.5092">
        <ele>299.3</ele>
        <time>2012-11-24T15:23:04.000Z</time>
      </trkpt>
      <trkpt lat="46.7816" lon="5.50916">
        <ele>298.9</ele>
        <time>2012-11-24T15:23:07.000Z</time>
      </trkpt>
      <trkpt lat="46.78159" lon="5.50915">
        <ele>298.8</ele>
        <time>2012-11-24T15:23:08.000Z</time>
      </trkpt>
      <trkpt lat="46.78156" lon="5.50913">
        <ele>298.2</ele>
        <time>2012-11-24T15:23:11.000Z</time>
      </trkpt>
      <trkpt lat="46.78155" lon="5.50912">
        <ele>298</ele>
        <time>2012-11-24T15:23:12.000Z</time>
      </trkpt>
      <trkpt lat="46.78151" lon="5.5091">
        <ele>296.5</ele>
        <time>2012-11-24T15:23:16.000Z</time>
      </trkpt>
      <trkpt lat="46.7815" lon="5.50909">
        <ele>296</ele>
        <time>2012-11-24T15:23:17.000Z</time>
      </trkpt>
      <trkpt lat="46.78147" lon="5.50906">
        <ele>295.5</ele>
        <time>2012-11-24T15:23:20.000Z</time>
      </trkpt>
      <trkpt lat="46.78146" lon="5.50906">
        <ele>295.2</ele>
        <time>2012-11-24T15:23:21.000Z</time>
      </trkpt>
      <trkpt lat="46.78143" lon="5.50904">
        <ele>294.6</ele>
        <time>2012-11-24T15:23:24.000Z</time>
      </trkpt>
      <trkpt lat="46.78142" lon="5.50903">
        <ele>294.6</ele>
        <time>2012-11-24T15:23:25.000Z</time>
      </trkpt>
      <trkpt lat="46.78139" lon="5.509">
        <ele>294.3</ele>
        <time>2012-11-24T15:23:28.000Z</time>
      </trkpt>
      <trkpt lat="46.78138" lon="5.50899">
        <ele>294.1</ele>
        <time>2012-11-24T15:23:29.000Z</time>
      </trkpt>
      <trkpt lat="46.78134" lon="5.50896">
        <ele>293.7</ele>
        <time>2012-11-24T15:23:32.000Z</time>
      </trkpt>
      <trkpt lat="46.78133" lon="5.50895">
        <ele>293.6</ele>
        <time>2012-11-24T15:23:33.000Z</time>
      </trkpt>
      <trkpt lat="46.78129" lon="5.50893">
        <ele>293.5</ele>
        <time>2012-11-24T15:23:36.000Z</time>
      </trkpt>
      <trkpt lat="46.78128" lon="5.50892">
        <ele>293.4</ele>
        <time>2012-11-24T15:23:37.000Z</time>
      </trkpt>
      <trkpt lat="46.78125" lon="5.50889">
        <ele>293.2</ele>
        <time>2012-11-24T15:23:40.000Z</time>
      </trkpt>
      <trkpt lat="46.78124" lon="5.50888">
        <ele>293</ele>
        <time>2012-11-24T15:23:41.000Z</time>
      </trkpt>
      <trkpt lat="46.7812" lon="5.50885">
        <ele>292.9</ele>
        <time>2012-11-24T15:23:44.000Z</time>
      </trkpt>
      <trkpt lat="46.78119" lon="5.50884">
        <ele>292.8</ele>
        <time>2012-11-24T15:23:45.000Z</time>
      </trkpt>
      <trkpt lat="46.78116" lon="5.5088">
        <ele>292.7</ele>
        <time>2012-11-24T15:23:48.000Z</time>
      </trkpt>
      <trkpt lat="46.78115" lon="5.50879">
        <ele>292.6</ele>
        <time>2012-11-24T15:23:49.000Z</time>
      </trkpt>
      <trkpt lat="46.78112" lon="5.50876">
        <ele>292.3</ele>
        <time>2012-11-24T15:23:53.000Z</time>
      </trkpt>
      <trkpt lat="46.78111" lon="5.50875">
        <ele>292.4</ele>
        <time>2012-11-24T15:23:54.000Z</time>
      </trkpt>
      <trkpt lat="46.78107" lon="5.50874">
        <ele>292.2</ele>
        <time>2012-11-24T15:24:06.000Z</time>
      </trkpt>
      <trkpt lat="46.78106" lon="5.50873">
        <ele>292.1</ele>
        <time>2012-11-24T15:24:07.000Z</time>
      </trkpt>
      <trkpt lat="46.78104" lon="5.50868">
        <ele>292.2</ele>
        <time>2012-11-24T15:24:11.000Z</time>
      </trkpt>
      <trkpt lat="46.78103" lon="5.50867">
        <ele>292.1</ele>
        <time>2012-11-24T15:24:12.000Z</time>
      </trkpt>
      <trkpt lat="46.781" lon="5.50864">
        <ele>291.2</ele>
        <time>2012-11-24T15:24:15.000Z</time>
      </trkpt>
      <trkpt lat="46.78099" lon="5.50863">
        <ele>291</ele>
        <time>2012-11-24T15:24:16.000Z</time>
      </trkpt>
      <trkpt lat="46.78096" lon="5.50859">
        <ele>289.4</ele>
        <time>2012-11-24T15:24:20.000Z</time>
      </trkpt>
      <trkpt lat="46.78095" lon="5.50858">
        <ele>289</ele>
        <time>2012-11-24T15:24:21.000Z</time>
      </trkpt>
      <trkpt lat="46.78092" lon="5.50855">
        <ele>288.2</ele>
        <time>2012-11-24T15:24:25.000Z</time>
      </trkpt>
      <trkpt lat="46.78092" lon="5.50854">
        <ele>288.2</ele>
        <time>2012-11-24T15:24:26.000Z</time>
      </trkpt>
      <trkpt lat="46.78089" lon="5.5085">
        <ele>288.7</ele>
        <time>2012-11-24T15:24:30.000Z</time>
      </trkpt>
      <trkpt lat="46.78088" lon="5.50849">
        <ele>288.8</ele>
        <time>2012-11-24T15:24:31.000Z</time>
      </trkpt>
      <trkpt lat="46.78085" lon="5.50845">
        <ele>289.2</ele>
        <time>2012-11-24T15:24:36.000Z</time>
      </trkpt>
      <trkpt lat="46.78085" lon="5.50844">
        <ele>289.3</ele>
        <time>2012-11-24T15:24:37.000Z</time>
      </trkpt>
      <trkpt lat="46.78083" lon="5.50838">
        <ele>289.8</ele>
        <time>2012-11-24T15:24:43.000Z</time>
      </trkpt>
      <trkpt lat="46.78083" lon="5.50837">
        <ele>289.8</ele>
        <time>2012-11-24T15:24:44.000Z</time>
      </trkpt>
      <trkpt lat="46.78081" lon="5.50832">
        <ele>289.2</ele>
        <time>2012-11-24T15:24:48.000Z</time>
      </trkpt>
      <trkpt lat="46.7808" lon="5.50831">
        <ele>289.1</ele>
        <time>2012-11-24T15:24:49.000Z</time>
      </trkpt>
      <trkpt lat="46.78079" lon="5.50824">
        <ele>288.9</ele>
        <time>2012-11-24T15:24:53.000Z</time>
      </trkpt>
      <trkpt lat="46.78079" lon="5.50823">
        <ele>288.8</ele>
        <time>2012-11-24T15:24:54.000Z</time>
      </trkpt>
      <trkpt lat="46.78079" lon="5.50816">
        <ele>289.1</ele>
        <time>2012-11-24T15:24:58.000Z</time>
      </trkpt>
      <trkpt lat="46.78079" lon="5.50815">
        <ele>289.1</ele>
        <time>2012-11-24T15:24:59.000Z</time>
      </trkpt>
      <trkpt lat="46.78078" lon="5.50809">
        <ele>289.3</ele>
        <time>2012-11-24T15:25:03.000Z</time>
      </trkpt>
      <trkpt lat="46.78078" lon="5.50807">
        <ele>289.2</ele>
        <time>2012-11-24T15:25:04.000Z</time>
      </trkpt>
      <trkpt lat="46.78078" lon="5.50801">
        <ele>289.4</ele>
        <time>2012-11-24T15:25:07.000Z</time>
      </trkpt>
      <trkpt lat="46.78078" lon="5.508">
        <ele>289.5</ele>
        <time>2012-11-24T15:25:08.000Z</time>
      </trkpt>
      <trkpt lat="46.78077" lon="5.50794">
        <ele>289.3</ele>
        <time>2012-11-24T15:25:11.000Z</time>
      </trkpt>
      <trkpt lat="46.78077" lon="5.50792">
        <ele>289.2</ele>
        <time>2012-11-24T15:25:12.000Z</time>
      </trkpt>
      <trkpt lat="46.78077" lon="5.50787">
        <ele>289</ele>
        <time>2012-11-24T15:25:15.000Z</time>
      </trkpt>
      <trkpt lat="46.78077" lon="5.50785">
        <ele>289</ele>
        <time>2012-11-24T15:25:16.000Z</time>
      </trkpt>
      <trkpt lat="46.78076" lon="5.50779">
        <ele>289.2</ele>
        <time>2012-11-24T15:25:19.000Z</time>
      </trkpt>
      <trkpt lat="46.78076" lon="5.50777">
        <ele>289.4</ele>
        <time>2012-11-24T15:25:20.000Z</time>
      </trkpt>
      <trkpt lat="46.78075" lon="5.50771">
        <ele>290.1</ele>
        <time>2012-11-24T15:25:23.000Z</time>
      </trkpt>
      <trkpt lat="46.78075" lon="5.50769">
        <ele>290.2</ele>
        <time>2012-11-24T15:25:24.000Z</time>
      </trkpt>
      <trkpt lat="46.78074" lon="5.50763">
        <ele>290.4</ele>
        <time>2012-11-24T15:25:27.000Z</time>
      </trkpt>
      <trkpt lat="46.78074" lon="5.50762">
        <ele>290.6</ele>
        <time>2012-11-24T15:25:28.000Z</time>
      </trkpt>
      <trkpt lat="46.78073" lon="5.50756">
        <ele>291.2</ele>
        <time>2012-11-24T15:25:31.000Z</time>
      </trkpt>
      <trkpt lat="46.78072" lon="5.50754">
        <ele>291.3</ele>
        <time>2012-11-24T15:25:32.000Z</time>
      </trkpt>
      <trkpt lat="46.78071" lon="5.50749">
        <ele>291.3</ele>
        <time>2012-11-24T15:25:35.000Z</time>
      </trkpt>
      <trkpt lat="46.7807" lon="5.50748">
        <ele>291.2</ele>
        <time>2012-11-24T15:25:36.000Z</time>
      </trkpt>
      <trkpt lat="46.78068" lon="5.50744">
        <ele>290.6</ele>
        <time>2012-11-24T15:25:39.000Z</time>
      </trkpt>
      <trkpt lat="46.78067" lon="5.50743">
        <ele>291.2</ele>
        <time>2012-11-24T15:25:40.000Z</time>
      </trkpt>
      <trkpt lat="46.78064" lon="5.5074">
        <ele>291.3</ele>
        <time>2012-11-24T15:25:43.000Z</time>
      </trkpt>
      <trkpt lat="46.78063" lon="5.50739">
        <ele>291</ele>
        <time>2012-11-24T15:25:44.000Z</time>
      </trkpt>
      <trkpt lat="46.7806" lon="5.50737">
        <ele>291.1</ele>
        <time>2012-11-24T15:25:47.000Z</time>
      </trkpt>
      <trkpt lat="46.78058" lon="5.50736">
        <ele>290.9</ele>
        <time>2012-11-24T15:25:48.000Z</time>
      </trkpt>
      <trkpt lat="46.78055" lon="5.50734">
        <ele>290.4</ele>
        <time>2012-11-24T15:25:51.000Z</time>
      </trkpt>
      <trkpt lat="46.78054" lon="5.50734">
        <ele>290.3</ele>
        <time>2012-11-24T15:25:52.000Z</time>
      </trkpt>
      <trkpt lat="46.7805" lon="5.50732">
        <ele>290.1</ele>
        <time>2012-11-24T15:25:56.000Z</time>
      </trkpt>
      <trkpt lat="46.78049" lon="5.50731">
        <ele>289.9</ele>
        <time>2012-11-24T15:25:57.000Z</time>
      </trkpt>
      <trkpt lat="46.78044" lon="5.50729">
        <ele>289.5</ele>
        <time>2012-11-24T15:26:01.000Z</time>
      </trkpt>
      <trkpt lat="46.78043" lon="5.50729">
        <ele>289.5</ele>
        <time>2012-11-24T15:26:02.000Z</time>
      </trkpt>
      <trkpt lat="46.7804" lon="5.50726">
        <ele>289.6</ele>
        <time>2012-11-24T15:26:06.000Z</time>
      </trkpt>
      <trkpt lat="46.78039" lon="5.50724">
        <ele>289.3</ele>
        <time>2012-11-24T15:26:07.000Z</time>
      </trkpt>
      <trkpt lat="46.78035" lon="5.50723">
        <ele>288.9</ele>
        <time>2012-11-24T15:26:11.000Z</time>
      </trkpt>
      <trkpt lat="46.78034" lon="5.50723">
        <ele>288.9</ele>
        <time>2012-11-24T15:26:12.000Z</time>
      </trkpt>
      <trkpt lat="46.78031" lon="5.50723">
        <ele>289.2</ele>
        <time>2012-11-24T15:26:15.000Z</time>
      </trkpt>
      <trkpt lat="46.78029" lon="5.50723">
        <ele>289.3</ele>
        <time>2012-11-24T15:26:16.000Z</time>
      </trkpt>
      <trkpt lat="46.78026" lon="5.50722">
        <ele>289.3</ele>
        <time>2012-11-24T15:26:19.000Z</time>
      </trkpt>
      <trkpt lat="46.78024" lon="5.50721">
        <ele>289.2</ele>
        <time>2012-11-24T15:26:20.000Z</time>
      </trkpt>
      <trkpt lat="46.78021" lon="5.50719">
        <ele>289.4</ele>
        <time>2012-11-24T15:26:23.000Z</time>
      </trkpt>
      <trkpt lat="46.78019" lon="5.50719">
        <ele>289.4</ele>
        <time>2012-11-24T15:26:24.000Z</time>
      </trkpt>
      <trkpt lat="46.78015" lon="5.50717">
        <ele>289.7</ele>
        <time>2012-11-24T15:26:27.000Z</time>
      </trkpt>
      <trkpt lat="46.78014" lon="5.50717">
        <ele>289.7</ele>
        <time>2012-11-24T15:26:28.000Z</time>
      </trkpt>
      <trkpt lat="46.7801" lon="5.50715">
        <ele>290.3</ele>
        <time>2012-11-24T15:26:31.000Z</time>
      </trkpt>
      <trkpt lat="46.78009" lon="5.50714">
        <ele>290.3</ele>
        <time>2012-11-24T15:26:32.000Z</time>
      </trkpt>
      <trkpt lat="46.78005" lon="5.50712">
        <ele>290.3</ele>
        <time>2012-11-24T15:26:35.000Z</time>
      </trkpt>
      <trkpt lat="46.78004" lon="5.50712">
        <ele>290.2</ele>
        <time>2012-11-24T15:26:36.000Z</time>
      </trkpt>
      <trkpt lat="46.78" lon="5.5071">
        <ele>289.5</ele>
        <time>2012-11-24T15:26:39.000Z</time>
      </trkpt>
      <trkpt lat="46.77999" lon="5.5071">
        <ele>289.3</ele>
        <time>2012-11-24T15:26:40.000Z</time>
      </trkpt>
      <trkpt lat="46.77996" lon="5.50708">
        <ele>288.9</ele>
        <time>2012-11-24T15:26:43.000Z</time>
      </trkpt>
      <trkpt lat="46.77995" lon="5.50707">
        <ele>288.8</ele>
        <time>2012-11-24T15:26:44.000Z</time>
      </trkpt>
      <trkpt lat="46.77992" lon="5.50704">
        <ele>288.3</ele>
        <time>2012-11-24T15:26:47.000Z</time>
      </trkpt>
      <trkpt lat="46.7799" lon="5.50704">
        <ele>288.1</ele>
        <time>2012-11-24T15:26:48.000Z</time>
      </trkpt>
      <trkpt lat="46.77987" lon="5.50702">
        <ele>287.6</ele>
        <time>2012-11-24T15:26:51.000Z</time>
      </trkpt>
      <trkpt lat="46.77986" lon="5.50701">
        <ele>287.4</ele>
        <time>2012-11-24T15:26:52.000Z</time>
      </trkpt>
      <trkpt lat="46.77983" lon="5.50699">
        <ele>287</ele>
        <time>2012-11-24T15:26:55.000Z</time>
      </trkpt>
      <trkpt lat="46.77982" lon="5.50699">
        <ele>286.8</ele>
        <time>2012-11-24T15:26:56.000Z</time>
      </trkpt>
      <trkpt lat="46.77979" lon="5.50697">
        <ele>286</ele>
        <time>2012-11-24T15:26:59.000Z</time>
      </trkpt>
      <trkpt lat="46.77977" lon="5.50696">
        <ele>285.6</ele>
        <time>2012-11-24T15:27:00.000Z</time>
      </trkpt>
      <trkpt lat="46.77974" lon="5.50695">
        <ele>285</ele>
        <time>2012-11-24T15:27:03.000Z</time>
      </trkpt>
      <trkpt lat="46.77973" lon="5.50694">
        <ele>284.7</ele>
        <time>2012-11-24T15:27:04.000Z</time>
      </trkpt>
      <trkpt lat="46.77969" lon="5.50692">
        <ele>284.4</ele>
        <time>2012-11-24T15:27:07.000Z</time>
      </trkpt>
      <trkpt lat="46.77968" lon="5.50692">
        <ele>284.4</ele>
        <time>2012-11-24T15:27:08.000Z</time>
      </trkpt>
      <trkpt lat="46.77965" lon="5.50689">
        <ele>284.1</ele>
        <time>2012-11-24T15:27:11.000Z</time>
      </trkpt>
      <trkpt lat="46.77963" lon="5.50689">
        <ele>284</ele>
        <time>2012-11-24T15:27:12.000Z</time>
      </trkpt>
      <trkpt lat="46.7796" lon="5.50687">
        <ele>283.8</ele>
        <time>2012-11-24T15:27:15.000Z</time>
      </trkpt>
      <trkpt lat="46.77959" lon="5.50686">
        <ele>283.9</ele>
        <time>2012-11-24T15:27:16.000Z</time>
      </trkpt>
      <trkpt lat="46.77955" lon="5.50686">
        <ele>284.2</ele>
        <time>2012-11-24T15:27:19.000Z</time>
      </trkpt>
      <trkpt lat="46.77954" lon="5.50686">
        <ele>284.3</ele>
        <time>2012-11-24T15:27:20.000Z</time>
      </trkpt>
      <trkpt lat="46.7795" lon="5.50684">
        <ele>284.5</ele>
        <time>2012-11-24T15:27:24.000Z</time>
      </trkpt>
      <trkpt lat="46.77949" lon="5.50683">
        <ele>284.5</ele>
        <time>2012-11-24T15:27:25.000Z</time>
      </trkpt>
      <trkpt lat="46.77945" lon="5.50681">
        <ele>284.2</ele>
        <time>2012-11-24T15:27:29.000Z</time>
      </trkpt>
      <trkpt lat="46.77944" lon="5.5068">
        <ele>284.3</ele>
        <time>2012-11-24T15:27:30.000Z</time>
      </trkpt>
      <trkpt lat="46.7794" lon="5.50678">
        <ele>285.2</ele>
        <time>2012-11-24T15:27:44.000Z</time>
      </trkpt>
      <trkpt lat="46.7794" lon="5.50678">
        <ele>285.2</ele>
        <time>2012-11-24T15:27:45.000Z</time>
      </trkpt>
      <trkpt lat="46.77936" lon="5.50676">
        <ele>285.2</ele>
        <time>2012-11-24T15:27:49.000Z</time>
      </trkpt>
      <trkpt lat="46.77935" lon="5.50676">
        <ele>285.2</ele>
        <time>2012-11-24T15:27:50.000Z</time>
      </trkpt>
      <trkpt lat="46.77931" lon="5.50674">
        <ele>285.5</ele>
        <time>2012-11-24T15:27:54.000Z</time>
      </trkpt>
      <trkpt lat="46.7793" lon="5.50673">
        <ele>285.6</ele>
        <time>2012-11-24T15:27:55.000Z</time>
      </trkpt>
      <trkpt lat="46.77926" lon="5.50671">
        <ele>286.4</ele>
        <time>2012-11-24T15:27:59.000Z</time>
      </trkpt>
      <trkpt lat="46.77925" lon="5.5067">
        <ele>286.4</ele>
        <time>2012-11-24T15:28:00.000Z</time>
      </trkpt>
      <trkpt lat="46.77922" lon="5.50668">
        <ele>286.3</ele>
        <time>2012-11-24T15:28:05.000Z</time>
      </trkpt>
      <trkpt lat="46.77921" lon="5.50668">
        <ele>286.3</ele>
        <time>2012-11-24T15:28:06.000Z</time>
      </trkpt>
      <trkpt lat="46.77917" lon="5.50666">
        <ele>286.2</ele>
        <time>2012-11-24T15:28:10.000Z</time>
      </trkpt>
      <trkpt lat="46.77916" lon="5.50665">
        <ele>286.1</ele>
        <time>2012-11-24T15:28:11.000Z</time>
      </trkpt>
      <trkpt lat="46.77913" lon="5.50663">
        <ele>285.3</ele>
        <time>2012-11-24T15:28:14.000Z</time>
      </trkpt>
      <trkpt lat="46.77912" lon="5.50662">
        <ele>285.1</ele>
        <time>2012-11-24T15:28:15.000Z</time>
      </trkpt>
      <trkpt lat="46.77908" lon="5.5066">
        <ele>284.1</ele>
        <time>2012-11-24T15:28:18.000Z</time>
      </trkpt>
      <trkpt lat="46.77907" lon="5.5066">
        <ele>283.8</ele>
        <time>2012-11-24T15:28:19.000Z</time>
      </trkpt>
      <trkpt lat="46.77903" lon="5.50658">
        <ele>283.5</ele>
        <time>2012-11-24T15:28:23.000Z</time>
      </trkpt>
      <trkpt lat="46.77893" lon="5.50652">
        <ele>284.4</ele>
        <time>2012-11-24T15:28:33.000Z</time>
      </trkpt>
      <trkpt lat="46.77889" lon="5.5065">
        <ele>283.7</ele>
        <time>2012-11-24T15:28:37.000Z</time>
      </trkpt>
      <trkpt lat="46.77888" lon="5.50649">
        <ele>283.6</ele>
        <time>2012-11-24T15:28:38.000Z</time>
      </trkpt>
      <trkpt lat="46.77883" lon="5.50647">
        <ele>283.3</ele>
        <time>2012-11-24T15:28:42.000Z</time>
      </trkpt>
      <trkpt lat="46.77882" lon="5.50647">
        <ele>283.2</ele>
        <time>2012-11-24T15:28:43.000Z</time>
      </trkpt>
      <trkpt lat="46.77879" lon="5.50644">
        <ele>283</ele>
        <time>2012-11-24T15:28:47.000Z</time>
      </trkpt>
      <trkpt lat="46.77878" lon="5.50643">
        <ele>282.9</ele>
        <time>2012-11-24T15:28:48.000Z</time>
      </trkpt>
      <trkpt lat="46.77875" lon="5.5064">
        <ele>282.5</ele>
        <time>2012-11-24T15:28:51.000Z</time>
      </trkpt>
      <trkpt lat="46.77874" lon="5.50639">
        <ele>282.3</ele>
        <time>2012-11-24T15:28:52.000Z</time>
      </trkpt>
      <trkpt lat="46.7787" lon="5.50635">
        <ele>282</ele>
        <time>2012-11-24T15:28:56.000Z</time>
      </trkpt>
      <trkpt lat="46.77869" lon="5.50635">
        <ele>281.9</ele>
        <time>2012-11-24T15:28:57.000Z</time>
      </trkpt>
      <trkpt lat="46.77866" lon="5.50631">
        <ele>281.5</ele>
        <time>2012-11-24T15:29:01.000Z</time>
      </trkpt>
      <trkpt lat="46.77865" lon="5.5063">
        <ele>281.3</ele>
        <time>2012-11-24T15:29:02.000Z</time>
      </trkpt>
      <trkpt lat="46.77861" lon="5.50626">
        <ele>280.9</ele>
        <time>2012-11-24T15:29:07.000Z</time>
      </trkpt>
      <trkpt lat="46.77861" lon="5.50625">
        <ele>280.9</ele>
        <time>2012-11-24T15:29:08.000Z</time>
      </trkpt>
      <trkpt lat="46.77859" lon="5.50621">
        <ele>280.7</ele>
        <time>2012-11-24T15:29:11.000Z</time>
      </trkpt>
      <trkpt lat="46.77858" lon="5.50619">
        <ele>280.7</ele>
        <time>2012-11-24T15:29:12.000Z</time>
      </trkpt>
      <trkpt lat="46.77856" lon="5.50615">
        <ele>280.2</ele>
        <time>2012-11-24T15:29:15.000Z</time>
      </trkpt>
      <trkpt lat="46.77855" lon="5.50613">
        <ele>279.9</ele>
        <time>2012-11-24T15:29:16.000Z</time>
      </trkpt>
      <trkpt lat="46.77853" lon="5.50609">
        <ele>279.2</ele>
        <time>2012-11-24T15:29:19.000Z</time>
      </trkpt>
      <trkpt lat="46.77852" lon="5.50607">
        <ele>279.1</ele>
        <time>2012-11-24T15:29:20.000Z</time>
      </trkpt>
      <trkpt lat="46.7785" lon="5.50602">
        <ele>279.1</ele>
        <time>2012-11-24T15:29:23.000Z</time>
      </trkpt>
      <trkpt lat="46.77849" lon="5.50601">
        <ele>279</ele>
        <time>2012-11-24T15:29:24.000Z</time>
      </trkpt>
      <trkpt lat="46.77847" lon="5.50597">
        <ele>279</ele>
        <time>2012-11-24T15:29:27.000Z</time>
      </trkpt>
      <trkpt lat="46.77846" lon="5.50596">
        <ele>278.8</ele>
        <time>2012-11-24T15:29:28.000Z</time>
      </trkpt>
      <trkpt lat="46.77844" lon="5.50592">
        <ele>278.4</ele>
        <time>2012-11-24T15:29:31.000Z</time>
      </trkpt>
      <trkpt lat="46.77843" lon="5.5059">
        <ele>278.3</ele>
        <time>2012-11-24T15:29:32.000Z</time>
      </trkpt>
      <trkpt lat="46.77841" lon="5.50586">
        <ele>278</ele>
        <time>2012-11-24T15:29:35.000Z</time>
      </trkpt>
      <trkpt lat="46.7784" lon="5.50584">
        <ele>277.8</ele>
        <time>2012-11-24T15:29:36.000Z</time>
      </trkpt>
      <trkpt lat="46.77838" lon="5.5058">
        <ele>277.4</ele>
        <time>2012-11-24T15:29:39.000Z</time>
      </trkpt>
      <trkpt lat="46.77837" lon="5.50578">
        <ele>277.3</ele>
        <time>2012-11-24T15:29:40.000Z</time>
      </trkpt>
      <trkpt lat="46.77835" lon="5.50574">
        <ele>277</ele>
        <time>2012-11-24T15:29:43.000Z</time>
      </trkpt>
      <trkpt lat="46.77834" lon="5.50572">
        <ele>276.9</ele>
        <time>2012-11-24T15:29:44.000Z</time>
      </trkpt>
      <trkpt lat="46.77832" lon="5.50569">
        <ele>276.6</ele>
        <time>2012-11-24T15:29:47.000Z</time>
      </trkpt>
      <trkpt lat="46.77831" lon="5.50567">
        <ele>276.6</ele>
        <time>2012-11-24T15:29:48.000Z</time>
      </trkpt>
      <trkpt lat="46.77828" lon="5.50563">
        <ele>276.5</ele>
        <time>2012-11-24T15:29:52.000Z</time>
      </trkpt>
      <trkpt lat="46.77827" lon="5.50562">
        <ele>276.5</ele>
        <time>2012-11-24T15:29:53.000Z</time>
      </trkpt>
      <trkpt lat="46.77824" lon="5.50559">
        <ele>276.5</ele>
        <time>2012-11-24T15:29:56.000Z</time>
      </trkpt>
      <trkpt lat="46.77823" lon="5.50558">
        <ele>276.5</ele>
        <time>2012-11-24T15:29:57.000Z</time>
      </trkpt>
      <trkpt lat="46.7782" lon="5.50556">
        <ele>276.4</ele>
        <time>2012-11-24T15:30:00.000Z</time>
      </trkpt>
      <trkpt lat="46.77818" lon="5.50555">
        <ele>276.2</ele>
        <time>2012-11-24T15:30:01.000Z</time>
      </trkpt>
      <trkpt lat="46.77815" lon="5.50553">
        <ele>275.6</ele>
        <time>2012-11-24T15:30:04.000Z</time>
      </trkpt>
      <trkpt lat="46.77814" lon="5.50553">
        <ele>275.4</ele>
        <time>2012-11-24T15:30:05.000Z</time>
      </trkpt>
      <trkpt lat="46.7781" lon="5.50552">
        <ele>275.1</ele>
        <time>2012-11-24T15:30:08.000Z</time>
      </trkpt>
      <trkpt lat="46.77809" lon="5.50551">
        <ele>275.3</ele>
        <time>2012-11-24T15:30:09.000Z</time>
      </trkpt>
      <trkpt lat="46.77805" lon="5.50553">
        <ele>275.1</ele>
        <time>2012-11-24T15:30:12.000Z</time>
      </trkpt>
      <trkpt lat="46.77804" lon="5.50554">
        <ele>274.8</ele>
        <time>2012-11-24T15:30:13.000Z</time>
      </trkpt>
      <trkpt lat="46.778" lon="5.50556">
        <ele>275.2</ele>
        <time>2012-11-24T15:30:16.000Z</time>
      </trkpt>
      <trkpt lat="46.77799" lon="5.50557">
        <ele>275.1</ele>
        <time>2012-11-24T15:30:17.000Z</time>
      </trkpt>
      <trkpt lat="46.77795" lon="5.5056">
        <ele>274.8</ele>
        <time>2012-11-24T15:30:20.000Z</time>
      </trkpt>
      <trkpt lat="46.77794" lon="5.50561">
        <ele>274.7</ele>
        <time>2012-11-24T15:30:21.000Z</time>
      </trkpt>
      <trkpt lat="46.77791" lon="5.50565">
        <ele>274.6</ele>
        <time>2012-11-24T15:30:24.000Z</time>
      </trkpt>
      <trkpt lat="46.7779" lon="5.50566">
        <ele>274.5</ele>
        <time>2012-11-24T15:30:25.000Z</time>
      </trkpt>
      <trkpt lat="46.77787" lon="5.5057">
        <ele>274.5</ele>
        <time>2012-11-24T15:30:28.000Z</time>
      </trkpt>
      <trkpt lat="46.77786" lon="5.50571">
        <ele>274.4</ele>
        <time>2012-11-24T15:30:29.000Z</time>
      </trkpt>
      <trkpt lat="46.77784" lon="5.50575">
        <ele>274</ele>
        <time>2012-11-24T15:30:32.000Z</time>
      </trkpt>
      <trkpt lat="46.77783" lon="5.50577">
        <ele>274</ele>
        <time>2012-11-24T15:30:33.000Z</time>
      </trkpt>
      <trkpt lat="46.7778" lon="5.5058">
        <ele>274.3</ele>
        <time>2012-11-24T15:30:35.000Z</time>
      </trkpt>
      <trkpt lat="46.77779" lon="5.50581">
        <ele>274.4</ele>
        <time>2012-11-24T15:30:36.000Z</time>
      </trkpt>
      <trkpt lat="46.77777" lon="5.50584">
        <ele>274.6</ele>
        <time>2012-11-24T15:30:38.000Z</time>
      </trkpt>
      <trkpt lat="46.77776" lon="5.50586">
        <ele>274.8</ele>
        <time>2012-11-24T15:30:39.000Z</time>
      </trkpt>
      <trkpt lat="46.77773" lon="5.50589">
        <ele>274.3</ele>
        <time>2012-11-24T15:30:42.000Z</time>
      </trkpt>
      <trkpt lat="46.77772" lon="5.5059">
        <ele>274.3</ele>
        <time>2012-11-24T15:30:43.000Z</time>
      </trkpt>
      <trkpt lat="46.7777" lon="5.50594">
        <ele>274</ele>
        <time>2012-11-24T15:30:45.000Z</time>
      </trkpt>
      <trkpt lat="46.77769" lon="5.50596">
        <ele>274</ele>
        <time>2012-11-24T15:30:46.000Z</time>
      </trkpt>
      <trkpt lat="46.77767" lon="5.506">
        <ele>274.4</ele>
        <time>2012-11-24T15:30:48.000Z</time>
      </trkpt>
      <trkpt lat="46.77766" lon="5.50602">
        <ele>274.5</ele>
        <time>2012-11-24T15:30:49.000Z</time>
      </trkpt>
      <trkpt lat="46.77764" lon="5.50606">
        <ele>274.9</ele>
        <time>2012-11-24T15:30:51.000Z</time>
      </trkpt>
      <trkpt lat="46.77763" lon="5.50608">
        <ele>275.1</ele>
        <time>2012-11-24T15:30:52.000Z</time>
      </trkpt>
      <trkpt lat="46.77761" lon="5.50612">
        <ele>275.3</ele>
        <time>2012-11-24T15:30:54.000Z</time>
      </trkpt>
      <trkpt lat="46.77759" lon="5.50613">
        <ele>275.4</ele>
        <time>2012-11-24T15:30:55.000Z</time>
      </trkpt>
      <trkpt lat="46.77757" lon="5.50617">
        <ele>275.4</ele>
        <time>2012-11-24T15:30:57.000Z</time>
      </trkpt>
      <trkpt lat="46.77756" lon="5.50618">
        <ele>275.4</ele>
        <time>2012-11-24T15:30:58.000Z</time>
      </trkpt>
      <trkpt lat="46.77753" lon="5.50622">
        <ele>275.7</ele>
        <time>2012-11-24T15:31:01.000Z</time>
      </trkpt>
      <trkpt lat="46.77752" lon="5.50624">
        <ele>275.7</ele>
        <time>2012-11-24T15:31:02.000Z</time>
      </trkpt>
      <trkpt lat="46.77749" lon="5.50627">
        <ele>276.1</ele>
        <time>2012-11-24T15:31:05.000Z</time>
      </trkpt>
      <trkpt lat="46.77748" lon="5.50629">
        <ele>276.2</ele>
        <time>2012-11-24T15:31:06.000Z</time>
      </trkpt>
      <trkpt lat="46.77745" lon="5.50632">
        <ele>276.6</ele>
        <time>2012-11-24T15:31:09.000Z</time>
      </trkpt>
      <trkpt lat="46.77743" lon="5.50635">
        <ele>276.5</ele>
        <time>2012-11-24T15:31:10.000Z</time>
      </trkpt>
      <trkpt lat="46.77739" lon="5.50637">
        <ele>275.9</ele>
        <time>2012-11-24T15:31:14.000Z</time>
      </trkpt>
      <trkpt lat="46.77738" lon="5.50638">
        <ele>275.8</ele>
        <time>2012-11-24T15:31:15.000Z</time>
      </trkpt>
      <trkpt lat="46.77734" lon="5.5064">
        <ele>275.2</ele>
        <time>2012-11-24T15:31:19.000Z</time>
      </trkpt>
      <trkpt lat="46.77733" lon="5.5064">
        <ele>275</ele>
        <time>2012-11-24T15:31:20.000Z</time>
      </trkpt>
      <trkpt lat="46.7773" lon="5.50642">
        <ele>274.6</ele>
        <time>2012-11-24T15:31:23.000Z</time>
      </trkpt>
      <trkpt lat="46.77718" lon="5.50643">
        <ele>276.3</ele>
        <time>2012-11-24T15:31:33.000Z</time>
      </trkpt>
      <trkpt lat="46.77714" lon="5.50643">
        <ele>278.2</ele>
        <time>2012-11-24T15:31:38.000Z</time>
      </trkpt>
      <trkpt lat="46.77713" lon="5.50643">
        <ele>278</ele>
        <time>2012-11-24T15:31:39.000Z</time>
      </trkpt>
      <trkpt lat="46.7771" lon="5.50641">
        <ele>273.4</ele>
        <time>2012-11-24T15:31:43.000Z</time>
      </trkpt>
      <trkpt lat="46.77709" lon="5.50639">
        <ele>271</ele>
        <time>2012-11-24T15:31:44.000Z</time>
      </trkpt>
      <trkpt lat="46.77705" lon="5.50637">
        <ele>267</ele>
        <time>2012-11-24T15:31:48.000Z</time>
      </trkpt>
      <trkpt lat="46.77704" lon="5.50636">
        <ele>266.5</ele>
        <time>2012-11-24T15:31:49.000Z</time>
      </trkpt>
      <trkpt lat="46.777" lon="5.50637">
        <ele>265.8</ele>
        <time>2012-11-24T15:31:53.000Z</time>
      </trkpt>
      <trkpt lat="46.77699" lon="5.50636">
        <ele>265.6</ele>
        <time>2012-11-24T15:31:54.000Z</time>
      </trkpt>
      <trkpt lat="46.77697" lon="5.50641">
        <ele>266.2</ele>
        <time>2012-11-24T15:32:16.000Z</time>
      </trkpt>
      <trkpt lat="46.77696" lon="5.50643">
        <ele>266.3</ele>
        <time>2012-11-24T15:32:17.000Z</time>
      </trkpt>
      <trkpt lat="46.77695" lon="5.50649">
        <ele>266</ele>
        <time>2012-11-24T15:32:20.000Z</time>
      </trkpt>
      <trkpt lat="46.77695" lon="5.50651">
        <ele>266</ele>
        <time>2012-11-24T15:32:21.000Z</time>
      </trkpt>
      <trkpt lat="46.77694" lon="5.50657">
        <ele>266</ele>
        <time>2012-11-24T15:32:24.000Z</time>
      </trkpt>
      <trkpt lat="46.77696" lon="5.50672">
        <ele>267.6</ele>
        <time>2012-11-24T15:32:32.000Z</time>
      </trkpt>
      <trkpt lat="46.77696" lon="5.50678">
        <ele>266.4</ele>
        <time>2012-11-24T15:32:36.000Z</time>
      </trkpt>
      <trkpt lat="46.77696" lon="5.50679">
        <ele>265.8</ele>
        <time>2012-11-24T15:32:37.000Z</time>
      </trkpt>
      <trkpt lat="46.77696" lon="5.50685">
        <ele>264.7</ele>
        <time>2012-11-24T15:32:41.000Z</time>
      </trkpt>
      <trkpt lat="46.77695" lon="5.50687">
        <ele>264.7</ele>
        <time>2012-11-24T15:32:42.000Z</time>
      </trkpt>
      <trkpt lat="46.77695" lon="5.50693">
        <ele>263.6</ele>
        <time>2012-11-24T15:32:46.000Z</time>
      </trkpt>
      <trkpt lat="46.77695" lon="5.50695">
        <ele>263.4</ele>
        <time>2012-11-24T15:32:47.000Z</time>
      </trkpt>
      <trkpt lat="46.77695" lon="5.507">
        <ele>263.4</ele>
        <time>2012-11-24T15:32:50.000Z</time>
      </trkpt>
      <trkpt lat="46.77695" lon="5.50702">
        <ele>263.2</ele>
        <time>2012-11-24T15:32:51.000Z</time>
      </trkpt>
      <trkpt lat="46.77694" lon="5.50707">
        <ele>263.4</ele>
        <time>2012-11-24T15:32:54.000Z</time>
      </trkpt>
      <trkpt lat="46.77694" lon="5.50709">
        <ele>263.2</ele>
        <time>2012-11-24T15:32:55.000Z</time>
      </trkpt>
      <trkpt lat="46.77694" lon="5.50714">
        <ele>263.1</ele>
        <time>2012-11-24T15:32:58.000Z</time>
      </trkpt>
      <trkpt lat="46.77694" lon="5.50716">
        <ele>263.3</ele>
        <time>2012-11-24T15:32:59.000Z</time>
      </trkpt>
      <trkpt lat="46.77694" lon="5.50722">
        <ele>264.3</ele>
        <time>2012-11-24T15:33:02.000Z</time>
      </trkpt>
      <trkpt lat="46.77693" lon="5.50724">
        <ele>264.7</ele>
        <time>2012-11-24T15:33:03.000Z</time>
      </trkpt>
      <trkpt lat="46.77692" lon="5.5073">
        <ele>265.7</ele>
        <time>2012-11-24T15:33:06.000Z</time>
      </trkpt>
      <trkpt lat="46.77692" lon="5.50732">
        <ele>266</ele>
        <time>2012-11-24T15:33:07.000Z</time>
      </trkpt>
      <trkpt lat="46.7769" lon="5.50737">
        <ele>266.6</ele>
        <time>2012-11-24T15:33:11.000Z</time>
      </trkpt>
      <trkpt lat="46.77688" lon="5.50738">
        <ele>266.4</ele>
        <time>2012-11-24T15:33:12.000Z</time>
      </trkpt>
      <trkpt lat="46.77686" lon="5.50742">
        <ele>265.9</ele>
        <time>2012-11-24T15:33:14.000Z</time>
      </trkpt>
      <trkpt lat="46.77685" lon="5.50743">
        <ele>265.7</ele>
        <time>2012-11-24T15:33:15.000Z</time>
      </trkpt>
      <trkpt lat="46.77682" lon="5.50746">
        <ele>265.8</ele>
        <time>2012-11-24T15:33:17.000Z</time>
      </trkpt>
      <trkpt lat="46.77681" lon="5.50747">
        <ele>266</ele>
        <time>2012-11-24T15:33:18.000Z</time>
      </trkpt>
      <trkpt lat="46.77678" lon="5.50749">
        <ele>266.2</ele>
        <time>2012-11-24T15:33:20.000Z</time>
      </trkpt>
      <trkpt lat="46.77676" lon="5.5075">
        <ele>266.1</ele>
        <time>2012-11-24T15:33:21.000Z</time>
      </trkpt>
      <trkpt lat="46.77672" lon="5.50753">
        <ele>265.6</ele>
        <time>2012-11-24T15:33:24.000Z</time>
      </trkpt>
      <trkpt lat="46.77671" lon="5.50754">
        <ele>265.6</ele>
        <time>2012-11-24T15:33:25.000Z</time>
      </trkpt>
      <trkpt lat="46.77667" lon="5.50757">
        <ele>265.7</ele>
        <time>2012-11-24T15:33:28.000Z</time>
      </trkpt>
      <trkpt lat="46.77666" lon="5.50758">
        <ele>265.7</ele>
        <time>2012-11-24T15:33:29.000Z</time>
      </trkpt>
      <trkpt lat="46.77662" lon="5.50759">
        <ele>265.6</ele>
        <time>2012-11-24T15:33:32.000Z</time>
      </trkpt>
      <trkpt lat="46.77661" lon="5.5076">
        <ele>265.7</ele>
        <time>2012-11-24T15:33:33.000Z</time>
      </trkpt>
      <trkpt lat="46.77657" lon="5.50762">
        <ele>265.7</ele>
        <time>2012-11-24T15:33:36.000Z</time>
      </trkpt>
      <trkpt lat="46.77656" lon="5.50763">
        <ele>265.7</ele>
        <time>2012-11-24T15:33:37.000Z</time>
      </trkpt>
      <trkpt lat="46.77653" lon="5.50763">
        <ele>265.5</ele>
        <time>2012-11-24T15:33:40.000Z</time>
      </trkpt>
      <trkpt lat="46.77652" lon="5.50763">
        <ele>265.2</ele>
        <time>2012-11-24T15:33:41.000Z</time>
      </trkpt>
      <trkpt lat="46.77648" lon="5.50765">
        <ele>264.6</ele>
        <time>2012-11-24T15:33:44.000Z</time>
      </trkpt>
      <trkpt lat="46.77647" lon="5.50767">
        <ele>264.5</ele>
        <time>2012-11-24T15:33:45.000Z</time>
      </trkpt>
      <trkpt lat="46.77644" lon="5.5077">
        <ele>263.8</ele>
        <time>2012-11-24T15:33:48.000Z</time>
      </trkpt>
      <trkpt lat="46.77643" lon="5.50771">
        <ele>263.8</ele>
        <time>2012-11-24T15:33:49.000Z</time>
      </trkpt>
      <trkpt lat="46.77639" lon="5.50775">
        <ele>263.1</ele>
        <time>2012-11-24T15:33:52.000Z</time>
      </trkpt>
      <trkpt lat="46.77638" lon="5.50776">
        <ele>262.9</ele>
        <time>2012-11-24T15:33:53.000Z</time>
      </trkpt>
      <trkpt lat="46.77635" lon="5.5078">
        <ele>262.8</ele>
        <time>2012-11-24T15:33:56.000Z</time>
      </trkpt>
      <trkpt lat="46.77633" lon="5.50781">
        <ele>262.8</ele>
        <time>2012-11-24T15:33:57.000Z</time>
      </trkpt>
      <trkpt lat="46.7763" lon="5.50783">
        <ele>262.9</ele>
        <time>2012-11-24T15:34:00.000Z</time>
      </trkpt>
      <trkpt lat="46.77629" lon="5.50784">
        <ele>263.3</ele>
        <time>2012-11-24T15:34:01.000Z</time>
      </trkpt>
      <trkpt lat="46.77626" lon="5.50787">
        <ele>263.4</ele>
        <time>2012-11-24T15:34:04.000Z</time>
      </trkpt>
      <trkpt lat="46.77625" lon="5.50788">
        <ele>263.5</ele>
        <time>2012-11-24T15:34:05.000Z</time>
      </trkpt>
      <trkpt lat="46.77622" lon="5.50792">
        <ele>263.7</ele>
        <time>2012-11-24T15:34:08.000Z</time>
      </trkpt>
      <trkpt lat="46.77621" lon="5.50793">
        <ele>264.4</ele>
        <time>2012-11-24T15:34:09.000Z</time>
      </trkpt>
      <trkpt lat="46.77618" lon="5.50796">
        <ele>265.4</ele>
        <time>2012-11-24T15:34:12.000Z</time>
      </trkpt>
      <trkpt lat="46.77617" lon="5.50797">
        <ele>265.3</ele>
        <time>2012-11-24T15:34:13.000Z</time>
      </trkpt>
      <trkpt lat="46.77614" lon="5.508">
        <ele>265.5</ele>
        <time>2012-11-24T15:34:16.000Z</time>
      </trkpt>
      <trkpt lat="46.77612" lon="5.50801">
        <ele>265.4</ele>
        <time>2012-11-24T15:34:17.000Z</time>
      </trkpt>
      <trkpt lat="46.77609" lon="5.50804">
        <ele>265.4</ele>
        <time>2012-11-24T15:34:20.000Z</time>
      </trkpt>
      <trkpt lat="46.77608" lon="5.50806">
        <ele>265.4</ele>
        <time>2012-11-24T15:34:21.000Z</time>
      </trkpt>
      <trkpt lat="46.77605" lon="5.50809">
        <ele>264.3</ele>
        <time>2012-11-24T15:34:24.000Z</time>
      </trkpt>
      <trkpt lat="46.776" lon="5.50816">
        <ele>263.4</ele>
        <time>2012-11-24T15:34:32.000Z</time>
      </trkpt>
      <trkpt lat="46.77599" lon="5.50818">
        <ele>263.7</ele>
        <time>2012-11-24T15:34:33.000Z</time>
      </trkpt>
      <trkpt lat="46.77598" lon="5.50821">
        <ele>264.2</ele>
        <time>2012-11-24T15:34:34.000Z</time>
      </trkpt>
      <trkpt lat="46.77596" lon="5.50826">
        <ele>265.1</ele>
        <time>2012-11-24T15:34:36.000Z</time>
      </trkpt>
      <trkpt lat="46.77595" lon="5.50827">
        <ele>265.3</ele>
        <time>2012-11-24T15:34:37.000Z</time>
      </trkpt>
      <trkpt lat="46.77593" lon="5.50832">
        <ele>263.3</ele>
        <time>2012-11-24T15:34:41.000Z</time>
      </trkpt>
      <trkpt lat="46.77593" lon="5.50833">
        <ele>263</ele>
        <time>2012-11-24T15:34:42.000Z</time>
      </trkpt>
      <trkpt lat="46.7759" lon="5.50838">
        <ele>262.2</ele>
        <time>2012-11-24T15:34:46.000Z</time>
      </trkpt>
      <trkpt lat="46.77589" lon="5.50839">
        <ele>261.9</ele>
        <time>2012-11-24T15:34:47.000Z</time>
      </trkpt>
      <trkpt lat="46.77586" lon="5.50843">
        <ele>261.8</ele>
        <time>2012-11-24T15:34:50.000Z</time>
      </trkpt>
      <trkpt lat="46.77585" lon="5.50844">
        <ele>261.9</ele>
        <time>2012-11-24T15:34:51.000Z</time>
      </trkpt>
      <trkpt lat="46.77582" lon="5.50848">
        <ele>261.4</ele>
        <time>2012-11-24T15:34:54.000Z</time>
      </trkpt>
      <trkpt lat="46.77581" lon="5.50849">
        <ele>261.4</ele>
        <time>2012-11-24T15:34:55.000Z</time>
      </trkpt>
      <trkpt lat="46.77578" lon="5.50852">
        <ele>261.9</ele>
        <time>2012-11-24T15:34:58.000Z</time>
      </trkpt>
      <trkpt lat="46.77577" lon="5.50853">
        <ele>262</ele>
        <time>2012-11-24T15:34:59.000Z</time>
      </trkpt>
      <trkpt lat="46.77575" lon="5.50857">
        <ele>261.8</ele>
        <time>2012-11-24T15:35:02.000Z</time>
      </trkpt>
      <trkpt lat="46.77574" lon="5.50859">
        <ele>261.7</ele>
        <time>2012-11-24T15:35:03.000Z</time>
      </trkpt>
      <trkpt lat="46.77571" lon="5.50863">
        <ele>262</ele>
        <time>2012-11-24T15:35:06.000Z</time>
      </trkpt>
      <trkpt lat="46.77571" lon="5.50864">
        <ele>261.9</ele>
        <time>2012-11-24T15:35:07.000Z</time>
      </trkpt>
      <trkpt lat="46.77568" lon="5.50868">
        <ele>261.5</ele>
        <time>2012-11-24T15:35:10.000Z</time>
      </trkpt>
      <trkpt lat="46.77567" lon="5.50869">
        <ele>261.5</ele>
        <time>2012-11-24T15:35:11.000Z</time>
      </trkpt>
      <trkpt lat="46.77564" lon="5.50874">
        <ele>261</ele>
        <time>2012-11-24T15:35:15.000Z</time>
      </trkpt>
      <trkpt lat="46.77564" lon="5.50875">
        <ele>260.9</ele>
        <time>2012-11-24T15:35:16.000Z</time>
      </trkpt>
      <trkpt lat="46.77561" lon="5.50879">
        <ele>260.9</ele>
        <time>2012-11-24T15:35:19.000Z</time>
      </trkpt>
      <trkpt lat="46.7756" lon="5.5088">
        <ele>261</ele>
        <time>2012-11-24T15:35:20.000Z</time>
      </trkpt>
      <trkpt lat="46.77558" lon="5.50884">
        <ele>261</ele>
        <time>2012-11-24T15:35:23.000Z</time>
      </trkpt>
      <trkpt lat="46.77557" lon="5.50886">
        <ele>261</ele>
        <time>2012-11-24T15:35:24.000Z</time>
      </trkpt>
      <trkpt lat="46.77548" lon="5.5091">
        <ele>266.3</ele>
        <time>2012-11-24T15:35:32.000Z</time>
      </trkpt>
      <trkpt lat="46.77544" lon="5.50914">
        <ele>263.7</ele>
        <time>2012-11-24T15:35:40.000Z</time>
      </trkpt>
      <trkpt lat="46.77544" lon="5.50915">
        <ele>263.3</ele>
        <time>2012-11-24T15:35:41.000Z</time>
      </trkpt>
      <trkpt lat="46.77541" lon="5.50919">
        <ele>263.5</ele>
        <time>2012-11-24T15:35:44.000Z</time>
      </trkpt>
      <trkpt lat="46.77541" lon="5.50921">
        <ele>263.7</ele>
        <time>2012-11-24T15:35:45.000Z</time>
      </trkpt>
      <trkpt lat="46.77538" lon="5.50925">
        <ele>264.3</ele>
        <time>2012-11-24T15:35:48.000Z</time>
      </trkpt>
      <trkpt lat="46.77537" lon="5.50927">
        <ele>264.6</ele>
        <time>2012-11-24T15:35:49.000Z</time>
      </trkpt>
      <trkpt lat="46.77535" lon="5.50932">
        <ele>265.9</ele>
        <time>2012-11-24T15:35:52.000Z</time>
      </trkpt>
      <trkpt lat="46.77534" lon="5.50933">
        <ele>266.3</ele>
        <time>2012-11-24T15:35:53.000Z</time>
      </trkpt>
      <trkpt lat="46.77532" lon="5.50939">
        <ele>266.8</ele>
        <time>2012-11-24T15:35:56.000Z</time>
      </trkpt>
      <trkpt lat="46.77531" lon="5.5094">
        <ele>266.5</ele>
        <time>2012-11-24T15:35:57.000Z</time>
      </trkpt>
      <trkpt lat="46.77528" lon="5.50945">
        <ele>266.1</ele>
        <time>2012-11-24T15:36:01.000Z</time>
      </trkpt>
      <trkpt lat="46.77528" lon="5.50946">
        <ele>266.1</ele>
        <time>2012-11-24T15:36:02.000Z</time>
      </trkpt>
      <trkpt lat="46.77525" lon="5.5095">
        <ele>266.2</ele>
        <time>2012-11-24T15:36:06.000Z</time>
      </trkpt>
      <trkpt lat="46.77524" lon="5.50952">
        <ele>266.2</ele>
        <time>2012-11-24T15:36:07.000Z</time>
      </trkpt>
      <trkpt lat="46.77522" lon="5.50956">
        <ele>266.6</ele>
        <time>2012-11-24T15:36:10.000Z</time>
      </trkpt>
      <trkpt lat="46.77521" lon="5.50958">
        <ele>266.7</ele>
        <time>2012-11-24T15:36:11.000Z</time>
      </trkpt>
      <trkpt lat="46.77519" lon="5.50962">
        <ele>267.3</ele>
        <time>2012-11-24T15:36:14.000Z</time>
      </trkpt>
      <trkpt lat="46.77518" lon="5.50964">
        <ele>267.9</ele>
        <time>2012-11-24T15:36:15.000Z</time>
      </trkpt>
      <trkpt lat="46.77515" lon="5.50968">
        <ele>268</ele>
        <time>2012-11-24T15:36:18.000Z</time>
      </trkpt>
      <trkpt lat="46.77515" lon="5.50969">
        <ele>267.8</ele>
        <time>2012-11-24T15:36:19.000Z</time>
      </trkpt>
      <trkpt lat="46.77514" lon="5.50969">
        <ele>264.1</ele>
        <time>2012-11-24T15:36:24.000Z</time>
      </trkpt>
      <trkpt lat="46.77506" lon="5.50965">
        <ele>266.4</ele>
        <time>2012-11-24T15:36:32.000Z</time>
      </trkpt>
      <trkpt lat="46.77504" lon="5.50959">
        <ele>265.2</ele>
        <time>2012-11-24T15:36:37.000Z</time>
      </trkpt>
      <trkpt lat="46.77504" lon="5.50957">
        <ele>264.5</ele>
        <time>2012-11-24T15:36:38.000Z</time>
      </trkpt>
      <trkpt lat="46.77503" lon="5.50951">
        <ele>261.8</ele>
        <time>2012-11-24T15:37:24.000Z</time>
      </trkpt>
      <trkpt lat="46.77506" lon="5.5094">
        <ele>258.2</ele>
        <time>2012-11-24T15:37:32.000Z</time>
      </trkpt>
      <trkpt lat="46.77504" lon="5.50945">
        <ele>263.2</ele>
        <time>2012-11-24T15:38:00.000Z</time>
      </trkpt>
      <trkpt lat="46.77504" lon="5.50947">
        <ele>261.7</ele>
        <time>2012-11-24T15:38:01.000Z</time>
      </trkpt>
      <trkpt lat="46.77504" lon="5.50953">
        <ele>260.5</ele>
        <time>2012-11-24T15:38:04.000Z</time>
      </trkpt>
      <trkpt lat="46.77504" lon="5.50955">
        <ele>260</ele>
        <time>2012-11-24T15:38:05.000Z</time>
      </trkpt>
      <trkpt lat="46.77504" lon="5.5096">
        <ele>258.6</ele>
        <time>2012-11-24T15:38:08.000Z</time>
      </trkpt>
      <trkpt lat="46.77503" lon="5.50961">
        <ele>258.4</ele>
        <time>2012-11-24T15:38:09.000Z</time>
      </trkpt>
      <trkpt lat="46.77503" lon="5.50967">
        <ele>257.2</ele>
        <time>2012-11-24T15:38:12.000Z</time>
      </trkpt>
      <trkpt lat="46.77502" lon="5.50968">
        <ele>257</ele>
        <time>2012-11-24T15:38:13.000Z</time>
      </trkpt>
      <trkpt lat="46.775" lon="5.50973">
        <ele>257.2</ele>
        <time>2012-11-24T15:38:16.000Z</time>
      </trkpt>
      <trkpt lat="46.775" lon="5.50975">
        <ele>257.1</ele>
        <time>2012-11-24T15:38:17.000Z</time>
      </trkpt>
      <trkpt lat="46.77498" lon="5.5098">
        <ele>257.7</ele>
        <time>2012-11-24T15:38:20.000Z</time>
      </trkpt>
      <trkpt lat="46.77497" lon="5.50982">
        <ele>257.9</ele>
        <time>2012-11-24T15:38:21.000Z</time>
      </trkpt>
      <trkpt lat="46.77495" lon="5.50987">
        <ele>258.2</ele>
        <time>2012-11-24T15:38:24.000Z</time>
      </trkpt>
      <trkpt lat="46.77495" lon="5.50988">
        <ele>258.2</ele>
        <time>2012-11-24T15:38:25.000Z</time>
      </trkpt>
      <trkpt lat="46.77493" lon="5.50993">
        <ele>258.5</ele>
        <time>2012-11-24T15:38:28.000Z</time>
      </trkpt>
      <trkpt lat="46.77492" lon="5.50994">
        <ele>258.4</ele>
        <time>2012-11-24T15:38:29.000Z</time>
      </trkpt>
      <trkpt lat="46.7749" lon="5.50998">
        <ele>258.5</ele>
        <time>2012-11-24T15:38:32.000Z</time>
      </trkpt>
      <trkpt lat="46.7749" lon="5.51">
        <ele>258.5</ele>
        <time>2012-11-24T15:38:33.000Z</time>
      </trkpt>
      <trkpt lat="46.77488" lon="5.51005">
        <ele>258.4</ele>
        <time>2012-11-24T15:38:36.000Z</time>
      </trkpt>
      <trkpt lat="46.77487" lon="5.51006">
        <ele>258.5</ele>
        <time>2012-11-24T15:38:37.000Z</time>
      </trkpt>
      <trkpt lat="46.77484" lon="5.5101">
        <ele>259</ele>
        <time>2012-11-24T15:38:40.000Z</time>
      </trkpt>
      <trkpt lat="46.77483" lon="5.51012">
        <ele>259.1</ele>
        <time>2012-11-24T15:38:41.000Z</time>
      </trkpt>
      <trkpt lat="46.77481" lon="5.51016">
        <ele>259.4</ele>
        <time>2012-11-24T15:38:44.000Z</time>
      </trkpt>
      <trkpt lat="46.7748" lon="5.51018">
        <ele>259.5</ele>
        <time>2012-11-24T15:38:45.000Z</time>
      </trkpt>
      <trkpt lat="46.77478" lon="5.51024">
        <ele>259.8</ele>
        <time>2012-11-24T15:38:48.000Z</time>
      </trkpt>
      <trkpt lat="46.77476" lon="5.51026">
        <ele>260</ele>
        <time>2012-11-24T15:38:49.000Z</time>
      </trkpt>
      <trkpt lat="46.77474" lon="5.51031">
        <ele>260.1</ele>
        <time>2012-11-24T15:38:51.000Z</time>
      </trkpt>
      <trkpt lat="46.77473" lon="5.51034">
        <ele>260.1</ele>
        <time>2012-11-24T15:38:52.000Z</time>
      </trkpt>
      <trkpt lat="46.77472" lon="5.5104">
        <ele>260.2</ele>
        <time>2012-11-24T15:38:54.000Z</time>
      </trkpt>
      <trkpt lat="46.77471" lon="5.51042">
        <ele>260.5</ele>
        <time>2012-11-24T15:38:55.000Z</time>
      </trkpt>
      <trkpt lat="46.77468" lon="5.51047">
        <ele>260.8</ele>
        <time>2012-11-24T15:38:57.000Z</time>
      </trkpt>
      <trkpt lat="46.77467" lon="5.5105">
        <ele>261</ele>
        <time>2012-11-24T15:38:58.000Z</time>
      </trkpt>
      <trkpt lat="46.77466" lon="5.51053">
        <ele>261.2</ele>
        <time>2012-11-24T15:38:59.000Z</time>
      </trkpt>
      <trkpt lat="46.77465" lon="5.51056">
        <ele>261.3</ele>
        <time>2012-11-24T15:39:00.000Z</time>
      </trkpt>
      <trkpt lat="46.77464" lon="5.5106">
        <ele>261.6</ele>
        <time>2012-11-24T15:39:01.000Z</time>
      </trkpt>
      <trkpt lat="46.77463" lon="5.51063">
        <ele>261.7</ele>
        <time>2012-11-24T15:39:02.000Z</time>
      </trkpt>
      <trkpt lat="46.77462" lon="5.51067">
        <ele>262</ele>
        <time>2012-11-24T15:39:03.000Z</time>
      </trkpt>
      <trkpt lat="46.77461" lon="5.51072">
        <ele>262.5</ele>
        <time>2012-11-24T15:39:04.000Z</time>
      </trkpt>
      <trkpt lat="46.77459" lon="5.51075">
        <ele>262.7</ele>
        <time>2012-11-24T15:39:05.000Z</time>
      </trkpt>
      <trkpt lat="46.77458" lon="5.51079">
        <ele>263.1</ele>
        <time>2012-11-24T15:39:06.000Z</time>
      </trkpt>
      <trkpt lat="46.77456" lon="5.51084">
        <ele>263</ele>
        <time>2012-11-24T15:39:08.000Z</time>
      </trkpt>
      <trkpt lat="46.77455" lon="5.51086">
        <ele>263</ele>
        <time>2012-11-24T15:39:09.000Z</time>
      </trkpt>
      <trkpt lat="46.77453" lon="5.5109">
        <ele>262.9</ele>
        <time>2012-11-24T15:39:12.000Z</time>
      </trkpt>
      <trkpt lat="46.77452" lon="5.51092">
        <ele>262.8</ele>
        <time>2012-11-24T15:39:13.000Z</time>
      </trkpt>
      <trkpt lat="46.7745" lon="5.51097">
        <ele>263.1</ele>
        <time>2012-11-24T15:39:16.000Z</time>
      </trkpt>
      <trkpt lat="46.77449" lon="5.51098">
        <ele>263.2</ele>
        <time>2012-11-24T15:39:17.000Z</time>
      </trkpt>
      <trkpt lat="46.77447" lon="5.51104">
        <ele>263</ele>
        <time>2012-11-24T15:39:20.000Z</time>
      </trkpt>
      <trkpt lat="46.77447" lon="5.51105">
        <ele>263</ele>
        <time>2012-11-24T15:39:21.000Z</time>
      </trkpt>
      <trkpt lat="46.77445" lon="5.51109">
        <ele>263.6</ele>
        <time>2012-11-24T15:39:24.000Z</time>
      </trkpt>
      <trkpt lat="46.7744" lon="5.51131">
        <ele>268.2</ele>
        <time>2012-11-24T15:39:33.000Z</time>
      </trkpt>
      <trkpt lat="46.77439" lon="5.51136">
        <ele>267.4</ele>
        <time>2012-11-24T15:39:38.000Z</time>
      </trkpt>
      <trkpt lat="46.77438" lon="5.51138">
        <ele>267.4</ele>
        <time>2012-11-24T15:39:39.000Z</time>
      </trkpt>
      <trkpt lat="46.77437" lon="5.51143">
        <ele>267.6</ele>
        <time>2012-11-24T15:39:42.000Z</time>
      </trkpt>
      <trkpt lat="46.77436" lon="5.51145">
        <ele>267.3</ele>
        <time>2012-11-24T15:39:43.000Z</time>
      </trkpt>
      <trkpt lat="46.77434" lon="5.5115">
        <ele>266</ele>
        <time>2012-11-24T15:39:47.000Z</time>
      </trkpt>
      <trkpt lat="46.77433" lon="5.51151">
        <ele>266.2</ele>
        <time>2012-11-24T15:39:48.000Z</time>
      </trkpt>
      <trkpt lat="46.7743" lon="5.51155">
        <ele>266.7</ele>
        <time>2012-11-24T15:39:51.000Z</time>
      </trkpt>
      <trkpt lat="46.7743" lon="5.51156">
        <ele>266.9</ele>
        <time>2012-11-24T15:39:52.000Z</time>
      </trkpt>
      <trkpt lat="46.77427" lon="5.51161">
        <ele>266</ele>
        <time>2012-11-24T15:39:57.000Z</time>
      </trkpt>
      <trkpt lat="46.77427" lon="5.51161">
        <ele>266.2</ele>
        <time>2012-11-24T15:39:58.000Z</time>
      </trkpt>
      <trkpt lat="46.77424" lon="5.51166">
        <ele>265.9</ele>
        <time>2012-11-24T15:40:03.000Z</time>
      </trkpt>
      <trkpt lat="46.77424" lon="5.51167">
        <ele>265.8</ele>
        <time>2012-11-24T15:40:04.000Z</time>
      </trkpt>
      <trkpt lat="46.77422" lon="5.51172">
        <ele>265.6</ele>
        <time>2012-11-24T15:40:08.000Z</time>
      </trkpt>
      <trkpt lat="46.77421" lon="5.51173">
        <ele>265.6</ele>
        <time>2012-11-24T15:40:09.000Z</time>
      </trkpt>
      <trkpt lat="46.77419" lon="5.51178">
        <ele>265.6</ele>
        <time>2012-11-24T15:40:13.000Z</time>
      </trkpt>
      <trkpt lat="46.77418" lon="5.51179">
        <ele>265.6</ele>
        <time>2012-11-24T15:40:14.000Z</time>
      </trkpt>
      <trkpt lat="46.77416" lon="5.51185">
        <ele>265.5</ele>
        <time>2012-11-24T15:40:18.000Z</time>
      </trkpt>
      <trkpt lat="46.77416" lon="5.51187">
        <ele>265.2</ele>
        <time>2012-11-24T15:40:19.000Z</time>
      </trkpt>
      <trkpt lat="46.77414" lon="5.51191">
        <ele>265.4</ele>
        <time>2012-11-24T15:40:22.000Z</time>
      </trkpt>
      <trkpt lat="46.77414" lon="5.51192">
        <ele>265.5</ele>
        <time>2012-11-24T15:40:23.000Z</time>
      </trkpt>
      <trkpt lat="46.77413" lon="5.51194">
        <ele>265.7</ele>
        <time>2012-11-24T15:40:24.000Z</time>
      </trkpt>
      <trkpt lat="46.77405" lon="5.51194">
        <ele>258.9</ele>
        <time>2012-11-24T15:40:29.000Z</time>
      </trkpt>
      <trkpt lat="46.77405" lon="5.51194">
        <ele>258.9</ele>
        <time>2012-11-24T15:40:31.000Z</time>
      </trkpt>
      <trkpt lat="46.77407" lon="5.51211">
        <ele>267</ele>
        <time>2012-11-24T15:40:32.000Z</time>
      </trkpt>
      <trkpt lat="46.77411" lon="5.51207">
        <ele>265.6</ele>
        <time>2012-11-24T15:41:14.000Z</time>
      </trkpt>
      <trkpt lat="46.77412" lon="5.51207">
        <ele>263.7</ele>
        <time>2012-11-24T15:41:15.000Z</time>
      </trkpt>
      <trkpt lat="46.77416" lon="5.51209">
        <ele>264.6</ele>
        <time>2012-11-24T15:41:24.000Z</time>
      </trkpt>
      <trkpt lat="46.77432" lon="5.51212">
        <ele>271.5</ele>
        <time>2012-11-24T15:41:33.000Z</time>
      </trkpt>
      <trkpt lat="46.77429" lon="5.51216">
        <ele>275.9</ele>
        <time>2012-11-24T15:41:35.000Z</time>
      </trkpt>
      <trkpt lat="46.77427" lon="5.51219">
        <ele>277.2</ele>
        <time>2012-11-24T15:41:36.000Z</time>
      </trkpt>
      <trkpt lat="46.77423" lon="5.51222">
        <ele>275.8</ele>
        <time>2012-11-24T15:41:38.000Z</time>
      </trkpt>
      <trkpt lat="46.77422" lon="5.51222">
        <ele>275</ele>
        <time>2012-11-24T15:41:39.000Z</time>
      </trkpt>
      <trkpt lat="46.77421" lon="5.51222">
        <ele>274.1</ele>
        <time>2012-11-24T15:41:50.000Z</time>
      </trkpt>
      <trkpt lat="46.77417" lon="5.51227">
        <ele>272.2</ele>
        <time>2012-11-24T15:41:51.000Z</time>
      </trkpt>
      <trkpt lat="46.77414" lon="5.51231">
        <ele>272.1</ele>
        <time>2012-11-24T15:41:57.000Z</time>
      </trkpt>
      <trkpt lat="46.77413" lon="5.51233">
        <ele>272.4</ele>
        <time>2012-11-24T15:41:58.000Z</time>
      </trkpt>
      <trkpt lat="46.7741" lon="5.51238">
        <ele>271.8</ele>
        <time>2012-11-24T15:42:03.000Z</time>
      </trkpt>
      <trkpt lat="46.7741" lon="5.51239">
        <ele>272.1</ele>
        <time>2012-11-24T15:42:04.000Z</time>
      </trkpt>
      <trkpt lat="46.77408" lon="5.51244">
        <ele>271.9</ele>
        <time>2012-11-24T15:42:08.000Z</time>
      </trkpt>
      <trkpt lat="46.77407" lon="5.51245">
        <ele>271.7</ele>
        <time>2012-11-24T15:42:09.000Z</time>
      </trkpt>
      <trkpt lat="46.77406" lon="5.5125">
        <ele>271.6</ele>
        <time>2012-11-24T15:42:13.000Z</time>
      </trkpt>
      <trkpt lat="46.77405" lon="5.51252">
        <ele>270.9</ele>
        <time>2012-11-24T15:42:14.000Z</time>
      </trkpt>
      <trkpt lat="46.77404" lon="5.51258">
        <ele>270.8</ele>
        <time>2012-11-24T15:42:18.000Z</time>
      </trkpt>
      <trkpt lat="46.77404" lon="5.51259">
        <ele>270.8</ele>
        <time>2012-11-24T15:42:19.000Z</time>
      </trkpt>
      <trkpt lat="46.77402" lon="5.51265">
        <ele>271.1</ele>
        <time>2012-11-24T15:42:22.000Z</time>
      </trkpt>
      <trkpt lat="46.77402" lon="5.51267">
        <ele>270.8</ele>
        <time>2012-11-24T15:42:23.000Z</time>
      </trkpt>
      <trkpt lat="46.77399" lon="5.51272">
        <ele>271</ele>
        <time>2012-11-24T15:42:28.000Z</time>
      </trkpt>
      <trkpt lat="46.77399" lon="5.51272">
        <ele>271.2</ele>
        <time>2012-11-24T15:42:29.000Z</time>
      </trkpt>
      <trkpt lat="46.77397" lon="5.51277">
        <ele>271.6</ele>
        <time>2012-11-24T15:42:34.000Z</time>
      </trkpt>
      <trkpt lat="46.77396" lon="5.51278">
        <ele>271.8</ele>
        <time>2012-11-24T15:42:35.000Z</time>
      </trkpt>
      <trkpt lat="46.77394" lon="5.51283">
        <ele>272.4</ele>
        <time>2012-11-24T15:42:40.000Z</time>
      </trkpt>
      <trkpt lat="46.77393" lon="5.51284">
        <ele>272.4</ele>
        <time>2012-11-24T15:42:41.000Z</time>
      </trkpt>
      <trkpt lat="46.77391" lon="5.51287">
        <ele>270.9</ele>
        <time>2012-11-24T15:42:48.000Z</time>
      </trkpt>
      <trkpt lat="46.7739" lon="5.51289">
        <ele>270.6</ele>
        <time>2012-11-24T15:42:49.000Z</time>
      </trkpt>
      <trkpt lat="46.77388" lon="5.51292">
        <ele>271.1</ele>
        <time>2012-11-24T15:42:52.000Z</time>
      </trkpt>
      <trkpt lat="46.77387" lon="5.51294">
        <ele>271.2</ele>
        <time>2012-11-24T15:42:53.000Z</time>
      </trkpt>
      <trkpt lat="46.77385" lon="5.51299">
        <ele>271.9</ele>
        <time>2012-11-24T15:42:56.000Z</time>
      </trkpt>
      <trkpt lat="46.77385" lon="5.513">
        <ele>271.8</ele>
        <time>2012-11-24T15:42:57.000Z</time>
      </trkpt>
      <trkpt lat="46.77383" lon="5.51305">
        <ele>271.6</ele>
        <time>2012-11-24T15:43:00.000Z</time>
      </trkpt>
      <trkpt lat="46.77382" lon="5.51307">
        <ele>271.6</ele>
        <time>2012-11-24T15:43:01.000Z</time>
      </trkpt>
      <trkpt lat="46.77381" lon="5.51312">
        <ele>271.6</ele>
        <time>2012-11-24T15:43:04.000Z</time>
      </trkpt>
      <trkpt lat="46.7738" lon="5.51314">
        <ele>271.7</ele>
        <time>2012-11-24T15:43:05.000Z</time>
      </trkpt>
      <trkpt lat="46.77378" lon="5.51319">
        <ele>272.8</ele>
        <time>2012-11-24T15:43:08.000Z</time>
      </trkpt>
      <trkpt lat="46.77377" lon="5.51321">
        <ele>272.9</ele>
        <time>2012-11-24T15:43:09.000Z</time>
      </trkpt>
      <trkpt lat="46.77376" lon="5.51326">
        <ele>273</ele>
        <time>2012-11-24T15:43:12.000Z</time>
      </trkpt>
      <trkpt lat="46.77375" lon="5.51328">
        <ele>272.9</ele>
        <time>2012-11-24T15:43:13.000Z</time>
      </trkpt>
      <trkpt lat="46.77373" lon="5.51334">
        <ele>273.5</ele>
        <time>2012-11-24T15:43:16.000Z</time>
      </trkpt>
      <trkpt lat="46.77373" lon="5.51335">
        <ele>273.8</ele>
        <time>2012-11-24T15:43:17.000Z</time>
      </trkpt>
      <trkpt lat="46.7737" lon="5.5134">
        <ele>273.5</ele>
        <time>2012-11-24T15:43:20.000Z</time>
      </trkpt>
      <trkpt lat="46.7737" lon="5.51341">
        <ele>273.3</ele>
        <time>2012-11-24T15:43:21.000Z</time>
      </trkpt>
      <trkpt lat="46.77368" lon="5.51345">
        <ele>272.7</ele>
        <time>2012-11-24T15:43:24.000Z</time>
      </trkpt>
      <trkpt lat="46.77363" lon="5.51365">
        <ele>271.8</ele>
        <time>2012-11-24T15:43:33.000Z</time>
      </trkpt>
      <trkpt lat="46.7736" lon="5.5137">
        <ele>269.8</ele>
        <time>2012-11-24T15:43:40.000Z</time>
      </trkpt>
      <trkpt lat="46.77359" lon="5.51371">
        <ele>270</ele>
        <time>2012-11-24T15:43:41.000Z</time>
      </trkpt>
      <trkpt lat="46.77356" lon="5.51375">
        <ele>272</ele>
        <time>2012-11-24T15:43:45.000Z</time>
      </trkpt>
      <trkpt lat="46.77356" lon="5.51376">
        <ele>272</ele>
        <time>2012-11-24T15:43:46.000Z</time>
      </trkpt>
      <trkpt lat="46.77354" lon="5.5138">
        <ele>272.7</ele>
        <time>2012-11-24T15:43:49.000Z</time>
      </trkpt>
      <trkpt lat="46.77353" lon="5.51382">
        <ele>272.4</ele>
        <time>2012-11-24T15:43:50.000Z</time>
      </trkpt>
      <trkpt lat="46.77351" lon="5.51386">
        <ele>271.4</ele>
        <time>2012-11-24T15:43:53.000Z</time>
      </trkpt>
      <trkpt lat="46.7735" lon="5.51387">
        <ele>271</ele>
        <time>2012-11-24T15:43:54.000Z</time>
      </trkpt>
      <trkpt lat="46.77347" lon="5.51392">
        <ele>271.7</ele>
        <time>2012-11-24T15:43:58.000Z</time>
      </trkpt>
      <trkpt lat="46.77346" lon="5.51393">
        <ele>271.9</ele>
        <time>2012-11-24T15:43:59.000Z</time>
      </trkpt>
      <trkpt lat="46.77347" lon="5.51399">
        <ele>272</ele>
        <time>2012-11-24T15:44:03.000Z</time>
      </trkpt>
      <trkpt lat="46.77347" lon="5.514">
        <ele>272.2</ele>
        <time>2012-11-24T15:44:04.000Z</time>
      </trkpt>
      <trkpt lat="46.77348" lon="5.51405">
        <ele>273.1</ele>
        <time>2012-11-24T15:44:08.000Z</time>
      </trkpt>
      <trkpt lat="46.77348" lon="5.51406">
        <ele>274</ele>
        <time>2012-11-24T15:44:09.000Z</time>
      </trkpt>
      <trkpt lat="46.77345" lon="5.5141">
        <ele>276.9</ele>
        <time>2012-11-24T15:44:20.000Z</time>
      </trkpt>
      <trkpt lat="46.77344" lon="5.51412">
        <ele>276.9</ele>
        <time>2012-11-24T15:44:21.000Z</time>
      </trkpt>
      <trkpt lat="46.77341" lon="5.51415">
        <ele>277.1</ele>
        <time>2012-11-24T15:44:24.000Z</time>
      </trkpt>
      <trkpt lat="46.7734" lon="5.51416">
        <ele>276.9</ele>
        <time>2012-11-24T15:44:25.000Z</time>
      </trkpt>
      <trkpt lat="46.77337" lon="5.51421">
        <ele>276.4</ele>
        <time>2012-11-24T15:44:29.000Z</time>
      </trkpt>
      <trkpt lat="46.77336" lon="5.51421">
        <ele>276.3</ele>
        <time>2012-11-24T15:44:30.000Z</time>
      </trkpt>
      <trkpt lat="46.77333" lon="5.51425">
        <ele>275.1</ele>
        <time>2012-11-24T15:44:34.000Z</time>
      </trkpt>
      <trkpt lat="46.77332" lon="5.51426">
        <ele>274.9</ele>
        <time>2012-11-24T15:44:35.000Z</time>
      </trkpt>
      <trkpt lat="46.77329" lon="5.51429">
        <ele>274.2</ele>
        <time>2012-11-24T15:44:38.000Z</time>
      </trkpt>
      <trkpt lat="46.77328" lon="5.5143">
        <ele>273.9</ele>
        <time>2012-11-24T15:44:39.000Z</time>
      </trkpt>
      <trkpt lat="46.77325" lon="5.51433">
        <ele>273.1</ele>
        <time>2012-11-24T15:44:43.000Z</time>
      </trkpt>
      <trkpt lat="46.77324" lon="5.51433">
        <ele>272.9</ele>
        <time>2012-11-24T15:44:44.000Z</time>
      </trkpt>
      <trkpt lat="46.7732" lon="5.51436">
        <ele>271.9</ele>
        <time>2012-11-24T15:44:49.000Z</time>
      </trkpt>
      <trkpt lat="46.77319" lon="5.51436">
        <ele>271.7</ele>
        <time>2012-11-24T15:44:50.000Z</time>
      </trkpt>
      <trkpt lat="46.77315" lon="5.51435">
        <ele>270.7</ele>
        <time>2012-11-24T15:44:54.000Z</time>
      </trkpt>
      <trkpt lat="46.77314" lon="5.51435">
        <ele>270.5</ele>
        <time>2012-11-24T15:44:55.000Z</time>
      </trkpt>
      <trkpt lat="46.77309" lon="5.51434">
        <ele>268.5</ele>
        <time>2012-11-24T15:45:00.000Z</time>
      </trkpt>
      <trkpt lat="46.77308" lon="5.51434">
        <ele>268.3</ele>
        <time>2012-11-24T15:45:01.000Z</time>
      </trkpt>
      <trkpt lat="46.77304" lon="5.51432">
        <ele>267.7</ele>
        <time>2012-11-24T15:45:05.000Z</time>
      </trkpt>
      <trkpt lat="46.77303" lon="5.51431">
        <ele>267.6</ele>
        <time>2012-11-24T15:45:06.000Z</time>
      </trkpt>
      <trkpt lat="46.773" lon="5.51429">
        <ele>267.6</ele>
        <time>2012-11-24T15:45:10.000Z</time>
      </trkpt>
      <trkpt lat="46.77299" lon="5.51428">
        <ele>267.5</ele>
        <time>2012-11-24T15:45:11.000Z</time>
      </trkpt>
      <trkpt lat="46.77295" lon="5.51425">
        <ele>267.3</ele>
        <time>2012-11-24T15:45:15.000Z</time>
      </trkpt>
      <trkpt lat="46.77294" lon="5.51424">
        <ele>267.2</ele>
        <time>2012-11-24T15:45:16.000Z</time>
      </trkpt>
      <trkpt lat="46.77291" lon="5.51421">
        <ele>267.2</ele>
        <time>2012-11-24T15:45:20.000Z</time>
      </trkpt>
      <trkpt lat="46.7729" lon="5.5142">
        <ele>267.2</ele>
        <time>2012-11-24T15:45:21.000Z</time>
      </trkpt>
      <trkpt lat="46.77288" lon="5.51415">
        <ele>267</ele>
        <time>2012-11-24T15:45:25.000Z</time>
      </trkpt>
      <trkpt lat="46.77288" lon="5.51413">
        <ele>266.9</ele>
        <time>2012-11-24T15:45:26.000Z</time>
      </trkpt>
      <trkpt lat="46.77285" lon="5.51409">
        <ele>266.9</ele>
        <time>2012-11-24T15:45:30.000Z</time>
      </trkpt>
      <trkpt lat="46.77285" lon="5.51407">
        <ele>266.6</ele>
        <time>2012-11-24T15:45:31.000Z</time>
      </trkpt>
      <trkpt lat="46.77282" lon="5.51402">
        <ele>266.5</ele>
        <time>2012-11-24T15:45:35.000Z</time>
      </trkpt>
      <trkpt lat="46.77281" lon="5.51402">
        <ele>266.5</ele>
        <time>2012-11-24T15:45:36.000Z</time>
      </trkpt>
      <trkpt lat="46.77278" lon="5.51396">
        <ele>266.8</ele>
        <time>2012-11-24T15:45:41.000Z</time>
      </trkpt>
      <trkpt lat="46.77277" lon="5.51395">
        <ele>266.8</ele>
        <time>2012-11-24T15:45:42.000Z</time>
      </trkpt>
      <trkpt lat="46.77275" lon="5.5139">
        <ele>266.9</ele>
        <time>2012-11-24T15:45:45.000Z</time>
      </trkpt>
      <trkpt lat="46.77274" lon="5.51389">
        <ele>266.8</ele>
        <time>2012-11-24T15:45:46.000Z</time>
      </trkpt>
      <trkpt lat="46.77272" lon="5.51384">
        <ele>266.8</ele>
        <time>2012-11-24T15:45:49.000Z</time>
      </trkpt>
      <trkpt lat="46.77271" lon="5.51383">
        <ele>266.8</ele>
        <time>2012-11-24T15:45:50.000Z</time>
      </trkpt>
      <trkpt lat="46.77269" lon="5.51379">
        <ele>266.5</ele>
        <time>2012-11-24T15:45:53.000Z</time>
      </trkpt>
      <trkpt lat="46.77268" lon="5.51378">
        <ele>266.4</ele>
        <time>2012-11-24T15:45:54.000Z</time>
      </trkpt>
      <trkpt lat="46.77265" lon="5.51375">
        <ele>265.7</ele>
        <time>2012-11-24T15:45:57.000Z</time>
      </trkpt>
      <trkpt lat="46.77263" lon="5.51375">
        <ele>265.6</ele>
        <time>2012-11-24T15:45:58.000Z</time>
      </trkpt>
      <trkpt lat="46.7726" lon="5.51373">
        <ele>265.4</ele>
        <time>2012-11-24T15:46:01.000Z</time>
      </trkpt>
      <trkpt lat="46.77259" lon="5.51373">
        <ele>265.3</ele>
        <time>2012-11-24T15:46:02.000Z</time>
      </trkpt>
      <trkpt lat="46.77255" lon="5.51373">
        <ele>264.9</ele>
        <time>2012-11-24T15:46:05.000Z</time>
      </trkpt>
      <trkpt lat="46.77254" lon="5.51373">
        <ele>264.7</ele>
        <time>2012-11-24T15:46:06.000Z</time>
      </trkpt>
      <trkpt lat="46.7725" lon="5.51375">
        <ele>264.4</ele>
        <time>2012-11-24T15:46:10.000Z</time>
      </trkpt>
      <trkpt lat="46.77249" lon="5.51375">
        <ele>264.1</ele>
        <time>2012-11-24T15:46:11.000Z</time>
      </trkpt>
      <trkpt lat="46.77245" lon="5.51377">
        <ele>263.6</ele>
        <time>2012-11-24T15:46:15.000Z</time>
      </trkpt>
      <trkpt lat="46.77244" lon="5.51378">
        <ele>263.8</ele>
        <time>2012-11-24T15:46:16.000Z</time>
      </trkpt>
      <trkpt lat="46.77241" lon="5.51382">
        <ele>263.8</ele>
        <time>2012-11-24T15:46:20.000Z</time>
      </trkpt>
      <trkpt lat="46.7724" lon="5.51383">
        <ele>263.8</ele>
        <time>2012-11-24T15:46:21.000Z</time>
      </trkpt>
      <trkpt lat="46.77238" lon="5.51388">
        <ele>263.6</ele>
        <time>2012-11-24T15:46:29.000Z</time>
      </trkpt>
      <trkpt lat="46.77238" lon="5.5139">
        <ele>263.4</ele>
        <time>2012-11-24T15:46:30.000Z</time>
      </trkpt>
      <trkpt lat="46.77237" lon="5.51396">
        <ele>263.2</ele>
        <time>2012-11-24T15:46:34.000Z</time>
      </trkpt>
      <trkpt lat="46.77238" lon="5.51397">
        <ele>263.2</ele>
        <time>2012-11-24T15:46:35.000Z</time>
      </trkpt>
      <trkpt lat="46.77239" lon="5.51402">
        <ele>263.5</ele>
        <time>2012-11-24T15:46:38.000Z</time>
      </trkpt>
      <trkpt lat="46.77239" lon="5.51404">
        <ele>263.4</ele>
        <time>2012-11-24T15:46:39.000Z</time>
      </trkpt>
      <trkpt lat="46.7724" lon="5.51408">
        <ele>263.2</ele>
        <time>2012-11-24T15:46:42.000Z</time>
      </trkpt>
      <trkpt lat="46.77241" lon="5.51409">
        <ele>263.2</ele>
        <time>2012-11-24T15:46:43.000Z</time>
      </trkpt>
      <trkpt lat="46.77243" lon="5.51413">
        <ele>263.4</ele>
        <time>2012-11-24T15:46:46.000Z</time>
      </trkpt>
      <trkpt lat="46.77244" lon="5.51415">
        <ele>263.4</ele>
        <time>2012-11-24T15:46:47.000Z</time>
      </trkpt>
      <trkpt lat="46.77245" lon="5.51421">
        <ele>263.3</ele>
        <time>2012-11-24T15:46:51.000Z</time>
      </trkpt>
      <trkpt lat="46.77245" lon="5.51422">
        <ele>263.3</ele>
        <time>2012-11-24T15:46:52.000Z</time>
      </trkpt>
      <trkpt lat="46.77245" lon="5.51428">
        <ele>262.9</ele>
        <time>2012-11-24T15:46:56.000Z</time>
      </trkpt>
      <trkpt lat="46.77245" lon="5.51429">
        <ele>262.7</ele>
        <time>2012-11-24T15:46:57.000Z</time>
      </trkpt>
      <trkpt lat="46.77245" lon="5.51435">
        <ele>262.5</ele>
        <time>2012-11-24T15:47:02.000Z</time>
      </trkpt>
      <trkpt lat="46.77245" lon="5.51437">
        <ele>262.7</ele>
        <time>2012-11-24T15:47:03.000Z</time>
      </trkpt>
      <trkpt lat="46.77246" lon="5.51442">
        <ele>263.7</ele>
        <time>2012-11-24T15:47:07.000Z</time>
      </trkpt>
      <trkpt lat="46.77246" lon="5.51443">
        <ele>263.8</ele>
        <time>2012-11-24T15:47:08.000Z</time>
      </trkpt>
      <trkpt lat="46.77246" lon="5.51449">
        <ele>264.3</ele>
        <time>2012-11-24T15:47:13.000Z</time>
      </trkpt>
      <trkpt lat="46.77245" lon="5.5145">
        <ele>264.2</ele>
        <time>2012-11-24T15:47:14.000Z</time>
      </trkpt>
      <trkpt lat="46.77242" lon="5.51453">
        <ele>263.7</ele>
        <time>2012-11-24T15:47:31.000Z</time>
      </trkpt>
      <trkpt lat="46.77241" lon="5.51454">
        <ele>263.6</ele>
        <time>2012-11-24T15:47:32.000Z</time>
      </trkpt>
      <trkpt lat="46.77237" lon="5.51454">
        <ele>263.9</ele>
        <time>2012-11-24T15:47:38.000Z</time>
      </trkpt>
      <trkpt lat="46.77236" lon="5.51454">
        <ele>264</ele>
        <time>2012-11-24T15:47:39.000Z</time>
      </trkpt>
      <trkpt lat="46.77232" lon="5.51455">
        <ele>264.1</ele>
        <time>2012-11-24T15:47:42.000Z</time>
      </trkpt>
      <trkpt lat="46.77231" lon="5.51455">
        <ele>264.1</ele>
        <time>2012-11-24T15:47:43.000Z</time>
      </trkpt>
      <trkpt lat="46.77227" lon="5.51457">
        <ele>264.2</ele>
        <time>2012-11-24T15:47:47.000Z</time>
      </trkpt>
      <trkpt lat="46.77226" lon="5.51457">
        <ele>264.1</ele>
        <time>2012-11-24T15:47:48.000Z</time>
      </trkpt>
      <trkpt lat="46.77222" lon="5.51459">
        <ele>263.5</ele>
        <time>2012-11-24T15:47:52.000Z</time>
      </trkpt>
      <trkpt lat="46.77221" lon="5.5146">
        <ele>263.5</ele>
        <time>2012-11-24T15:47:53.000Z</time>
      </trkpt>
      <trkpt lat="46.77217" lon="5.51463">
        <ele>264</ele>
        <time>2012-11-24T15:47:57.000Z</time>
      </trkpt>
      <trkpt lat="46.77216" lon="5.51464">
        <ele>264.1</ele>
        <time>2012-11-24T15:47:58.000Z</time>
      </trkpt>
      <trkpt lat="46.77212" lon="5.51467">
        <ele>264.1</ele>
        <time>2012-11-24T15:48:02.000Z</time>
      </trkpt>
      <trkpt lat="46.77212" lon="5.51469">
        <ele>264.1</ele>
        <time>2012-11-24T15:48:03.000Z</time>
      </trkpt>
      <trkpt lat="46.77208" lon="5.51473">
        <ele>264.3</ele>
        <time>2012-11-24T15:48:08.000Z</time>
      </trkpt>
      <trkpt lat="46.77207" lon="5.51474">
        <ele>264.5</ele>
        <time>2012-11-24T15:48:09.000Z</time>
      </trkpt>
      <trkpt lat="46.77204" lon="5.51477">
        <ele>264.6</ele>
        <time>2012-11-24T15:48:13.000Z</time>
      </trkpt>
      <trkpt lat="46.77203" lon="5.51478">
        <ele>264.7</ele>
        <time>2012-11-24T15:48:14.000Z</time>
      </trkpt>
      <trkpt lat="46.772" lon="5.51481">
        <ele>264.8</ele>
        <time>2012-11-24T15:48:17.000Z</time>
      </trkpt>
      <trkpt lat="46.77199" lon="5.51482">
        <ele>264.8</ele>
        <time>2012-11-24T15:48:18.000Z</time>
      </trkpt>
      <trkpt lat="46.77196" lon="5.51485">
        <ele>264.9</ele>
        <time>2012-11-24T15:48:21.000Z</time>
      </trkpt>
      <trkpt lat="46.77195" lon="5.51486">
        <ele>264.9</ele>
        <time>2012-11-24T15:48:22.000Z</time>
      </trkpt>
      <trkpt lat="46.77192" lon="5.51489">
        <ele>265.2</ele>
        <time>2012-11-24T15:48:25.000Z</time>
      </trkpt>
      <trkpt lat="46.77192" lon="5.5149">
        <ele>265.2</ele>
        <time>2012-11-24T15:48:26.000Z</time>
      </trkpt>
      <trkpt lat="46.77189" lon="5.51494">
        <ele>265.7</ele>
        <time>2012-11-24T15:48:29.000Z</time>
      </trkpt>
      <trkpt lat="46.77188" lon="5.51495">
        <ele>265.8</ele>
        <time>2012-11-24T15:48:30.000Z</time>
      </trkpt>
      <trkpt lat="46.77185" lon="5.51498">
        <ele>266.2</ele>
        <time>2012-11-24T15:48:33.000Z</time>
      </trkpt>
      <trkpt lat="46.77184" lon="5.51499">
        <ele>266.3</ele>
        <time>2012-11-24T15:48:34.000Z</time>
      </trkpt>
      <trkpt lat="46.77181" lon="5.51501">
        <ele>266.5</ele>
        <time>2012-11-24T15:48:37.000Z</time>
      </trkpt>
      <trkpt lat="46.7718" lon="5.51502">
        <ele>266.4</ele>
        <time>2012-11-24T15:48:38.000Z</time>
      </trkpt>
      <trkpt lat="46.77176" lon="5.51503">
        <ele>266.4</ele>
        <time>2012-11-24T15:48:41.000Z</time>
      </trkpt>
      <trkpt lat="46.77175" lon="5.51504">
        <ele>266.3</ele>
        <time>2012-11-24T15:48:42.000Z</time>
      </trkpt>
      <trkpt lat="46.77171" lon="5.51505">
        <ele>265.9</ele>
        <time>2012-11-24T15:48:45.000Z</time>
      </trkpt>
      <trkpt lat="46.7717" lon="5.51506">
        <ele>265.9</ele>
        <time>2012-11-24T15:48:46.000Z</time>
      </trkpt>
      <trkpt lat="46.77167" lon="5.51506">
        <ele>265.7</ele>
        <time>2012-11-24T15:48:49.000Z</time>
      </trkpt>
      <trkpt lat="46.77165" lon="5.51506">
        <ele>265.6</ele>
        <time>2012-11-24T15:48:50.000Z</time>
      </trkpt>
      <trkpt lat="46.77162" lon="5.51505">
        <ele>265.1</ele>
        <time>2012-11-24T15:48:53.000Z</time>
      </trkpt>
      <trkpt lat="46.77161" lon="5.51505">
        <ele>265</ele>
        <time>2012-11-24T15:48:54.000Z</time>
      </trkpt>
      <trkpt lat="46.77156" lon="5.51504">
        <ele>264.3</ele>
        <time>2012-11-24T15:48:58.000Z</time>
      </trkpt>
      <trkpt lat="46.77155" lon="5.51503">
        <ele>264.1</ele>
        <time>2012-11-24T15:48:59.000Z</time>
      </trkpt>
      <trkpt lat="46.77152" lon="5.51502">
        <ele>263.3</ele>
        <time>2012-11-24T15:49:02.000Z</time>
      </trkpt>
      <trkpt lat="46.77151" lon="5.51502">
        <ele>263.1</ele>
        <time>2012-11-24T15:49:03.000Z</time>
      </trkpt>
      <trkpt lat="46.77147" lon="5.515">
        <ele>262.8</ele>
        <time>2012-11-24T15:49:06.000Z</time>
      </trkpt>
      <trkpt lat="46.77146" lon="5.51499">
        <ele>262.7</ele>
        <time>2012-11-24T15:49:07.000Z</time>
      </trkpt>
      <trkpt lat="46.77142" lon="5.51496">
        <ele>262.3</ele>
        <time>2012-11-24T15:49:11.000Z</time>
      </trkpt>
      <trkpt lat="46.77141" lon="5.51495">
        <ele>262.2</ele>
        <time>2012-11-24T15:49:12.000Z</time>
      </trkpt>
      <trkpt lat="46.77137" lon="5.51493">
        <ele>261.5</ele>
        <time>2012-11-24T15:49:16.000Z</time>
      </trkpt>
      <trkpt lat="46.77136" lon="5.51492">
        <ele>261.4</ele>
        <time>2012-11-24T15:49:17.000Z</time>
      </trkpt>
      <trkpt lat="46.77133" lon="5.51489">
        <ele>261.1</ele>
        <time>2012-11-24T15:49:21.000Z</time>
      </trkpt>
      <trkpt lat="46.77132" lon="5.51488">
        <ele>261.2</ele>
        <time>2012-11-24T15:49:22.000Z</time>
      </trkpt>
      <trkpt lat="46.77129" lon="5.51486">
        <ele>261.5</ele>
        <time>2012-11-24T15:49:25.000Z</time>
      </trkpt>
      <trkpt lat="46.77128" lon="5.51485">
        <ele>261.6</ele>
        <time>2012-11-24T15:49:26.000Z</time>
      </trkpt>
      <trkpt lat="46.77124" lon="5.51481">
        <ele>261</ele>
        <time>2012-11-24T15:49:31.000Z</time>
      </trkpt>
      <trkpt lat="46.77123" lon="5.5148">
        <ele>260.9</ele>
        <time>2012-11-24T15:49:32.000Z</time>
      </trkpt>
      <trkpt lat="46.7712" lon="5.51476">
        <ele>260.7</ele>
        <time>2012-11-24T15:49:36.000Z</time>
      </trkpt>
      <trkpt lat="46.77119" lon="5.51475">
        <ele>260.7</ele>
        <time>2012-11-24T15:49:37.000Z</time>
      </trkpt>
      <trkpt lat="46.77116" lon="5.51472">
        <ele>260.8</ele>
        <time>2012-11-24T15:49:40.000Z</time>
      </trkpt>
      <trkpt lat="46.77115" lon="5.51472">
        <ele>260.9</ele>
        <time>2012-11-24T15:49:41.000Z</time>
      </trkpt>
      <trkpt lat="46.77111" lon="5.51469">
        <ele>261.1</ele>
        <time>2012-11-24T15:49:44.000Z</time>
      </trkpt>
      <trkpt lat="46.7711" lon="5.51468">
        <ele>261.2</ele>
        <time>2012-11-24T15:49:45.000Z</time>
      </trkpt>
      <trkpt lat="46.77107" lon="5.51465">
        <ele>261.2</ele>
        <time>2012-11-24T15:49:48.000Z</time>
      </trkpt>
      <trkpt lat="46.77105" lon="5.51464">
        <ele>261.3</ele>
        <time>2012-11-24T15:49:49.000Z</time>
      </trkpt>
      <trkpt lat="46.77102" lon="5.51461">
        <ele>261.5</ele>
        <time>2012-11-24T15:49:52.000Z</time>
      </trkpt>
      <trkpt lat="46.77101" lon="5.5146">
        <ele>261.5</ele>
        <time>2012-11-24T15:49:53.000Z</time>
      </trkpt>
      <trkpt lat="46.77098" lon="5.51457">
        <ele>261.5</ele>
        <time>2012-11-24T15:49:56.000Z</time>
      </trkpt>
      <trkpt lat="46.77097" lon="5.51456">
        <ele>261.6</ele>
        <time>2012-11-24T15:49:57.000Z</time>
      </trkpt>
      <trkpt lat="46.77093" lon="5.51454">
        <ele>261.6</ele>
        <time>2012-11-24T15:50:00.000Z</time>
      </trkpt>
      <trkpt lat="46.77092" lon="5.51453">
        <ele>261.7</ele>
        <time>2012-11-24T15:50:01.000Z</time>
      </trkpt>
      <trkpt lat="46.77089" lon="5.5145">
        <ele>261.5</ele>
        <time>2012-11-24T15:50:04.000Z</time>
      </trkpt>
      <trkpt lat="46.77088" lon="5.51449">
        <ele>261.6</ele>
        <time>2012-11-24T15:50:05.000Z</time>
      </trkpt>
      <trkpt lat="46.77084" lon="5.51446">
        <ele>261.3</ele>
        <time>2012-11-24T15:50:08.000Z</time>
      </trkpt>
      <trkpt lat="46.77083" lon="5.51445">
        <ele>261.2</ele>
        <time>2012-11-24T15:50:09.000Z</time>
      </trkpt>
      <trkpt lat="46.77079" lon="5.51442">
        <ele>261.5</ele>
        <time>2012-11-24T15:50:12.000Z</time>
      </trkpt>
      <trkpt lat="46.77078" lon="5.51442">
        <ele>261.5</ele>
        <time>2012-11-24T15:50:13.000Z</time>
      </trkpt>
      <trkpt lat="46.77075" lon="5.51439">
        <ele>261.8</ele>
        <time>2012-11-24T15:50:16.000Z</time>
      </trkpt>
      <trkpt lat="46.77074" lon="5.51438">
        <ele>262</ele>
        <time>2012-11-24T15:50:17.000Z</time>
      </trkpt>
      <trkpt lat="46.7707" lon="5.51436">
        <ele>262.2</ele>
        <time>2012-11-24T15:50:20.000Z</time>
      </trkpt>
      <trkpt lat="46.77069" lon="5.51436">
        <ele>262.2</ele>
        <time>2012-11-24T15:50:21.000Z</time>
      </trkpt>
      <trkpt lat="46.77066" lon="5.51434">
        <ele>262.5</ele>
        <time>2012-11-24T15:50:24.000Z</time>
      </trkpt>
      <trkpt lat="46.77065" lon="5.51433">
        <ele>262.7</ele>
        <time>2012-11-24T15:50:25.000Z</time>
      </trkpt>
      <trkpt lat="46.77061" lon="5.5143">
        <ele>263.3</ele>
        <time>2012-11-24T15:50:28.000Z</time>
      </trkpt>
      <trkpt lat="46.7706" lon="5.51429">
        <ele>263.5</ele>
        <time>2012-11-24T15:50:29.000Z</time>
      </trkpt>
      <trkpt lat="46.77056" lon="5.51426">
        <ele>264</ele>
        <time>2012-11-24T15:50:32.000Z</time>
      </trkpt>
      <trkpt lat="46.77055" lon="5.51425">
        <ele>264.2</ele>
        <time>2012-11-24T15:50:33.000Z</time>
      </trkpt>
      <trkpt lat="46.77052" lon="5.51422">
        <ele>264.7</ele>
        <time>2012-11-24T15:50:36.000Z</time>
      </trkpt>
      <trkpt lat="46.77051" lon="5.51422">
        <ele>264.8</ele>
        <time>2012-11-24T15:50:37.000Z</time>
      </trkpt>
      <trkpt lat="46.77047" lon="5.51419">
        <ele>264.9</ele>
        <time>2012-11-24T15:50:40.000Z</time>
      </trkpt>
      <trkpt lat="46.77046" lon="5.51418">
        <ele>264.9</ele>
        <time>2012-11-24T15:50:41.000Z</time>
      </trkpt>
      <trkpt lat="46.77043" lon="5.51415">
        <ele>264.6</ele>
        <time>2012-11-24T15:50:44.000Z</time>
      </trkpt>
      <trkpt lat="46.77042" lon="5.51414">
        <ele>264.6</ele>
        <time>2012-11-24T15:50:45.000Z</time>
      </trkpt>
      <trkpt lat="46.77038" lon="5.51411">
        <ele>264.6</ele>
        <time>2012-11-24T15:50:48.000Z</time>
      </trkpt>
      <trkpt lat="46.77037" lon="5.5141">
        <ele>264.5</ele>
        <time>2012-11-24T15:50:49.000Z</time>
      </trkpt>
      <trkpt lat="46.77034" lon="5.51406">
        <ele>264.5</ele>
        <time>2012-11-24T15:50:52.000Z</time>
      </trkpt>
      <trkpt lat="46.77032" lon="5.51405">
        <ele>264.5</ele>
        <time>2012-11-24T15:50:53.000Z</time>
      </trkpt>
      <trkpt lat="46.77029" lon="5.51401">
        <ele>264.5</ele>
        <time>2012-11-24T15:50:56.000Z</time>
      </trkpt>
      <trkpt lat="46.77029" lon="5.514">
        <ele>264.5</ele>
        <time>2012-11-24T15:50:57.000Z</time>
      </trkpt>
      <trkpt lat="46.77026" lon="5.51397">
        <ele>264.2</ele>
        <time>2012-11-24T15:51:00.000Z</time>
      </trkpt>
      <trkpt lat="46.77025" lon="5.51395">
        <ele>264.1</ele>
        <time>2012-11-24T15:51:01.000Z</time>
      </trkpt>
      <trkpt lat="46.77021" lon="5.51392">
        <ele>263.7</ele>
        <time>2012-11-24T15:51:04.000Z</time>
      </trkpt>
      <trkpt lat="46.77021" lon="5.51391">
        <ele>263.6</ele>
        <time>2012-11-24T15:51:05.000Z</time>
      </trkpt>
      <trkpt lat="46.77018" lon="5.51387">
        <ele>263.3</ele>
        <time>2012-11-24T15:51:08.000Z</time>
      </trkpt>
      <trkpt lat="46.77017" lon="5.51386">
        <ele>263.2</ele>
        <time>2012-11-24T15:51:09.000Z</time>
      </trkpt>
      <trkpt lat="46.77014" lon="5.51383">
        <ele>263.1</ele>
        <time>2012-11-24T15:51:12.000Z</time>
      </trkpt>
      <trkpt lat="46.77013" lon="5.51381">
        <ele>263</ele>
        <time>2012-11-24T15:51:13.000Z</time>
      </trkpt>
      <trkpt lat="46.7701" lon="5.51378">
        <ele>262.9</ele>
        <time>2012-11-24T15:51:16.000Z</time>
      </trkpt>
      <trkpt lat="46.77009" lon="5.51377">
        <ele>262.9</ele>
        <time>2012-11-24T15:51:17.000Z</time>
      </trkpt>
      <trkpt lat="46.77005" lon="5.51373">
        <ele>263.3</ele>
        <time>2012-11-24T15:51:20.000Z</time>
      </trkpt>
      <trkpt lat="46.77004" lon="5.51372">
        <ele>263.2</ele>
        <time>2012-11-24T15:51:21.000Z</time>
      </trkpt>
      <trkpt lat="46.77" lon="5.51369">
        <ele>263.2</ele>
        <time>2012-11-24T15:51:24.000Z</time>
      </trkpt>
      <trkpt lat="46.76998" lon="5.51369">
        <ele>263.2</ele>
        <time>2012-11-24T15:51:25.000Z</time>
      </trkpt>
      <trkpt lat="46.76994" lon="5.51367">
        <ele>263.1</ele>
        <time>2012-11-24T15:51:28.000Z</time>
      </trkpt>
      <trkpt lat="46.76993" lon="5.51367">
        <ele>263.1</ele>
        <time>2012-11-24T15:51:29.000Z</time>
      </trkpt>
      <trkpt lat="46.76989" lon="5.51366">
        <ele>263.2</ele>
        <time>2012-11-24T15:51:32.000Z</time>
      </trkpt>
      <trkpt lat="46.76987" lon="5.51365">
        <ele>263.3</ele>
        <time>2012-11-24T15:51:33.000Z</time>
      </trkpt>
      <trkpt lat="46.76983" lon="5.51365">
        <ele>263.5</ele>
        <time>2012-11-24T15:51:36.000Z</time>
      </trkpt>
      <trkpt lat="46.76982" lon="5.51365">
        <ele>263.7</ele>
        <time>2012-11-24T15:51:37.000Z</time>
      </trkpt>
      <trkpt lat="46.76978" lon="5.51367">
        <ele>264.3</ele>
        <time>2012-11-24T15:51:40.000Z</time>
      </trkpt>
      <trkpt lat="46.76977" lon="5.51368">
        <ele>264.4</ele>
        <time>2012-11-24T15:51:41.000Z</time>
      </trkpt>
      <trkpt lat="46.76974" lon="5.51373">
        <ele>264.9</ele>
        <time>2012-11-24T15:51:44.000Z</time>
      </trkpt>
      <trkpt lat="46.76973" lon="5.51374">
        <ele>265.1</ele>
        <time>2012-11-24T15:51:45.000Z</time>
      </trkpt>
      <trkpt lat="46.76971" lon="5.5138">
        <ele>265.2</ele>
        <time>2012-11-24T15:51:48.000Z</time>
      </trkpt>
      <trkpt lat="46.7697" lon="5.51382">
        <ele>265.1</ele>
        <time>2012-11-24T15:51:49.000Z</time>
      </trkpt>
      <trkpt lat="46.76968" lon="5.51386">
        <ele>265.5</ele>
        <time>2012-11-24T15:51:52.000Z</time>
      </trkpt>
      <trkpt lat="46.76968" lon="5.51388">
        <ele>265.6</ele>
        <time>2012-11-24T15:51:53.000Z</time>
      </trkpt>
      <trkpt lat="46.76966" lon="5.51392">
        <ele>265.7</ele>
        <time>2012-11-24T15:51:56.000Z</time>
      </trkpt>
      <trkpt lat="46.76965" lon="5.51394">
        <ele>265.7</ele>
        <time>2012-11-24T15:51:57.000Z</time>
      </trkpt>
      <trkpt lat="46.76965" lon="5.51399">
        <ele>265.7</ele>
        <time>2012-11-24T15:52:01.000Z</time>
      </trkpt>
      <trkpt lat="46.76965" lon="5.51401">
        <ele>265.7</ele>
        <time>2012-11-24T15:52:02.000Z</time>
      </trkpt>
      <trkpt lat="46.76967" lon="5.51404">
        <ele>265.7</ele>
        <time>2012-11-24T15:52:05.000Z</time>
      </trkpt>
      <trkpt lat="46.76968" lon="5.51405">
        <ele>265.8</ele>
        <time>2012-11-24T15:52:06.000Z</time>
      </trkpt>
      <trkpt lat="46.76971" lon="5.5141">
        <ele>265.7</ele>
        <time>2012-11-24T15:52:09.000Z</time>
      </trkpt>
      <trkpt lat="46.76972" lon="5.51411">
        <ele>265.8</ele>
        <time>2012-11-24T15:52:10.000Z</time>
      </trkpt>
      <trkpt lat="46.76973" lon="5.51417">
        <ele>265.8</ele>
        <time>2012-11-24T15:52:13.000Z</time>
      </trkpt>
      <trkpt lat="46.76973" lon="5.51419">
        <ele>265.8</ele>
        <time>2012-11-24T15:52:14.000Z</time>
      </trkpt>
      <trkpt lat="46.76972" lon="5.51424">
        <ele>265.9</ele>
        <time>2012-11-24T15:52:16.000Z</time>
      </trkpt>
      <trkpt lat="46.76972" lon="5.51427">
        <ele>266</ele>
        <time>2012-11-24T15:52:17.000Z</time>
      </trkpt>
      <trkpt lat="46.7697" lon="5.51433">
        <ele>266.1</ele>
        <time>2012-11-24T15:52:19.000Z</time>
      </trkpt>
      <trkpt lat="46.7697" lon="5.51437">
        <ele>266.1</ele>
        <time>2012-11-24T15:52:20.000Z</time>
      </trkpt>
      <trkpt lat="46.76969" lon="5.5144">
        <ele>266.1</ele>
        <time>2012-11-24T15:52:21.000Z</time>
      </trkpt>
      <trkpt lat="46.76968" lon="5.51443">
        <ele>266.1</ele>
        <time>2012-11-24T15:52:22.000Z</time>
      </trkpt>
      <trkpt lat="46.76967" lon="5.51449">
        <ele>266.1</ele>
        <time>2012-11-24T15:52:25.000Z</time>
      </trkpt>
      <trkpt lat="46.76966" lon="5.5145">
        <ele>266.3</ele>
        <time>2012-11-24T15:52:26.000Z</time>
      </trkpt>
      <trkpt lat="46.76964" lon="5.5145">
        <ele>265.9</ele>
        <time>2012-11-24T15:52:27.000Z</time>
      </trkpt>
      <trkpt lat="46.76961" lon="5.5145">
        <ele>265.7</ele>
        <time>2012-11-24T15:52:28.000Z</time>
      </trkpt>
      <trkpt lat="46.76957" lon="5.51451">
        <ele>266.1</ele>
        <time>2012-11-24T15:52:30.000Z</time>
      </trkpt>
      <trkpt lat="46.76955" lon="5.51453">
        <ele>266</ele>
        <time>2012-11-24T15:52:31.000Z</time>
      </trkpt>
      <trkpt lat="46.76952" lon="5.51456">
        <ele>265.7</ele>
        <time>2012-11-24T15:52:33.000Z</time>
      </trkpt>
      <trkpt lat="46.7695" lon="5.51458">
        <ele>265.6</ele>
        <time>2012-11-24T15:52:34.000Z</time>
      </trkpt>
      <trkpt lat="46.76948" lon="5.51461">
        <ele>265.3</ele>
        <time>2012-11-24T15:52:36.000Z</time>
      </trkpt>
      <trkpt lat="46.76947" lon="5.51463">
        <ele>265.2</ele>
        <time>2012-11-24T15:52:37.000Z</time>
      </trkpt>
      <trkpt lat="46.76945" lon="5.51466">
        <ele>264.9</ele>
        <time>2012-11-24T15:52:39.000Z</time>
      </trkpt>
      <trkpt lat="46.76944" lon="5.51468">
        <ele>264.4</ele>
        <time>2012-11-24T15:52:40.000Z</time>
      </trkpt>
      <trkpt lat="46.76941" lon="5.51473">
        <ele>263.7</ele>
        <time>2012-11-24T15:52:43.000Z</time>
      </trkpt>
      <trkpt lat="46.76941" lon="5.51474">
        <ele>263.5</ele>
        <time>2012-11-24T15:52:44.000Z</time>
      </trkpt>
      <trkpt lat="46.76939" lon="5.51479">
        <ele>263.3</ele>
        <time>2012-11-24T15:52:47.000Z</time>
      </trkpt>
      <trkpt lat="46.76938" lon="5.51481">
        <ele>263.2</ele>
        <time>2012-11-24T15:52:48.000Z</time>
      </trkpt>
      <trkpt lat="46.76937" lon="5.51486">
        <ele>263.1</ele>
        <time>2012-11-24T15:52:51.000Z</time>
      </trkpt>
      <trkpt lat="46.76936" lon="5.51487">
        <ele>263.1</ele>
        <time>2012-11-24T15:52:52.000Z</time>
      </trkpt>
      <trkpt lat="46.76935" lon="5.51491">
        <ele>263.1</ele>
        <time>2012-11-24T15:52:55.000Z</time>
      </trkpt>
      <trkpt lat="46.76934" lon="5.51493">
        <ele>262.7</ele>
        <time>2012-11-24T15:52:56.000Z</time>
      </trkpt>
      <trkpt lat="46.76932" lon="5.51497">
        <ele>262.4</ele>
        <time>2012-11-24T15:52:59.000Z</time>
      </trkpt>
      <trkpt lat="46.76932" lon="5.51499">
        <ele>262.3</ele>
        <time>2012-11-24T15:53:00.000Z</time>
      </trkpt>
      <trkpt lat="46.7693" lon="5.51504">
        <ele>261.8</ele>
        <time>2012-11-24T15:53:04.000Z</time>
      </trkpt>
      <trkpt lat="46.76929" lon="5.51505">
        <ele>261.7</ele>
        <time>2012-11-24T15:53:05.000Z</time>
      </trkpt>
      <trkpt lat="46.76928" lon="5.5151">
        <ele>261.5</ele>
        <time>2012-11-24T15:53:08.000Z</time>
      </trkpt>
      <trkpt lat="46.76927" lon="5.51512">
        <ele>261.4</ele>
        <time>2012-11-24T15:53:09.000Z</time>
      </trkpt>
      <trkpt lat="46.76925" lon="5.51516">
        <ele>261.4</ele>
        <time>2012-11-24T15:53:13.000Z</time>
      </trkpt>
      <trkpt lat="46.76924" lon="5.51518">
        <ele>261.2</ele>
        <time>2012-11-24T15:53:14.000Z</time>
      </trkpt>
      <trkpt lat="46.76922" lon="5.51523">
        <ele>261.2</ele>
        <time>2012-11-24T15:53:18.000Z</time>
      </trkpt>
      <trkpt lat="46.76921" lon="5.51524">
        <ele>261.3</ele>
        <time>2012-11-24T15:53:19.000Z</time>
      </trkpt>
      <trkpt lat="46.76919" lon="5.5153">
        <ele>261.4</ele>
        <time>2012-11-24T15:53:23.000Z</time>
      </trkpt>
      <trkpt lat="46.76919" lon="5.51531">
        <ele>261.3</ele>
        <time>2012-11-24T15:53:24.000Z</time>
      </trkpt>
      <trkpt lat="46.76918" lon="5.51536">
        <ele>260.8</ele>
        <time>2012-11-24T15:53:27.000Z</time>
      </trkpt>
      <trkpt lat="46.76917" lon="5.51538">
        <ele>260.7</ele>
        <time>2012-11-24T15:53:28.000Z</time>
      </trkpt>
      <trkpt lat="46.76916" lon="5.51542">
        <ele>260.3</ele>
        <time>2012-11-24T15:53:31.000Z</time>
      </trkpt>
      <trkpt lat="46.76915" lon="5.51544">
        <ele>260.2</ele>
        <time>2012-11-24T15:53:32.000Z</time>
      </trkpt>
      <trkpt lat="46.76915" lon="5.51548">
        <ele>260.1</ele>
        <time>2012-11-24T15:53:35.000Z</time>
      </trkpt>
      <trkpt lat="46.76915" lon="5.5155">
        <ele>260.1</ele>
        <time>2012-11-24T15:53:36.000Z</time>
      </trkpt>
      <trkpt lat="46.76912" lon="5.51556">
        <ele>260.2</ele>
        <time>2012-11-24T15:53:40.000Z</time>
      </trkpt>
      <trkpt lat="46.76912" lon="5.51557">
        <ele>260</ele>
        <time>2012-11-24T15:53:41.000Z</time>
      </trkpt>
      <trkpt lat="46.7691" lon="5.51563">
        <ele>260.2</ele>
        <time>2012-11-24T15:53:44.000Z</time>
      </trkpt>
      <trkpt lat="46.76909" lon="5.51565">
        <ele>260.4</ele>
        <time>2012-11-24T15:53:45.000Z</time>
      </trkpt>
      <trkpt lat="46.76908" lon="5.51569">
        <ele>260.6</ele>
        <time>2012-11-24T15:53:47.000Z</time>
      </trkpt>
      <trkpt lat="46.76907" lon="5.51571">
        <ele>260.6</ele>
        <time>2012-11-24T15:53:48.000Z</time>
      </trkpt>
      <trkpt lat="46.76905" lon="5.51577">
        <ele>260.8</ele>
        <time>2012-11-24T15:53:51.000Z</time>
      </trkpt>
      <trkpt lat="46.76905" lon="5.51578">
        <ele>260.7</ele>
        <time>2012-11-24T15:53:52.000Z</time>
      </trkpt>
      <trkpt lat="46.76903" lon="5.51584">
        <ele>260.7</ele>
        <time>2012-11-24T15:53:55.000Z</time>
      </trkpt>
      <trkpt lat="46.76902" lon="5.51586">
        <ele>260.7</ele>
        <time>2012-11-24T15:53:56.000Z</time>
      </trkpt>
      <trkpt lat="46.769" lon="5.51591">
        <ele>260.5</ele>
        <time>2012-11-24T15:53:59.000Z</time>
      </trkpt>
      <trkpt lat="46.769" lon="5.51593">
        <ele>260.4</ele>
        <time>2012-11-24T15:54:00.000Z</time>
      </trkpt>
      <trkpt lat="46.769" lon="5.51598">
        <ele>260.8</ele>
        <time>2012-11-24T15:54:03.000Z</time>
      </trkpt>
      <trkpt lat="46.769" lon="5.516">
        <ele>261.4</ele>
        <time>2012-11-24T15:54:04.000Z</time>
      </trkpt>
      <trkpt lat="46.76898" lon="5.51605">
        <ele>262.4</ele>
        <time>2012-11-24T15:54:07.000Z</time>
      </trkpt>
      <trkpt lat="46.76897" lon="5.51607">
        <ele>262.8</ele>
        <time>2012-11-24T15:54:08.000Z</time>
      </trkpt>
      <trkpt lat="46.76896" lon="5.51611">
        <ele>263.3</ele>
        <time>2012-11-24T15:54:10.000Z</time>
      </trkpt>
      <trkpt lat="46.76895" lon="5.51613">
        <ele>263.6</ele>
        <time>2012-11-24T15:54:11.000Z</time>
      </trkpt>
      <trkpt lat="46.76893" lon="5.51617">
        <ele>264</ele>
        <time>2012-11-24T15:54:13.000Z</time>
      </trkpt>
      <trkpt lat="46.76892" lon="5.51619">
        <ele>264.2</ele>
        <time>2012-11-24T15:54:14.000Z</time>
      </trkpt>
      <trkpt lat="46.7689" lon="5.51624">
        <ele>264.2</ele>
        <time>2012-11-24T15:54:17.000Z</time>
      </trkpt>
      <trkpt lat="46.76889" lon="5.51625">
        <ele>264.3</ele>
        <time>2012-11-24T15:54:18.000Z</time>
      </trkpt>
      <trkpt lat="46.76886" lon="5.5163">
        <ele>264.5</ele>
        <time>2012-11-24T15:54:21.000Z</time>
      </trkpt>
      <trkpt lat="46.76886" lon="5.51632">
        <ele>264.7</ele>
        <time>2012-11-24T15:54:22.000Z</time>
      </trkpt>
      <trkpt lat="46.76884" lon="5.51638">
        <ele>265.5</ele>
        <time>2012-11-24T15:54:25.000Z</time>
      </trkpt>
      <trkpt lat="46.76883" lon="5.5164">
        <ele>265.9</ele>
        <time>2012-11-24T15:54:26.000Z</time>
      </trkpt>
      <trkpt lat="46.76882" lon="5.51644">
        <ele>266.3</ele>
        <time>2012-11-24T15:54:28.000Z</time>
      </trkpt>
      <trkpt lat="46.76881" lon="5.51646">
        <ele>266.3</ele>
        <time>2012-11-24T15:54:29.000Z</time>
      </trkpt>
      <trkpt lat="46.76879" lon="5.5165">
        <ele>266.9</ele>
        <time>2012-11-24T15:54:31.000Z</time>
      </trkpt>
      <trkpt lat="46.76879" lon="5.51652">
        <ele>267.2</ele>
        <time>2012-11-24T15:54:32.000Z</time>
      </trkpt>
      <trkpt lat="46.76876" lon="5.51657">
        <ele>268</ele>
        <time>2012-11-24T15:54:35.000Z</time>
      </trkpt>
      <trkpt lat="46.76875" lon="5.51659">
        <ele>268.1</ele>
        <time>2012-11-24T15:54:36.000Z</time>
      </trkpt>
      <trkpt lat="46.76873" lon="5.51663">
        <ele>268.3</ele>
        <time>2012-11-24T15:54:39.000Z</time>
      </trkpt>
      <trkpt lat="46.76872" lon="5.51665">
        <ele>268.1</ele>
        <time>2012-11-24T15:54:40.000Z</time>
      </trkpt>
      <trkpt lat="46.7687" lon="5.51668">
        <ele>268.6</ele>
        <time>2012-11-24T15:54:42.000Z</time>
      </trkpt>
      <trkpt lat="46.76869" lon="5.5167">
        <ele>268.9</ele>
        <time>2012-11-24T15:54:43.000Z</time>
      </trkpt>
      <trkpt lat="46.76866" lon="5.51674">
        <ele>268.8</ele>
        <time>2012-11-24T15:54:46.000Z</time>
      </trkpt>
      <trkpt lat="46.76865" lon="5.51675">
        <ele>268.8</ele>
        <time>2012-11-24T15:54:47.000Z</time>
      </trkpt>
      <trkpt lat="46.76862" lon="5.51679">
        <ele>265.8</ele>
        <time>2012-11-24T15:54:53.000Z</time>
      </trkpt>
      <trkpt lat="46.76861" lon="5.5168">
        <ele>265.6</ele>
        <time>2012-11-24T15:54:54.000Z</time>
      </trkpt>
      <trkpt lat="46.76859" lon="5.51684">
        <ele>265.5</ele>
        <time>2012-11-24T15:54:57.000Z</time>
      </trkpt>
      <trkpt lat="46.76858" lon="5.51685">
        <ele>265.4</ele>
        <time>2012-11-24T15:54:58.000Z</time>
      </trkpt>
      <trkpt lat="46.76855" lon="5.51689">
        <ele>265.6</ele>
        <time>2012-11-24T15:55:01.000Z</time>
      </trkpt>
      <trkpt lat="46.76854" lon="5.5169">
        <ele>265.4</ele>
        <time>2012-11-24T15:55:02.000Z</time>
      </trkpt>
      <trkpt lat="46.76852" lon="5.51694">
        <ele>265.6</ele>
        <time>2012-11-24T15:55:05.000Z</time>
      </trkpt>
      <trkpt lat="46.76851" lon="5.51695">
        <ele>265.7</ele>
        <time>2012-11-24T15:55:06.000Z</time>
      </trkpt>
      <trkpt lat="46.76848" lon="5.51699">
        <ele>266.4</ele>
        <time>2012-11-24T15:55:09.000Z</time>
      </trkpt>
      <trkpt lat="46.76848" lon="5.51701">
        <ele>266.4</ele>
        <time>2012-11-24T15:55:10.000Z</time>
      </trkpt>
      <trkpt lat="46.76845" lon="5.51705">
        <ele>267.3</ele>
        <time>2012-11-24T15:55:13.000Z</time>
      </trkpt>
      <trkpt lat="46.76844" lon="5.51706">
        <ele>267.2</ele>
        <time>2012-11-24T15:55:14.000Z</time>
      </trkpt>
      <trkpt lat="46.76842" lon="5.5171">
        <ele>267.8</ele>
        <time>2012-11-24T15:55:17.000Z</time>
      </trkpt>
      <trkpt lat="46.76841" lon="5.51712">
        <ele>267.8</ele>
        <time>2012-11-24T15:55:18.000Z</time>
      </trkpt>
      <trkpt lat="46.76839" lon="5.51715">
        <ele>267.5</ele>
        <time>2012-11-24T15:55:21.000Z</time>
      </trkpt>
      <trkpt lat="46.76838" lon="5.51717">
        <ele>267.5</ele>
        <time>2012-11-24T15:55:22.000Z</time>
      </trkpt>
      <trkpt lat="46.76835" lon="5.51721">
        <ele>267.9</ele>
        <time>2012-11-24T15:55:25.000Z</time>
      </trkpt>
      <trkpt lat="46.76834" lon="5.51722">
        <ele>268</ele>
        <time>2012-11-24T15:55:26.000Z</time>
      </trkpt>
      <trkpt lat="46.76832" lon="5.51726">
        <ele>268.1</ele>
        <time>2012-11-24T15:55:29.000Z</time>
      </trkpt>
      <trkpt lat="46.76831" lon="5.51727">
        <ele>267.9</ele>
        <time>2012-11-24T15:55:30.000Z</time>
      </trkpt>
      <trkpt lat="46.76828" lon="5.51731">
        <ele>268.2</ele>
        <time>2012-11-24T15:55:33.000Z</time>
      </trkpt>
      <trkpt lat="46.76828" lon="5.51733">
        <ele>268.2</ele>
        <time>2012-11-24T15:55:34.000Z</time>
      </trkpt>
      <trkpt lat="46.76826" lon="5.51738">
        <ele>268.1</ele>
        <time>2012-11-24T15:55:37.000Z</time>
      </trkpt>
      <trkpt lat="46.76825" lon="5.51739">
        <ele>268</ele>
        <time>2012-11-24T15:55:38.000Z</time>
      </trkpt>
      <trkpt lat="46.76823" lon="5.51744">
        <ele>267.9</ele>
        <time>2012-11-24T15:55:41.000Z</time>
      </trkpt>
      <trkpt lat="46.76822" lon="5.51745">
        <ele>267.9</ele>
        <time>2012-11-24T15:55:42.000Z</time>
      </trkpt>
      <trkpt lat="46.7682" lon="5.51749">
        <ele>267.8</ele>
        <time>2012-11-24T15:55:45.000Z</time>
      </trkpt>
      <trkpt lat="46.76819" lon="5.51751">
        <ele>267.5</ele>
        <time>2012-11-24T15:55:46.000Z</time>
      </trkpt>
      <trkpt lat="46.76817" lon="5.51754">
        <ele>267.6</ele>
        <time>2012-11-24T15:55:49.000Z</time>
      </trkpt>
      <trkpt lat="46.76816" lon="5.51756">
        <ele>267.6</ele>
        <time>2012-11-24T15:55:50.000Z</time>
      </trkpt>
      <trkpt lat="46.76814" lon="5.5176">
        <ele>267.9</ele>
        <time>2012-11-24T15:55:53.000Z</time>
      </trkpt>
      <trkpt lat="46.76813" lon="5.51762">
        <ele>267.8</ele>
        <time>2012-11-24T15:55:54.000Z</time>
      </trkpt>
      <trkpt lat="46.76811" lon="5.51767">
        <ele>267.8</ele>
        <time>2012-11-24T15:55:57.000Z</time>
      </trkpt>
      <trkpt lat="46.7681" lon="5.51768">
        <ele>267.9</ele>
        <time>2012-11-24T15:55:58.000Z</time>
      </trkpt>
      <trkpt lat="46.76808" lon="5.51773">
        <ele>267</ele>
        <time>2012-11-24T15:56:01.000Z</time>
      </trkpt>
      <trkpt lat="46.76807" lon="5.51774">
        <ele>266.9</ele>
        <time>2012-11-24T15:56:02.000Z</time>
      </trkpt>
      <trkpt lat="46.76805" lon="5.51779">
        <ele>267</ele>
        <time>2012-11-24T15:56:05.000Z</time>
      </trkpt>
      <trkpt lat="46.76804" lon="5.5178">
        <ele>266.7</ele>
        <time>2012-11-24T15:56:06.000Z</time>
      </trkpt>
      <trkpt lat="46.76801" lon="5.51785">
        <ele>266.6</ele>
        <time>2012-11-24T15:56:09.000Z</time>
      </trkpt>
      <trkpt lat="46.76799" lon="5.51788">
        <ele>267.1</ele>
        <time>2012-11-24T15:56:10.000Z</time>
      </trkpt>
      <trkpt lat="46.76797" lon="5.51792">
        <ele>267</ele>
        <time>2012-11-24T15:56:13.000Z</time>
      </trkpt>
      <trkpt lat="46.76796" lon="5.51793">
        <ele>267</ele>
        <time>2012-11-24T15:56:14.000Z</time>
      </trkpt>
      <trkpt lat="46.76793" lon="5.51797">
        <ele>267</ele>
        <time>2012-11-24T15:56:17.000Z</time>
      </trkpt>
      <trkpt lat="46.76792" lon="5.51799">
        <ele>267</ele>
        <time>2012-11-24T15:56:18.000Z</time>
      </trkpt>
      <trkpt lat="46.7679" lon="5.51803">
        <ele>267.1</ele>
        <time>2012-11-24T15:56:21.000Z</time>
      </trkpt>
      <trkpt lat="46.76789" lon="5.51804">
        <ele>267.1</ele>
        <time>2012-11-24T15:56:22.000Z</time>
      </trkpt>
      <trkpt lat="46.76787" lon="5.51809">
        <ele>267.9</ele>
        <time>2012-11-24T15:56:25.000Z</time>
      </trkpt>
      <trkpt lat="46.76786" lon="5.5181">
        <ele>268.2</ele>
        <time>2012-11-24T15:56:26.000Z</time>
      </trkpt>
      <trkpt lat="46.76784" lon="5.51814">
        <ele>269</ele>
        <time>2012-11-24T15:56:29.000Z</time>
      </trkpt>
      <trkpt lat="46.76783" lon="5.51815">
        <ele>269.1</ele>
        <time>2012-11-24T15:56:30.000Z</time>
      </trkpt>
      <trkpt lat="46.7678" lon="5.51818">
        <ele>269.4</ele>
        <time>2012-11-24T15:56:33.000Z</time>
      </trkpt>
      <trkpt lat="46.76779" lon="5.51819">
        <ele>269.6</ele>
        <time>2012-11-24T15:56:34.000Z</time>
      </trkpt>
      <trkpt lat="46.76776" lon="5.51824">
        <ele>269.7</ele>
        <time>2012-11-24T15:56:38.000Z</time>
      </trkpt>
      <trkpt lat="46.76775" lon="5.51825">
        <ele>269.9</ele>
        <time>2012-11-24T15:56:39.000Z</time>
      </trkpt>
      <trkpt lat="46.76773" lon="5.51829">
        <ele>269.9</ele>
        <time>2012-11-24T15:56:43.000Z</time>
      </trkpt>
      <trkpt lat="46.76772" lon="5.5183">
        <ele>269.9</ele>
        <time>2012-11-24T15:56:44.000Z</time>
      </trkpt>
      <trkpt lat="46.76769" lon="5.51834">
        <ele>270.1</ele>
        <time>2012-11-24T15:56:48.000Z</time>
      </trkpt>
      <trkpt lat="46.76768" lon="5.51836">
        <ele>270.2</ele>
        <time>2012-11-24T15:56:49.000Z</time>
      </trkpt>
      <trkpt lat="46.76765" lon="5.51839">
        <ele>270.3</ele>
        <time>2012-11-24T15:56:52.000Z</time>
      </trkpt>
      <trkpt lat="46.76764" lon="5.5184">
        <ele>270.4</ele>
        <time>2012-11-24T15:56:53.000Z</time>
      </trkpt>
      <trkpt lat="46.76762" lon="5.51844">
        <ele>270.3</ele>
        <time>2012-11-24T15:56:56.000Z</time>
      </trkpt>
      <trkpt lat="46.76761" lon="5.51846">
        <ele>270.1</ele>
        <time>2012-11-24T15:56:57.000Z</time>
      </trkpt>
      <trkpt lat="46.76759" lon="5.51849">
        <ele>270</ele>
        <time>2012-11-24T15:57:00.000Z</time>
      </trkpt>
      <trkpt lat="46.76758" lon="5.5185">
        <ele>269.8</ele>
        <time>2012-11-24T15:57:01.000Z</time>
      </trkpt>
      <trkpt lat="46.76755" lon="5.51853">
        <ele>269.8</ele>
        <time>2012-11-24T15:57:04.000Z</time>
      </trkpt>
      <trkpt lat="46.76754" lon="5.51854">
        <ele>269.9</ele>
        <time>2012-11-24T15:57:05.000Z</time>
      </trkpt>
      <trkpt lat="46.76751" lon="5.51857">
        <ele>269.6</ele>
        <time>2012-11-24T15:57:08.000Z</time>
      </trkpt>
      <trkpt lat="46.7675" lon="5.51859">
        <ele>269.5</ele>
        <time>2012-11-24T15:57:09.000Z</time>
      </trkpt>
      <trkpt lat="46.76747" lon="5.51862">
        <ele>269.4</ele>
        <time>2012-11-24T15:57:12.000Z</time>
      </trkpt>
      <trkpt lat="46.76746" lon="5.51863">
        <ele>269.3</ele>
        <time>2012-11-24T15:57:13.000Z</time>
      </trkpt>
      <trkpt lat="46.76743" lon="5.51865">
        <ele>269.3</ele>
        <time>2012-11-24T15:57:16.000Z</time>
      </trkpt>
      <trkpt lat="46.76741" lon="5.51866">
        <ele>269.3</ele>
        <time>2012-11-24T15:57:17.000Z</time>
      </trkpt>
      <trkpt lat="46.76738" lon="5.51869">
        <ele>269.6</ele>
        <time>2012-11-24T15:57:20.000Z</time>
      </trkpt>
      <trkpt lat="46.76737" lon="5.5187">
        <ele>269.7</ele>
        <time>2012-11-24T15:57:21.000Z</time>
      </trkpt>
      <trkpt lat="46.76733" lon="5.51873">
        <ele>270.4</ele>
        <time>2012-11-24T15:57:24.000Z</time>
      </trkpt>
      <trkpt lat="46.76732" lon="5.51874">
        <ele>270.4</ele>
        <time>2012-11-24T15:57:25.000Z</time>
      </trkpt>
      <trkpt lat="46.76729" lon="5.51876">
        <ele>270.6</ele>
        <time>2012-11-24T15:57:28.000Z</time>
      </trkpt>
      <trkpt lat="46.76728" lon="5.51876">
        <ele>270.7</ele>
        <time>2012-11-24T15:57:29.000Z</time>
      </trkpt>
      <trkpt lat="46.76725" lon="5.51878">
        <ele>270.9</ele>
        <time>2012-11-24T15:57:32.000Z</time>
      </trkpt>
      <trkpt lat="46.76724" lon="5.51878">
        <ele>271</ele>
        <time>2012-11-24T15:57:33.000Z</time>
      </trkpt>
      <trkpt lat="46.7672" lon="5.5188">
        <ele>270.9</ele>
        <time>2012-11-24T15:57:36.000Z</time>
      </trkpt>
      <trkpt lat="46.76719" lon="5.51881">
        <ele>271</ele>
        <time>2012-11-24T15:57:37.000Z</time>
      </trkpt>
      <trkpt lat="46.76715" lon="5.51881">
        <ele>270.6</ele>
        <time>2012-11-24T15:57:41.000Z</time>
      </trkpt>
      <trkpt lat="46.76714" lon="5.5188">
        <ele>270.5</ele>
        <time>2012-11-24T15:57:42.000Z</time>
      </trkpt>
      <trkpt lat="46.7671" lon="5.51881">
        <ele>270.8</ele>
        <time>2012-11-24T15:57:45.000Z</time>
      </trkpt>
      <trkpt lat="46.76709" lon="5.51881">
        <ele>270.9</ele>
        <time>2012-11-24T15:57:46.000Z</time>
      </trkpt>
      <trkpt lat="46.76705" lon="5.51882">
        <ele>271.4</ele>
        <time>2012-11-24T15:57:49.000Z</time>
      </trkpt>
      <trkpt lat="46.76703" lon="5.51882">
        <ele>271.3</ele>
        <time>2012-11-24T15:57:50.000Z</time>
      </trkpt>
      <trkpt lat="46.76699" lon="5.51883">
        <ele>270.9</ele>
        <time>2012-11-24T15:57:53.000Z</time>
      </trkpt>
      <trkpt lat="46.76698" lon="5.51883">
        <ele>270.9</ele>
        <time>2012-11-24T15:57:54.000Z</time>
      </trkpt>
      <trkpt lat="46.76693" lon="5.51883">
        <ele>270.8</ele>
        <time>2012-11-24T15:57:57.000Z</time>
      </trkpt>
      <trkpt lat="46.76692" lon="5.51883">
        <ele>270.9</ele>
        <time>2012-11-24T15:57:58.000Z</time>
      </trkpt>
      <trkpt lat="46.76688" lon="5.51885">
        <ele>270.6</ele>
        <time>2012-11-24T15:58:01.000Z</time>
      </trkpt>
      <trkpt lat="46.76687" lon="5.51885">
        <ele>270.6</ele>
        <time>2012-11-24T15:58:02.000Z</time>
      </trkpt>
      <trkpt lat="46.76682" lon="5.51886">
        <ele>270.4</ele>
        <time>2012-11-24T15:58:05.000Z</time>
      </trkpt>
      <trkpt lat="46.76681" lon="5.51886">
        <ele>270.5</ele>
        <time>2012-11-24T15:58:06.000Z</time>
      </trkpt>
      <trkpt lat="46.76678" lon="5.51886">
        <ele>270.6</ele>
        <time>2012-11-24T15:58:08.000Z</time>
      </trkpt>
      <trkpt lat="46.76676" lon="5.51886">
        <ele>270.7</ele>
        <time>2012-11-24T15:58:09.000Z</time>
      </trkpt>
      <trkpt lat="46.76673" lon="5.51886">
        <ele>271.1</ele>
        <time>2012-11-24T15:58:11.000Z</time>
      </trkpt>
      <trkpt lat="46.76671" lon="5.51886">
        <ele>271.3</ele>
        <time>2012-11-24T15:58:12.000Z</time>
      </trkpt>
      <trkpt lat="46.76668" lon="5.51887">
        <ele>271.8</ele>
        <time>2012-11-24T15:58:14.000Z</time>
      </trkpt>
      <trkpt lat="46.76666" lon="5.51887">
        <ele>272</ele>
        <time>2012-11-24T15:58:15.000Z</time>
      </trkpt>
      <trkpt lat="46.76663" lon="5.51888">
        <ele>272.9</ele>
        <time>2012-11-24T15:58:17.000Z</time>
      </trkpt>
      <trkpt lat="46.76661" lon="5.51889">
        <ele>273.1</ele>
        <time>2012-11-24T15:58:18.000Z</time>
      </trkpt>
      <trkpt lat="46.76657" lon="5.51889">
        <ele>272.7</ele>
        <time>2012-11-24T15:58:21.000Z</time>
      </trkpt>
      <trkpt lat="46.76655" lon="5.5189">
        <ele>272.6</ele>
        <time>2012-11-24T15:58:22.000Z</time>
      </trkpt>
      <trkpt lat="46.76654" lon="5.5189">
        <ele>272.5</ele>
        <time>2012-11-24T15:58:23.000Z</time>
      </trkpt>
      <trkpt lat="46.76638" lon="5.51897">
        <ele>272.5</ele>
        <time>2012-11-24T15:58:33.000Z</time>
      </trkpt>
      <trkpt lat="46.76633" lon="5.51896">
        <ele>270.5</ele>
        <time>2012-11-24T15:58:38.000Z</time>
      </trkpt>
      <trkpt lat="46.76632" lon="5.51896">
        <ele>270</ele>
        <time>2012-11-24T15:58:39.000Z</time>
      </trkpt>
      <trkpt lat="46.76628" lon="5.51896">
        <ele>270.9</ele>
        <time>2012-11-24T15:58:43.000Z</time>
      </trkpt>
      <trkpt lat="46.76627" lon="5.51896">
        <ele>271.8</ele>
        <time>2012-11-24T15:58:44.000Z</time>
      </trkpt>
      <trkpt lat="46.76622" lon="5.51896">
        <ele>273</ele>
        <time>2012-11-24T15:58:48.000Z</time>
      </trkpt>
      <trkpt lat="46.76621" lon="5.51897">
        <ele>273</ele>
        <time>2012-11-24T15:58:49.000Z</time>
      </trkpt>
      <trkpt lat="46.76618" lon="5.51898">
        <ele>273.4</ele>
        <time>2012-11-24T15:58:52.000Z</time>
      </trkpt>
      <trkpt lat="46.76617" lon="5.51899">
        <ele>273.7</ele>
        <time>2012-11-24T15:58:53.000Z</time>
      </trkpt>
      <trkpt lat="46.76613" lon="5.51901">
        <ele>274.6</ele>
        <time>2012-11-24T15:58:56.000Z</time>
      </trkpt>
      <trkpt lat="46.76611" lon="5.51902">
        <ele>274.5</ele>
        <time>2012-11-24T15:58:57.000Z</time>
      </trkpt>
      <trkpt lat="46.76608" lon="5.51905">
        <ele>275.1</ele>
        <time>2012-11-24T15:59:00.000Z</time>
      </trkpt>
      <trkpt lat="46.76606" lon="5.51906">
        <ele>275</ele>
        <time>2012-11-24T15:59:01.000Z</time>
      </trkpt>
      <trkpt lat="46.76603" lon="5.51909">
        <ele>275</ele>
        <time>2012-11-24T15:59:04.000Z</time>
      </trkpt>
      <trkpt lat="46.76602" lon="5.5191">
        <ele>274.8</ele>
        <time>2012-11-24T15:59:05.000Z</time>
      </trkpt>
      <trkpt lat="46.76599" lon="5.51913">
        <ele>273.9</ele>
        <time>2012-11-24T15:59:08.000Z</time>
      </trkpt>
      <trkpt lat="46.76598" lon="5.51914">
        <ele>273.8</ele>
        <time>2012-11-24T15:59:09.000Z</time>
      </trkpt>
      <trkpt lat="46.76596" lon="5.51918">
        <ele>272.9</ele>
        <time>2012-11-24T15:59:12.000Z</time>
      </trkpt>
      <trkpt lat="46.76595" lon="5.51919">
        <ele>273</ele>
        <time>2012-11-24T15:59:13.000Z</time>
      </trkpt>
      <trkpt lat="46.76592" lon="5.51924">
        <ele>272.6</ele>
        <time>2012-11-24T15:59:16.000Z</time>
      </trkpt>
      <trkpt lat="46.76591" lon="5.51925">
        <ele>272.4</ele>
        <time>2012-11-24T15:59:17.000Z</time>
      </trkpt>
      <trkpt lat="46.76588" lon="5.5193">
        <ele>271.5</ele>
        <time>2012-11-24T15:59:20.000Z</time>
      </trkpt>
      <trkpt lat="46.76587" lon="5.51931">
        <ele>271</ele>
        <time>2012-11-24T15:59:21.000Z</time>
      </trkpt>
      <trkpt lat="46.76585" lon="5.51934">
        <ele>270.3</ele>
        <time>2012-11-24T15:59:24.000Z</time>
      </trkpt>
      <trkpt lat="46.76581" lon="5.51943">
        <ele>266.2</ele>
        <time>2012-11-24T15:59:32.000Z</time>
      </trkpt>
      <trkpt lat="46.76579" lon="5.51947">
        <ele>266.9</ele>
        <time>2012-11-24T15:59:35.000Z</time>
      </trkpt>
      <trkpt lat="46.76578" lon="5.5195">
        <ele>267.1</ele>
        <time>2012-11-24T15:59:36.000Z</time>
      </trkpt>
      <trkpt lat="46.76577" lon="5.51955">
        <ele>267.2</ele>
        <time>2012-11-24T15:59:39.000Z</time>
      </trkpt>
      <trkpt lat="46.76577" lon="5.51956">
        <ele>267.2</ele>
        <time>2012-11-24T15:59:40.000Z</time>
      </trkpt>
      <trkpt lat="46.76577" lon="5.51962">
        <ele>266.2</ele>
        <time>2012-11-24T15:59:44.000Z</time>
      </trkpt>
      <trkpt lat="46.76577" lon="5.51964">
        <ele>265.9</ele>
        <time>2012-11-24T15:59:45.000Z</time>
      </trkpt>
      <trkpt lat="46.76577" lon="5.51969">
        <ele>266</ele>
        <time>2012-11-24T15:59:48.000Z</time>
      </trkpt>
      <trkpt lat="46.76577" lon="5.51971">
        <ele>265.9</ele>
        <time>2012-11-24T15:59:49.000Z</time>
      </trkpt>
      <trkpt lat="46.76578" lon="5.51976">
        <ele>265.8</ele>
        <time>2012-11-24T15:59:52.000Z</time>
      </trkpt>
      <trkpt lat="46.76578" lon="5.51978">
        <ele>265.8</ele>
        <time>2012-11-24T15:59:53.000Z</time>
      </trkpt>
      <trkpt lat="46.76577" lon="5.51984">
        <ele>266</ele>
        <time>2012-11-24T15:59:58.000Z</time>
      </trkpt>
      <trkpt lat="46.76577" lon="5.51986">
        <ele>266.1</ele>
        <time>2012-11-24T15:59:59.000Z</time>
      </trkpt>
      <trkpt lat="46.76574" lon="5.5199">
        <ele>266</ele>
        <time>2012-11-24T16:00:02.000Z</time>
      </trkpt>
      <trkpt lat="46.76573" lon="5.51991">
        <ele>265.9</ele>
        <time>2012-11-24T16:00:03.000Z</time>
      </trkpt>
      <trkpt lat="46.7657" lon="5.51995">
        <ele>266.2</ele>
        <time>2012-11-24T16:00:07.000Z</time>
      </trkpt>
      <trkpt lat="46.7657" lon="5.51996">
        <ele>266.1</ele>
        <time>2012-11-24T16:00:08.000Z</time>
      </trkpt>
      <trkpt lat="46.76567" lon="5.52">
        <ele>266.1</ele>
        <time>2012-11-24T16:00:12.000Z</time>
      </trkpt>
      <trkpt lat="46.76566" lon="5.52002">
        <ele>266.2</ele>
        <time>2012-11-24T16:00:13.000Z</time>
      </trkpt>
      <trkpt lat="46.76565" lon="5.52005">
        <ele>266.6</ele>
        <time>2012-11-24T16:00:15.000Z</time>
      </trkpt>
      <trkpt lat="46.76564" lon="5.52007">
        <ele>266.6</ele>
        <time>2012-11-24T16:00:16.000Z</time>
      </trkpt>
      <trkpt lat="46.76562" lon="5.52012">
        <ele>266.6</ele>
        <time>2012-11-24T16:00:19.000Z</time>
      </trkpt>
      <trkpt lat="46.76561" lon="5.52014">
        <ele>266.5</ele>
        <time>2012-11-24T16:00:20.000Z</time>
      </trkpt>
      <trkpt lat="46.76558" lon="5.52018">
        <ele>266.6</ele>
        <time>2012-11-24T16:00:23.000Z</time>
      </trkpt>
      <trkpt lat="46.76558" lon="5.52019">
        <ele>266.7</ele>
        <time>2012-11-24T16:00:24.000Z</time>
      </trkpt>
      <trkpt lat="46.76552" lon="5.52033">
        <ele>265.2</ele>
        <time>2012-11-24T16:00:32.000Z</time>
      </trkpt>
      <trkpt lat="46.7655" lon="5.52037">
        <ele>266.2</ele>
        <time>2012-11-24T16:00:35.000Z</time>
      </trkpt>
      <trkpt lat="46.76549" lon="5.52039">
        <ele>266.2</ele>
        <time>2012-11-24T16:00:36.000Z</time>
      </trkpt>
      <trkpt lat="46.76547" lon="5.52044">
        <ele>265.5</ele>
        <time>2012-11-24T16:00:40.000Z</time>
      </trkpt>
      <trkpt lat="46.76546" lon="5.52045">
        <ele>265.2</ele>
        <time>2012-11-24T16:00:41.000Z</time>
      </trkpt>
      <trkpt lat="46.76544" lon="5.52049">
        <ele>265.2</ele>
        <time>2012-11-24T16:00:44.000Z</time>
      </trkpt>
      <trkpt lat="46.76543" lon="5.52051">
        <ele>265</ele>
        <time>2012-11-24T16:00:45.000Z</time>
      </trkpt>
      <trkpt lat="46.76541" lon="5.52056">
        <ele>264.7</ele>
        <time>2012-11-24T16:00:48.000Z</time>
      </trkpt>
      <trkpt lat="46.76541" lon="5.52057">
        <ele>264.7</ele>
        <time>2012-11-24T16:00:49.000Z</time>
      </trkpt>
      <trkpt lat="46.76538" lon="5.52061">
        <ele>264.7</ele>
        <time>2012-11-24T16:00:52.000Z</time>
      </trkpt>
      <trkpt lat="46.76537" lon="5.52063">
        <ele>264.8</ele>
        <time>2012-11-24T16:00:53.000Z</time>
      </trkpt>
      <trkpt lat="46.76534" lon="5.52067">
        <ele>264.5</ele>
        <time>2012-11-24T16:00:57.000Z</time>
      </trkpt>
      <trkpt lat="46.76534" lon="5.52069">
        <ele>264.4</ele>
        <time>2012-11-24T16:00:58.000Z</time>
      </trkpt>
      <trkpt lat="46.76532" lon="5.52074">
        <ele>263.9</ele>
        <time>2012-11-24T16:01:02.000Z</time>
      </trkpt>
      <trkpt lat="46.76531" lon="5.52076">
        <ele>263.8</ele>
        <time>2012-11-24T16:01:03.000Z</time>
      </trkpt>
      <trkpt lat="46.76528" lon="5.52081">
        <ele>264.1</ele>
        <time>2012-11-24T16:01:08.000Z</time>
      </trkpt>
      <trkpt lat="46.76528" lon="5.52082">
        <ele>264.1</ele>
        <time>2012-11-24T16:01:09.000Z</time>
      </trkpt>
      <trkpt lat="46.76526" lon="5.52088">
        <ele>263.8</ele>
        <time>2012-11-24T16:01:13.000Z</time>
      </trkpt>
      <trkpt lat="46.76526" lon="5.52089">
        <ele>263.9</ele>
        <time>2012-11-24T16:01:14.000Z</time>
      </trkpt>
      <trkpt lat="46.76524" lon="5.52093">
        <ele>264.2</ele>
        <time>2012-11-24T16:01:17.000Z</time>
      </trkpt>
      <trkpt lat="46.76523" lon="5.52095">
        <ele>264.3</ele>
        <time>2012-11-24T16:01:18.000Z</time>
      </trkpt>
      <trkpt lat="46.76521" lon="5.52099">
        <ele>264.6</ele>
        <time>2012-11-24T16:01:21.000Z</time>
      </trkpt>
      <trkpt lat="46.7652" lon="5.52101">
        <ele>264.7</ele>
        <time>2012-11-24T16:01:22.000Z</time>
      </trkpt>
      <trkpt lat="46.76519" lon="5.52105">
        <ele>264.6</ele>
        <time>2012-11-24T16:01:25.000Z</time>
      </trkpt>
      <trkpt lat="46.76518" lon="5.52107">
        <ele>264.6</ele>
        <time>2012-11-24T16:01:26.000Z</time>
      </trkpt>
      <trkpt lat="46.76516" lon="5.52111">
        <ele>264.7</ele>
        <time>2012-11-24T16:01:29.000Z</time>
      </trkpt>
      <trkpt lat="46.76516" lon="5.52113">
        <ele>264.8</ele>
        <time>2012-11-24T16:01:30.000Z</time>
      </trkpt>
      <trkpt lat="46.76514" lon="5.52117">
        <ele>265.1</ele>
        <time>2012-11-24T16:01:33.000Z</time>
      </trkpt>
      <trkpt lat="46.76513" lon="5.52119">
        <ele>265.1</ele>
        <time>2012-11-24T16:01:34.000Z</time>
      </trkpt>
      <trkpt lat="46.76511" lon="5.52124">
        <ele>265.2</ele>
        <time>2012-11-24T16:01:37.000Z</time>
      </trkpt>
      <trkpt lat="46.76511" lon="5.52125">
        <ele>265.3</ele>
        <time>2012-11-24T16:01:38.000Z</time>
      </trkpt>
      <trkpt lat="46.76509" lon="5.5213">
        <ele>265.6</ele>
        <time>2012-11-24T16:01:41.000Z</time>
      </trkpt>
      <trkpt lat="46.76508" lon="5.52131">
        <ele>265.7</ele>
        <time>2012-11-24T16:01:42.000Z</time>
      </trkpt>
      <trkpt lat="46.76506" lon="5.52136">
        <ele>266</ele>
        <time>2012-11-24T16:01:45.000Z</time>
      </trkpt>
      <trkpt lat="46.76505" lon="5.52137">
        <ele>266</ele>
        <time>2012-11-24T16:01:46.000Z</time>
      </trkpt>
      <trkpt lat="46.76502" lon="5.52141">
        <ele>266.1</ele>
        <time>2012-11-24T16:01:49.000Z</time>
      </trkpt>
      <trkpt lat="46.76502" lon="5.52142">
        <ele>266.1</ele>
        <time>2012-11-24T16:01:50.000Z</time>
      </trkpt>
      <trkpt lat="46.76499" lon="5.52148">
        <ele>266.5</ele>
        <time>2012-11-24T16:01:54.000Z</time>
      </trkpt>
      <trkpt lat="46.76498" lon="5.52149">
        <ele>266.7</ele>
        <time>2012-11-24T16:01:55.000Z</time>
      </trkpt>
      <trkpt lat="46.76496" lon="5.52153">
        <ele>267.1</ele>
        <time>2012-11-24T16:01:58.000Z</time>
      </trkpt>
      <trkpt lat="46.76495" lon="5.52154">
        <ele>267.2</ele>
        <time>2012-11-24T16:01:59.000Z</time>
      </trkpt>
      <trkpt lat="46.76493" lon="5.52158">
        <ele>267.1</ele>
        <time>2012-11-24T16:02:03.000Z</time>
      </trkpt>
      <trkpt lat="46.76492" lon="5.5216">
        <ele>267.1</ele>
        <time>2012-11-24T16:02:04.000Z</time>
      </trkpt>
      <trkpt lat="46.7649" lon="5.52164">
        <ele>267.5</ele>
        <time>2012-11-24T16:02:08.000Z</time>
      </trkpt>
      <trkpt lat="46.76489" lon="5.52166">
        <ele>267.5</ele>
        <time>2012-11-24T16:02:09.000Z</time>
      </trkpt>
      <trkpt lat="46.76486" lon="5.5217">
        <ele>267.6</ele>
        <time>2012-11-24T16:02:13.000Z</time>
      </trkpt>
      <trkpt lat="46.76486" lon="5.52172">
        <ele>267.6</ele>
        <time>2012-11-24T16:02:14.000Z</time>
      </trkpt>
      <trkpt lat="46.76484" lon="5.52176">
        <ele>267.7</ele>
        <time>2012-11-24T16:02:17.000Z</time>
      </trkpt>
      <trkpt lat="46.76483" lon="5.52177">
        <ele>267.9</ele>
        <time>2012-11-24T16:02:18.000Z</time>
      </trkpt>
      <trkpt lat="46.76481" lon="5.52181">
        <ele>268.3</ele>
        <time>2012-11-24T16:02:21.000Z</time>
      </trkpt>
      <trkpt lat="46.7648" lon="5.52183">
        <ele>268.5</ele>
        <time>2012-11-24T16:02:22.000Z</time>
      </trkpt>
      <trkpt lat="46.76477" lon="5.52187">
        <ele>269</ele>
        <time>2012-11-24T16:02:26.000Z</time>
      </trkpt>
      <trkpt lat="46.76477" lon="5.52189">
        <ele>269.1</ele>
        <time>2012-11-24T16:02:27.000Z</time>
      </trkpt>
      <trkpt lat="46.76474" lon="5.52194">
        <ele>269.4</ele>
        <time>2012-11-24T16:02:31.000Z</time>
      </trkpt>
      <trkpt lat="46.76473" lon="5.52195">
        <ele>269.5</ele>
        <time>2012-11-24T16:02:32.000Z</time>
      </trkpt>
      <trkpt lat="46.76471" lon="5.522">
        <ele>269.6</ele>
        <time>2012-11-24T16:02:36.000Z</time>
      </trkpt>
      <trkpt lat="46.7647" lon="5.52202">
        <ele>269.6</ele>
        <time>2012-11-24T16:02:37.000Z</time>
      </trkpt>
      <trkpt lat="46.76468" lon="5.52207">
        <ele>269.4</ele>
        <time>2012-11-24T16:02:41.000Z</time>
      </trkpt>
      <trkpt lat="46.76468" lon="5.52208">
        <ele>269.5</ele>
        <time>2012-11-24T16:02:42.000Z</time>
      </trkpt>
      <trkpt lat="46.76466" lon="5.52213">
        <ele>269.4</ele>
        <time>2012-11-24T16:02:45.000Z</time>
      </trkpt>
      <trkpt lat="46.76465" lon="5.52214">
        <ele>269.4</ele>
        <time>2012-11-24T16:02:46.000Z</time>
      </trkpt>
      <trkpt lat="46.76463" lon="5.52218">
        <ele>269.5</ele>
        <time>2012-11-24T16:02:49.000Z</time>
      </trkpt>
      <trkpt lat="46.76463" lon="5.5222">
        <ele>269.4</ele>
        <time>2012-11-24T16:02:50.000Z</time>
      </trkpt>
      <trkpt lat="46.76461" lon="5.52224">
        <ele>269.5</ele>
        <time>2012-11-24T16:02:53.000Z</time>
      </trkpt>
      <trkpt lat="46.7646" lon="5.52225">
        <ele>270</ele>
        <time>2012-11-24T16:02:54.000Z</time>
      </trkpt>
      <trkpt lat="46.76458" lon="5.52231">
        <ele>269.5</ele>
        <time>2012-11-24T16:02:58.000Z</time>
      </trkpt>
      <trkpt lat="46.76457" lon="5.52232">
        <ele>269.5</ele>
        <time>2012-11-24T16:02:59.000Z</time>
      </trkpt>
      <trkpt lat="46.76456" lon="5.52237">
        <ele>269.4</ele>
        <time>2012-11-24T16:03:02.000Z</time>
      </trkpt>
      <trkpt lat="46.76455" lon="5.52238">
        <ele>269.3</ele>
        <time>2012-11-24T16:03:03.000Z</time>
      </trkpt>
      <trkpt lat="46.76453" lon="5.52244">
        <ele>269.4</ele>
        <time>2012-11-24T16:03:07.000Z</time>
      </trkpt>
      <trkpt lat="46.76453" lon="5.52245">
        <ele>269.4</ele>
        <time>2012-11-24T16:03:08.000Z</time>
      </trkpt>
      <trkpt lat="46.76451" lon="5.5225">
        <ele>269.9</ele>
        <time>2012-11-24T16:03:12.000Z</time>
      </trkpt>
      <trkpt lat="46.7645" lon="5.52252">
        <ele>270.2</ele>
        <time>2012-11-24T16:03:13.000Z</time>
      </trkpt>
      <trkpt lat="46.76449" lon="5.52257">
        <ele>271.4</ele>
        <time>2012-11-24T16:03:18.000Z</time>
      </trkpt>
      <trkpt lat="46.76448" lon="5.52259">
        <ele>271.6</ele>
        <time>2012-11-24T16:03:19.000Z</time>
      </trkpt>
      <trkpt lat="46.76446" lon="5.52263">
        <ele>272.2</ele>
        <time>2012-11-24T16:03:23.000Z</time>
      </trkpt>
      <trkpt lat="46.76446" lon="5.52265">
        <ele>272.3</ele>
        <time>2012-11-24T16:03:24.000Z</time>
      </trkpt>
      <trkpt lat="46.7644" lon="5.52282">
        <ele>278.8</ele>
        <time>2012-11-24T16:03:33.000Z</time>
      </trkpt>
      <trkpt lat="46.76437" lon="5.52287">
        <ele>275.5</ele>
        <time>2012-11-24T16:03:39.000Z</time>
      </trkpt>
      <trkpt lat="46.76437" lon="5.52288">
        <ele>275.2</ele>
        <time>2012-11-24T16:03:40.000Z</time>
      </trkpt>
      <trkpt lat="46.76435" lon="5.52293">
        <ele>274</ele>
        <time>2012-11-24T16:03:44.000Z</time>
      </trkpt>
      <trkpt lat="46.76434" lon="5.52293">
        <ele>274.1</ele>
        <time>2012-11-24T16:03:45.000Z</time>
      </trkpt>
      <trkpt lat="46.76432" lon="5.52298">
        <ele>273.8</ele>
        <time>2012-11-24T16:03:53.000Z</time>
      </trkpt>
      <trkpt lat="46.76431" lon="5.52299">
        <ele>274</ele>
        <time>2012-11-24T16:03:54.000Z</time>
      </trkpt>
      <trkpt lat="46.76429" lon="5.52304">
        <ele>274.5</ele>
        <time>2012-11-24T16:03:58.000Z</time>
      </trkpt>
      <trkpt lat="46.76428" lon="5.52305">
        <ele>274.8</ele>
        <time>2012-11-24T16:03:59.000Z</time>
      </trkpt>
      <trkpt lat="46.76426" lon="5.52309">
        <ele>274.9</ele>
        <time>2012-11-24T16:04:02.000Z</time>
      </trkpt>
      <trkpt lat="46.76425" lon="5.5231">
        <ele>275</ele>
        <time>2012-11-24T16:04:03.000Z</time>
      </trkpt>
      <trkpt lat="46.76422" lon="5.52315">
        <ele>274.9</ele>
        <time>2012-11-24T16:04:07.000Z</time>
      </trkpt>
      <trkpt lat="46.76421" lon="5.52316">
        <ele>275</ele>
        <time>2012-11-24T16:04:08.000Z</time>
      </trkpt>
      <trkpt lat="46.76418" lon="5.52321">
        <ele>274.8</ele>
        <time>2012-11-24T16:04:12.000Z</time>
      </trkpt>
      <trkpt lat="46.76417" lon="5.52322">
        <ele>274.6</ele>
        <time>2012-11-24T16:04:13.000Z</time>
      </trkpt>
      <trkpt lat="46.76414" lon="5.52324">
        <ele>274.8</ele>
        <time>2012-11-24T16:04:18.000Z</time>
      </trkpt>
      <trkpt lat="46.76413" lon="5.52325">
        <ele>274.8</ele>
        <time>2012-11-24T16:04:19.000Z</time>
      </trkpt>
      <trkpt lat="46.76409" lon="5.52324">
        <ele>274.4</ele>
        <time>2012-11-24T16:04:24.000Z</time>
      </trkpt>
      <trkpt lat="46.76408" lon="5.52324">
        <ele>274.6</ele>
        <time>2012-11-24T16:04:25.000Z</time>
      </trkpt>
      <trkpt lat="46.76404" lon="5.52323">
        <ele>274.8</ele>
        <time>2012-11-24T16:04:29.000Z</time>
      </trkpt>
      <trkpt lat="46.76403" lon="5.52323">
        <ele>274.7</ele>
        <time>2012-11-24T16:04:30.000Z</time>
      </trkpt>
      <trkpt lat="46.76399" lon="5.5232">
        <ele>274.7</ele>
        <time>2012-11-24T16:04:34.000Z</time>
      </trkpt>
      <trkpt lat="46.76398" lon="5.5232">
        <ele>274.7</ele>
        <time>2012-11-24T16:04:35.000Z</time>
      </trkpt>
      <trkpt lat="46.76395" lon="5.52316">
        <ele>273.8</ele>
        <time>2012-11-24T16:04:39.000Z</time>
      </trkpt>
      <trkpt lat="46.76394" lon="5.52315">
        <ele>273.3</ele>
        <time>2012-11-24T16:04:40.000Z</time>
      </trkpt>
      <trkpt lat="46.7639" lon="5.52314">
        <ele>272.8</ele>
        <time>2012-11-24T16:04:43.000Z</time>
      </trkpt>
      <trkpt lat="46.76389" lon="5.52315">
        <ele>272.8</ele>
        <time>2012-11-24T16:04:44.000Z</time>
      </trkpt>
      <trkpt lat="46.76386" lon="5.52315">
        <ele>272.8</ele>
        <time>2012-11-24T16:04:47.000Z</time>
      </trkpt>
      <trkpt lat="46.76384" lon="5.52314">
        <ele>272.8</ele>
        <time>2012-11-24T16:04:48.000Z</time>
      </trkpt>
      <trkpt lat="46.7638" lon="5.52314">
        <ele>272.3</ele>
        <time>2012-11-24T16:04:52.000Z</time>
      </trkpt>
      <trkpt lat="46.76379" lon="5.52313">
        <ele>272.1</ele>
        <time>2012-11-24T16:04:53.000Z</time>
      </trkpt>
      <trkpt lat="46.76376" lon="5.52313">
        <ele>271.8</ele>
        <time>2012-11-24T16:04:56.000Z</time>
      </trkpt>
      <trkpt lat="46.76374" lon="5.52313">
        <ele>271.8</ele>
        <time>2012-11-24T16:04:57.000Z</time>
      </trkpt>
      <trkpt lat="46.76371" lon="5.52313">
        <ele>271.9</ele>
        <time>2012-11-24T16:05:00.000Z</time>
      </trkpt>
      <trkpt lat="46.76369" lon="5.52313">
        <ele>272</ele>
        <time>2012-11-24T16:05:01.000Z</time>
      </trkpt>
      <trkpt lat="46.76366" lon="5.52313">
        <ele>271.9</ele>
        <time>2012-11-24T16:05:04.000Z</time>
      </trkpt>
      <trkpt lat="46.76364" lon="5.52313">
        <ele>272.1</ele>
        <time>2012-11-24T16:05:05.000Z</time>
      </trkpt>
      <trkpt lat="46.7636" lon="5.52313">
        <ele>272.2</ele>
        <time>2012-11-24T16:05:08.000Z</time>
      </trkpt>
      <trkpt lat="46.76359" lon="5.52312">
        <ele>272</ele>
        <time>2012-11-24T16:05:09.000Z</time>
      </trkpt>
      <trkpt lat="46.76356" lon="5.52312">
        <ele>271.7</ele>
        <time>2012-11-24T16:05:12.000Z</time>
      </trkpt>
      <trkpt lat="46.76355" lon="5.52311">
        <ele>271.8</ele>
        <time>2012-11-24T16:05:13.000Z</time>
      </trkpt>
      <trkpt lat="46.76351" lon="5.52311">
        <ele>271.9</ele>
        <time>2012-11-24T16:05:16.000Z</time>
      </trkpt>
      <trkpt lat="46.7635" lon="5.52311">
        <ele>271.9</ele>
        <time>2012-11-24T16:05:17.000Z</time>
      </trkpt>
      <trkpt lat="46.76346" lon="5.5231">
        <ele>271.7</ele>
        <time>2012-11-24T16:05:20.000Z</time>
      </trkpt>
      <trkpt lat="46.76345" lon="5.5231">
        <ele>271.6</ele>
        <time>2012-11-24T16:05:21.000Z</time>
      </trkpt>
      <trkpt lat="46.76341" lon="5.52309">
        <ele>271.4</ele>
        <time>2012-11-24T16:05:24.000Z</time>
      </trkpt>
      <trkpt lat="46.7634" lon="5.52309">
        <ele>271.4</ele>
        <time>2012-11-24T16:05:25.000Z</time>
      </trkpt>
      <trkpt lat="46.76336" lon="5.52309">
        <ele>271.7</ele>
        <time>2012-11-24T16:05:28.000Z</time>
      </trkpt>
      <trkpt lat="46.76335" lon="5.5231">
        <ele>271.8</ele>
        <time>2012-11-24T16:05:29.000Z</time>
      </trkpt>
      <trkpt lat="46.7633" lon="5.5231">
        <ele>271.7</ele>
        <time>2012-11-24T16:05:32.000Z</time>
      </trkpt>
      <trkpt lat="46.76329" lon="5.52309">
        <ele>271.8</ele>
        <time>2012-11-24T16:05:33.000Z</time>
      </trkpt>
      <trkpt lat="46.76325" lon="5.52306">
        <ele>271.3</ele>
        <time>2012-11-24T16:05:42.000Z</time>
      </trkpt>
      <trkpt lat="46.76325" lon="5.52305">
        <ele>271.3</ele>
        <time>2012-11-24T16:05:43.000Z</time>
      </trkpt>
      <trkpt lat="46.76321" lon="5.52304">
        <ele>271.3</ele>
        <time>2012-11-24T16:05:47.000Z</time>
      </trkpt>
      <trkpt lat="46.7632" lon="5.52304">
        <ele>271.3</ele>
        <time>2012-11-24T16:05:48.000Z</time>
      </trkpt>
      <trkpt lat="46.76316" lon="5.52303">
        <ele>271.3</ele>
        <time>2012-11-24T16:05:51.000Z</time>
      </trkpt>
      <trkpt lat="46.76315" lon="5.52303">
        <ele>271.4</ele>
        <time>2012-11-24T16:05:52.000Z</time>
      </trkpt>
      <trkpt lat="46.76311" lon="5.52302">
        <ele>271.5</ele>
        <time>2012-11-24T16:05:55.000Z</time>
      </trkpt>
      <trkpt lat="46.7631" lon="5.52301">
        <ele>271.5</ele>
        <time>2012-11-24T16:05:56.000Z</time>
      </trkpt>
      <trkpt lat="46.76306" lon="5.523">
        <ele>271.8</ele>
        <time>2012-11-24T16:05:59.000Z</time>
      </trkpt>
      <trkpt lat="46.76305" lon="5.523">
        <ele>271.9</ele>
        <time>2012-11-24T16:06:00.000Z</time>
      </trkpt>
      <trkpt lat="46.76302" lon="5.523">
        <ele>272</ele>
        <time>2012-11-24T16:06:03.000Z</time>
      </trkpt>
      <trkpt lat="46.763" lon="5.52299">
        <ele>272.1</ele>
        <time>2012-11-24T16:06:04.000Z</time>
      </trkpt>
      <trkpt lat="46.76296" lon="5.52299">
        <ele>272.3</ele>
        <time>2012-11-24T16:06:08.000Z</time>
      </trkpt>
      <trkpt lat="46.76295" lon="5.52299">
        <ele>272.4</ele>
        <time>2012-11-24T16:06:09.000Z</time>
      </trkpt>
      <trkpt lat="46.76292" lon="5.52296">
        <ele>271.8</ele>
        <time>2012-11-24T16:06:13.000Z</time>
      </trkpt>
      <trkpt lat="46.76291" lon="5.52295">
        <ele>271.4</ele>
        <time>2012-11-24T16:06:14.000Z</time>
      </trkpt>
      <trkpt lat="46.76287" lon="5.52294">
        <ele>270.6</ele>
        <time>2012-11-24T16:06:18.000Z</time>
      </trkpt>
      <trkpt lat="46.76286" lon="5.52294">
        <ele>270.4</ele>
        <time>2012-11-24T16:06:19.000Z</time>
      </trkpt>
      <trkpt lat="46.76283" lon="5.52298">
        <ele>269.8</ele>
        <time>2012-11-24T16:06:23.000Z</time>
      </trkpt>
      <trkpt lat="46.76283" lon="5.523">
        <ele>269.5</ele>
        <time>2012-11-24T16:06:24.000Z</time>
      </trkpt>
      <trkpt lat="46.76283" lon="5.52327">
        <ele>264.6</ele>
        <time>2012-11-24T16:06:32.000Z</time>
      </trkpt>
      <trkpt lat="46.76282" lon="5.52332">
        <ele>263.5</ele>
        <time>2012-11-24T16:06:36.000Z</time>
      </trkpt>
      <trkpt lat="46.76281" lon="5.52333">
        <ele>264.2</ele>
        <time>2012-11-24T16:06:37.000Z</time>
      </trkpt>
      <trkpt lat="46.76279" lon="5.52338">
        <ele>265</ele>
        <time>2012-11-24T16:06:42.000Z</time>
      </trkpt>
      <trkpt lat="46.76278" lon="5.52339">
        <ele>265.2</ele>
        <time>2012-11-24T16:06:43.000Z</time>
      </trkpt>
      <trkpt lat="46.76277" lon="5.52345">
        <ele>266.3</ele>
        <time>2012-11-24T16:06:48.000Z</time>
      </trkpt>
      <trkpt lat="46.76277" lon="5.52346">
        <ele>266.5</ele>
        <time>2012-11-24T16:06:49.000Z</time>
      </trkpt>
      <trkpt lat="46.76274" lon="5.52351">
        <ele>268.2</ele>
        <time>2012-11-24T16:06:53.000Z</time>
      </trkpt>
      <trkpt lat="46.76274" lon="5.52353">
        <ele>268.5</ele>
        <time>2012-11-24T16:06:54.000Z</time>
      </trkpt>
      <trkpt lat="46.76271" lon="5.52358">
        <ele>268.3</ele>
        <time>2012-11-24T16:06:58.000Z</time>
      </trkpt>
      <trkpt lat="46.7627" lon="5.52359">
        <ele>268.3</ele>
        <time>2012-11-24T16:06:59.000Z</time>
      </trkpt>
      <trkpt lat="46.76268" lon="5.52363">
        <ele>267</ele>
        <time>2012-11-24T16:07:10.000Z</time>
      </trkpt>
      <trkpt lat="46.76267" lon="5.52364">
        <ele>266.6</ele>
        <time>2012-11-24T16:07:11.000Z</time>
      </trkpt>
      <trkpt lat="46.76264" lon="5.52367">
        <ele>265.1</ele>
        <time>2012-11-24T16:07:14.000Z</time>
      </trkpt>
      <trkpt lat="46.76263" lon="5.52367">
        <ele>264.6</ele>
        <time>2012-11-24T16:07:15.000Z</time>
      </trkpt>
      <trkpt lat="46.76259" lon="5.52366">
        <ele>262.7</ele>
        <time>2012-11-24T16:07:18.000Z</time>
      </trkpt>
      <trkpt lat="46.76258" lon="5.52366">
        <ele>261.9</ele>
        <time>2012-11-24T16:07:19.000Z</time>
      </trkpt>
      <trkpt lat="46.76255" lon="5.5237">
        <ele>260.9</ele>
        <time>2012-11-24T16:07:23.000Z</time>
      </trkpt>
      <trkpt lat="46.76255" lon="5.52372">
        <ele>258.6</ele>
        <time>2012-11-24T16:07:24.000Z</time>
      </trkpt>
      <trkpt lat="46.76253" lon="5.52399">
        <ele>264.1</ele>
        <time>2012-11-24T16:07:32.000Z</time>
      </trkpt>
      <trkpt lat="46.7625" lon="5.52402">
        <ele>266.8</ele>
        <time>2012-11-24T16:07:35.000Z</time>
      </trkpt>
      <trkpt lat="46.76249" lon="5.52403">
        <ele>267.7</ele>
        <time>2012-11-24T16:07:36.000Z</time>
      </trkpt>
      <trkpt lat="46.76245" lon="5.52407">
        <ele>269.9</ele>
        <time>2012-11-24T16:07:38.000Z</time>
      </trkpt>
      <trkpt lat="46.76243" lon="5.52408">
        <ele>271.1</ele>
        <time>2012-11-24T16:07:39.000Z</time>
      </trkpt>
      <trkpt lat="46.76239" lon="5.52411">
        <ele>271.1</ele>
        <time>2012-11-24T16:07:43.000Z</time>
      </trkpt>
      <trkpt lat="46.76239" lon="5.52411">
        <ele>270.8</ele>
        <time>2012-11-24T16:07:44.000Z</time>
      </trkpt>
      <trkpt lat="46.76239" lon="5.52417">
        <ele>269.1</ele>
        <time>2012-11-24T16:07:59.000Z</time>
      </trkpt>
      <trkpt lat="46.76238" lon="5.52419">
        <ele>269.2</ele>
        <time>2012-11-24T16:08:00.000Z</time>
      </trkpt>
      <trkpt lat="46.76237" lon="5.52424">
        <ele>269.5</ele>
        <time>2012-11-24T16:08:03.000Z</time>
      </trkpt>
      <trkpt lat="46.76236" lon="5.52426">
        <ele>269.7</ele>
        <time>2012-11-24T16:08:04.000Z</time>
      </trkpt>
      <trkpt lat="46.76236" lon="5.52431">
        <ele>270.7</ele>
        <time>2012-11-24T16:08:07.000Z</time>
      </trkpt>
      <trkpt lat="46.76235" lon="5.52433">
        <ele>271.1</ele>
        <time>2012-11-24T16:08:08.000Z</time>
      </trkpt>
      <trkpt lat="46.76233" lon="5.52438">
        <ele>271.4</ele>
        <time>2012-11-24T16:08:12.000Z</time>
      </trkpt>
      <trkpt lat="46.76233" lon="5.5244">
        <ele>271.2</ele>
        <time>2012-11-24T16:08:13.000Z</time>
      </trkpt>
      <trkpt lat="46.76232" lon="5.52444">
        <ele>271.5</ele>
        <time>2012-11-24T16:08:16.000Z</time>
      </trkpt>
      <trkpt lat="46.76232" lon="5.52446">
        <ele>271.7</ele>
        <time>2012-11-24T16:08:17.000Z</time>
      </trkpt>
      <trkpt lat="46.7623" lon="5.52451">
        <ele>272.4</ele>
        <time>2012-11-24T16:08:20.000Z</time>
      </trkpt>
      <trkpt lat="46.7623" lon="5.52453">
        <ele>272.5</ele>
        <time>2012-11-24T16:08:21.000Z</time>
      </trkpt>
      <trkpt lat="46.76228" lon="5.52458">
        <ele>272.7</ele>
        <time>2012-11-24T16:08:24.000Z</time>
      </trkpt>
      <trkpt lat="46.76222" lon="5.52483">
        <ele>281.5</ele>
        <time>2012-11-24T16:08:34.000Z</time>
      </trkpt>
      <trkpt lat="46.7622" lon="5.52488">
        <ele>282.3</ele>
        <time>2012-11-24T16:08:37.000Z</time>
      </trkpt>
      <trkpt lat="46.76219" lon="5.52489">
        <ele>282.2</ele>
        <time>2012-11-24T16:08:38.000Z</time>
      </trkpt>
      <trkpt lat="46.76217" lon="5.52495">
        <ele>279.3</ele>
        <time>2012-11-24T16:08:41.000Z</time>
      </trkpt>
      <trkpt lat="46.76216" lon="5.52496">
        <ele>279</ele>
        <time>2012-11-24T16:08:42.000Z</time>
      </trkpt>
      <trkpt lat="46.76214" lon="5.52501">
        <ele>277.5</ele>
        <time>2012-11-24T16:08:46.000Z</time>
      </trkpt>
      <trkpt lat="46.76214" lon="5.52503">
        <ele>277.2</ele>
        <time>2012-11-24T16:08:47.000Z</time>
      </trkpt>
      <trkpt lat="46.76212" lon="5.52507">
        <ele>279.6</ele>
        <time>2012-11-24T16:08:50.000Z</time>
      </trkpt>
      <trkpt lat="46.76212" lon="5.52509">
        <ele>279.5</ele>
        <time>2012-11-24T16:08:51.000Z</time>
      </trkpt>
      <trkpt lat="46.76211" lon="5.52514">
        <ele>277.9</ele>
        <time>2012-11-24T16:08:55.000Z</time>
      </trkpt>
      <trkpt lat="46.76211" lon="5.52516">
        <ele>277.4</ele>
        <time>2012-11-24T16:08:56.000Z</time>
      </trkpt>
      <trkpt lat="46.7621" lon="5.52521">
        <ele>276.8</ele>
        <time>2012-11-24T16:08:59.000Z</time>
      </trkpt>
      <trkpt lat="46.76209" lon="5.52522">
        <ele>276.8</ele>
        <time>2012-11-24T16:09:00.000Z</time>
      </trkpt>
      <trkpt lat="46.76208" lon="5.52528">
        <ele>276.2</ele>
        <time>2012-11-24T16:09:03.000Z</time>
      </trkpt>
      <trkpt lat="46.76207" lon="5.52529">
        <ele>276.1</ele>
        <time>2012-11-24T16:09:04.000Z</time>
      </trkpt>
      <trkpt lat="46.76206" lon="5.52535">
        <ele>273.8</ele>
        <time>2012-11-24T16:09:09.000Z</time>
      </trkpt>
      <trkpt lat="46.76206" lon="5.52536">
        <ele>273.8</ele>
        <time>2012-11-24T16:09:10.000Z</time>
      </trkpt>
      <trkpt lat="46.76206" lon="5.52541">
        <ele>272.4</ele>
        <time>2012-11-24T16:09:22.000Z</time>
      </trkpt>
      <trkpt lat="46.76205" lon="5.52543">
        <ele>272.2</ele>
        <time>2012-11-24T16:09:23.000Z</time>
      </trkpt>
      <trkpt lat="46.76205" lon="5.52544">
        <ele>272.2</ele>
        <time>2012-11-24T16:09:24.500Z</time>
      </trkpt>
      <trkpt lat="46.76209" lon="5.52569">
        <ele>273.7</ele>
        <time>2012-11-24T16:09:33.000Z</time>
      </trkpt>
      <trkpt lat="46.76211" lon="5.52575">
        <ele>271</ele>
        <time>2012-11-24T16:09:39.000Z</time>
      </trkpt>
      <trkpt lat="46.76211" lon="5.52576">
        <ele>270.8</ele>
        <time>2012-11-24T16:09:40.000Z</time>
      </trkpt>
      <trkpt lat="46.76212" lon="5.52581">
        <ele>270.9</ele>
        <time>2012-11-24T16:09:44.000Z</time>
      </trkpt>
      <trkpt lat="46.76212" lon="5.52582">
        <ele>270.6</ele>
        <time>2012-11-24T16:09:45.000Z</time>
      </trkpt>
      <trkpt lat="46.76213" lon="5.52588">
        <ele>269.5</ele>
        <time>2012-11-24T16:09:49.000Z</time>
      </trkpt>
      <trkpt lat="46.76214" lon="5.52589">
        <ele>269.4</ele>
        <time>2012-11-24T16:09:50.000Z</time>
      </trkpt>
      <trkpt lat="46.76214" lon="5.52595">
        <ele>268.8</ele>
        <time>2012-11-24T16:09:54.000Z</time>
      </trkpt>
      <trkpt lat="46.76215" lon="5.52597">
        <ele>269</ele>
        <time>2012-11-24T16:09:55.000Z</time>
      </trkpt>
      <trkpt lat="46.76215" lon="5.52603">
        <ele>269.2</ele>
        <time>2012-11-24T16:09:58.000Z</time>
      </trkpt>
      <trkpt lat="46.76215" lon="5.52604">
        <ele>269.7</ele>
        <time>2012-11-24T16:09:59.000Z</time>
      </trkpt>
      <trkpt lat="46.76216" lon="5.5261">
        <ele>270.1</ele>
        <time>2012-11-24T16:10:02.000Z</time>
      </trkpt>
      <trkpt lat="46.76217" lon="5.52612">
        <ele>270</ele>
        <time>2012-11-24T16:10:03.000Z</time>
      </trkpt>
      <trkpt lat="46.76217" lon="5.52617">
        <ele>269.6</ele>
        <time>2012-11-24T16:10:06.000Z</time>
      </trkpt>
      <trkpt lat="46.76217" lon="5.52618">
        <ele>269.6</ele>
        <time>2012-11-24T16:10:07.000Z</time>
      </trkpt>
      <trkpt lat="46.76218" lon="5.52623">
        <ele>269.6</ele>
        <time>2012-11-24T16:10:10.000Z</time>
      </trkpt>
      <trkpt lat="46.76218" lon="5.52625">
        <ele>269.6</ele>
        <time>2012-11-24T16:10:11.000Z</time>
      </trkpt>
      <trkpt lat="46.7622" lon="5.5263">
        <ele>269.7</ele>
        <time>2012-11-24T16:10:14.000Z</time>
      </trkpt>
      <trkpt lat="46.7622" lon="5.52631">
        <ele>269.6</ele>
        <time>2012-11-24T16:10:15.000Z</time>
      </trkpt>
      <trkpt lat="46.7622" lon="5.52636">
        <ele>269.5</ele>
        <time>2012-11-24T16:10:18.000Z</time>
      </trkpt>
      <trkpt lat="46.7622" lon="5.52638">
        <ele>269.5</ele>
        <time>2012-11-24T16:10:19.000Z</time>
      </trkpt>
      <trkpt lat="46.76221" lon="5.52643">
        <ele>269.8</ele>
        <time>2012-11-24T16:10:22.000Z</time>
      </trkpt>
      <trkpt lat="46.76222" lon="5.52645">
        <ele>269.8</ele>
        <time>2012-11-24T16:10:23.000Z</time>
      </trkpt>
      <trkpt lat="46.76224" lon="5.52649">
        <ele>270.1</ele>
        <time>2012-11-24T16:10:26.000Z</time>
      </trkpt>
      <trkpt lat="46.76224" lon="5.52651">
        <ele>270.1</ele>
        <time>2012-11-24T16:10:27.000Z</time>
      </trkpt>
      <trkpt lat="46.76226" lon="5.52656">
        <ele>269.7</ele>
        <time>2012-11-24T16:10:31.000Z</time>
      </trkpt>
      <trkpt lat="46.76226" lon="5.52658">
        <ele>269.7</ele>
        <time>2012-11-24T16:10:32.000Z</time>
      </trkpt>
      <trkpt lat="46.76228" lon="5.52663">
        <ele>269.5</ele>
        <time>2012-11-24T16:10:36.000Z</time>
      </trkpt>
      <trkpt lat="46.76228" lon="5.52664">
        <ele>269.6</ele>
        <time>2012-11-24T16:10:37.000Z</time>
      </trkpt>
      <trkpt lat="46.76229" lon="5.52669">
        <ele>269.7</ele>
        <time>2012-11-24T16:10:41.000Z</time>
      </trkpt>
      <trkpt lat="46.7623" lon="5.5267">
        <ele>269.8</ele>
        <time>2012-11-24T16:10:42.000Z</time>
      </trkpt>
      <trkpt lat="46.76232" lon="5.52676">
        <ele>269.8</ele>
        <time>2012-11-24T16:10:45.000Z</time>
      </trkpt>
      <trkpt lat="46.76233" lon="5.52677">
        <ele>269.9</ele>
        <time>2012-11-24T16:10:46.000Z</time>
      </trkpt>
      <trkpt lat="46.76235" lon="5.52682">
        <ele>269.8</ele>
        <time>2012-11-24T16:10:49.000Z</time>
      </trkpt>
      <trkpt lat="46.76236" lon="5.52683">
        <ele>269.9</ele>
        <time>2012-11-24T16:10:50.000Z</time>
      </trkpt>
      <trkpt lat="46.76238" lon="5.52687">
        <ele>270.2</ele>
        <time>2012-11-24T16:10:53.000Z</time>
      </trkpt>
      <trkpt lat="46.76239" lon="5.52689">
        <ele>270.2</ele>
        <time>2012-11-24T16:10:54.000Z</time>
      </trkpt>
      <trkpt lat="46.7624" lon="5.52693">
        <ele>270</ele>
        <time>2012-11-24T16:10:57.000Z</time>
      </trkpt>
      <trkpt lat="46.7624" lon="5.52695">
        <ele>270</ele>
        <time>2012-11-24T16:10:58.000Z</time>
      </trkpt>
      <trkpt lat="46.76243" lon="5.527">
        <ele>270.2</ele>
        <time>2012-11-24T16:11:02.000Z</time>
      </trkpt>
      <trkpt lat="46.76244" lon="5.52701">
        <ele>270.4</ele>
        <time>2012-11-24T16:11:03.000Z</time>
      </trkpt>
      <trkpt lat="46.76245" lon="5.52706">
        <ele>270.9</ele>
        <time>2012-11-24T16:11:06.000Z</time>
      </trkpt>
      <trkpt lat="46.76246" lon="5.52707">
        <ele>270.7</ele>
        <time>2012-11-24T16:11:07.000Z</time>
      </trkpt>
      <trkpt lat="46.76247" lon="5.52712">
        <ele>271.1</ele>
        <time>2012-11-24T16:11:10.000Z</time>
      </trkpt>
      <trkpt lat="46.76248" lon="5.52714">
        <ele>271.1</ele>
        <time>2012-11-24T16:11:11.000Z</time>
      </trkpt>
      <trkpt lat="46.76248" lon="5.52718">
        <ele>270.8</ele>
        <time>2012-11-24T16:11:14.000Z</time>
      </trkpt>
      <trkpt lat="46.76248" lon="5.5272">
        <ele>270.8</ele>
        <time>2012-11-24T16:11:15.000Z</time>
      </trkpt>
      <trkpt lat="46.76249" lon="5.52726">
        <ele>271.4</ele>
        <time>2012-11-24T16:11:19.000Z</time>
      </trkpt>
      <trkpt lat="46.76249" lon="5.52728">
        <ele>271.5</ele>
        <time>2012-11-24T16:11:20.000Z</time>
      </trkpt>
      <trkpt lat="46.76248" lon="5.52734">
        <ele>271.7</ele>
        <time>2012-11-24T16:11:23.000Z</time>
      </trkpt>
      <trkpt lat="46.76248" lon="5.52736">
        <ele>271.8</ele>
        <time>2012-11-24T16:11:24.000Z</time>
      </trkpt>
      <trkpt lat="46.76247" lon="5.52742">
        <ele>272.7</ele>
        <time>2012-11-24T16:11:27.000Z</time>
      </trkpt>
      <trkpt lat="46.76247" lon="5.52744">
        <ele>272.7</ele>
        <time>2012-11-24T16:11:28.000Z</time>
      </trkpt>
      <trkpt lat="46.76246" lon="5.52749">
        <ele>272.5</ele>
        <time>2012-11-24T16:11:31.000Z</time>
      </trkpt>
      <trkpt lat="46.76246" lon="5.52751">
        <ele>272.6</ele>
        <time>2012-11-24T16:11:32.000Z</time>
      </trkpt>
      <trkpt lat="46.76245" lon="5.52756">
        <ele>272.5</ele>
        <time>2012-11-24T16:11:35.000Z</time>
      </trkpt>
      <trkpt lat="46.76244" lon="5.52758">
        <ele>272.3</ele>
        <time>2012-11-24T16:11:36.000Z</time>
      </trkpt>
      <trkpt lat="46.76243" lon="5.52763">
        <ele>272.7</ele>
        <time>2012-11-24T16:11:39.000Z</time>
      </trkpt>
      <trkpt lat="46.76243" lon="5.52765">
        <ele>272.8</ele>
        <time>2012-11-24T16:11:40.000Z</time>
      </trkpt>
      <trkpt lat="46.76242" lon="5.5277">
        <ele>272.5</ele>
        <time>2012-11-24T16:11:43.000Z</time>
      </trkpt>
      <trkpt lat="46.76241" lon="5.52772">
        <ele>272.2</ele>
        <time>2012-11-24T16:11:44.000Z</time>
      </trkpt>
      <trkpt lat="46.7624" lon="5.52777">
        <ele>271.6</ele>
        <time>2012-11-24T16:11:47.000Z</time>
      </trkpt>
      <trkpt lat="46.7624" lon="5.52778">
        <ele>271.6</ele>
        <time>2012-11-24T16:11:48.000Z</time>
      </trkpt>
      <trkpt lat="46.76238" lon="5.52784">
        <ele>271.5</ele>
        <time>2012-11-24T16:11:52.000Z</time>
      </trkpt>
      <trkpt lat="46.76238" lon="5.52786">
        <ele>271.4</ele>
        <time>2012-11-24T16:11:53.000Z</time>
      </trkpt>
      <trkpt lat="46.76238" lon="5.52792">
        <ele>271.1</ele>
        <time>2012-11-24T16:11:57.000Z</time>
      </trkpt>
      <trkpt lat="46.76237" lon="5.52793">
        <ele>271.3</ele>
        <time>2012-11-24T16:11:58.000Z</time>
      </trkpt>
      <trkpt lat="46.76237" lon="5.528">
        <ele>271.4</ele>
        <time>2012-11-24T16:12:02.000Z</time>
      </trkpt>
      <trkpt lat="46.76238" lon="5.52801">
        <ele>271.3</ele>
        <time>2012-11-24T16:12:03.000Z</time>
      </trkpt>
      <trkpt lat="46.76238" lon="5.52808">
        <ele>271.3</ele>
        <time>2012-11-24T16:12:07.000Z</time>
      </trkpt>
      <trkpt lat="46.76238" lon="5.52809">
        <ele>271.6</ele>
        <time>2012-11-24T16:12:08.000Z</time>
      </trkpt>
      <trkpt lat="46.76238" lon="5.52815">
        <ele>272.1</ele>
        <time>2012-11-24T16:12:11.000Z</time>
      </trkpt>
      <trkpt lat="46.76238" lon="5.52816">
        <ele>272</ele>
        <time>2012-11-24T16:12:12.000Z</time>
      </trkpt>
      <trkpt lat="46.76237" lon="5.52821">
        <ele>271.5</ele>
        <time>2012-11-24T16:12:15.000Z</time>
      </trkpt>
      <trkpt lat="46.76236" lon="5.52823">
        <ele>271.2</ele>
        <time>2012-11-24T16:12:16.000Z</time>
      </trkpt>
      <trkpt lat="46.76235" lon="5.52828">
        <ele>269.9</ele>
        <time>2012-11-24T16:12:19.000Z</time>
      </trkpt>
      <trkpt lat="46.76235" lon="5.52829">
        <ele>269.6</ele>
        <time>2012-11-24T16:12:20.000Z</time>
      </trkpt>
      <trkpt lat="46.76234" lon="5.52834">
        <ele>269.1</ele>
        <time>2012-11-24T16:12:23.000Z</time>
      </trkpt>
      <trkpt lat="46.76233" lon="5.52836">
        <ele>269</ele>
        <time>2012-11-24T16:12:24.000Z</time>
      </trkpt>
      <trkpt lat="46.76232" lon="5.52842">
        <ele>268.8</ele>
        <time>2012-11-24T16:12:28.000Z</time>
      </trkpt>
      <trkpt lat="46.76232" lon="5.52843">
        <ele>268.6</ele>
        <time>2012-11-24T16:12:29.000Z</time>
      </trkpt>
      <trkpt lat="46.76231" lon="5.52849">
        <ele>268.1</ele>
        <time>2012-11-24T16:12:33.000Z</time>
      </trkpt>
      <trkpt lat="46.76231" lon="5.5285">
        <ele>268</ele>
        <time>2012-11-24T16:12:34.000Z</time>
      </trkpt>
      <trkpt lat="46.7623" lon="5.52855">
        <ele>268.2</ele>
        <time>2012-11-24T16:12:37.000Z</time>
      </trkpt>
      <trkpt lat="46.76229" lon="5.52857">
        <ele>268.3</ele>
        <time>2012-11-24T16:12:38.000Z</time>
      </trkpt>
      <trkpt lat="46.76229" lon="5.52862">
        <ele>267.8</ele>
        <time>2012-11-24T16:12:41.000Z</time>
      </trkpt>
      <trkpt lat="46.76228" lon="5.52863">
        <ele>267.6</ele>
        <time>2012-11-24T16:12:42.000Z</time>
      </trkpt>
      <trkpt lat="46.76227" lon="5.52869">
        <ele>268.3</ele>
        <time>2012-11-24T16:12:45.000Z</time>
      </trkpt>
      <trkpt lat="46.76227" lon="5.52871">
        <ele>268.2</ele>
        <time>2012-11-24T16:12:46.000Z</time>
      </trkpt>
      <trkpt lat="46.76225" lon="5.52876">
        <ele>267.8</ele>
        <time>2012-11-24T16:12:49.000Z</time>
      </trkpt>
      <trkpt lat="46.76225" lon="5.52877">
        <ele>267.7</ele>
        <time>2012-11-24T16:12:50.000Z</time>
      </trkpt>
      <trkpt lat="46.76224" lon="5.52882">
        <ele>267.7</ele>
        <time>2012-11-24T16:12:53.000Z</time>
      </trkpt>
      <trkpt lat="46.76224" lon="5.52884">
        <ele>267.6</ele>
        <time>2012-11-24T16:12:54.000Z</time>
      </trkpt>
      <trkpt lat="46.76223" lon="5.5289">
        <ele>267.5</ele>
        <time>2012-11-24T16:12:57.000Z</time>
      </trkpt>
      <trkpt lat="46.76223" lon="5.52891">
        <ele>267.5</ele>
        <time>2012-11-24T16:12:58.000Z</time>
      </trkpt>
      <trkpt lat="46.76222" lon="5.52896">
        <ele>267.5</ele>
        <time>2012-11-24T16:13:01.000Z</time>
      </trkpt>
      <trkpt lat="46.76221" lon="5.52898">
        <ele>267.4</ele>
        <time>2012-11-24T16:13:02.000Z</time>
      </trkpt>
      <trkpt lat="46.7622" lon="5.52904">
        <ele>267.4</ele>
        <time>2012-11-24T16:13:06.000Z</time>
      </trkpt>
      <trkpt lat="46.7622" lon="5.52906">
        <ele>267.4</ele>
        <time>2012-11-24T16:13:07.000Z</time>
      </trkpt>
      <trkpt lat="46.76218" lon="5.52911">
        <ele>267</ele>
        <time>2012-11-24T16:13:11.000Z</time>
      </trkpt>
      <trkpt lat="46.76217" lon="5.52912">
        <ele>266.7</ele>
        <time>2012-11-24T16:13:12.000Z</time>
      </trkpt>
      <trkpt lat="46.76216" lon="5.52918">
        <ele>266.4</ele>
        <time>2012-11-24T16:13:16.000Z</time>
      </trkpt>
      <trkpt lat="46.76216" lon="5.5292">
        <ele>266.5</ele>
        <time>2012-11-24T16:13:17.000Z</time>
      </trkpt>
      <trkpt lat="46.76216" lon="5.52926">
        <ele>266.9</ele>
        <time>2012-11-24T16:13:21.000Z</time>
      </trkpt>
      <trkpt lat="46.76216" lon="5.52927">
        <ele>267.1</ele>
        <time>2012-11-24T16:13:22.000Z</time>
      </trkpt>
      <trkpt lat="46.76215" lon="5.52932">
        <ele>267.9</ele>
        <time>2012-11-24T16:13:25.000Z</time>
      </trkpt>
      <trkpt lat="46.76214" lon="5.52934">
        <ele>268.2</ele>
        <time>2012-11-24T16:13:26.000Z</time>
      </trkpt>
      <trkpt lat="46.76214" lon="5.52939">
        <ele>269.3</ele>
        <time>2012-11-24T16:13:30.000Z</time>
      </trkpt>
      <trkpt lat="46.76214" lon="5.52941">
        <ele>269.4</ele>
        <time>2012-11-24T16:13:31.000Z</time>
      </trkpt>
      <trkpt lat="46.76213" lon="5.52946">
        <ele>269.5</ele>
        <time>2012-11-24T16:13:34.000Z</time>
      </trkpt>
      <trkpt lat="46.76213" lon="5.52948">
        <ele>269.4</ele>
        <time>2012-11-24T16:13:35.000Z</time>
      </trkpt>
      <trkpt lat="46.76214" lon="5.52953">
        <ele>269.2</ele>
        <time>2012-11-24T16:13:38.000Z</time>
      </trkpt>
      <trkpt lat="46.76214" lon="5.52955">
        <ele>269.2</ele>
        <time>2012-11-24T16:13:39.000Z</time>
      </trkpt>
      <trkpt lat="46.76213" lon="5.52961">
        <ele>269.2</ele>
        <time>2012-11-24T16:13:43.000Z</time>
      </trkpt>
      <trkpt lat="46.76213" lon="5.52963">
        <ele>269.1</ele>
        <time>2012-11-24T16:13:44.000Z</time>
      </trkpt>
      <trkpt lat="46.76214" lon="5.52967">
        <ele>269.1</ele>
        <time>2012-11-24T16:13:47.000Z</time>
      </trkpt>
      <trkpt lat="46.76214" lon="5.52969">
        <ele>269</ele>
        <time>2012-11-24T16:13:48.000Z</time>
      </trkpt>
      <trkpt lat="46.76215" lon="5.52975">
        <ele>268.8</ele>
        <time>2012-11-24T16:13:51.000Z</time>
      </trkpt>
      <trkpt lat="46.76215" lon="5.52976">
        <ele>268.5</ele>
        <time>2012-11-24T16:13:52.000Z</time>
      </trkpt>
      <trkpt lat="46.76214" lon="5.52981">
        <ele>268</ele>
        <time>2012-11-24T16:13:55.000Z</time>
      </trkpt>
      <trkpt lat="46.76214" lon="5.52983">
        <ele>267.9</ele>
        <time>2012-11-24T16:13:56.000Z</time>
      </trkpt>
      <trkpt lat="46.76213" lon="5.52988">
        <ele>267.5</ele>
        <time>2012-11-24T16:13:59.000Z</time>
      </trkpt>
      <trkpt lat="46.76213" lon="5.5299">
        <ele>267.4</ele>
        <time>2012-11-24T16:14:00.000Z</time>
      </trkpt>
      <trkpt lat="46.76213" lon="5.52995">
        <ele>267.5</ele>
        <time>2012-11-24T16:14:03.000Z</time>
      </trkpt>
      <trkpt lat="46.76213" lon="5.52997">
        <ele>267.6</ele>
        <time>2012-11-24T16:14:04.000Z</time>
      </trkpt>
      <trkpt lat="46.76213" lon="5.53002">
        <ele>267.5</ele>
        <time>2012-11-24T16:14:07.000Z</time>
      </trkpt>
      <trkpt lat="46.76213" lon="5.53003">
        <ele>267.5</ele>
        <time>2012-11-24T16:14:08.000Z</time>
      </trkpt>
      <trkpt lat="46.76214" lon="5.5301">
        <ele>267.4</ele>
        <time>2012-11-24T16:14:12.000Z</time>
      </trkpt>
      <trkpt lat="46.76214" lon="5.53011">
        <ele>267.5</ele>
        <time>2012-11-24T16:14:13.000Z</time>
      </trkpt>
      <trkpt lat="46.76216" lon="5.53016">
        <ele>267.9</ele>
        <time>2012-11-24T16:14:16.000Z</time>
      </trkpt>
      <trkpt lat="46.76216" lon="5.53017">
        <ele>268</ele>
        <time>2012-11-24T16:14:17.000Z</time>
      </trkpt>
      <trkpt lat="46.76217" lon="5.53023">
        <ele>268.4</ele>
        <time>2012-11-24T16:14:20.000Z</time>
      </trkpt>
      <trkpt lat="46.76217" lon="5.53025">
        <ele>268.6</ele>
        <time>2012-11-24T16:14:21.000Z</time>
      </trkpt>
      <trkpt lat="46.76218" lon="5.53031">
        <ele>268.6</ele>
        <time>2012-11-24T16:14:24.000Z</time>
      </trkpt>
      <trkpt lat="46.76219" lon="5.53033">
        <ele>268.7</ele>
        <time>2012-11-24T16:14:25.000Z</time>
      </trkpt>
      <trkpt lat="46.76219" lon="5.53035">
        <ele>268.9</ele>
        <time>2012-11-24T16:14:26.000Z</time>
      </trkpt>
      <trkpt lat="46.76224" lon="5.53055">
        <ele>272.4</ele>
        <time>2012-11-24T16:14:35.000Z</time>
      </trkpt>
      <trkpt lat="46.76224" lon="5.5306">
        <ele>272.1</ele>
        <time>2012-11-24T16:14:39.000Z</time>
      </trkpt>
      <trkpt lat="46.76224" lon="5.53062">
        <ele>272.3</ele>
        <time>2012-11-24T16:14:40.000Z</time>
      </trkpt>
      <trkpt lat="46.76224" lon="5.53068">
        <ele>271.2</ele>
        <time>2012-11-24T16:14:44.000Z</time>
      </trkpt>
      <trkpt lat="46.76224" lon="5.53069">
        <ele>270.9</ele>
        <time>2012-11-24T16:14:45.000Z</time>
      </trkpt>
      <trkpt lat="46.76225" lon="5.53074">
        <ele>270.7</ele>
        <time>2012-11-24T16:14:49.000Z</time>
      </trkpt>
      <trkpt lat="46.76225" lon="5.53076">
        <ele>270.9</ele>
        <time>2012-11-24T16:14:50.000Z</time>
      </trkpt>
      <trkpt lat="46.76225" lon="5.53081">
        <ele>270</ele>
        <time>2012-11-24T16:14:54.000Z</time>
      </trkpt>
      <trkpt lat="46.76225" lon="5.53082">
        <ele>269.9</ele>
        <time>2012-11-24T16:14:55.000Z</time>
      </trkpt>
      <trkpt lat="46.76224" lon="5.53087">
        <ele>267.3</ele>
        <time>2012-11-24T16:14:58.000Z</time>
      </trkpt>
      <trkpt lat="46.76223" lon="5.53089">
        <ele>267.2</ele>
        <time>2012-11-24T16:14:59.000Z</time>
      </trkpt>
      <trkpt lat="46.76222" lon="5.53094">
        <ele>267.5</ele>
        <time>2012-11-24T16:15:01.000Z</time>
      </trkpt>
      <trkpt lat="46.76222" lon="5.53096">
        <ele>267.6</ele>
        <time>2012-11-24T16:15:02.000Z</time>
      </trkpt>
      <trkpt lat="46.76221" lon="5.53101">
        <ele>268.6</ele>
        <time>2012-11-24T16:15:04.000Z</time>
      </trkpt>
      <trkpt lat="46.76221" lon="5.53103">
        <ele>269</ele>
        <time>2012-11-24T16:15:05.000Z</time>
      </trkpt>
      <trkpt lat="46.7622" lon="5.53108">
        <ele>270</ele>
        <time>2012-11-24T16:15:07.000Z</time>
      </trkpt>
      <trkpt lat="46.7622" lon="5.5311">
        <ele>270.1</ele>
        <time>2012-11-24T16:15:08.000Z</time>
      </trkpt>
      <trkpt lat="46.76219" lon="5.53116">
        <ele>270.8</ele>
        <time>2012-11-24T16:15:11.000Z</time>
      </trkpt>
      <trkpt lat="46.76218" lon="5.53118">
        <ele>271</ele>
        <time>2012-11-24T16:15:12.000Z</time>
      </trkpt>
      <trkpt lat="46.76218" lon="5.53123">
        <ele>271.1</ele>
        <time>2012-11-24T16:15:15.000Z</time>
      </trkpt>
      <trkpt lat="46.76217" lon="5.53125">
        <ele>271</ele>
        <time>2012-11-24T16:15:16.000Z</time>
      </trkpt>
      <trkpt lat="46.76217" lon="5.5313">
        <ele>271.3</ele>
        <time>2012-11-24T16:15:19.000Z</time>
      </trkpt>
      <trkpt lat="46.76217" lon="5.53132">
        <ele>271.2</ele>
        <time>2012-11-24T16:15:20.000Z</time>
      </trkpt>
      <trkpt lat="46.76216" lon="5.53138">
        <ele>270.4</ele>
        <time>2012-11-24T16:15:23.000Z</time>
      </trkpt>
      <trkpt lat="46.76216" lon="5.53139">
        <ele>270</ele>
        <time>2012-11-24T16:15:24.000Z</time>
      </trkpt>
      <trkpt lat="46.76215" lon="5.53144">
        <ele>269.1</ele>
        <time>2012-11-24T16:15:28.000Z</time>
      </trkpt>
      <trkpt lat="46.76215" lon="5.53146">
        <ele>269.3</ele>
        <time>2012-11-24T16:15:29.000Z</time>
      </trkpt>
      <trkpt lat="46.76214" lon="5.53152">
        <ele>269.6</ele>
        <time>2012-11-24T16:15:32.000Z</time>
      </trkpt>
      <trkpt lat="46.76214" lon="5.53154">
        <ele>269.8</ele>
        <time>2012-11-24T16:15:33.000Z</time>
      </trkpt>
      <trkpt lat="46.76214" lon="5.53159">
        <ele>269.5</ele>
        <time>2012-11-24T16:15:36.000Z</time>
      </trkpt>
      <trkpt lat="46.76214" lon="5.53161">
        <ele>269.3</ele>
        <time>2012-11-24T16:15:37.000Z</time>
      </trkpt>
      <trkpt lat="46.76214" lon="5.53166">
        <ele>269.2</ele>
        <time>2012-11-24T16:15:40.000Z</time>
      </trkpt>
      <trkpt lat="46.76214" lon="5.53168">
        <ele>269.1</ele>
        <time>2012-11-24T16:15:41.000Z</time>
      </trkpt>
      <trkpt lat="46.76214" lon="5.53174">
        <ele>269</ele>
        <time>2012-11-24T16:15:44.000Z</time>
      </trkpt>
      <trkpt lat="46.76214" lon="5.53175">
        <ele>269</ele>
        <time>2012-11-24T16:15:45.000Z</time>
      </trkpt>
      <trkpt lat="46.76214" lon="5.53181">
        <ele>269.2</ele>
        <time>2012-11-24T16:15:48.000Z</time>
      </trkpt>
      <trkpt lat="46.76214" lon="5.53183">
        <ele>269.3</ele>
        <time>2012-11-24T16:15:49.000Z</time>
      </trkpt>
      <trkpt lat="46.76214" lon="5.53189">
        <ele>269.5</ele>
        <time>2012-11-24T16:15:52.000Z</time>
      </trkpt>
      <trkpt lat="46.76214" lon="5.5319">
        <ele>269.6</ele>
        <time>2012-11-24T16:15:53.000Z</time>
      </trkpt>
      <trkpt lat="46.76214" lon="5.53196">
        <ele>270</ele>
        <time>2012-11-24T16:15:56.000Z</time>
      </trkpt>
      <trkpt lat="46.76215" lon="5.53198">
        <ele>270</ele>
        <time>2012-11-24T16:15:57.000Z</time>
      </trkpt>
      <trkpt lat="46.76215" lon="5.53203">
        <ele>269.8</ele>
        <time>2012-11-24T16:16:00.000Z</time>
      </trkpt>
      <trkpt lat="46.76215" lon="5.53205">
        <ele>270.1</ele>
        <time>2012-11-24T16:16:01.000Z</time>
      </trkpt>
      <trkpt lat="46.76216" lon="5.5321">
        <ele>269.1</ele>
        <time>2012-11-24T16:16:04.000Z</time>
      </trkpt>
      <trkpt lat="46.76216" lon="5.53211">
        <ele>268.8</ele>
        <time>2012-11-24T16:16:05.000Z</time>
      </trkpt>
      <trkpt lat="46.76218" lon="5.53217">
        <ele>268.4</ele>
        <time>2012-11-24T16:16:09.000Z</time>
      </trkpt>
      <trkpt lat="46.76218" lon="5.53218">
        <ele>268.4</ele>
        <time>2012-11-24T16:16:10.000Z</time>
      </trkpt>
      <trkpt lat="46.76219" lon="5.53224">
        <ele>268</ele>
        <time>2012-11-24T16:16:14.000Z</time>
      </trkpt>
      <trkpt lat="46.76219" lon="5.53226">
        <ele>268.1</ele>
        <time>2012-11-24T16:16:15.000Z</time>
      </trkpt>
      <trkpt lat="46.76221" lon="5.53232">
        <ele>267.7</ele>
        <time>2012-11-24T16:16:19.000Z</time>
      </trkpt>
      <trkpt lat="46.76221" lon="5.53233">
        <ele>267.6</ele>
        <time>2012-11-24T16:16:20.000Z</time>
      </trkpt>
      <trkpt lat="46.76222" lon="5.53238">
        <ele>268</ele>
        <time>2012-11-24T16:16:23.000Z</time>
      </trkpt>
      <trkpt lat="46.76222" lon="5.53239">
        <ele>268</ele>
        <time>2012-11-24T16:16:24.000Z</time>
      </trkpt>
      <trkpt lat="46.76223" lon="5.53244">
        <ele>267.6</ele>
        <time>2012-11-24T16:16:27.000Z</time>
      </trkpt>
      <trkpt lat="46.76224" lon="5.53246">
        <ele>267.9</ele>
        <time>2012-11-24T16:16:28.000Z</time>
      </trkpt>
      <trkpt lat="46.76224" lon="5.5325">
        <ele>267.8</ele>
        <time>2012-11-24T16:16:31.000Z</time>
      </trkpt>
      <trkpt lat="46.76225" lon="5.53252">
        <ele>267.8</ele>
        <time>2012-11-24T16:16:32.000Z</time>
      </trkpt>
      <trkpt lat="46.76225" lon="5.53257">
        <ele>267.5</ele>
        <time>2012-11-24T16:16:35.000Z</time>
      </trkpt>
      <trkpt lat="46.76225" lon="5.53259">
        <ele>267.4</ele>
        <time>2012-11-24T16:16:36.000Z</time>
      </trkpt>
      <trkpt lat="46.76226" lon="5.53263">
        <ele>267.7</ele>
        <time>2012-11-24T16:16:39.000Z</time>
      </trkpt>
      <trkpt lat="46.76226" lon="5.53265">
        <ele>267.6</ele>
        <time>2012-11-24T16:16:40.000Z</time>
      </trkpt>
      <trkpt lat="46.76227" lon="5.53272">
        <ele>267.2</ele>
        <time>2012-11-24T16:16:44.000Z</time>
      </trkpt>
      <trkpt lat="46.76227" lon="5.53273">
        <ele>267.3</ele>
        <time>2012-11-24T16:16:45.000Z</time>
      </trkpt>
      <trkpt lat="46.76228" lon="5.53279">
        <ele>267.5</ele>
        <time>2012-11-24T16:16:48.000Z</time>
      </trkpt>
      <trkpt lat="46.76228" lon="5.5328">
        <ele>267.7</ele>
        <time>2012-11-24T16:16:49.000Z</time>
      </trkpt>
      <trkpt lat="46.76229" lon="5.53285">
        <ele>267.9</ele>
        <time>2012-11-24T16:16:52.000Z</time>
      </trkpt>
      <trkpt lat="46.76229" lon="5.53287">
        <ele>268.1</ele>
        <time>2012-11-24T16:16:53.000Z</time>
      </trkpt>
      <trkpt lat="46.7623" lon="5.53292">
        <ele>268.5</ele>
        <time>2012-11-24T16:16:56.000Z</time>
      </trkpt>
      <trkpt lat="46.7623" lon="5.53294">
        <ele>268.4</ele>
        <time>2012-11-24T16:16:57.000Z</time>
      </trkpt>
      <trkpt lat="46.76231" lon="5.533">
        <ele>268.8</ele>
        <time>2012-11-24T16:17:00.000Z</time>
      </trkpt>
      <trkpt lat="46.76231" lon="5.53301">
        <ele>268.7</ele>
        <time>2012-11-24T16:17:01.000Z</time>
      </trkpt>
      <trkpt lat="46.76231" lon="5.53307">
        <ele>268.8</ele>
        <time>2012-11-24T16:17:04.000Z</time>
      </trkpt>
      <trkpt lat="46.76231" lon="5.53309">
        <ele>268.9</ele>
        <time>2012-11-24T16:17:05.000Z</time>
      </trkpt>
      <trkpt lat="46.76233" lon="5.53314">
        <ele>269.5</ele>
        <time>2012-11-24T16:17:08.000Z</time>
      </trkpt>
      <trkpt lat="46.76233" lon="5.53315">
        <ele>269.6</ele>
        <time>2012-11-24T16:17:09.000Z</time>
      </trkpt>
      <trkpt lat="46.76234" lon="5.5332">
        <ele>269.6</ele>
        <time>2012-11-24T16:17:12.000Z</time>
      </trkpt>
      <trkpt lat="46.76235" lon="5.53321">
        <ele>269.5</ele>
        <time>2012-11-24T16:17:13.000Z</time>
      </trkpt>
      <trkpt lat="46.76236" lon="5.53327">
        <ele>269.6</ele>
        <time>2012-11-24T16:17:17.000Z</time>
      </trkpt>
      <trkpt lat="46.76236" lon="5.53329">
        <ele>269.9</ele>
        <time>2012-11-24T16:17:18.000Z</time>
      </trkpt>
      <trkpt lat="46.76237" lon="5.53334">
        <ele>270.1</ele>
        <time>2012-11-24T16:17:21.000Z</time>
      </trkpt>
      <trkpt lat="46.76237" lon="5.53336">
        <ele>270</ele>
        <time>2012-11-24T16:17:22.000Z</time>
      </trkpt>
      <trkpt lat="46.76238" lon="5.53342">
        <ele>269.8</ele>
        <time>2012-11-24T16:17:26.000Z</time>
      </trkpt>
      <trkpt lat="46.76239" lon="5.53343">
        <ele>269.6</ele>
        <time>2012-11-24T16:17:27.000Z</time>
      </trkpt>
      <trkpt lat="46.7624" lon="5.53349">
        <ele>269.2</ele>
        <time>2012-11-24T16:17:31.000Z</time>
      </trkpt>
      <trkpt lat="46.7624" lon="5.53351">
        <ele>269.1</ele>
        <time>2012-11-24T16:17:32.000Z</time>
      </trkpt>
      <trkpt lat="46.7624" lon="5.53357">
        <ele>268.9</ele>
        <time>2012-11-24T16:17:36.000Z</time>
      </trkpt>
      <trkpt lat="46.76241" lon="5.53359">
        <ele>268.9</ele>
        <time>2012-11-24T16:17:37.000Z</time>
      </trkpt>
      <trkpt lat="46.76241" lon="5.53363">
        <ele>268.9</ele>
        <time>2012-11-24T16:17:40.000Z</time>
      </trkpt>
      <trkpt lat="46.76242" lon="5.53365">
        <ele>269</ele>
        <time>2012-11-24T16:17:41.000Z</time>
      </trkpt>
      <trkpt lat="46.76242" lon="5.5337">
        <ele>268.7</ele>
        <time>2012-11-24T16:17:44.000Z</time>
      </trkpt>
      <trkpt lat="46.76242" lon="5.53372">
        <ele>268.6</ele>
        <time>2012-11-24T16:17:45.000Z</time>
      </trkpt>
      <trkpt lat="46.76243" lon="5.53377">
        <ele>268.6</ele>
        <time>2012-11-24T16:17:48.000Z</time>
      </trkpt>
      <trkpt lat="46.76243" lon="5.53378">
        <ele>268.5</ele>
        <time>2012-11-24T16:17:49.000Z</time>
      </trkpt>
      <trkpt lat="46.76244" lon="5.53383">
        <ele>268.4</ele>
        <time>2012-11-24T16:17:52.000Z</time>
      </trkpt>
      <trkpt lat="46.76244" lon="5.53385">
        <ele>268.3</ele>
        <time>2012-11-24T16:17:53.000Z</time>
      </trkpt>
      <trkpt lat="46.76245" lon="5.5339">
        <ele>268.3</ele>
        <time>2012-11-24T16:17:56.000Z</time>
      </trkpt>
      <trkpt lat="46.76245" lon="5.53392">
        <ele>268.3</ele>
        <time>2012-11-24T16:17:57.000Z</time>
      </trkpt>
      <trkpt lat="46.76246" lon="5.53397">
        <ele>268.4</ele>
        <time>2012-11-24T16:18:00.000Z</time>
      </trkpt>
      <trkpt lat="46.76246" lon="5.53399">
        <ele>268.4</ele>
        <time>2012-11-24T16:18:01.000Z</time>
      </trkpt>
      <trkpt lat="46.76246" lon="5.53404">
        <ele>268.4</ele>
        <time>2012-11-24T16:18:04.000Z</time>
      </trkpt>
      <trkpt lat="46.76247" lon="5.53406">
        <ele>268.5</ele>
        <time>2012-11-24T16:18:05.000Z</time>
      </trkpt>
      <trkpt lat="46.76247" lon="5.53412">
        <ele>268.7</ele>
        <time>2012-11-24T16:18:08.000Z</time>
      </trkpt>
      <trkpt lat="46.76248" lon="5.53413">
        <ele>268.7</ele>
        <time>2012-11-24T16:18:09.000Z</time>
      </trkpt>
      <trkpt lat="46.76249" lon="5.53418">
        <ele>268.3</ele>
        <time>2012-11-24T16:18:12.000Z</time>
      </trkpt>
      <trkpt lat="46.76249" lon="5.53419">
        <ele>268.3</ele>
        <time>2012-11-24T16:18:13.000Z</time>
      </trkpt>
      <trkpt lat="46.7625" lon="5.53425">
        <ele>268.6</ele>
        <time>2012-11-24T16:18:16.000Z</time>
      </trkpt>
      <trkpt lat="46.7625" lon="5.53426">
        <ele>268.6</ele>
        <time>2012-11-24T16:18:17.000Z</time>
      </trkpt>
      <trkpt lat="46.76251" lon="5.53432">
        <ele>268.9</ele>
        <time>2012-11-24T16:18:20.000Z</time>
      </trkpt>
      <trkpt lat="46.76251" lon="5.53434">
        <ele>268.9</ele>
        <time>2012-11-24T16:18:21.000Z</time>
      </trkpt>
      <trkpt lat="46.76252" lon="5.53439">
        <ele>268.9</ele>
        <time>2012-11-24T16:18:24.000Z</time>
      </trkpt>
      <trkpt lat="46.76252" lon="5.53441">
        <ele>269</ele>
        <time>2012-11-24T16:18:25.000Z</time>
      </trkpt>
      <trkpt lat="46.76253" lon="5.53446">
        <ele>269.2</ele>
        <time>2012-11-24T16:18:28.000Z</time>
      </trkpt>
      <trkpt lat="46.76253" lon="5.53448">
        <ele>269.4</ele>
        <time>2012-11-24T16:18:29.000Z</time>
      </trkpt>
      <trkpt lat="46.76254" lon="5.53454">
        <ele>269.9</ele>
        <time>2012-11-24T16:18:32.000Z</time>
      </trkpt>
      <trkpt lat="46.76254" lon="5.53456">
        <ele>269.9</ele>
        <time>2012-11-24T16:18:33.000Z</time>
      </trkpt>
      <trkpt lat="46.76255" lon="5.53461">
        <ele>270.1</ele>
        <time>2012-11-24T16:18:36.000Z</time>
      </trkpt>
      <trkpt lat="46.76255" lon="5.53463">
        <ele>270.1</ele>
        <time>2012-11-24T16:18:37.000Z</time>
      </trkpt>
      <trkpt lat="46.76256" lon="5.53469">
        <ele>270.2</ele>
        <time>2012-11-24T16:18:40.000Z</time>
      </trkpt>
      <trkpt lat="46.76256" lon="5.5347">
        <ele>270.2</ele>
        <time>2012-11-24T16:18:41.000Z</time>
      </trkpt>
      <trkpt lat="46.76257" lon="5.53476">
        <ele>270.3</ele>
        <time>2012-11-24T16:18:44.000Z</time>
      </trkpt>
      <trkpt lat="46.76258" lon="5.53478">
        <ele>270.4</ele>
        <time>2012-11-24T16:18:45.000Z</time>
      </trkpt>
      <trkpt lat="46.76259" lon="5.53484">
        <ele>271.1</ele>
        <time>2012-11-24T16:18:48.000Z</time>
      </trkpt>
      <trkpt lat="46.76259" lon="5.53486">
        <ele>271.3</ele>
        <time>2012-11-24T16:18:49.000Z</time>
      </trkpt>
      <trkpt lat="46.76259" lon="5.53492">
        <ele>271.8</ele>
        <time>2012-11-24T16:18:52.000Z</time>
      </trkpt>
      <trkpt lat="46.76259" lon="5.53494">
        <ele>272</ele>
        <time>2012-11-24T16:18:53.000Z</time>
      </trkpt>
      <trkpt lat="46.7626" lon="5.53499">
        <ele>271.7</ele>
        <time>2012-11-24T16:18:56.000Z</time>
      </trkpt>
      <trkpt lat="46.7626" lon="5.53501">
        <ele>271.7</ele>
        <time>2012-11-24T16:18:57.000Z</time>
      </trkpt>
      <trkpt lat="46.76261" lon="5.53506">
        <ele>272.2</ele>
        <time>2012-11-24T16:19:00.000Z</time>
      </trkpt>
      <trkpt lat="46.76261" lon="5.53508">
        <ele>272.3</ele>
        <time>2012-11-24T16:19:01.000Z</time>
      </trkpt>
      <trkpt lat="46.76262" lon="5.53512">
        <ele>273</ele>
        <time>2012-11-24T16:19:03.000Z</time>
      </trkpt>
      <trkpt lat="46.76262" lon="5.53514">
        <ele>273.5</ele>
        <time>2012-11-24T16:19:04.000Z</time>
      </trkpt>
      <trkpt lat="46.76262" lon="5.53519">
        <ele>274.1</ele>
        <time>2012-11-24T16:19:06.000Z</time>
      </trkpt>
      <trkpt lat="46.76262" lon="5.53521">
        <ele>274.3</ele>
        <time>2012-11-24T16:19:07.000Z</time>
      </trkpt>
      <trkpt lat="46.76262" lon="5.53527">
        <ele>274.4</ele>
        <time>2012-11-24T16:19:10.000Z</time>
      </trkpt>
      <trkpt lat="46.76261" lon="5.53529">
        <ele>274.4</ele>
        <time>2012-11-24T16:19:11.000Z</time>
      </trkpt>
      <trkpt lat="46.76259" lon="5.53534">
        <ele>274.4</ele>
        <time>2012-11-24T16:19:14.000Z</time>
      </trkpt>
      <trkpt lat="46.76258" lon="5.53535">
        <ele>274.3</ele>
        <time>2012-11-24T16:19:15.000Z</time>
      </trkpt>
      <trkpt lat="46.76255" lon="5.53539">
        <ele>272.8</ele>
        <time>2012-11-24T16:19:18.000Z</time>
      </trkpt>
      <trkpt lat="46.76253" lon="5.5354">
        <ele>273.2</ele>
        <time>2012-11-24T16:19:19.000Z</time>
      </trkpt>
      <trkpt lat="46.76251" lon="5.53543">
        <ele>274.4</ele>
        <time>2012-11-24T16:19:21.000Z</time>
      </trkpt>
      <trkpt lat="46.7625" lon="5.53545">
        <ele>274.8</ele>
        <time>2012-11-24T16:19:22.000Z</time>
      </trkpt>
      <trkpt lat="46.76247" lon="5.53548">
        <ele>275.6</ele>
        <time>2012-11-24T16:19:24.000Z</time>
      </trkpt>
      <trkpt lat="46.76246" lon="5.5355">
        <ele>275.7</ele>
        <time>2012-11-24T16:19:25.000Z</time>
      </trkpt>
      <trkpt lat="46.76243" lon="5.53552">
        <ele>276.1</ele>
        <time>2012-11-24T16:19:27.000Z</time>
      </trkpt>
      <trkpt lat="46.76242" lon="5.53553">
        <ele>276.4</ele>
        <time>2012-11-24T16:19:28.000Z</time>
      </trkpt>
      <trkpt lat="46.76239" lon="5.53555">
        <ele>277</ele>
        <time>2012-11-24T16:19:30.000Z</time>
      </trkpt>
      <trkpt lat="46.76238" lon="5.53556">
        <ele>277.3</ele>
        <time>2012-11-24T16:19:31.000Z</time>
      </trkpt>
      <trkpt lat="46.76235" lon="5.53558">
        <ele>277.8</ele>
        <time>2012-11-24T16:19:33.000Z</time>
      </trkpt>
      <trkpt lat="46.76233" lon="5.53559">
        <ele>278.3</ele>
        <time>2012-11-24T16:19:34.000Z</time>
      </trkpt>
      <trkpt lat="46.76229" lon="5.53561">
        <ele>278.8</ele>
        <time>2012-11-24T16:19:37.000Z</time>
      </trkpt>
      <trkpt lat="46.76228" lon="5.53562">
        <ele>278.8</ele>
        <time>2012-11-24T16:19:38.000Z</time>
      </trkpt>
      <trkpt lat="46.76224" lon="5.53564">
        <ele>279</ele>
        <time>2012-11-24T16:19:41.000Z</time>
      </trkpt>
      <trkpt lat="46.76222" lon="5.53564">
        <ele>279.3</ele>
        <time>2012-11-24T16:19:42.000Z</time>
      </trkpt>
      <trkpt lat="46.76218" lon="5.53566">
        <ele>280.5</ele>
        <time>2012-11-24T16:19:45.000Z</time>
      </trkpt>
      <trkpt lat="46.76217" lon="5.53567">
        <ele>280.7</ele>
        <time>2012-11-24T16:19:46.000Z</time>
      </trkpt>
      <trkpt lat="46.76213" lon="5.53569">
        <ele>281.1</ele>
        <time>2012-11-24T16:19:49.000Z</time>
      </trkpt>
      <trkpt lat="46.76211" lon="5.53569">
        <ele>281.2</ele>
        <time>2012-11-24T16:19:50.000Z</time>
      </trkpt>
      <trkpt lat="46.76207" lon="5.5357">
        <ele>281.9</ele>
        <time>2012-11-24T16:19:53.000Z</time>
      </trkpt>
      <trkpt lat="46.76206" lon="5.5357">
        <ele>282</ele>
        <time>2012-11-24T16:19:54.000Z</time>
      </trkpt>
      <trkpt lat="46.76202" lon="5.53571">
        <ele>282.3</ele>
        <time>2012-11-24T16:19:57.000Z</time>
      </trkpt>
      <trkpt lat="46.76201" lon="5.53571">
        <ele>282.2</ele>
        <time>2012-11-24T16:19:58.000Z</time>
      </trkpt>
      <trkpt lat="46.76197" lon="5.5357">
        <ele>282.8</ele>
        <time>2012-11-24T16:20:02.000Z</time>
      </trkpt>
      <trkpt lat="46.76196" lon="5.5357">
        <ele>282.5</ele>
        <time>2012-11-24T16:20:03.000Z</time>
      </trkpt>
      <trkpt lat="46.76192" lon="5.53567">
        <ele>281.8</ele>
        <time>2012-11-24T16:20:07.000Z</time>
      </trkpt>
      <trkpt lat="46.76191" lon="5.53566">
        <ele>281.1</ele>
        <time>2012-11-24T16:20:08.000Z</time>
      </trkpt>
      <trkpt lat="46.76191" lon="5.53561">
        <ele>277.9</ele>
        <time>2012-11-24T16:20:19.000Z</time>
      </trkpt>
      <trkpt lat="46.76191" lon="5.5356">
        <ele>277.9</ele>
        <time>2012-11-24T16:20:20.000Z</time>
      </trkpt>
      <trkpt lat="46.76188" lon="5.53555">
        <ele>277.9</ele>
        <time>2012-11-24T16:20:26.000Z</time>
      </trkpt>
      <trkpt lat="46.76191" lon="5.53571">
        <ele>276.4</ele>
        <time>2012-11-24T16:20:34.000Z</time>
      </trkpt>
      <trkpt lat="46.7619" lon="5.53569">
        <ele>275.8</ele>
        <time>2012-11-24T16:20:37.000Z</time>
      </trkpt>
    </trkseg>
  </trk>
</gpx>